<?xml version="1.0" encoding="UTF-8" standalone="no" ?>
<gpx xmlns="http://www.topografix.com/GPX/1/1" xmlns:xsi="http://www.w3.org/2001/XMLSchema-instance" xsi:schemaLocation="http://www.topografix.com/GPX/1/1 http://www.topografix.com/GPX/1/1/gpx.xsd" version="1.1" creator="VisuGPX - https://www.visugpx.com">
  <metadata>
    <name>VTT autour de Cordes-sur-ciel</name>
    <desc><![CDATA[Circuit de 60 km au départ des Cabannes (mais vous pouvez partir aussi de Milhars).
Les premiers kilomètres longent le Cérou et passent par le magnifique site protégé des dunes rouges de Maraval, site privé ouvert aux randonneurs. Respectez le site et restez sur les traces existantes, le plaisir n'en sera pas moindre.
Après Milhars, le circuit remonte la vallée du Bonnan (il y a des variantes) pour rejoindre le plateau et le Causse et les vignobles du Gaillacois avant de revenir sur Cordes-sur-ciel. Il y a un peu de goudron sur la deuxième moitié du circuit mais il réserve de bonnes surprises ... Belle variété des terrains parcourus, de beaux panoramas, une bonne partie du circuit est ombragée.
Comme dans certaines de mes traces, il y a une portion « hors sentier » qui tombe au-dessus d'une bergerie et rejoint une petite route, passez doucement ...
Plusieurs itinéraires VTT ont été tracés et sont balisés dans le secteur, la trace du jour suit en partie (dans l'autre sens) ou croise le superbe n°33 que vous pouvez prendre au départ de Milhars (68 km, il passe à Bruniquel).
Et comme à chaque publication sur visugpx, le dénivelé cumulé affiché est inférieur au dénivelé noté sur mon gps ...

Thierry
]]></desc>
  </metadata>
  <trk>
    <name><![CDATA[Tracé actuel: 08 SEP 2018 09:16]]></name>
    <trkseg>
      <trkpt lat="44.06681" lon="1.94133">
        <ele>175.58</ele>
        <time>2018-09-08T07:16:16Z</time>
      </trkpt>
      <trkpt lat="44.06682" lon="1.94134">
        <ele>175.1</ele>
        <time>2018-09-08T07:16:23Z</time>
      </trkpt>
      <trkpt lat="44.06684" lon="1.94133">
        <ele>175.1</ele>
        <time>2018-09-08T07:16:24Z</time>
      </trkpt>
      <trkpt lat="44.06685" lon="1.94131">
        <ele>176.06</ele>
        <time>2018-09-08T07:16:25Z</time>
      </trkpt>
      <trkpt lat="44.06687" lon="1.94128">
        <ele>175.58</ele>
        <time>2018-09-08T07:16:26Z</time>
      </trkpt>
      <trkpt lat="44.0669" lon="1.94127">
        <ele>175.58</ele>
        <time>2018-09-08T07:16:27Z</time>
      </trkpt>
      <trkpt lat="44.06693" lon="1.94124">
        <ele>175.58</ele>
        <time>2018-09-08T07:16:28Z</time>
      </trkpt>
      <trkpt lat="44.06697" lon="1.94122">
        <ele>175.58</ele>
        <time>2018-09-08T07:16:29Z</time>
      </trkpt>
      <trkpt lat="44.06701" lon="1.9412">
        <ele>174.62</ele>
        <time>2018-09-08T07:16:30Z</time>
      </trkpt>
      <trkpt lat="44.06706" lon="1.94118">
        <ele>175.1</ele>
        <time>2018-09-08T07:16:31Z</time>
      </trkpt>
      <trkpt lat="44.06754" lon="1.94093">
        <ele>172.21</ele>
        <time>2018-09-08T07:16:39Z</time>
      </trkpt>
      <trkpt lat="44.06767" lon="1.94083">
        <ele>171.73</ele>
        <time>2018-09-08T07:16:41Z</time>
      </trkpt>
      <trkpt lat="44.06772" lon="1.94078">
        <ele>171.73</ele>
        <time>2018-09-08T07:16:42Z</time>
      </trkpt>
      <trkpt lat="44.06777" lon="1.94072">
        <ele>172.21</ele>
        <time>2018-09-08T07:16:43Z</time>
      </trkpt>
      <trkpt lat="44.06783" lon="1.94055">
        <ele>171.73</ele>
        <time>2018-09-08T07:16:45Z</time>
      </trkpt>
      <trkpt lat="44.06793" lon="1.94027">
        <ele>171.73</ele>
        <time>2018-09-08T07:16:49Z</time>
      </trkpt>
      <trkpt lat="44.06856" lon="1.94014">
        <ele>171.73</ele>
        <time>2018-09-08T07:17:30Z</time>
      </trkpt>
      <trkpt lat="44.06904" lon="1.93934">
        <ele>171.25</ele>
        <time>2018-09-08T07:17:44Z</time>
      </trkpt>
      <trkpt lat="44.06912" lon="1.93907">
        <ele>171.25</ele>
        <time>2018-09-08T07:17:48Z</time>
      </trkpt>
      <trkpt lat="44.06916" lon="1.93857">
        <ele>170.29</ele>
        <time>2018-09-08T07:17:55Z</time>
      </trkpt>
      <trkpt lat="44.06924" lon="1.93827">
        <ele>170.77</ele>
        <time>2018-09-08T07:18:00Z</time>
      </trkpt>
      <trkpt lat="44.0694" lon="1.93779">
        <ele>170.29</ele>
        <time>2018-09-08T07:18:08Z</time>
      </trkpt>
      <trkpt lat="44.06972" lon="1.93723">
        <ele>170.29</ele>
        <time>2018-09-08T07:18:20Z</time>
      </trkpt>
      <trkpt lat="44.06999" lon="1.93682">
        <ele>169.81</ele>
        <time>2018-09-08T07:18:30Z</time>
      </trkpt>
      <trkpt lat="44.07002" lon="1.93677">
        <ele>170.29</ele>
        <time>2018-09-08T07:18:31Z</time>
      </trkpt>
      <trkpt lat="44.07007" lon="1.9366">
        <ele>169.81</ele>
        <time>2018-09-08T07:18:34Z</time>
      </trkpt>
      <trkpt lat="44.07027" lon="1.93585">
        <ele>169.81</ele>
        <time>2018-09-08T07:18:48Z</time>
      </trkpt>
      <trkpt lat="44.07038" lon="1.93562">
        <ele>169.33</ele>
        <time>2018-09-08T07:18:53Z</time>
      </trkpt>
      <trkpt lat="44.07046" lon="1.93562">
        <ele>169.81</ele>
        <time>2018-09-08T07:18:55Z</time>
      </trkpt>
      <trkpt lat="44.07061" lon="1.93572">
        <ele>169.81</ele>
        <time>2018-09-08T07:18:59Z</time>
      </trkpt>
      <trkpt lat="44.07081" lon="1.93585">
        <ele>169.33</ele>
        <time>2018-09-08T07:19:05Z</time>
      </trkpt>
      <trkpt lat="44.07083" lon="1.93583">
        <ele>169.81</ele>
        <time>2018-09-08T07:19:06Z</time>
      </trkpt>
      <trkpt lat="44.07092" lon="1.93559">
        <ele>169.81</ele>
        <time>2018-09-08T07:19:11Z</time>
      </trkpt>
      <trkpt lat="44.07104" lon="1.93529">
        <ele>169.81</ele>
        <time>2018-09-08T07:19:16Z</time>
      </trkpt>
      <trkpt lat="44.07157" lon="1.93455">
        <ele>169.81</ele>
        <time>2018-09-08T07:19:30Z</time>
      </trkpt>
      <trkpt lat="44.07161" lon="1.93452">
        <ele>169.81</ele>
        <time>2018-09-08T07:19:31Z</time>
      </trkpt>
      <trkpt lat="44.07166" lon="1.93452">
        <ele>170.77</ele>
        <time>2018-09-08T07:19:32Z</time>
      </trkpt>
      <trkpt lat="44.0717" lon="1.93453">
        <ele>169.81</ele>
        <time>2018-09-08T07:19:33Z</time>
      </trkpt>
      <trkpt lat="44.07174" lon="1.93455">
        <ele>170.29</ele>
        <time>2018-09-08T07:19:34Z</time>
      </trkpt>
      <trkpt lat="44.07179" lon="1.93458">
        <ele>170.29</ele>
        <time>2018-09-08T07:19:35Z</time>
      </trkpt>
      <trkpt lat="44.07255" lon="1.93506">
        <ele>170.77</ele>
        <time>2018-09-08T07:19:51Z</time>
      </trkpt>
      <trkpt lat="44.07281" lon="1.93517">
        <ele>172.69</ele>
        <time>2018-09-08T07:19:57Z</time>
      </trkpt>
      <trkpt lat="44.07285" lon="1.93517">
        <ele>172.69</ele>
        <time>2018-09-08T07:19:58Z</time>
      </trkpt>
      <trkpt lat="44.07288" lon="1.93518">
        <ele>172.69</ele>
        <time>2018-09-08T07:19:59Z</time>
      </trkpt>
      <trkpt lat="44.07302" lon="1.93514">
        <ele>172.69</ele>
        <time>2018-09-08T07:20:03Z</time>
      </trkpt>
      <trkpt lat="44.07306" lon="1.9351">
        <ele>172.69</ele>
        <time>2018-09-08T07:20:04Z</time>
      </trkpt>
      <trkpt lat="44.07309" lon="1.93505">
        <ele>172.21</ele>
        <time>2018-09-08T07:20:05Z</time>
      </trkpt>
      <trkpt lat="44.07319" lon="1.93488">
        <ele>171.73</ele>
        <time>2018-09-08T07:20:08Z</time>
      </trkpt>
      <trkpt lat="44.07324" lon="1.93484">
        <ele>171.73</ele>
        <time>2018-09-08T07:20:09Z</time>
      </trkpt>
      <trkpt lat="44.07329" lon="1.93482">
        <ele>171.73</ele>
        <time>2018-09-08T07:20:10Z</time>
      </trkpt>
      <trkpt lat="44.07334" lon="1.93481">
        <ele>171.25</ele>
        <time>2018-09-08T07:20:11Z</time>
      </trkpt>
      <trkpt lat="44.0734" lon="1.93481">
        <ele>172.21</ele>
        <time>2018-09-08T07:20:12Z</time>
      </trkpt>
      <trkpt lat="44.07345" lon="1.93482">
        <ele>172.21</ele>
        <time>2018-09-08T07:20:13Z</time>
      </trkpt>
      <trkpt lat="44.0735" lon="1.93483">
        <ele>171.73</ele>
        <time>2018-09-08T07:20:14Z</time>
      </trkpt>
      <trkpt lat="44.07355" lon="1.93483">
        <ele>172.21</ele>
        <time>2018-09-08T07:20:15Z</time>
      </trkpt>
      <trkpt lat="44.07359" lon="1.93483">
        <ele>172.21</ele>
        <time>2018-09-08T07:20:16Z</time>
      </trkpt>
      <trkpt lat="44.07363" lon="1.93481">
        <ele>172.69</ele>
        <time>2018-09-08T07:20:17Z</time>
      </trkpt>
      <trkpt lat="44.07366" lon="1.93477">
        <ele>173.17</ele>
        <time>2018-09-08T07:20:18Z</time>
      </trkpt>
      <trkpt lat="44.07369" lon="1.93472">
        <ele>173.17</ele>
        <time>2018-09-08T07:20:19Z</time>
      </trkpt>
      <trkpt lat="44.07371" lon="1.93466">
        <ele>173.17</ele>
        <time>2018-09-08T07:20:20Z</time>
      </trkpt>
      <trkpt lat="44.07408" lon="1.9336">
        <ele>173.66</ele>
        <time>2018-09-08T07:20:37Z</time>
      </trkpt>
      <trkpt lat="44.07452" lon="1.93245">
        <ele>174.62</ele>
        <time>2018-09-08T07:20:57Z</time>
      </trkpt>
      <trkpt lat="44.07469" lon="1.93211">
        <ele>174.14</ele>
        <time>2018-09-08T07:21:03Z</time>
      </trkpt>
      <trkpt lat="44.07473" lon="1.93206">
        <ele>174.14</ele>
        <time>2018-09-08T07:21:04Z</time>
      </trkpt>
      <trkpt lat="44.07476" lon="1.932">
        <ele>174.14</ele>
        <time>2018-09-08T07:21:05Z</time>
      </trkpt>
      <trkpt lat="44.07479" lon="1.93195">
        <ele>174.14</ele>
        <time>2018-09-08T07:21:06Z</time>
      </trkpt>
      <trkpt lat="44.07483" lon="1.9319">
        <ele>174.62</ele>
        <time>2018-09-08T07:21:07Z</time>
      </trkpt>
      <trkpt lat="44.07542" lon="1.93085">
        <ele>175.58</ele>
        <time>2018-09-08T07:21:27Z</time>
      </trkpt>
      <trkpt lat="44.07546" lon="1.92993">
        <ele>176.06</ele>
        <time>2018-09-08T07:21:41Z</time>
      </trkpt>
      <trkpt lat="44.07514" lon="1.92899">
        <ele>174.62</ele>
        <time>2018-09-08T07:21:55Z</time>
      </trkpt>
      <trkpt lat="44.075" lon="1.92876">
        <ele>174.62</ele>
        <time>2018-09-08T07:21:59Z</time>
      </trkpt>
      <trkpt lat="44.07462" lon="1.92805">
        <ele>173.17</ele>
        <time>2018-09-08T07:22:11Z</time>
      </trkpt>
      <trkpt lat="44.07444" lon="1.92738">
        <ele>173.66</ele>
        <time>2018-09-08T07:22:22Z</time>
      </trkpt>
      <trkpt lat="44.07415" lon="1.92694">
        <ele>175.58</ele>
        <time>2018-09-08T07:22:33Z</time>
      </trkpt>
      <trkpt lat="44.0739" lon="1.92672">
        <ele>176.06</ele>
        <time>2018-09-08T07:22:40Z</time>
      </trkpt>
      <trkpt lat="44.07386" lon="1.92669">
        <ele>175.58</ele>
        <time>2018-09-08T07:22:41Z</time>
      </trkpt>
      <trkpt lat="44.07372" lon="1.92658">
        <ele>175.1</ele>
        <time>2018-09-08T07:22:44Z</time>
      </trkpt>
      <trkpt lat="44.07362" lon="1.92652">
        <ele>175.1</ele>
        <time>2018-09-08T07:22:46Z</time>
      </trkpt>
      <trkpt lat="44.0734" lon="1.92645">
        <ele>172.21</ele>
        <time>2018-09-08T07:22:50Z</time>
      </trkpt>
      <trkpt lat="44.07312" lon="1.92653">
        <ele>169.81</ele>
        <time>2018-09-08T07:22:55Z</time>
      </trkpt>
      <trkpt lat="44.07293" lon="1.9266">
        <ele>168.85</ele>
        <time>2018-09-08T07:22:58Z</time>
      </trkpt>
      <trkpt lat="44.07271" lon="1.92662">
        <ele>167.41</ele>
        <time>2018-09-08T07:23:03Z</time>
      </trkpt>
      <trkpt lat="44.07269" lon="1.92659">
        <ele>166.93</ele>
        <time>2018-09-08T07:23:04Z</time>
      </trkpt>
      <trkpt lat="44.07267" lon="1.92655">
        <ele>167.89</ele>
        <time>2018-09-08T07:23:05Z</time>
      </trkpt>
      <trkpt lat="44.07268" lon="1.9265">
        <ele>168.37</ele>
        <time>2018-09-08T07:23:06Z</time>
      </trkpt>
      <trkpt lat="44.07268" lon="1.92645">
        <ele>167.41</ele>
        <time>2018-09-08T07:23:07Z</time>
      </trkpt>
      <trkpt lat="44.0727" lon="1.9264">
        <ele>167.41</ele>
        <time>2018-09-08T07:23:08Z</time>
      </trkpt>
      <trkpt lat="44.07281" lon="1.92576">
        <ele>167.41</ele>
        <time>2018-09-08T07:23:18Z</time>
      </trkpt>
      <trkpt lat="44.07281" lon="1.92569">
        <ele>167.89</ele>
        <time>2018-09-08T07:23:19Z</time>
      </trkpt>
      <trkpt lat="44.07281" lon="1.92546">
        <ele>167.41</ele>
        <time>2018-09-08T07:23:22Z</time>
      </trkpt>
      <trkpt lat="44.0728" lon="1.92538">
        <ele>167.89</ele>
        <time>2018-09-08T07:23:23Z</time>
      </trkpt>
      <trkpt lat="44.0728" lon="1.92531">
        <ele>167.89</ele>
        <time>2018-09-08T07:23:24Z</time>
      </trkpt>
      <trkpt lat="44.07276" lon="1.92467">
        <ele>169.33</ele>
        <time>2018-09-08T07:23:33Z</time>
      </trkpt>
      <trkpt lat="44.07274" lon="1.92461">
        <ele>169.33</ele>
        <time>2018-09-08T07:23:34Z</time>
      </trkpt>
      <trkpt lat="44.07271" lon="1.92455">
        <ele>168.85</ele>
        <time>2018-09-08T07:23:35Z</time>
      </trkpt>
      <trkpt lat="44.07255" lon="1.92418">
        <ele>168.85</ele>
        <time>2018-09-08T07:23:41Z</time>
      </trkpt>
      <trkpt lat="44.07254" lon="1.92412">
        <ele>169.33</ele>
        <time>2018-09-08T07:23:42Z</time>
      </trkpt>
      <trkpt lat="44.07251" lon="1.92406">
        <ele>168.85</ele>
        <time>2018-09-08T07:23:43Z</time>
      </trkpt>
      <trkpt lat="44.07249" lon="1.92399">
        <ele>168.85</ele>
        <time>2018-09-08T07:23:44Z</time>
      </trkpt>
      <trkpt lat="44.07247" lon="1.92392">
        <ele>168.37</ele>
        <time>2018-09-08T07:23:45Z</time>
      </trkpt>
      <trkpt lat="44.0723" lon="1.92344">
        <ele>168.37</ele>
        <time>2018-09-08T07:23:52Z</time>
      </trkpt>
      <trkpt lat="44.07227" lon="1.92339">
        <ele>168.37</ele>
        <time>2018-09-08T07:23:53Z</time>
      </trkpt>
      <trkpt lat="44.07223" lon="1.92335">
        <ele>167.89</ele>
        <time>2018-09-08T07:23:54Z</time>
      </trkpt>
      <trkpt lat="44.07218" lon="1.92334">
        <ele>167.89</ele>
        <time>2018-09-08T07:23:55Z</time>
      </trkpt>
      <trkpt lat="44.07209" lon="1.92336">
        <ele>167.41</ele>
        <time>2018-09-08T07:23:57Z</time>
      </trkpt>
      <trkpt lat="44.07191" lon="1.92346">
        <ele>167.41</ele>
        <time>2018-09-08T07:24:03Z</time>
      </trkpt>
      <trkpt lat="44.07184" lon="1.9235">
        <ele>166.45</ele>
        <time>2018-09-08T07:24:05Z</time>
      </trkpt>
      <trkpt lat="44.07162" lon="1.92365">
        <ele>166.93</ele>
        <time>2018-09-08T07:24:14Z</time>
      </trkpt>
      <trkpt lat="44.07135" lon="1.92375">
        <ele>166.45</ele>
        <time>2018-09-08T07:24:25Z</time>
      </trkpt>
      <trkpt lat="44.07128" lon="1.92379">
        <ele>166.45</ele>
        <time>2018-09-08T07:24:36Z</time>
      </trkpt>
      <trkpt lat="44.07104" lon="1.92387">
        <ele>166.45</ele>
        <time>2018-09-08T07:24:46Z</time>
      </trkpt>
      <trkpt lat="44.07101" lon="1.92384">
        <ele>165.96</ele>
        <time>2018-09-08T07:24:49Z</time>
      </trkpt>
      <trkpt lat="44.07101" lon="1.92382">
        <ele>165.96</ele>
        <time>2018-09-08T07:24:50Z</time>
      </trkpt>
      <trkpt lat="44.071" lon="1.92379">
        <ele>165.96</ele>
        <time>2018-09-08T07:24:51Z</time>
      </trkpt>
      <trkpt lat="44.07089" lon="1.92347">
        <ele>166.45</ele>
        <time>2018-09-08T07:24:58Z</time>
      </trkpt>
      <trkpt lat="44.07061" lon="1.92257">
        <ele>166.93</ele>
        <time>2018-09-08T07:25:14Z</time>
      </trkpt>
      <trkpt lat="44.07051" lon="1.92221">
        <ele>166.93</ele>
        <time>2018-09-08T07:25:20Z</time>
      </trkpt>
      <trkpt lat="44.0704" lon="1.92191">
        <ele>167.41</ele>
        <time>2018-09-08T07:25:25Z</time>
      </trkpt>
      <trkpt lat="44.07004" lon="1.92089">
        <ele>166.45</ele>
        <time>2018-09-08T07:25:41Z</time>
      </trkpt>
      <trkpt lat="44.0697" lon="1.91967">
        <ele>166.45</ele>
        <time>2018-09-08T07:25:59Z</time>
      </trkpt>
      <trkpt lat="44.06964" lon="1.9194">
        <ele>165.96</ele>
        <time>2018-09-08T07:26:03Z</time>
      </trkpt>
      <trkpt lat="44.06961" lon="1.91935">
        <ele>165.96</ele>
        <time>2018-09-08T07:26:04Z</time>
      </trkpt>
      <trkpt lat="44.06958" lon="1.91929">
        <ele>165.96</ele>
        <time>2018-09-08T07:26:05Z</time>
      </trkpt>
      <trkpt lat="44.06955" lon="1.91924">
        <ele>166.45</ele>
        <time>2018-09-08T07:26:06Z</time>
      </trkpt>
      <trkpt lat="44.06951" lon="1.91919">
        <ele>165</ele>
        <time>2018-09-08T07:26:07Z</time>
      </trkpt>
      <trkpt lat="44.06948" lon="1.91913">
        <ele>165</ele>
        <time>2018-09-08T07:26:08Z</time>
      </trkpt>
      <trkpt lat="44.0693" lon="1.91876">
        <ele>164.04</ele>
        <time>2018-09-08T07:26:14Z</time>
      </trkpt>
      <trkpt lat="44.06928" lon="1.91869">
        <ele>164.52</ele>
        <time>2018-09-08T07:26:15Z</time>
      </trkpt>
      <trkpt lat="44.06915" lon="1.91796">
        <ele>164.52</ele>
        <time>2018-09-08T07:26:26Z</time>
      </trkpt>
      <trkpt lat="44.06914" lon="1.91775">
        <ele>164.52</ele>
        <time>2018-09-08T07:26:29Z</time>
      </trkpt>
      <trkpt lat="44.06914" lon="1.91768">
        <ele>164.52</ele>
        <time>2018-09-08T07:26:30Z</time>
      </trkpt>
      <trkpt lat="44.06915" lon="1.91761">
        <ele>165</ele>
        <time>2018-09-08T07:26:31Z</time>
      </trkpt>
      <trkpt lat="44.06915" lon="1.91754">
        <ele>165</ele>
        <time>2018-09-08T07:26:32Z</time>
      </trkpt>
      <trkpt lat="44.06915" lon="1.91747">
        <ele>165</ele>
        <time>2018-09-08T07:26:33Z</time>
      </trkpt>
      <trkpt lat="44.06916" lon="1.91721">
        <ele>165</ele>
        <time>2018-09-08T07:26:37Z</time>
      </trkpt>
      <trkpt lat="44.06915" lon="1.91715">
        <ele>165.48</ele>
        <time>2018-09-08T07:26:38Z</time>
      </trkpt>
      <trkpt lat="44.06914" lon="1.91709">
        <ele>165.48</ele>
        <time>2018-09-08T07:26:39Z</time>
      </trkpt>
      <trkpt lat="44.06913" lon="1.91703">
        <ele>165.48</ele>
        <time>2018-09-08T07:26:40Z</time>
      </trkpt>
      <trkpt lat="44.06911" lon="1.91698">
        <ele>165.48</ele>
        <time>2018-09-08T07:26:41Z</time>
      </trkpt>
      <trkpt lat="44.06908" lon="1.91692">
        <ele>165.96</ele>
        <time>2018-09-08T07:26:42Z</time>
      </trkpt>
      <trkpt lat="44.06904" lon="1.91687">
        <ele>165.96</ele>
        <time>2018-09-08T07:26:43Z</time>
      </trkpt>
      <trkpt lat="44.069" lon="1.91683">
        <ele>165.96</ele>
        <time>2018-09-08T07:26:44Z</time>
      </trkpt>
      <trkpt lat="44.06896" lon="1.91679">
        <ele>165.96</ele>
        <time>2018-09-08T07:26:45Z</time>
      </trkpt>
      <trkpt lat="44.06892" lon="1.91675">
        <ele>165.96</ele>
        <time>2018-09-08T07:26:46Z</time>
      </trkpt>
      <trkpt lat="44.06888" lon="1.91671">
        <ele>165.48</ele>
        <time>2018-09-08T07:26:47Z</time>
      </trkpt>
      <trkpt lat="44.06826" lon="1.91605">
        <ele>165.48</ele>
        <time>2018-09-08T07:27:02Z</time>
      </trkpt>
      <trkpt lat="44.06778" lon="1.91549">
        <ele>165.48</ele>
        <time>2018-09-08T07:27:14Z</time>
      </trkpt>
      <trkpt lat="44.06775" lon="1.91543">
        <ele>165.48</ele>
        <time>2018-09-08T07:27:15Z</time>
      </trkpt>
      <trkpt lat="44.06734" lon="1.91429">
        <ele>165.48</ele>
        <time>2018-09-08T07:27:32Z</time>
      </trkpt>
      <trkpt lat="44.06728" lon="1.91415">
        <ele>165.48</ele>
        <time>2018-09-08T07:27:34Z</time>
      </trkpt>
      <trkpt lat="44.06701" lon="1.91336">
        <ele>166.45</ele>
        <time>2018-09-08T07:27:46Z</time>
      </trkpt>
      <trkpt lat="44.06697" lon="1.9133">
        <ele>166.45</ele>
        <time>2018-09-08T07:27:47Z</time>
      </trkpt>
      <trkpt lat="44.06694" lon="1.91325">
        <ele>166.45</ele>
        <time>2018-09-08T07:27:48Z</time>
      </trkpt>
      <trkpt lat="44.0669" lon="1.91319">
        <ele>165.96</ele>
        <time>2018-09-08T07:27:49Z</time>
      </trkpt>
      <trkpt lat="44.06687" lon="1.91313">
        <ele>165.96</ele>
        <time>2018-09-08T07:27:50Z</time>
      </trkpt>
      <trkpt lat="44.06684" lon="1.91307">
        <ele>165.96</ele>
        <time>2018-09-08T07:27:51Z</time>
      </trkpt>
      <trkpt lat="44.0668" lon="1.91302">
        <ele>166.45</ele>
        <time>2018-09-08T07:27:52Z</time>
      </trkpt>
      <trkpt lat="44.06676" lon="1.91297">
        <ele>166.45</ele>
        <time>2018-09-08T07:27:53Z</time>
      </trkpt>
      <trkpt lat="44.06634" lon="1.91248">
        <ele>166.93</ele>
        <time>2018-09-08T07:28:03Z</time>
      </trkpt>
      <trkpt lat="44.06629" lon="1.91246">
        <ele>166.93</ele>
        <time>2018-09-08T07:28:04Z</time>
      </trkpt>
      <trkpt lat="44.06625" lon="1.91245">
        <ele>167.41</ele>
        <time>2018-09-08T07:28:05Z</time>
      </trkpt>
      <trkpt lat="44.0662" lon="1.91246">
        <ele>167.89</ele>
        <time>2018-09-08T07:28:06Z</time>
      </trkpt>
      <trkpt lat="44.06615" lon="1.91248">
        <ele>167.89</ele>
        <time>2018-09-08T07:28:07Z</time>
      </trkpt>
      <trkpt lat="44.06611" lon="1.91252">
        <ele>167.41</ele>
        <time>2018-09-08T07:28:08Z</time>
      </trkpt>
      <trkpt lat="44.06607" lon="1.91257">
        <ele>167.89</ele>
        <time>2018-09-08T07:28:09Z</time>
      </trkpt>
      <trkpt lat="44.06603" lon="1.9126">
        <ele>167.89</ele>
        <time>2018-09-08T07:28:10Z</time>
      </trkpt>
      <trkpt lat="44.06598" lon="1.91261">
        <ele>168.37</ele>
        <time>2018-09-08T07:28:11Z</time>
      </trkpt>
      <trkpt lat="44.06593" lon="1.9126">
        <ele>168.37</ele>
        <time>2018-09-08T07:28:12Z</time>
      </trkpt>
      <trkpt lat="44.06589" lon="1.91257">
        <ele>168.85</ele>
        <time>2018-09-08T07:28:13Z</time>
      </trkpt>
      <trkpt lat="44.06585" lon="1.91253">
        <ele>168.85</ele>
        <time>2018-09-08T07:28:14Z</time>
      </trkpt>
      <trkpt lat="44.06583" lon="1.91246">
        <ele>169.81</ele>
        <time>2018-09-08T07:28:15Z</time>
      </trkpt>
      <trkpt lat="44.0658" lon="1.9124">
        <ele>169.33</ele>
        <time>2018-09-08T07:28:16Z</time>
      </trkpt>
      <trkpt lat="44.06576" lon="1.91227">
        <ele>169.33</ele>
        <time>2018-09-08T07:28:18Z</time>
      </trkpt>
      <trkpt lat="44.06573" lon="1.91222">
        <ele>169.33</ele>
        <time>2018-09-08T07:28:19Z</time>
      </trkpt>
      <trkpt lat="44.06569" lon="1.91218">
        <ele>169.81</ele>
        <time>2018-09-08T07:28:20Z</time>
      </trkpt>
      <trkpt lat="44.06565" lon="1.91218">
        <ele>169.33</ele>
        <time>2018-09-08T07:28:21Z</time>
      </trkpt>
      <trkpt lat="44.06561" lon="1.91219">
        <ele>168.85</ele>
        <time>2018-09-08T07:28:22Z</time>
      </trkpt>
      <trkpt lat="44.06556" lon="1.9122">
        <ele>169.81</ele>
        <time>2018-09-08T07:28:23Z</time>
      </trkpt>
      <trkpt lat="44.06547" lon="1.91227">
        <ele>169.33</ele>
        <time>2018-09-08T07:28:25Z</time>
      </trkpt>
      <trkpt lat="44.06504" lon="1.91287">
        <ele>171.25</ele>
        <time>2018-09-08T07:28:38Z</time>
      </trkpt>
      <trkpt lat="44.065" lon="1.9129">
        <ele>172.21</ele>
        <time>2018-09-08T07:28:39Z</time>
      </trkpt>
      <trkpt lat="44.06496" lon="1.91292">
        <ele>172.21</ele>
        <time>2018-09-08T07:28:40Z</time>
      </trkpt>
      <trkpt lat="44.06493" lon="1.91293">
        <ele>171.73</ele>
        <time>2018-09-08T07:28:41Z</time>
      </trkpt>
      <trkpt lat="44.06489" lon="1.91292">
        <ele>172.69</ele>
        <time>2018-09-08T07:28:42Z</time>
      </trkpt>
      <trkpt lat="44.06484" lon="1.91291">
        <ele>172.21</ele>
        <time>2018-09-08T07:28:43Z</time>
      </trkpt>
      <trkpt lat="44.0648" lon="1.91289">
        <ele>172.69</ele>
        <time>2018-09-08T07:28:44Z</time>
      </trkpt>
      <trkpt lat="44.06476" lon="1.91287">
        <ele>172.69</ele>
        <time>2018-09-08T07:28:45Z</time>
      </trkpt>
      <trkpt lat="44.06453" lon="1.9127">
        <ele>171.25</ele>
        <time>2018-09-08T07:28:55Z</time>
      </trkpt>
      <trkpt lat="44.06453" lon="1.91273">
        <ele>171.73</ele>
        <time>2018-09-08T07:29:36Z</time>
      </trkpt>
      <trkpt lat="44.06444" lon="1.91246">
        <ele>172.21</ele>
        <time>2018-09-08T07:29:51Z</time>
      </trkpt>
      <trkpt lat="44.0642" lon="1.91142">
        <ele>170.29</ele>
        <time>2018-09-08T07:30:04Z</time>
      </trkpt>
      <trkpt lat="44.06382" lon="1.90984">
        <ele>169.33</ele>
        <time>2018-09-08T07:30:21Z</time>
      </trkpt>
      <trkpt lat="44.06341" lon="1.90813">
        <ele>170.77</ele>
        <time>2018-09-08T07:30:40Z</time>
      </trkpt>
      <trkpt lat="44.06317" lon="1.90669">
        <ele>172.69</ele>
        <time>2018-09-08T07:30:58Z</time>
      </trkpt>
      <trkpt lat="44.06332" lon="1.90526">
        <ele>173.17</ele>
        <time>2018-09-08T07:31:16Z</time>
      </trkpt>
      <trkpt lat="44.06377" lon="1.90417">
        <ele>174.14</ele>
        <time>2018-09-08T07:31:31Z</time>
      </trkpt>
      <trkpt lat="44.06402" lon="1.90381">
        <ele>175.58</ele>
        <time>2018-09-08T07:31:38Z</time>
      </trkpt>
      <trkpt lat="44.06403" lon="1.90375">
        <ele>176.06</ele>
        <time>2018-09-08T07:31:39Z</time>
      </trkpt>
      <trkpt lat="44.06402" lon="1.9037">
        <ele>176.06</ele>
        <time>2018-09-08T07:31:40Z</time>
      </trkpt>
      <trkpt lat="44.06401" lon="1.90364">
        <ele>176.06</ele>
        <time>2018-09-08T07:31:41Z</time>
      </trkpt>
      <trkpt lat="44.06399" lon="1.90358">
        <ele>176.54</ele>
        <time>2018-09-08T07:31:42Z</time>
      </trkpt>
      <trkpt lat="44.06398" lon="1.90353">
        <ele>176.06</ele>
        <time>2018-09-08T07:31:43Z</time>
      </trkpt>
      <trkpt lat="44.06405" lon="1.903">
        <ele>178.46</ele>
        <time>2018-09-08T07:31:53Z</time>
      </trkpt>
      <trkpt lat="44.06461" lon="1.90247">
        <ele>179.42</ele>
        <time>2018-09-08T07:32:09Z</time>
      </trkpt>
      <trkpt lat="44.06526" lon="1.90182">
        <ele>179.42</ele>
        <time>2018-09-08T07:32:25Z</time>
      </trkpt>
      <trkpt lat="44.06599" lon="1.9009">
        <ele>178.94</ele>
        <time>2018-09-08T07:32:42Z</time>
      </trkpt>
      <trkpt lat="44.06674" lon="1.89996">
        <ele>179.42</ele>
        <time>2018-09-08T07:32:59Z</time>
      </trkpt>
      <trkpt lat="44.06687" lon="1.8998">
        <ele>178.94</ele>
        <time>2018-09-08T07:33:02Z</time>
      </trkpt>
      <trkpt lat="44.06702" lon="1.89968">
        <ele>178.94</ele>
        <time>2018-09-08T07:33:05Z</time>
      </trkpt>
      <trkpt lat="44.06707" lon="1.89965">
        <ele>178.94</ele>
        <time>2018-09-08T07:33:06Z</time>
      </trkpt>
      <trkpt lat="44.06712" lon="1.89963">
        <ele>178.94</ele>
        <time>2018-09-08T07:33:07Z</time>
      </trkpt>
      <trkpt lat="44.06717" lon="1.89959">
        <ele>178.94</ele>
        <time>2018-09-08T07:33:08Z</time>
      </trkpt>
      <trkpt lat="44.06721" lon="1.89955">
        <ele>178.94</ele>
        <time>2018-09-08T07:33:09Z</time>
      </trkpt>
      <trkpt lat="44.06725" lon="1.89949">
        <ele>178.94</ele>
        <time>2018-09-08T07:33:10Z</time>
      </trkpt>
      <trkpt lat="44.06735" lon="1.8994">
        <ele>178.94</ele>
        <time>2018-09-08T07:33:12Z</time>
      </trkpt>
      <trkpt lat="44.06739" lon="1.89937">
        <ele>178.94</ele>
        <time>2018-09-08T07:33:13Z</time>
      </trkpt>
      <trkpt lat="44.06758" lon="1.89924">
        <ele>178.94</ele>
        <time>2018-09-08T07:33:17Z</time>
      </trkpt>
      <trkpt lat="44.06808" lon="1.89901">
        <ele>177.5</ele>
        <time>2018-09-08T07:33:28Z</time>
      </trkpt>
      <trkpt lat="44.06813" lon="1.89899">
        <ele>177.98</ele>
        <time>2018-09-08T07:33:29Z</time>
      </trkpt>
      <trkpt lat="44.06852" lon="1.89886">
        <ele>176.06</ele>
        <time>2018-09-08T07:33:38Z</time>
      </trkpt>
      <trkpt lat="44.06906" lon="1.89869">
        <ele>175.58</ele>
        <time>2018-09-08T07:33:50Z</time>
      </trkpt>
      <trkpt lat="44.0692" lon="1.89863">
        <ele>175.1</ele>
        <time>2018-09-08T07:33:55Z</time>
      </trkpt>
      <trkpt lat="44.06926" lon="1.89832">
        <ele>177.98</ele>
        <time>2018-09-08T07:34:05Z</time>
      </trkpt>
      <trkpt lat="44.06928" lon="1.89818">
        <ele>180.38</ele>
        <time>2018-09-08T07:34:11Z</time>
      </trkpt>
      <trkpt lat="44.06927" lon="1.89816">
        <ele>179.9</ele>
        <time>2018-09-08T07:34:12Z</time>
      </trkpt>
      <trkpt lat="44.06906" lon="1.89788">
        <ele>183.27</ele>
        <time>2018-09-08T07:34:25Z</time>
      </trkpt>
      <trkpt lat="44.06885" lon="1.89766">
        <ele>186.15</ele>
        <time>2018-09-08T07:34:38Z</time>
      </trkpt>
      <trkpt lat="44.06865" lon="1.8974">
        <ele>189.52</ele>
        <time>2018-09-08T07:34:52Z</time>
      </trkpt>
      <trkpt lat="44.06843" lon="1.89717">
        <ele>192.4</ele>
        <time>2018-09-08T07:35:06Z</time>
      </trkpt>
      <trkpt lat="44.06813" lon="1.89695">
        <ele>195.77</ele>
        <time>2018-09-08T07:35:23Z</time>
      </trkpt>
      <trkpt lat="44.06782" lon="1.89666">
        <ele>198.17</ele>
        <time>2018-09-08T07:35:39Z</time>
      </trkpt>
      <trkpt lat="44.06742" lon="1.89624">
        <ele>199.61</ele>
        <time>2018-09-08T07:35:59Z</time>
      </trkpt>
      <trkpt lat="44.06719" lon="1.89584">
        <ele>202.98</ele>
        <time>2018-09-08T07:36:16Z</time>
      </trkpt>
      <trkpt lat="44.06702" lon="1.89556">
        <ele>205.86</ele>
        <time>2018-09-08T07:36:30Z</time>
      </trkpt>
      <trkpt lat="44.06683" lon="1.89523">
        <ele>208.74</ele>
        <time>2018-09-08T07:36:45Z</time>
      </trkpt>
      <trkpt lat="44.06685" lon="1.89466">
        <ele>211.15</ele>
        <time>2018-09-08T07:37:02Z</time>
      </trkpt>
      <trkpt lat="44.06692" lon="1.89418">
        <ele>212.59</ele>
        <time>2018-09-08T07:37:16Z</time>
      </trkpt>
      <trkpt lat="44.06706" lon="1.8937">
        <ele>215.95</ele>
        <time>2018-09-08T07:37:32Z</time>
      </trkpt>
      <trkpt lat="44.06725" lon="1.89326">
        <ele>219.32</ele>
        <time>2018-09-08T07:37:48Z</time>
      </trkpt>
      <trkpt lat="44.06746" lon="1.8929">
        <ele>221.72</ele>
        <time>2018-09-08T07:38:04Z</time>
      </trkpt>
      <trkpt lat="44.06747" lon="1.89241">
        <ele>224.61</ele>
        <time>2018-09-08T07:38:18Z</time>
      </trkpt>
      <trkpt lat="44.06746" lon="1.89187">
        <ele>226.53</ele>
        <time>2018-09-08T07:38:33Z</time>
      </trkpt>
      <trkpt lat="44.0674" lon="1.89114">
        <ele>227.01</ele>
        <time>2018-09-08T07:38:50Z</time>
      </trkpt>
      <trkpt lat="44.06724" lon="1.89072">
        <ele>229.41</ele>
        <time>2018-09-08T07:39:02Z</time>
      </trkpt>
      <trkpt lat="44.0672" lon="1.8901">
        <ele>228.45</ele>
        <time>2018-09-08T07:39:13Z</time>
      </trkpt>
      <trkpt lat="44.0672" lon="1.89">
        <ele>227.97</ele>
        <time>2018-09-08T07:39:14Z</time>
      </trkpt>
      <trkpt lat="44.0672" lon="1.8899">
        <ele>227.01</ele>
        <time>2018-09-08T07:39:15Z</time>
      </trkpt>
      <trkpt lat="44.06721" lon="1.8898">
        <ele>226.53</ele>
        <time>2018-09-08T07:39:16Z</time>
      </trkpt>
      <trkpt lat="44.06724" lon="1.8897">
        <ele>226.05</ele>
        <time>2018-09-08T07:39:17Z</time>
      </trkpt>
      <trkpt lat="44.06728" lon="1.88961">
        <ele>225.57</ele>
        <time>2018-09-08T07:39:18Z</time>
      </trkpt>
      <trkpt lat="44.06732" lon="1.88952">
        <ele>225.57</ele>
        <time>2018-09-08T07:39:19Z</time>
      </trkpt>
      <trkpt lat="44.06736" lon="1.88945">
        <ele>225.09</ele>
        <time>2018-09-08T07:39:20Z</time>
      </trkpt>
      <trkpt lat="44.0674" lon="1.88939">
        <ele>224.61</ele>
        <time>2018-09-08T07:39:21Z</time>
      </trkpt>
      <trkpt lat="44.06744" lon="1.88936">
        <ele>223.64</ele>
        <time>2018-09-08T07:39:22Z</time>
      </trkpt>
      <trkpt lat="44.06748" lon="1.88936">
        <ele>224.61</ele>
        <time>2018-09-08T07:39:23Z</time>
      </trkpt>
      <trkpt lat="44.06751" lon="1.88937">
        <ele>224.61</ele>
        <time>2018-09-08T07:39:24Z</time>
      </trkpt>
      <trkpt lat="44.06753" lon="1.88939">
        <ele>225.09</ele>
        <time>2018-09-08T07:39:25Z</time>
      </trkpt>
      <trkpt lat="44.06755" lon="1.88941">
        <ele>225.57</ele>
        <time>2018-09-08T07:39:26Z</time>
      </trkpt>
      <trkpt lat="44.06757" lon="1.88942">
        <ele>226.05</ele>
        <time>2018-09-08T07:39:27Z</time>
      </trkpt>
      <trkpt lat="44.06763" lon="1.88945">
        <ele>226.53</ele>
        <time>2018-09-08T07:39:31Z</time>
      </trkpt>
      <trkpt lat="44.06764" lon="1.88945">
        <ele>226.53</ele>
        <time>2018-09-08T07:39:32Z</time>
      </trkpt>
      <trkpt lat="44.06765" lon="1.88946">
        <ele>227.01</ele>
        <time>2018-09-08T07:39:33Z</time>
      </trkpt>
      <trkpt lat="44.06767" lon="1.88946">
        <ele>227.49</ele>
        <time>2018-09-08T07:39:34Z</time>
      </trkpt>
      <trkpt lat="44.06769" lon="1.88946">
        <ele>227.97</ele>
        <time>2018-09-08T07:39:35Z</time>
      </trkpt>
      <trkpt lat="44.0677" lon="1.88947">
        <ele>227.49</ele>
        <time>2018-09-08T07:39:36Z</time>
      </trkpt>
      <trkpt lat="44.06772" lon="1.88948">
        <ele>228.45</ele>
        <time>2018-09-08T07:39:37Z</time>
      </trkpt>
      <trkpt lat="44.06774" lon="1.88949">
        <ele>228.45</ele>
        <time>2018-09-08T07:39:38Z</time>
      </trkpt>
      <trkpt lat="44.06776" lon="1.8895">
        <ele>228.93</ele>
        <time>2018-09-08T07:39:39Z</time>
      </trkpt>
      <trkpt lat="44.06778" lon="1.88951">
        <ele>229.89</ele>
        <time>2018-09-08T07:39:40Z</time>
      </trkpt>
      <trkpt lat="44.0678" lon="1.88952">
        <ele>229.89</ele>
        <time>2018-09-08T07:39:41Z</time>
      </trkpt>
      <trkpt lat="44.06807" lon="1.8895">
        <ele>232.78</ele>
        <time>2018-09-08T07:39:55Z</time>
      </trkpt>
      <trkpt lat="44.06837" lon="1.88936">
        <ele>233.74</ele>
        <time>2018-09-08T07:40:08Z</time>
      </trkpt>
      <trkpt lat="44.06851" lon="1.88881">
        <ele>234.22</ele>
        <time>2018-09-08T07:40:21Z</time>
      </trkpt>
      <trkpt lat="44.06854" lon="1.8885">
        <ele>234.22</ele>
        <time>2018-09-08T07:40:30Z</time>
      </trkpt>
      <trkpt lat="44.06854" lon="1.88852">
        <ele>233.26</ele>
        <time>2018-09-08T07:40:45Z</time>
      </trkpt>
      <trkpt lat="44.06853" lon="1.88854">
        <ele>234.7</ele>
        <time>2018-09-08T07:41:28Z</time>
      </trkpt>
      <trkpt lat="44.06856" lon="1.88854">
        <ele>234.7</ele>
        <time>2018-09-08T07:41:43Z</time>
      </trkpt>
      <trkpt lat="44.06859" lon="1.88856">
        <ele>234.7</ele>
        <time>2018-09-08T07:41:45Z</time>
      </trkpt>
      <trkpt lat="44.06861" lon="1.88856">
        <ele>234.22</ele>
        <time>2018-09-08T07:41:46Z</time>
      </trkpt>
      <trkpt lat="44.06863" lon="1.88854">
        <ele>234.22</ele>
        <time>2018-09-08T07:41:47Z</time>
      </trkpt>
      <trkpt lat="44.06865" lon="1.88852">
        <ele>234.22</ele>
        <time>2018-09-08T07:41:48Z</time>
      </trkpt>
      <trkpt lat="44.0688" lon="1.88841">
        <ele>234.22</ele>
        <time>2018-09-08T07:41:53Z</time>
      </trkpt>
      <trkpt lat="44.06888" lon="1.88836">
        <ele>234.22</ele>
        <time>2018-09-08T07:41:55Z</time>
      </trkpt>
      <trkpt lat="44.06902" lon="1.88826">
        <ele>233.26</ele>
        <time>2018-09-08T07:41:58Z</time>
      </trkpt>
      <trkpt lat="44.06907" lon="1.88823">
        <ele>232.78</ele>
        <time>2018-09-08T07:41:59Z</time>
      </trkpt>
      <trkpt lat="44.06912" lon="1.8882">
        <ele>232.78</ele>
        <time>2018-09-08T07:42:00Z</time>
      </trkpt>
      <trkpt lat="44.06924" lon="1.88814">
        <ele>231.81</ele>
        <time>2018-09-08T07:42:02Z</time>
      </trkpt>
      <trkpt lat="44.06929" lon="1.88811">
        <ele>231.81</ele>
        <time>2018-09-08T07:42:03Z</time>
      </trkpt>
      <trkpt lat="44.06934" lon="1.88807">
        <ele>231.33</ele>
        <time>2018-09-08T07:42:04Z</time>
      </trkpt>
      <trkpt lat="44.06944" lon="1.888">
        <ele>230.37</ele>
        <time>2018-09-08T07:42:06Z</time>
      </trkpt>
      <trkpt lat="44.06949" lon="1.88795">
        <ele>230.37</ele>
        <time>2018-09-08T07:42:07Z</time>
      </trkpt>
      <trkpt lat="44.06958" lon="1.88784">
        <ele>229.41</ele>
        <time>2018-09-08T07:42:09Z</time>
      </trkpt>
      <trkpt lat="44.06968" lon="1.88776">
        <ele>229.41</ele>
        <time>2018-09-08T07:42:11Z</time>
      </trkpt>
      <trkpt lat="44.06974" lon="1.88774">
        <ele>229.41</ele>
        <time>2018-09-08T07:42:12Z</time>
      </trkpt>
      <trkpt lat="44.06978" lon="1.8877">
        <ele>227.97</ele>
        <time>2018-09-08T07:42:13Z</time>
      </trkpt>
      <trkpt lat="44.06983" lon="1.88766">
        <ele>228.45</ele>
        <time>2018-09-08T07:42:14Z</time>
      </trkpt>
      <trkpt lat="44.06985" lon="1.88762">
        <ele>227.97</ele>
        <time>2018-09-08T07:42:15Z</time>
      </trkpt>
      <trkpt lat="44.06987" lon="1.88757">
        <ele>227.49</ele>
        <time>2018-09-08T07:42:16Z</time>
      </trkpt>
      <trkpt lat="44.06988" lon="1.88751">
        <ele>227.01</ele>
        <time>2018-09-08T07:42:17Z</time>
      </trkpt>
      <trkpt lat="44.06989" lon="1.88746">
        <ele>227.01</ele>
        <time>2018-09-08T07:42:18Z</time>
      </trkpt>
      <trkpt lat="44.07007" lon="1.88703">
        <ele>225.57</ele>
        <time>2018-09-08T07:42:29Z</time>
      </trkpt>
      <trkpt lat="44.07044" lon="1.88679">
        <ele>225.09</ele>
        <time>2018-09-08T07:42:39Z</time>
      </trkpt>
      <trkpt lat="44.07085" lon="1.88668">
        <ele>227.49</ele>
        <time>2018-09-08T07:42:50Z</time>
      </trkpt>
      <trkpt lat="44.07121" lon="1.8868">
        <ele>227.49</ele>
        <time>2018-09-08T07:42:59Z</time>
      </trkpt>
      <trkpt lat="44.07134" lon="1.88679">
        <ele>227.01</ele>
        <time>2018-09-08T07:43:02Z</time>
      </trkpt>
      <trkpt lat="44.07139" lon="1.88678">
        <ele>227.49</ele>
        <time>2018-09-08T07:43:03Z</time>
      </trkpt>
      <trkpt lat="44.07144" lon="1.88676">
        <ele>226.53</ele>
        <time>2018-09-08T07:43:04Z</time>
      </trkpt>
      <trkpt lat="44.07149" lon="1.88674">
        <ele>226.53</ele>
        <time>2018-09-08T07:43:05Z</time>
      </trkpt>
      <trkpt lat="44.07154" lon="1.88672">
        <ele>226.53</ele>
        <time>2018-09-08T07:43:06Z</time>
      </trkpt>
      <trkpt lat="44.0716" lon="1.8867">
        <ele>226.05</ele>
        <time>2018-09-08T07:43:07Z</time>
      </trkpt>
      <trkpt lat="44.07165" lon="1.88667">
        <ele>225.57</ele>
        <time>2018-09-08T07:43:08Z</time>
      </trkpt>
      <trkpt lat="44.0719" lon="1.88652">
        <ele>225.09</ele>
        <time>2018-09-08T07:43:13Z</time>
      </trkpt>
      <trkpt lat="44.07208" lon="1.88642">
        <ele>224.12</ele>
        <time>2018-09-08T07:43:17Z</time>
      </trkpt>
      <trkpt lat="44.07213" lon="1.8864">
        <ele>223.64</ele>
        <time>2018-09-08T07:43:18Z</time>
      </trkpt>
      <trkpt lat="44.07217" lon="1.88638">
        <ele>222.68</ele>
        <time>2018-09-08T07:43:19Z</time>
      </trkpt>
      <trkpt lat="44.07221" lon="1.88634">
        <ele>223.16</ele>
        <time>2018-09-08T07:43:20Z</time>
      </trkpt>
      <trkpt lat="44.07225" lon="1.88629">
        <ele>222.2</ele>
        <time>2018-09-08T07:43:21Z</time>
      </trkpt>
      <trkpt lat="44.07237" lon="1.88613">
        <ele>221.72</ele>
        <time>2018-09-08T07:43:24Z</time>
      </trkpt>
      <trkpt lat="44.07241" lon="1.88608">
        <ele>222.2</ele>
        <time>2018-09-08T07:43:25Z</time>
      </trkpt>
      <trkpt lat="44.07251" lon="1.88593">
        <ele>220.76</ele>
        <time>2018-09-08T07:43:28Z</time>
      </trkpt>
      <trkpt lat="44.07255" lon="1.88589">
        <ele>220.76</ele>
        <time>2018-09-08T07:43:29Z</time>
      </trkpt>
      <trkpt lat="44.07265" lon="1.88578">
        <ele>220.76</ele>
        <time>2018-09-08T07:43:32Z</time>
      </trkpt>
      <trkpt lat="44.07276" lon="1.88564">
        <ele>219.32</ele>
        <time>2018-09-08T07:43:35Z</time>
      </trkpt>
      <trkpt lat="44.07287" lon="1.88546">
        <ele>218.84</ele>
        <time>2018-09-08T07:43:38Z</time>
      </trkpt>
      <trkpt lat="44.07294" lon="1.88535">
        <ele>218.36</ele>
        <time>2018-09-08T07:43:40Z</time>
      </trkpt>
      <trkpt lat="44.07306" lon="1.88516">
        <ele>218.36</ele>
        <time>2018-09-08T07:43:44Z</time>
      </trkpt>
      <trkpt lat="44.0731" lon="1.88513">
        <ele>218.84</ele>
        <time>2018-09-08T07:43:45Z</time>
      </trkpt>
      <trkpt lat="44.07314" lon="1.8851">
        <ele>218.36</ele>
        <time>2018-09-08T07:43:46Z</time>
      </trkpt>
      <trkpt lat="44.07318" lon="1.88508">
        <ele>218.36</ele>
        <time>2018-09-08T07:43:47Z</time>
      </trkpt>
      <trkpt lat="44.07322" lon="1.88506">
        <ele>218.36</ele>
        <time>2018-09-08T07:43:48Z</time>
      </trkpt>
      <trkpt lat="44.07327" lon="1.88504">
        <ele>217.88</ele>
        <time>2018-09-08T07:43:49Z</time>
      </trkpt>
      <trkpt lat="44.07331" lon="1.88502">
        <ele>217.88</ele>
        <time>2018-09-08T07:43:50Z</time>
      </trkpt>
      <trkpt lat="44.07335" lon="1.88499">
        <ele>217.4</ele>
        <time>2018-09-08T07:43:51Z</time>
      </trkpt>
      <trkpt lat="44.07339" lon="1.88496">
        <ele>217.4</ele>
        <time>2018-09-08T07:43:52Z</time>
      </trkpt>
      <trkpt lat="44.07341" lon="1.88491">
        <ele>216.43</ele>
        <time>2018-09-08T07:43:53Z</time>
      </trkpt>
      <trkpt lat="44.07345" lon="1.88485">
        <ele>215.95</ele>
        <time>2018-09-08T07:43:54Z</time>
      </trkpt>
      <trkpt lat="44.07348" lon="1.88478">
        <ele>215.47</ele>
        <time>2018-09-08T07:43:55Z</time>
      </trkpt>
      <trkpt lat="44.07352" lon="1.88471">
        <ele>214.99</ele>
        <time>2018-09-08T07:43:56Z</time>
      </trkpt>
      <trkpt lat="44.07366" lon="1.88449">
        <ele>215.95</ele>
        <time>2018-09-08T07:44:01Z</time>
      </trkpt>
      <trkpt lat="44.07375" lon="1.8844">
        <ele>217.4</ele>
        <time>2018-09-08T07:44:05Z</time>
      </trkpt>
      <trkpt lat="44.07395" lon="1.88409">
        <ele>217.88</ele>
        <time>2018-09-08T07:44:17Z</time>
      </trkpt>
      <trkpt lat="44.07431" lon="1.88402">
        <ele>216.43</ele>
        <time>2018-09-08T07:47:12Z</time>
      </trkpt>
      <trkpt lat="44.0744" lon="1.88421">
        <ele>218.36</ele>
        <time>2018-09-08T07:47:23Z</time>
      </trkpt>
      <trkpt lat="44.07439" lon="1.8842">
        <ele>217.88</ele>
        <time>2018-09-08T07:47:34Z</time>
      </trkpt>
      <trkpt lat="44.07439" lon="1.88421">
        <ele>217.88</ele>
        <time>2018-09-08T07:48:18Z</time>
      </trkpt>
      <trkpt lat="44.07441" lon="1.88422">
        <ele>218.36</ele>
        <time>2018-09-08T07:48:59Z</time>
      </trkpt>
      <trkpt lat="44.07435" lon="1.88408">
        <ele>216.91</ele>
        <time>2018-09-08T07:49:06Z</time>
      </trkpt>
      <trkpt lat="44.0744" lon="1.8842">
        <ele>217.88</ele>
        <time>2018-09-08T07:49:16Z</time>
      </trkpt>
      <trkpt lat="44.07436" lon="1.88416">
        <ele>217.88</ele>
        <time>2018-09-08T07:49:50Z</time>
      </trkpt>
      <trkpt lat="44.07435" lon="1.88418">
        <ele>217.88</ele>
        <time>2018-09-08T07:50:30Z</time>
      </trkpt>
      <trkpt lat="44.07438" lon="1.88425">
        <ele>218.36</ele>
        <time>2018-09-08T07:50:43Z</time>
      </trkpt>
      <trkpt lat="44.07439" lon="1.88428">
        <ele>218.36</ele>
        <time>2018-09-08T07:50:44Z</time>
      </trkpt>
      <trkpt lat="44.07442" lon="1.8844">
        <ele>220.28</ele>
        <time>2018-09-08T07:50:50Z</time>
      </trkpt>
      <trkpt lat="44.07442" lon="1.88452">
        <ele>219.32</ele>
        <time>2018-09-08T07:50:54Z</time>
      </trkpt>
      <trkpt lat="44.07435" lon="1.88472">
        <ele>220.76</ele>
        <time>2018-09-08T07:51:02Z</time>
      </trkpt>
      <trkpt lat="44.07437" lon="1.88496">
        <ele>220.76</ele>
        <time>2018-09-08T07:51:08Z</time>
      </trkpt>
      <trkpt lat="44.07448" lon="1.88517">
        <ele>221.72</ele>
        <time>2018-09-08T07:51:15Z</time>
      </trkpt>
      <trkpt lat="44.0746" lon="1.88543">
        <ele>221.24</ele>
        <time>2018-09-08T07:51:25Z</time>
      </trkpt>
      <trkpt lat="44.07462" lon="1.88561">
        <ele>224.12</ele>
        <time>2018-09-08T07:51:33Z</time>
      </trkpt>
      <trkpt lat="44.07472" lon="1.88579">
        <ele>223.64</ele>
        <time>2018-09-08T07:51:43Z</time>
      </trkpt>
      <trkpt lat="44.07472" lon="1.88584">
        <ele>224.12</ele>
        <time>2018-09-08T07:52:07Z</time>
      </trkpt>
      <trkpt lat="44.07476" lon="1.88607">
        <ele>227.49</ele>
        <time>2018-09-08T07:52:16Z</time>
      </trkpt>
      <trkpt lat="44.07488" lon="1.88626">
        <ele>230.37</ele>
        <time>2018-09-08T07:52:28Z</time>
      </trkpt>
      <trkpt lat="44.07499" lon="1.88638">
        <ele>232.3</ele>
        <time>2018-09-08T07:52:37Z</time>
      </trkpt>
      <trkpt lat="44.07503" lon="1.8864">
        <ele>232.3</ele>
        <time>2018-09-08T07:52:39Z</time>
      </trkpt>
      <trkpt lat="44.07543" lon="1.8865">
        <ele>232.78</ele>
        <time>2018-09-08T07:52:52Z</time>
      </trkpt>
      <trkpt lat="44.07573" lon="1.8865">
        <ele>235.18</ele>
        <time>2018-09-08T07:53:01Z</time>
      </trkpt>
      <trkpt lat="44.0761" lon="1.88641">
        <ele>237.1</ele>
        <time>2018-09-08T07:53:14Z</time>
      </trkpt>
      <trkpt lat="44.07665" lon="1.88624">
        <ele>239.51</ele>
        <time>2018-09-08T07:54:30Z</time>
      </trkpt>
      <trkpt lat="44.07663" lon="1.88581">
        <ele>239.99</ele>
        <time>2018-09-08T07:54:42Z</time>
      </trkpt>
      <trkpt lat="44.07656" lon="1.88513">
        <ele>240.47</ele>
        <time>2018-09-08T07:54:56Z</time>
      </trkpt>
      <trkpt lat="44.07654" lon="1.88508">
        <ele>240.47</ele>
        <time>2018-09-08T07:54:57Z</time>
      </trkpt>
      <trkpt lat="44.07646" lon="1.88493">
        <ele>239.99</ele>
        <time>2018-09-08T07:55:00Z</time>
      </trkpt>
      <trkpt lat="44.07642" lon="1.88489">
        <ele>239.99</ele>
        <time>2018-09-08T07:55:01Z</time>
      </trkpt>
      <trkpt lat="44.07632" lon="1.88472">
        <ele>239.51</ele>
        <time>2018-09-08T07:55:48Z</time>
      </trkpt>
      <trkpt lat="44.0763" lon="1.8847">
        <ele>239.02</ele>
        <time>2018-09-08T07:55:49Z</time>
      </trkpt>
      <trkpt lat="44.07628" lon="1.88468">
        <ele>239.02</ele>
        <time>2018-09-08T07:55:50Z</time>
      </trkpt>
      <trkpt lat="44.07626" lon="1.88467">
        <ele>239.51</ele>
        <time>2018-09-08T07:55:51Z</time>
      </trkpt>
      <trkpt lat="44.07625" lon="1.88466">
        <ele>238.54</ele>
        <time>2018-09-08T07:55:52Z</time>
      </trkpt>
      <trkpt lat="44.07624" lon="1.88465">
        <ele>238.54</ele>
        <time>2018-09-08T07:55:53Z</time>
      </trkpt>
      <trkpt lat="44.07622" lon="1.88465">
        <ele>238.06</ele>
        <time>2018-09-08T07:55:54Z</time>
      </trkpt>
      <trkpt lat="44.07621" lon="1.88466">
        <ele>238.06</ele>
        <time>2018-09-08T07:55:55Z</time>
      </trkpt>
      <trkpt lat="44.07611" lon="1.88476">
        <ele>237.1</ele>
        <time>2018-09-08T07:56:03Z</time>
      </trkpt>
      <trkpt lat="44.07584" lon="1.88511">
        <ele>235.66</ele>
        <time>2018-09-08T07:56:14Z</time>
      </trkpt>
      <trkpt lat="44.07563" lon="1.88519">
        <ele>234.22</ele>
        <time>2018-09-08T07:56:22Z</time>
      </trkpt>
      <trkpt lat="44.07552" lon="1.88512">
        <ele>231.81</ele>
        <time>2018-09-08T07:56:29Z</time>
      </trkpt>
      <trkpt lat="44.0755" lon="1.8851">
        <ele>231.81</ele>
        <time>2018-09-08T07:56:30Z</time>
      </trkpt>
      <trkpt lat="44.07547" lon="1.88508">
        <ele>230.85</ele>
        <time>2018-09-08T07:56:31Z</time>
      </trkpt>
      <trkpt lat="44.07544" lon="1.88502">
        <ele>229.89</ele>
        <time>2018-09-08T07:56:33Z</time>
      </trkpt>
      <trkpt lat="44.07544" lon="1.88483">
        <ele>228.45</ele>
        <time>2018-09-08T07:56:38Z</time>
      </trkpt>
      <trkpt lat="44.07546" lon="1.88447">
        <ele>222.68</ele>
        <time>2018-09-08T07:56:44Z</time>
      </trkpt>
      <trkpt lat="44.07547" lon="1.88442">
        <ele>222.2</ele>
        <time>2018-09-08T07:56:45Z</time>
      </trkpt>
      <trkpt lat="44.0755" lon="1.88429">
        <ele>221.24</ele>
        <time>2018-09-08T07:56:47Z</time>
      </trkpt>
      <trkpt lat="44.07556" lon="1.88404">
        <ele>219.8</ele>
        <time>2018-09-08T07:56:54Z</time>
      </trkpt>
      <trkpt lat="44.07557" lon="1.88393">
        <ele>218.36</ele>
        <time>2018-09-08T07:56:57Z</time>
      </trkpt>
      <trkpt lat="44.07555" lon="1.88381">
        <ele>216.91</ele>
        <time>2018-09-08T07:56:59Z</time>
      </trkpt>
      <trkpt lat="44.0755" lon="1.88368">
        <ele>215.47</ele>
        <time>2018-09-08T07:57:02Z</time>
      </trkpt>
      <trkpt lat="44.07542" lon="1.88339">
        <ele>214.03</ele>
        <time>2018-09-08T07:57:13Z</time>
      </trkpt>
      <trkpt lat="44.07542" lon="1.88338">
        <ele>214.51</ele>
        <time>2018-09-08T07:57:15Z</time>
      </trkpt>
      <trkpt lat="44.0753" lon="1.88312">
        <ele>214.51</ele>
        <time>2018-09-08T07:57:24Z</time>
      </trkpt>
      <trkpt lat="44.07525" lon="1.88302">
        <ele>215.47</ele>
        <time>2018-09-08T07:57:28Z</time>
      </trkpt>
      <trkpt lat="44.07514" lon="1.88297">
        <ele>214.51</ele>
        <time>2018-09-08T07:57:38Z</time>
      </trkpt>
      <trkpt lat="44.07506" lon="1.88347">
        <ele>216.91</ele>
        <time>2018-09-08T07:58:40Z</time>
      </trkpt>
      <trkpt lat="44.07506" lon="1.88359">
        <ele>216.91</ele>
        <time>2018-09-08T07:58:44Z</time>
      </trkpt>
      <trkpt lat="44.07508" lon="1.88376">
        <ele>215.47</ele>
        <time>2018-09-08T07:58:55Z</time>
      </trkpt>
      <trkpt lat="44.07508" lon="1.88377">
        <ele>214.99</ele>
        <time>2018-09-08T07:59:01Z</time>
      </trkpt>
      <trkpt lat="44.07512" lon="1.88385">
        <ele>214.99</ele>
        <time>2018-09-08T07:59:06Z</time>
      </trkpt>
      <trkpt lat="44.07523" lon="1.88396">
        <ele>217.4</ele>
        <time>2018-09-08T07:59:14Z</time>
      </trkpt>
      <trkpt lat="44.07521" lon="1.88402">
        <ele>217.88</ele>
        <time>2018-09-08T07:59:20Z</time>
      </trkpt>
      <trkpt lat="44.07516" lon="1.88398">
        <ele>217.4</ele>
        <time>2018-09-08T07:59:23Z</time>
      </trkpt>
      <trkpt lat="44.07502" lon="1.88387">
        <ele>215.95</ele>
        <time>2018-09-08T07:59:27Z</time>
      </trkpt>
      <trkpt lat="44.0749" lon="1.8838">
        <ele>214.51</ele>
        <time>2018-09-08T07:59:30Z</time>
      </trkpt>
      <trkpt lat="44.07477" lon="1.88354">
        <ele>213.07</ele>
        <time>2018-09-08T07:59:36Z</time>
      </trkpt>
      <trkpt lat="44.07476" lon="1.88343">
        <ele>212.11</ele>
        <time>2018-09-08T07:59:38Z</time>
      </trkpt>
      <trkpt lat="44.07475" lon="1.88338">
        <ele>212.11</ele>
        <time>2018-09-08T07:59:39Z</time>
      </trkpt>
      <trkpt lat="44.07474" lon="1.88333">
        <ele>211.63</ele>
        <time>2018-09-08T07:59:40Z</time>
      </trkpt>
      <trkpt lat="44.07469" lon="1.88313">
        <ele>211.63</ele>
        <time>2018-09-08T07:59:44Z</time>
      </trkpt>
      <trkpt lat="44.07467" lon="1.88306">
        <ele>211.15</ele>
        <time>2018-09-08T07:59:45Z</time>
      </trkpt>
      <trkpt lat="44.07467" lon="1.883">
        <ele>209.7</ele>
        <time>2018-09-08T07:59:46Z</time>
      </trkpt>
      <trkpt lat="44.07468" lon="1.88294">
        <ele>210.67</ele>
        <time>2018-09-08T07:59:47Z</time>
      </trkpt>
      <trkpt lat="44.07469" lon="1.88289">
        <ele>210.67</ele>
        <time>2018-09-08T07:59:48Z</time>
      </trkpt>
      <trkpt lat="44.07471" lon="1.88283">
        <ele>210.67</ele>
        <time>2018-09-08T07:59:49Z</time>
      </trkpt>
      <trkpt lat="44.07477" lon="1.88269">
        <ele>210.67</ele>
        <time>2018-09-08T07:59:52Z</time>
      </trkpt>
      <trkpt lat="44.0748" lon="1.88264">
        <ele>209.7</ele>
        <time>2018-09-08T07:59:53Z</time>
      </trkpt>
      <trkpt lat="44.07492" lon="1.88249">
        <ele>209.7</ele>
        <time>2018-09-08T07:59:56Z</time>
      </trkpt>
      <trkpt lat="44.07495" lon="1.88243">
        <ele>209.22</ele>
        <time>2018-09-08T07:59:57Z</time>
      </trkpt>
      <trkpt lat="44.07498" lon="1.88238">
        <ele>209.22</ele>
        <time>2018-09-08T07:59:58Z</time>
      </trkpt>
      <trkpt lat="44.07522" lon="1.88188">
        <ele>211.15</ele>
        <time>2018-09-08T08:00:09Z</time>
      </trkpt>
      <trkpt lat="44.07526" lon="1.88181">
        <ele>210.19</ele>
        <time>2018-09-08T08:00:11Z</time>
      </trkpt>
      <trkpt lat="44.07528" lon="1.88179">
        <ele>209.7</ele>
        <time>2018-09-08T08:00:12Z</time>
      </trkpt>
      <trkpt lat="44.07555" lon="1.88159">
        <ele>205.86</ele>
        <time>2018-09-08T08:00:21Z</time>
      </trkpt>
      <trkpt lat="44.07558" lon="1.88158">
        <ele>205.86</ele>
        <time>2018-09-08T08:00:22Z</time>
      </trkpt>
      <trkpt lat="44.07577" lon="1.88143">
        <ele>203.46</ele>
        <time>2018-09-08T08:00:29Z</time>
      </trkpt>
      <trkpt lat="44.07585" lon="1.8814">
        <ele>203.46</ele>
        <time>2018-09-08T08:00:31Z</time>
      </trkpt>
      <trkpt lat="44.07588" lon="1.88137">
        <ele>202.49</ele>
        <time>2018-09-08T08:00:32Z</time>
      </trkpt>
      <trkpt lat="44.07593" lon="1.88135">
        <ele>202.01</ele>
        <time>2018-09-08T08:00:33Z</time>
      </trkpt>
      <trkpt lat="44.07597" lon="1.88133">
        <ele>201.53</ele>
        <time>2018-09-08T08:00:34Z</time>
      </trkpt>
      <trkpt lat="44.07602" lon="1.88132">
        <ele>200.57</ele>
        <time>2018-09-08T08:00:35Z</time>
      </trkpt>
      <trkpt lat="44.07605" lon="1.8813">
        <ele>200.57</ele>
        <time>2018-09-08T08:00:36Z</time>
      </trkpt>
      <trkpt lat="44.07609" lon="1.88129">
        <ele>200.09</ele>
        <time>2018-09-08T08:00:37Z</time>
      </trkpt>
      <trkpt lat="44.07612" lon="1.88128">
        <ele>199.61</ele>
        <time>2018-09-08T08:00:38Z</time>
      </trkpt>
      <trkpt lat="44.07614" lon="1.88127">
        <ele>199.13</ele>
        <time>2018-09-08T08:00:39Z</time>
      </trkpt>
      <trkpt lat="44.07617" lon="1.88128">
        <ele>198.65</ele>
        <time>2018-09-08T08:00:40Z</time>
      </trkpt>
      <trkpt lat="44.07619" lon="1.88128">
        <ele>198.65</ele>
        <time>2018-09-08T08:00:41Z</time>
      </trkpt>
      <trkpt lat="44.07621" lon="1.88128">
        <ele>198.65</ele>
        <time>2018-09-08T08:00:42Z</time>
      </trkpt>
      <trkpt lat="44.07623" lon="1.88126">
        <ele>199.13</ele>
        <time>2018-09-08T08:00:43Z</time>
      </trkpt>
      <trkpt lat="44.07625" lon="1.88123">
        <ele>199.13</ele>
        <time>2018-09-08T08:00:44Z</time>
      </trkpt>
      <trkpt lat="44.07627" lon="1.8812">
        <ele>198.17</ele>
        <time>2018-09-08T08:00:45Z</time>
      </trkpt>
      <trkpt lat="44.07629" lon="1.88115">
        <ele>197.69</ele>
        <time>2018-09-08T08:00:46Z</time>
      </trkpt>
      <trkpt lat="44.0763" lon="1.88109">
        <ele>197.21</ele>
        <time>2018-09-08T08:00:47Z</time>
      </trkpt>
      <trkpt lat="44.07633" lon="1.88104">
        <ele>196.73</ele>
        <time>2018-09-08T08:00:48Z</time>
      </trkpt>
      <trkpt lat="44.07637" lon="1.88099">
        <ele>196.73</ele>
        <time>2018-09-08T08:00:49Z</time>
      </trkpt>
      <trkpt lat="44.07647" lon="1.88084">
        <ele>195.77</ele>
        <time>2018-09-08T08:00:56Z</time>
      </trkpt>
      <trkpt lat="44.07669" lon="1.88061">
        <ele>196.25</ele>
        <time>2018-09-08T08:01:04Z</time>
      </trkpt>
      <trkpt lat="44.07681" lon="1.88051">
        <ele>195.28</ele>
        <time>2018-09-08T08:01:07Z</time>
      </trkpt>
      <trkpt lat="44.07699" lon="1.88031">
        <ele>194.32</ele>
        <time>2018-09-08T08:01:11Z</time>
      </trkpt>
      <trkpt lat="44.0771" lon="1.88021">
        <ele>193.36</ele>
        <time>2018-09-08T08:01:13Z</time>
      </trkpt>
      <trkpt lat="44.07721" lon="1.88011">
        <ele>192.4</ele>
        <time>2018-09-08T08:01:15Z</time>
      </trkpt>
      <trkpt lat="44.07726" lon="1.88005">
        <ele>190.48</ele>
        <time>2018-09-08T08:01:16Z</time>
      </trkpt>
      <trkpt lat="44.0773" lon="1.88">
        <ele>190.48</ele>
        <time>2018-09-08T08:01:17Z</time>
      </trkpt>
      <trkpt lat="44.07734" lon="1.87997">
        <ele>189.52</ele>
        <time>2018-09-08T08:01:18Z</time>
      </trkpt>
      <trkpt lat="44.07737" lon="1.87995">
        <ele>188.56</ele>
        <time>2018-09-08T08:01:19Z</time>
      </trkpt>
      <trkpt lat="44.0774" lon="1.87992">
        <ele>188.56</ele>
        <time>2018-09-08T08:01:20Z</time>
      </trkpt>
      <trkpt lat="44.07743" lon="1.87989">
        <ele>187.59</ele>
        <time>2018-09-08T08:01:21Z</time>
      </trkpt>
      <trkpt lat="44.07753" lon="1.87975">
        <ele>185.67</ele>
        <time>2018-09-08T08:01:25Z</time>
      </trkpt>
      <trkpt lat="44.07757" lon="1.87972">
        <ele>185.19</ele>
        <time>2018-09-08T08:01:26Z</time>
      </trkpt>
      <trkpt lat="44.07762" lon="1.87972">
        <ele>185.19</ele>
        <time>2018-09-08T08:01:27Z</time>
      </trkpt>
      <trkpt lat="44.07765" lon="1.87973">
        <ele>185.19</ele>
        <time>2018-09-08T08:01:28Z</time>
      </trkpt>
      <trkpt lat="44.07768" lon="1.87975">
        <ele>185.67</ele>
        <time>2018-09-08T08:01:29Z</time>
      </trkpt>
      <trkpt lat="44.07771" lon="1.87976">
        <ele>185.67</ele>
        <time>2018-09-08T08:01:30Z</time>
      </trkpt>
      <trkpt lat="44.07774" lon="1.87976">
        <ele>185.67</ele>
        <time>2018-09-08T08:01:31Z</time>
      </trkpt>
      <trkpt lat="44.07777" lon="1.87976">
        <ele>186.15</ele>
        <time>2018-09-08T08:01:32Z</time>
      </trkpt>
      <trkpt lat="44.07779" lon="1.87973">
        <ele>187.11</ele>
        <time>2018-09-08T08:01:33Z</time>
      </trkpt>
      <trkpt lat="44.07782" lon="1.8797">
        <ele>187.11</ele>
        <time>2018-09-08T08:01:34Z</time>
      </trkpt>
      <trkpt lat="44.0782" lon="1.87949">
        <ele>188.56</ele>
        <time>2018-09-08T08:01:45Z</time>
      </trkpt>
      <trkpt lat="44.0783" lon="1.87939">
        <ele>188.56</ele>
        <time>2018-09-08T08:01:48Z</time>
      </trkpt>
      <trkpt lat="44.07842" lon="1.87929">
        <ele>188.08</ele>
        <time>2018-09-08T08:01:51Z</time>
      </trkpt>
      <trkpt lat="44.07846" lon="1.87927">
        <ele>188.56</ele>
        <time>2018-09-08T08:01:52Z</time>
      </trkpt>
      <trkpt lat="44.07851" lon="1.87925">
        <ele>188.08</ele>
        <time>2018-09-08T08:01:53Z</time>
      </trkpt>
      <trkpt lat="44.07865" lon="1.87922">
        <ele>187.11</ele>
        <time>2018-09-08T08:01:56Z</time>
      </trkpt>
      <trkpt lat="44.07869" lon="1.87919">
        <ele>187.59</ele>
        <time>2018-09-08T08:01:57Z</time>
      </trkpt>
      <trkpt lat="44.07892" lon="1.87895">
        <ele>186.15</ele>
        <time>2018-09-08T08:02:02Z</time>
      </trkpt>
      <trkpt lat="44.07897" lon="1.87892">
        <ele>186.15</ele>
        <time>2018-09-08T08:02:03Z</time>
      </trkpt>
      <trkpt lat="44.07913" lon="1.87886">
        <ele>185.19</ele>
        <time>2018-09-08T08:02:06Z</time>
      </trkpt>
      <trkpt lat="44.07918" lon="1.87882">
        <ele>184.71</ele>
        <time>2018-09-08T08:02:07Z</time>
      </trkpt>
      <trkpt lat="44.07921" lon="1.87877">
        <ele>184.23</ele>
        <time>2018-09-08T08:02:08Z</time>
      </trkpt>
      <trkpt lat="44.07922" lon="1.87872">
        <ele>183.75</ele>
        <time>2018-09-08T08:02:09Z</time>
      </trkpt>
      <trkpt lat="44.07923" lon="1.87868">
        <ele>183.27</ele>
        <time>2018-09-08T08:02:10Z</time>
      </trkpt>
      <trkpt lat="44.07924" lon="1.87864">
        <ele>182.79</ele>
        <time>2018-09-08T08:02:11Z</time>
      </trkpt>
      <trkpt lat="44.07932" lon="1.87833">
        <ele>180.38</ele>
        <time>2018-09-08T08:02:20Z</time>
      </trkpt>
      <trkpt lat="44.07934" lon="1.87834">
        <ele>180.38</ele>
        <time>2018-09-08T08:02:22Z</time>
      </trkpt>
      <trkpt lat="44.07931" lon="1.87832">
        <ele>180.38</ele>
        <time>2018-09-08T08:02:31Z</time>
      </trkpt>
      <trkpt lat="44.0793" lon="1.87828">
        <ele>180.38</ele>
        <time>2018-09-08T08:02:32Z</time>
      </trkpt>
      <trkpt lat="44.0793" lon="1.87823">
        <ele>180.87</ele>
        <time>2018-09-08T08:02:33Z</time>
      </trkpt>
      <trkpt lat="44.07922" lon="1.87747">
        <ele>179.42</ele>
        <time>2018-09-08T08:02:46Z</time>
      </trkpt>
      <trkpt lat="44.07921" lon="1.8772">
        <ele>179.9</ele>
        <time>2018-09-08T08:02:50Z</time>
      </trkpt>
      <trkpt lat="44.07921" lon="1.87713">
        <ele>179.42</ele>
        <time>2018-09-08T08:02:51Z</time>
      </trkpt>
      <trkpt lat="44.07912" lon="1.8762">
        <ele>181.35</ele>
        <time>2018-09-08T08:03:06Z</time>
      </trkpt>
      <trkpt lat="44.07904" lon="1.87544">
        <ele>183.75</ele>
        <time>2018-09-08T08:03:19Z</time>
      </trkpt>
      <trkpt lat="44.07894" lon="1.87441">
        <ele>185.19</ele>
        <time>2018-09-08T08:03:35Z</time>
      </trkpt>
      <trkpt lat="44.07892" lon="1.87415">
        <ele>185.67</ele>
        <time>2018-09-08T08:03:39Z</time>
      </trkpt>
      <trkpt lat="44.07889" lon="1.87396">
        <ele>185.67</ele>
        <time>2018-09-08T08:03:42Z</time>
      </trkpt>
      <trkpt lat="44.07879" lon="1.87276">
        <ele>188.56</ele>
        <time>2018-09-08T08:04:00Z</time>
      </trkpt>
      <trkpt lat="44.0787" lon="1.8717">
        <ele>189.04</ele>
        <time>2018-09-08T08:04:16Z</time>
      </trkpt>
      <trkpt lat="44.07871" lon="1.87162">
        <ele>189.52</ele>
        <time>2018-09-08T08:04:17Z</time>
      </trkpt>
      <trkpt lat="44.07872" lon="1.87155">
        <ele>188.56</ele>
        <time>2018-09-08T08:04:18Z</time>
      </trkpt>
      <trkpt lat="44.07875" lon="1.87148">
        <ele>188.56</ele>
        <time>2018-09-08T08:04:19Z</time>
      </trkpt>
      <trkpt lat="44.07879" lon="1.87143">
        <ele>189.04</ele>
        <time>2018-09-08T08:04:20Z</time>
      </trkpt>
      <trkpt lat="44.07884" lon="1.87138">
        <ele>188.56</ele>
        <time>2018-09-08T08:04:21Z</time>
      </trkpt>
      <trkpt lat="44.0789" lon="1.87134">
        <ele>188.08</ele>
        <time>2018-09-08T08:04:22Z</time>
      </trkpt>
      <trkpt lat="44.07895" lon="1.87131">
        <ele>188.56</ele>
        <time>2018-09-08T08:04:23Z</time>
      </trkpt>
      <trkpt lat="44.07901" lon="1.87129">
        <ele>187.59</ele>
        <time>2018-09-08T08:04:24Z</time>
      </trkpt>
      <trkpt lat="44.07908" lon="1.87129">
        <ele>187.59</ele>
        <time>2018-09-08T08:04:25Z</time>
      </trkpt>
      <trkpt lat="44.07915" lon="1.8713">
        <ele>187.59</ele>
        <time>2018-09-08T08:04:26Z</time>
      </trkpt>
      <trkpt lat="44.07944" lon="1.87134">
        <ele>186.63</ele>
        <time>2018-09-08T08:04:30Z</time>
      </trkpt>
      <trkpt lat="44.07994" lon="1.87133">
        <ele>185.19</ele>
        <time>2018-09-08T08:04:40Z</time>
      </trkpt>
      <trkpt lat="44.07995" lon="1.87135">
        <ele>185.67</ele>
        <time>2018-09-08T08:04:41Z</time>
      </trkpt>
      <trkpt lat="44.07996" lon="1.87138">
        <ele>185.67</ele>
        <time>2018-09-08T08:04:42Z</time>
      </trkpt>
      <trkpt lat="44.0801" lon="1.87187">
        <ele>187.11</ele>
        <time>2018-09-08T08:04:56Z</time>
      </trkpt>
      <trkpt lat="44.08025" lon="1.87242">
        <ele>185.67</ele>
        <time>2018-09-08T08:05:05Z</time>
      </trkpt>
      <trkpt lat="44.08026" lon="1.87249">
        <ele>186.15</ele>
        <time>2018-09-08T08:05:06Z</time>
      </trkpt>
      <trkpt lat="44.08026" lon="1.87256">
        <ele>185.67</ele>
        <time>2018-09-08T08:05:07Z</time>
      </trkpt>
      <trkpt lat="44.08028" lon="1.8727">
        <ele>185.19</ele>
        <time>2018-09-08T08:05:09Z</time>
      </trkpt>
      <trkpt lat="44.08028" lon="1.87276">
        <ele>185.19</ele>
        <time>2018-09-08T08:05:10Z</time>
      </trkpt>
      <trkpt lat="44.08035" lon="1.87307">
        <ele>184.71</ele>
        <time>2018-09-08T08:05:15Z</time>
      </trkpt>
      <trkpt lat="44.08038" lon="1.87319">
        <ele>184.23</ele>
        <time>2018-09-08T08:05:17Z</time>
      </trkpt>
      <trkpt lat="44.08046" lon="1.87354">
        <ele>184.23</ele>
        <time>2018-09-08T08:05:23Z</time>
      </trkpt>
      <trkpt lat="44.08047" lon="1.8736">
        <ele>185.19</ele>
        <time>2018-09-08T08:05:24Z</time>
      </trkpt>
      <trkpt lat="44.08051" lon="1.87388">
        <ele>184.23</ele>
        <time>2018-09-08T08:05:28Z</time>
      </trkpt>
      <trkpt lat="44.08066" lon="1.87472">
        <ele>184.71</ele>
        <time>2018-09-08T08:05:41Z</time>
      </trkpt>
      <trkpt lat="44.08079" lon="1.87557">
        <ele>181.83</ele>
        <time>2018-09-08T08:05:53Z</time>
      </trkpt>
      <trkpt lat="44.0808" lon="1.87565">
        <ele>180.87</ele>
        <time>2018-09-08T08:05:54Z</time>
      </trkpt>
      <trkpt lat="44.08083" lon="1.87598">
        <ele>181.35</ele>
        <time>2018-09-08T08:05:58Z</time>
      </trkpt>
      <trkpt lat="44.08084" lon="1.87605">
        <ele>181.35</ele>
        <time>2018-09-08T08:05:59Z</time>
      </trkpt>
      <trkpt lat="44.08085" lon="1.8763">
        <ele>181.83</ele>
        <time>2018-09-08T08:06:03Z</time>
      </trkpt>
      <trkpt lat="44.08082" lon="1.8765">
        <ele>181.35</ele>
        <time>2018-09-08T08:06:06Z</time>
      </trkpt>
      <trkpt lat="44.08083" lon="1.87656">
        <ele>181.83</ele>
        <time>2018-09-08T08:06:07Z</time>
      </trkpt>
      <trkpt lat="44.08089" lon="1.87712">
        <ele>180.38</ele>
        <time>2018-09-08T08:06:14Z</time>
      </trkpt>
      <trkpt lat="44.08094" lon="1.87748">
        <ele>178.46</ele>
        <time>2018-09-08T08:06:18Z</time>
      </trkpt>
      <trkpt lat="44.08097" lon="1.87781">
        <ele>176.54</ele>
        <time>2018-09-08T08:06:22Z</time>
      </trkpt>
      <trkpt lat="44.08101" lon="1.87813">
        <ele>176.06</ele>
        <time>2018-09-08T08:06:26Z</time>
      </trkpt>
      <trkpt lat="44.08103" lon="1.8782">
        <ele>176.06</ele>
        <time>2018-09-08T08:06:27Z</time>
      </trkpt>
      <trkpt lat="44.08105" lon="1.87826">
        <ele>175.58</ele>
        <time>2018-09-08T08:06:28Z</time>
      </trkpt>
      <trkpt lat="44.08105" lon="1.87832">
        <ele>175.58</ele>
        <time>2018-09-08T08:06:29Z</time>
      </trkpt>
      <trkpt lat="44.08105" lon="1.87839">
        <ele>176.06</ele>
        <time>2018-09-08T08:06:30Z</time>
      </trkpt>
      <trkpt lat="44.08106" lon="1.87845">
        <ele>175.58</ele>
        <time>2018-09-08T08:06:31Z</time>
      </trkpt>
      <trkpt lat="44.08107" lon="1.87852">
        <ele>175.58</ele>
        <time>2018-09-08T08:06:32Z</time>
      </trkpt>
      <trkpt lat="44.08114" lon="1.87886">
        <ele>174.62</ele>
        <time>2018-09-08T08:06:39Z</time>
      </trkpt>
      <trkpt lat="44.08116" lon="1.87891">
        <ele>174.62</ele>
        <time>2018-09-08T08:06:40Z</time>
      </trkpt>
      <trkpt lat="44.08118" lon="1.87896">
        <ele>174.62</ele>
        <time>2018-09-08T08:06:41Z</time>
      </trkpt>
      <trkpt lat="44.0812" lon="1.87901">
        <ele>174.62</ele>
        <time>2018-09-08T08:06:42Z</time>
      </trkpt>
      <trkpt lat="44.0813" lon="1.8792">
        <ele>174.62</ele>
        <time>2018-09-08T08:06:46Z</time>
      </trkpt>
      <trkpt lat="44.08132" lon="1.87925">
        <ele>173.66</ele>
        <time>2018-09-08T08:06:47Z</time>
      </trkpt>
      <trkpt lat="44.08134" lon="1.8793">
        <ele>174.14</ele>
        <time>2018-09-08T08:06:48Z</time>
      </trkpt>
      <trkpt lat="44.08139" lon="1.87944">
        <ele>173.66</ele>
        <time>2018-09-08T08:06:51Z</time>
      </trkpt>
      <trkpt lat="44.08142" lon="1.87946">
        <ele>174.14</ele>
        <time>2018-09-08T08:06:52Z</time>
      </trkpt>
      <trkpt lat="44.08146" lon="1.87948">
        <ele>173.66</ele>
        <time>2018-09-08T08:06:53Z</time>
      </trkpt>
      <trkpt lat="44.0815" lon="1.87949">
        <ele>174.14</ele>
        <time>2018-09-08T08:06:54Z</time>
      </trkpt>
      <trkpt lat="44.08153" lon="1.87951">
        <ele>173.66</ele>
        <time>2018-09-08T08:06:55Z</time>
      </trkpt>
      <trkpt lat="44.08183" lon="1.87972">
        <ele>174.62</ele>
        <time>2018-09-08T08:07:04Z</time>
      </trkpt>
      <trkpt lat="44.0819" lon="1.87978">
        <ele>174.62</ele>
        <time>2018-09-08T08:07:06Z</time>
      </trkpt>
      <trkpt lat="44.08203" lon="1.87994">
        <ele>174.14</ele>
        <time>2018-09-08T08:07:10Z</time>
      </trkpt>
      <trkpt lat="44.08206" lon="1.87999">
        <ele>174.14</ele>
        <time>2018-09-08T08:07:11Z</time>
      </trkpt>
      <trkpt lat="44.08207" lon="1.88004">
        <ele>174.14</ele>
        <time>2018-09-08T08:07:12Z</time>
      </trkpt>
      <trkpt lat="44.08209" lon="1.8801">
        <ele>173.66</ele>
        <time>2018-09-08T08:07:13Z</time>
      </trkpt>
      <trkpt lat="44.08211" lon="1.88014">
        <ele>173.66</ele>
        <time>2018-09-08T08:07:14Z</time>
      </trkpt>
      <trkpt lat="44.08213" lon="1.88022">
        <ele>173.17</ele>
        <time>2018-09-08T08:07:16Z</time>
      </trkpt>
      <trkpt lat="44.08218" lon="1.88065">
        <ele>173.17</ele>
        <time>2018-09-08T08:07:27Z</time>
      </trkpt>
      <trkpt lat="44.08234" lon="1.88114">
        <ele>172.69</ele>
        <time>2018-09-08T08:07:38Z</time>
      </trkpt>
      <trkpt lat="44.0825" lon="1.88141">
        <ele>172.21</ele>
        <time>2018-09-08T08:07:45Z</time>
      </trkpt>
      <trkpt lat="44.08253" lon="1.88145">
        <ele>172.21</ele>
        <time>2018-09-08T08:07:46Z</time>
      </trkpt>
      <trkpt lat="44.08271" lon="1.88162">
        <ele>172.21</ele>
        <time>2018-09-08T08:07:51Z</time>
      </trkpt>
      <trkpt lat="44.08274" lon="1.88166">
        <ele>172.21</ele>
        <time>2018-09-08T08:07:52Z</time>
      </trkpt>
      <trkpt lat="44.08277" lon="1.88171">
        <ele>172.21</ele>
        <time>2018-09-08T08:07:53Z</time>
      </trkpt>
      <trkpt lat="44.0831" lon="1.88223">
        <ele>175.1</ele>
        <time>2018-09-08T08:08:07Z</time>
      </trkpt>
      <trkpt lat="44.08342" lon="1.88235">
        <ele>176.54</ele>
        <time>2018-09-08T08:08:18Z</time>
      </trkpt>
      <trkpt lat="44.08383" lon="1.88249">
        <ele>178.46</ele>
        <time>2018-09-08T08:08:31Z</time>
      </trkpt>
      <trkpt lat="44.08413" lon="1.88254">
        <ele>178.94</ele>
        <time>2018-09-08T08:08:39Z</time>
      </trkpt>
      <trkpt lat="44.08481" lon="1.88285">
        <ele>179.9</ele>
        <time>2018-09-08T08:09:00Z</time>
      </trkpt>
      <trkpt lat="44.08502" lon="1.883">
        <ele>179.9</ele>
        <time>2018-09-08T08:09:06Z</time>
      </trkpt>
      <trkpt lat="44.08557" lon="1.88336">
        <ele>177.98</ele>
        <time>2018-09-08T08:09:21Z</time>
      </trkpt>
      <trkpt lat="44.08602" lon="1.88364">
        <ele>177.5</ele>
        <time>2018-09-08T08:09:34Z</time>
      </trkpt>
      <trkpt lat="44.0868" lon="1.88416">
        <ele>178.46</ele>
        <time>2018-09-08T08:09:54Z</time>
      </trkpt>
      <trkpt lat="44.08705" lon="1.8843">
        <ele>178.46</ele>
        <time>2018-09-08T08:10:00Z</time>
      </trkpt>
      <trkpt lat="44.08709" lon="1.88435">
        <ele>177.98</ele>
        <time>2018-09-08T08:10:01Z</time>
      </trkpt>
      <trkpt lat="44.08712" lon="1.88439">
        <ele>177.98</ele>
        <time>2018-09-08T08:10:02Z</time>
      </trkpt>
      <trkpt lat="44.08716" lon="1.88445">
        <ele>177.5</ele>
        <time>2018-09-08T08:10:03Z</time>
      </trkpt>
      <trkpt lat="44.08719" lon="1.88451">
        <ele>177.02</ele>
        <time>2018-09-08T08:10:04Z</time>
      </trkpt>
      <trkpt lat="44.08723" lon="1.88456">
        <ele>177.02</ele>
        <time>2018-09-08T08:10:05Z</time>
      </trkpt>
      <trkpt lat="44.08726" lon="1.88462">
        <ele>176.54</ele>
        <time>2018-09-08T08:10:06Z</time>
      </trkpt>
      <trkpt lat="44.08747" lon="1.88497">
        <ele>175.58</ele>
        <time>2018-09-08T08:10:12Z</time>
      </trkpt>
      <trkpt lat="44.08751" lon="1.88502">
        <ele>175.58</ele>
        <time>2018-09-08T08:10:13Z</time>
      </trkpt>
      <trkpt lat="44.08756" lon="1.88506">
        <ele>175.1</ele>
        <time>2018-09-08T08:10:14Z</time>
      </trkpt>
      <trkpt lat="44.08831" lon="1.88532">
        <ele>171.25</ele>
        <time>2018-09-08T08:10:26Z</time>
      </trkpt>
      <trkpt lat="44.08901" lon="1.88544">
        <ele>170.29</ele>
        <time>2018-09-08T08:10:38Z</time>
      </trkpt>
      <trkpt lat="44.08955" lon="1.88567">
        <ele>168.85</ele>
        <time>2018-09-08T08:10:48Z</time>
      </trkpt>
      <trkpt lat="44.08969" lon="1.88569">
        <ele>167.89</ele>
        <time>2018-09-08T08:10:51Z</time>
      </trkpt>
      <trkpt lat="44.08973" lon="1.8857">
        <ele>167.89</ele>
        <time>2018-09-08T08:10:52Z</time>
      </trkpt>
      <trkpt lat="44.08978" lon="1.88573">
        <ele>167.89</ele>
        <time>2018-09-08T08:10:53Z</time>
      </trkpt>
      <trkpt lat="44.08989" lon="1.88582">
        <ele>166.93</ele>
        <time>2018-09-08T08:10:55Z</time>
      </trkpt>
      <trkpt lat="44.08996" lon="1.88587">
        <ele>166.45</ele>
        <time>2018-09-08T08:10:56Z</time>
      </trkpt>
      <trkpt lat="44.09003" lon="1.88591">
        <ele>165.48</ele>
        <time>2018-09-08T08:10:57Z</time>
      </trkpt>
      <trkpt lat="44.0901" lon="1.88593">
        <ele>165</ele>
        <time>2018-09-08T08:10:58Z</time>
      </trkpt>
      <trkpt lat="44.09017" lon="1.88593">
        <ele>165</ele>
        <time>2018-09-08T08:10:59Z</time>
      </trkpt>
      <trkpt lat="44.09025" lon="1.88593">
        <ele>164.52</ele>
        <time>2018-09-08T08:11:00Z</time>
      </trkpt>
      <trkpt lat="44.09032" lon="1.88592">
        <ele>165</ele>
        <time>2018-09-08T08:11:01Z</time>
      </trkpt>
      <trkpt lat="44.09044" lon="1.88592">
        <ele>164.52</ele>
        <time>2018-09-08T08:11:03Z</time>
      </trkpt>
      <trkpt lat="44.09051" lon="1.88593">
        <ele>164.52</ele>
        <time>2018-09-08T08:11:04Z</time>
      </trkpt>
      <trkpt lat="44.09057" lon="1.88595">
        <ele>164.52</ele>
        <time>2018-09-08T08:11:05Z</time>
      </trkpt>
      <trkpt lat="44.09062" lon="1.88598">
        <ele>164.52</ele>
        <time>2018-09-08T08:11:06Z</time>
      </trkpt>
      <trkpt lat="44.09068" lon="1.88602">
        <ele>164.52</ele>
        <time>2018-09-08T08:11:07Z</time>
      </trkpt>
      <trkpt lat="44.09072" lon="1.88607">
        <ele>164.52</ele>
        <time>2018-09-08T08:11:08Z</time>
      </trkpt>
      <trkpt lat="44.09076" lon="1.88612">
        <ele>164.04</ele>
        <time>2018-09-08T08:11:09Z</time>
      </trkpt>
      <trkpt lat="44.09085" lon="1.8862">
        <ele>165</ele>
        <time>2018-09-08T08:11:11Z</time>
      </trkpt>
      <trkpt lat="44.09089" lon="1.88622">
        <ele>165.48</ele>
        <time>2018-09-08T08:11:12Z</time>
      </trkpt>
      <trkpt lat="44.09094" lon="1.88624">
        <ele>165</ele>
        <time>2018-09-08T08:11:13Z</time>
      </trkpt>
      <trkpt lat="44.09098" lon="1.88625">
        <ele>165.48</ele>
        <time>2018-09-08T08:11:14Z</time>
      </trkpt>
      <trkpt lat="44.09103" lon="1.88626">
        <ele>165.48</ele>
        <time>2018-09-08T08:11:15Z</time>
      </trkpt>
      <trkpt lat="44.09112" lon="1.88626">
        <ele>165.48</ele>
        <time>2018-09-08T08:11:17Z</time>
      </trkpt>
      <trkpt lat="44.09117" lon="1.88625">
        <ele>165.48</ele>
        <time>2018-09-08T08:11:18Z</time>
      </trkpt>
      <trkpt lat="44.09122" lon="1.88624">
        <ele>165.48</ele>
        <time>2018-09-08T08:11:19Z</time>
      </trkpt>
      <trkpt lat="44.09127" lon="1.88622">
        <ele>165.48</ele>
        <time>2018-09-08T08:11:20Z</time>
      </trkpt>
      <trkpt lat="44.09132" lon="1.88619">
        <ele>165.48</ele>
        <time>2018-09-08T08:11:21Z</time>
      </trkpt>
      <trkpt lat="44.09184" lon="1.8861">
        <ele>162.12</ele>
        <time>2018-09-08T08:11:30Z</time>
      </trkpt>
      <trkpt lat="44.0919" lon="1.88612">
        <ele>161.64</ele>
        <time>2018-09-08T08:11:36Z</time>
      </trkpt>
      <trkpt lat="44.09192" lon="1.88615">
        <ele>160.68</ele>
        <time>2018-09-08T08:11:49Z</time>
      </trkpt>
      <trkpt lat="44.09192" lon="1.88617">
        <ele>161.16</ele>
        <time>2018-09-08T08:11:50Z</time>
      </trkpt>
      <trkpt lat="44.09191" lon="1.8862">
        <ele>161.16</ele>
        <time>2018-09-08T08:11:51Z</time>
      </trkpt>
      <trkpt lat="44.09189" lon="1.88622">
        <ele>161.16</ele>
        <time>2018-09-08T08:11:52Z</time>
      </trkpt>
      <trkpt lat="44.09186" lon="1.88624">
        <ele>160.68</ele>
        <time>2018-09-08T08:11:53Z</time>
      </trkpt>
      <trkpt lat="44.09159" lon="1.8865">
        <ele>161.16</ele>
        <time>2018-09-08T08:12:00Z</time>
      </trkpt>
      <trkpt lat="44.0915" lon="1.88659">
        <ele>161.16</ele>
        <time>2018-09-08T08:12:02Z</time>
      </trkpt>
      <trkpt lat="44.09145" lon="1.88663">
        <ele>161.64</ele>
        <time>2018-09-08T08:12:03Z</time>
      </trkpt>
      <trkpt lat="44.09072" lon="1.8874">
        <ele>162.12</ele>
        <time>2018-09-08T08:12:20Z</time>
      </trkpt>
      <trkpt lat="44.09044" lon="1.88773">
        <ele>162.6</ele>
        <time>2018-09-08T08:12:28Z</time>
      </trkpt>
      <trkpt lat="44.09043" lon="1.88779">
        <ele>162.6</ele>
        <time>2018-09-08T08:12:29Z</time>
      </trkpt>
      <trkpt lat="44.09037" lon="1.88809">
        <ele>160.68</ele>
        <time>2018-09-08T08:12:33Z</time>
      </trkpt>
      <trkpt lat="44.09034" lon="1.88817">
        <ele>161.16</ele>
        <time>2018-09-08T08:12:34Z</time>
      </trkpt>
      <trkpt lat="44.09029" lon="1.88823">
        <ele>161.16</ele>
        <time>2018-09-08T08:12:35Z</time>
      </trkpt>
      <trkpt lat="44.09024" lon="1.88829">
        <ele>160.68</ele>
        <time>2018-09-08T08:12:36Z</time>
      </trkpt>
      <trkpt lat="44.09018" lon="1.88834">
        <ele>160.2</ele>
        <time>2018-09-08T08:12:37Z</time>
      </trkpt>
      <trkpt lat="44.08995" lon="1.88862">
        <ele>159.72</ele>
        <time>2018-09-08T08:12:42Z</time>
      </trkpt>
      <trkpt lat="44.08993" lon="1.88869">
        <ele>159.24</ele>
        <time>2018-09-08T08:12:43Z</time>
      </trkpt>
      <trkpt lat="44.08992" lon="1.88875">
        <ele>159.24</ele>
        <time>2018-09-08T08:12:44Z</time>
      </trkpt>
      <trkpt lat="44.08993" lon="1.88882">
        <ele>158.27</ele>
        <time>2018-09-08T08:12:45Z</time>
      </trkpt>
      <trkpt lat="44.08995" lon="1.88889">
        <ele>158.75</ele>
        <time>2018-09-08T08:12:46Z</time>
      </trkpt>
      <trkpt lat="44.08997" lon="1.88896">
        <ele>158.27</ele>
        <time>2018-09-08T08:12:47Z</time>
      </trkpt>
      <trkpt lat="44.09009" lon="1.8893">
        <ele>158.27</ele>
        <time>2018-09-08T08:12:52Z</time>
      </trkpt>
      <trkpt lat="44.09011" lon="1.88937">
        <ele>157.79</ele>
        <time>2018-09-08T08:12:53Z</time>
      </trkpt>
      <trkpt lat="44.09018" lon="1.88964">
        <ele>157.79</ele>
        <time>2018-09-08T08:12:57Z</time>
      </trkpt>
      <trkpt lat="44.09022" lon="1.88969">
        <ele>157.31</ele>
        <time>2018-09-08T08:12:58Z</time>
      </trkpt>
      <trkpt lat="44.09027" lon="1.8897">
        <ele>157.31</ele>
        <time>2018-09-08T08:12:59Z</time>
      </trkpt>
      <trkpt lat="44.09032" lon="1.88969">
        <ele>157.31</ele>
        <time>2018-09-08T08:13:00Z</time>
      </trkpt>
      <trkpt lat="44.09038" lon="1.88967">
        <ele>157.31</ele>
        <time>2018-09-08T08:13:01Z</time>
      </trkpt>
      <trkpt lat="44.09043" lon="1.88964">
        <ele>157.31</ele>
        <time>2018-09-08T08:13:02Z</time>
      </trkpt>
      <trkpt lat="44.09094" lon="1.88936">
        <ele>157.31</ele>
        <time>2018-09-08T08:13:11Z</time>
      </trkpt>
      <trkpt lat="44.091" lon="1.88934">
        <ele>157.79</ele>
        <time>2018-09-08T08:13:12Z</time>
      </trkpt>
      <trkpt lat="44.09106" lon="1.88931">
        <ele>158.27</ele>
        <time>2018-09-08T08:13:13Z</time>
      </trkpt>
      <trkpt lat="44.09111" lon="1.88928">
        <ele>158.27</ele>
        <time>2018-09-08T08:13:14Z</time>
      </trkpt>
      <trkpt lat="44.09117" lon="1.88925">
        <ele>158.27</ele>
        <time>2018-09-08T08:13:15Z</time>
      </trkpt>
      <trkpt lat="44.09209" lon="1.88887">
        <ele>157.31</ele>
        <time>2018-09-08T08:13:31Z</time>
      </trkpt>
      <trkpt lat="44.09279" lon="1.88858">
        <ele>156.83</ele>
        <time>2018-09-08T08:13:43Z</time>
      </trkpt>
      <trkpt lat="44.09368" lon="1.88832">
        <ele>156.83</ele>
        <time>2018-09-08T08:13:58Z</time>
      </trkpt>
      <trkpt lat="44.09397" lon="1.88828">
        <ele>156.35</ele>
        <time>2018-09-08T08:14:03Z</time>
      </trkpt>
      <trkpt lat="44.09403" lon="1.88826">
        <ele>156.35</ele>
        <time>2018-09-08T08:14:04Z</time>
      </trkpt>
      <trkpt lat="44.09409" lon="1.88825">
        <ele>156.83</ele>
        <time>2018-09-08T08:14:05Z</time>
      </trkpt>
      <trkpt lat="44.09504" lon="1.88817">
        <ele>157.31</ele>
        <time>2018-09-08T08:14:21Z</time>
      </trkpt>
      <trkpt lat="44.09588" lon="1.8883">
        <ele>157.31</ele>
        <time>2018-09-08T08:14:35Z</time>
      </trkpt>
      <trkpt lat="44.09668" lon="1.88857">
        <ele>155.87</ele>
        <time>2018-09-08T08:14:49Z</time>
      </trkpt>
      <trkpt lat="44.09737" lon="1.88876">
        <ele>157.79</ele>
        <time>2018-09-08T08:15:02Z</time>
      </trkpt>
      <trkpt lat="44.09742" lon="1.88882">
        <ele>156.83</ele>
        <time>2018-09-08T08:15:11Z</time>
      </trkpt>
      <trkpt lat="44.09742" lon="1.88884">
        <ele>156.83</ele>
        <time>2018-09-08T08:15:41Z</time>
      </trkpt>
      <trkpt lat="44.09744" lon="1.88887">
        <ele>157.31</ele>
        <time>2018-09-08T08:15:46Z</time>
      </trkpt>
      <trkpt lat="44.09744" lon="1.88891">
        <ele>157.31</ele>
        <time>2018-09-08T08:15:47Z</time>
      </trkpt>
      <trkpt lat="44.09742" lon="1.88895">
        <ele>157.79</ele>
        <time>2018-09-08T08:15:48Z</time>
      </trkpt>
      <trkpt lat="44.0974" lon="1.88899">
        <ele>157.31</ele>
        <time>2018-09-08T08:15:49Z</time>
      </trkpt>
      <trkpt lat="44.09737" lon="1.88904">
        <ele>157.79</ele>
        <time>2018-09-08T08:15:50Z</time>
      </trkpt>
      <trkpt lat="44.09722" lon="1.88931">
        <ele>157.31</ele>
        <time>2018-09-08T08:15:56Z</time>
      </trkpt>
      <trkpt lat="44.09723" lon="1.88935">
        <ele>156.83</ele>
        <time>2018-09-08T08:15:57Z</time>
      </trkpt>
      <trkpt lat="44.09726" lon="1.8894">
        <ele>156.35</ele>
        <time>2018-09-08T08:15:58Z</time>
      </trkpt>
      <trkpt lat="44.09749" lon="1.88965">
        <ele>156.35</ele>
        <time>2018-09-08T08:16:04Z</time>
      </trkpt>
      <trkpt lat="44.09792" lon="1.89006">
        <ele>156.35</ele>
        <time>2018-09-08T08:16:15Z</time>
      </trkpt>
      <trkpt lat="44.09815" lon="1.89019">
        <ele>156.35</ele>
        <time>2018-09-08T08:16:20Z</time>
      </trkpt>
      <trkpt lat="44.09833" lon="1.8903">
        <ele>155.87</ele>
        <time>2018-09-08T08:16:24Z</time>
      </trkpt>
      <trkpt lat="44.09846" lon="1.89036">
        <ele>156.35</ele>
        <time>2018-09-08T08:16:27Z</time>
      </trkpt>
      <trkpt lat="44.0986" lon="1.89039">
        <ele>155.87</ele>
        <time>2018-09-08T08:16:30Z</time>
      </trkpt>
      <trkpt lat="44.09864" lon="1.89039">
        <ele>155.87</ele>
        <time>2018-09-08T08:16:31Z</time>
      </trkpt>
      <trkpt lat="44.09869" lon="1.89037">
        <ele>154.91</ele>
        <time>2018-09-08T08:16:32Z</time>
      </trkpt>
      <trkpt lat="44.0993" lon="1.89014">
        <ele>156.35</ele>
        <time>2018-09-08T08:16:45Z</time>
      </trkpt>
      <trkpt lat="44.09966" lon="1.88995">
        <ele>155.39</ele>
        <time>2018-09-08T08:16:53Z</time>
      </trkpt>
      <trkpt lat="44.09982" lon="1.88988">
        <ele>155.87</ele>
        <time>2018-09-08T08:16:56Z</time>
      </trkpt>
      <trkpt lat="44.09988" lon="1.88986">
        <ele>155.87</ele>
        <time>2018-09-08T08:16:57Z</time>
      </trkpt>
      <trkpt lat="44.09999" lon="1.88984">
        <ele>155.39</ele>
        <time>2018-09-08T08:16:59Z</time>
      </trkpt>
      <trkpt lat="44.10005" lon="1.88983">
        <ele>155.39</ele>
        <time>2018-09-08T08:17:00Z</time>
      </trkpt>
      <trkpt lat="44.1006" lon="1.88969">
        <ele>156.83</ele>
        <time>2018-09-08T08:17:09Z</time>
      </trkpt>
      <trkpt lat="44.10066" lon="1.88969">
        <ele>156.35</ele>
        <time>2018-09-08T08:17:10Z</time>
      </trkpt>
      <trkpt lat="44.10072" lon="1.8897">
        <ele>156.35</ele>
        <time>2018-09-08T08:17:11Z</time>
      </trkpt>
      <trkpt lat="44.10153" lon="1.8896">
        <ele>154.91</ele>
        <time>2018-09-08T08:17:24Z</time>
      </trkpt>
      <trkpt lat="44.10217" lon="1.88962">
        <ele>155.39</ele>
        <time>2018-09-08T08:17:35Z</time>
      </trkpt>
      <trkpt lat="44.10223" lon="1.88963">
        <ele>155.39</ele>
        <time>2018-09-08T08:17:36Z</time>
      </trkpt>
      <trkpt lat="44.10227" lon="1.88965">
        <ele>154.91</ele>
        <time>2018-09-08T08:17:37Z</time>
      </trkpt>
      <trkpt lat="44.10232" lon="1.88966">
        <ele>155.39</ele>
        <time>2018-09-08T08:17:38Z</time>
      </trkpt>
      <trkpt lat="44.10285" lon="1.88976">
        <ele>154.91</ele>
        <time>2018-09-08T08:17:48Z</time>
      </trkpt>
      <trkpt lat="44.10291" lon="1.88979">
        <ele>155.39</ele>
        <time>2018-09-08T08:17:49Z</time>
      </trkpt>
      <trkpt lat="44.10302" lon="1.88985">
        <ele>154.43</ele>
        <time>2018-09-08T08:17:51Z</time>
      </trkpt>
      <trkpt lat="44.10316" lon="1.88996">
        <ele>154.43</ele>
        <time>2018-09-08T08:17:54Z</time>
      </trkpt>
      <trkpt lat="44.1032" lon="1.89001">
        <ele>154.91</ele>
        <time>2018-09-08T08:17:55Z</time>
      </trkpt>
      <trkpt lat="44.1034" lon="1.89028">
        <ele>154.91</ele>
        <time>2018-09-08T08:18:01Z</time>
      </trkpt>
      <trkpt lat="44.10348" lon="1.89036">
        <ele>154.91</ele>
        <time>2018-09-08T08:18:03Z</time>
      </trkpt>
      <trkpt lat="44.10351" lon="1.8904">
        <ele>155.39</ele>
        <time>2018-09-08T08:18:04Z</time>
      </trkpt>
      <trkpt lat="44.10354" lon="1.89045">
        <ele>154.91</ele>
        <time>2018-09-08T08:18:05Z</time>
      </trkpt>
      <trkpt lat="44.10357" lon="1.8905">
        <ele>154.91</ele>
        <time>2018-09-08T08:18:06Z</time>
      </trkpt>
      <trkpt lat="44.10359" lon="1.89054">
        <ele>155.87</ele>
        <time>2018-09-08T08:18:07Z</time>
      </trkpt>
      <trkpt lat="44.10361" lon="1.89058">
        <ele>155.87</ele>
        <time>2018-09-08T08:18:08Z</time>
      </trkpt>
      <trkpt lat="44.10363" lon="1.89062">
        <ele>155.87</ele>
        <time>2018-09-08T08:18:09Z</time>
      </trkpt>
      <trkpt lat="44.10365" lon="1.89066">
        <ele>156.35</ele>
        <time>2018-09-08T08:18:10Z</time>
      </trkpt>
      <trkpt lat="44.10366" lon="1.8907">
        <ele>156.83</ele>
        <time>2018-09-08T08:18:11Z</time>
      </trkpt>
      <trkpt lat="44.10367" lon="1.89074">
        <ele>157.31</ele>
        <time>2018-09-08T08:18:12Z</time>
      </trkpt>
      <trkpt lat="44.10369" lon="1.89078">
        <ele>157.31</ele>
        <time>2018-09-08T08:18:13Z</time>
      </trkpt>
      <trkpt lat="44.10379" lon="1.89111">
        <ele>160.68</ele>
        <time>2018-09-08T08:18:23Z</time>
      </trkpt>
      <trkpt lat="44.10396" lon="1.89174">
        <ele>161.64</ele>
        <time>2018-09-08T08:18:37Z</time>
      </trkpt>
      <trkpt lat="44.10405" lon="1.89212">
        <ele>159.24</ele>
        <time>2018-09-08T08:18:42Z</time>
      </trkpt>
      <trkpt lat="44.10405" lon="1.89221">
        <ele>159.24</ele>
        <time>2018-09-08T08:18:43Z</time>
      </trkpt>
      <trkpt lat="44.10402" lon="1.89268">
        <ele>156.83</ele>
        <time>2018-09-08T08:18:48Z</time>
      </trkpt>
      <trkpt lat="44.10397" lon="1.89283">
        <ele>156.83</ele>
        <time>2018-09-08T08:18:50Z</time>
      </trkpt>
      <trkpt lat="44.10394" lon="1.89289">
        <ele>156.83</ele>
        <time>2018-09-08T08:18:51Z</time>
      </trkpt>
      <trkpt lat="44.10383" lon="1.89313">
        <ele>156.83</ele>
        <time>2018-09-08T08:18:55Z</time>
      </trkpt>
      <trkpt lat="44.10376" lon="1.89329">
        <ele>154.91</ele>
        <time>2018-09-08T08:18:58Z</time>
      </trkpt>
      <trkpt lat="44.10354" lon="1.89414">
        <ele>152.99</ele>
        <time>2018-09-08T08:19:11Z</time>
      </trkpt>
      <trkpt lat="44.10321" lon="1.89473">
        <ele>152.99</ele>
        <time>2018-09-08T08:19:24Z</time>
      </trkpt>
      <trkpt lat="44.1029" lon="1.8952">
        <ele>154.43</ele>
        <time>2018-09-08T08:19:36Z</time>
      </trkpt>
      <trkpt lat="44.10281" lon="1.89579">
        <ele>152.51</ele>
        <time>2018-09-08T08:19:45Z</time>
      </trkpt>
      <trkpt lat="44.10273" lon="1.89648">
        <ele>152.03</ele>
        <time>2018-09-08T08:19:57Z</time>
      </trkpt>
      <trkpt lat="44.10278" lon="1.89715">
        <ele>152.51</ele>
        <time>2018-09-08T08:20:08Z</time>
      </trkpt>
      <trkpt lat="44.10277" lon="1.8972">
        <ele>152.99</ele>
        <time>2018-09-08T08:20:09Z</time>
      </trkpt>
      <trkpt lat="44.10262" lon="1.89771">
        <ele>155.39</ele>
        <time>2018-09-08T08:20:20Z</time>
      </trkpt>
      <trkpt lat="44.10255" lon="1.89829">
        <ele>154.43</ele>
        <time>2018-09-08T08:20:33Z</time>
      </trkpt>
      <trkpt lat="44.10257" lon="1.89863">
        <ele>153.95</ele>
        <time>2018-09-08T08:20:42Z</time>
      </trkpt>
      <trkpt lat="44.10259" lon="1.89876">
        <ele>154.43</ele>
        <time>2018-09-08T08:20:45Z</time>
      </trkpt>
      <trkpt lat="44.10269" lon="1.89914">
        <ele>154.43</ele>
        <time>2018-09-08T08:20:55Z</time>
      </trkpt>
      <trkpt lat="44.10277" lon="1.89935">
        <ele>153.47</ele>
        <time>2018-09-08T08:20:59Z</time>
      </trkpt>
      <trkpt lat="44.10282" lon="1.89958">
        <ele>152.99</ele>
        <time>2018-09-08T08:21:03Z</time>
      </trkpt>
      <trkpt lat="44.10296" lon="1.90007">
        <ele>154.91</ele>
        <time>2018-09-08T08:21:15Z</time>
      </trkpt>
      <trkpt lat="44.10296" lon="1.90018">
        <ele>156.35</ele>
        <time>2018-09-08T08:21:19Z</time>
      </trkpt>
      <trkpt lat="44.10285" lon="1.90032">
        <ele>159.72</ele>
        <time>2018-09-08T08:21:30Z</time>
      </trkpt>
      <trkpt lat="44.10275" lon="1.90037">
        <ele>161.16</ele>
        <time>2018-09-08T08:21:36Z</time>
      </trkpt>
      <trkpt lat="44.10264" lon="1.9004">
        <ele>163.56</ele>
        <time>2018-09-08T08:21:44Z</time>
      </trkpt>
      <trkpt lat="44.10256" lon="1.90053">
        <ele>165.48</ele>
        <time>2018-09-08T08:21:52Z</time>
      </trkpt>
      <trkpt lat="44.10256" lon="1.90064">
        <ele>166.45</ele>
        <time>2018-09-08T08:21:57Z</time>
      </trkpt>
      <trkpt lat="44.10261" lon="1.90073">
        <ele>167.41</ele>
        <time>2018-09-08T08:22:02Z</time>
      </trkpt>
      <trkpt lat="44.10272" lon="1.90101">
        <ele>170.77</ele>
        <time>2018-09-08T08:22:16Z</time>
      </trkpt>
      <trkpt lat="44.10278" lon="1.90116">
        <ele>173.17</ele>
        <time>2018-09-08T08:22:25Z</time>
      </trkpt>
      <trkpt lat="44.10266" lon="1.90135">
        <ele>176.06</ele>
        <time>2018-09-08T08:22:38Z</time>
      </trkpt>
      <trkpt lat="44.10248" lon="1.90145">
        <ele>178.94</ele>
        <time>2018-09-08T08:22:52Z</time>
      </trkpt>
      <trkpt lat="44.10245" lon="1.90146">
        <ele>179.42</ele>
        <time>2018-09-08T08:22:54Z</time>
      </trkpt>
      <trkpt lat="44.10229" lon="1.90155">
        <ele>182.31</ele>
        <time>2018-09-08T08:23:06Z</time>
      </trkpt>
      <trkpt lat="44.10225" lon="1.90157">
        <ele>183.75</ele>
        <time>2018-09-08T08:23:09Z</time>
      </trkpt>
      <trkpt lat="44.10218" lon="1.90167">
        <ele>184.71</ele>
        <time>2018-09-08T08:23:16Z</time>
      </trkpt>
      <trkpt lat="44.10217" lon="1.90171">
        <ele>185.19</ele>
        <time>2018-09-08T08:23:20Z</time>
      </trkpt>
      <trkpt lat="44.10219" lon="1.9018">
        <ele>186.63</ele>
        <time>2018-09-08T08:23:27Z</time>
      </trkpt>
      <trkpt lat="44.10219" lon="1.90194">
        <ele>188.56</ele>
        <time>2018-09-08T08:23:43Z</time>
      </trkpt>
      <trkpt lat="44.10219" lon="1.90195">
        <ele>188.56</ele>
        <time>2018-09-08T08:23:44Z</time>
      </trkpt>
      <trkpt lat="44.10215" lon="1.90212">
        <ele>192.4</ele>
        <time>2018-09-08T08:23:54Z</time>
      </trkpt>
      <trkpt lat="44.10213" lon="1.90225">
        <ele>194.8</ele>
        <time>2018-09-08T08:24:07Z</time>
      </trkpt>
      <trkpt lat="44.10213" lon="1.90234">
        <ele>197.21</ele>
        <time>2018-09-08T08:24:16Z</time>
      </trkpt>
      <trkpt lat="44.10215" lon="1.90245">
        <ele>198.17</ele>
        <time>2018-09-08T08:24:24Z</time>
      </trkpt>
      <trkpt lat="44.10222" lon="1.9026">
        <ele>199.61</ele>
        <time>2018-09-08T08:24:35Z</time>
      </trkpt>
      <trkpt lat="44.10224" lon="1.90263">
        <ele>199.61</ele>
        <time>2018-09-08T08:24:37Z</time>
      </trkpt>
      <trkpt lat="44.10249" lon="1.90287">
        <ele>202.01</ele>
        <time>2018-09-08T08:24:52Z</time>
      </trkpt>
      <trkpt lat="44.10255" lon="1.90293">
        <ele>202.49</ele>
        <time>2018-09-08T08:24:56Z</time>
      </trkpt>
      <trkpt lat="44.10272" lon="1.90317">
        <ele>205.86</ele>
        <time>2018-09-08T08:25:11Z</time>
      </trkpt>
      <trkpt lat="44.10283" lon="1.90334">
        <ele>207.78</ele>
        <time>2018-09-08T08:25:22Z</time>
      </trkpt>
      <trkpt lat="44.10283" lon="1.90341">
        <ele>208.74</ele>
        <time>2018-09-08T08:25:25Z</time>
      </trkpt>
      <trkpt lat="44.10281" lon="1.90345">
        <ele>209.22</ele>
        <time>2018-09-08T08:25:28Z</time>
      </trkpt>
      <trkpt lat="44.10279" lon="1.90345">
        <ele>209.22</ele>
        <time>2018-09-08T08:25:29Z</time>
      </trkpt>
      <trkpt lat="44.10278" lon="1.90346">
        <ele>209.22</ele>
        <time>2018-09-08T08:25:30Z</time>
      </trkpt>
      <trkpt lat="44.10261" lon="1.90354">
        <ele>212.59</ele>
        <time>2018-09-08T08:25:44Z</time>
      </trkpt>
      <trkpt lat="44.10245" lon="1.90359">
        <ele>215.95</ele>
        <time>2018-09-08T08:25:56Z</time>
      </trkpt>
      <trkpt lat="44.10224" lon="1.90362">
        <ele>217.4</ele>
        <time>2018-09-08T08:26:10Z</time>
      </trkpt>
      <trkpt lat="44.10202" lon="1.90364">
        <ele>220.76</ele>
        <time>2018-09-08T08:26:24Z</time>
      </trkpt>
      <trkpt lat="44.10195" lon="1.90365">
        <ele>221.72</ele>
        <time>2018-09-08T08:26:29Z</time>
      </trkpt>
      <trkpt lat="44.1017" lon="1.90361">
        <ele>224.61</ele>
        <time>2018-09-08T08:26:46Z</time>
      </trkpt>
      <trkpt lat="44.10148" lon="1.90355">
        <ele>227.01</ele>
        <time>2018-09-08T08:27:02Z</time>
      </trkpt>
      <trkpt lat="44.10126" lon="1.90354">
        <ele>229.41</ele>
        <time>2018-09-08T08:27:16Z</time>
      </trkpt>
      <trkpt lat="44.10107" lon="1.90352">
        <ele>232.78</ele>
        <time>2018-09-08T08:27:30Z</time>
      </trkpt>
      <trkpt lat="44.10094" lon="1.90353">
        <ele>234.7</ele>
        <time>2018-09-08T08:27:38Z</time>
      </trkpt>
      <trkpt lat="44.10101" lon="1.90361">
        <ele>234.7</ele>
        <time>2018-09-08T08:30:18Z</time>
      </trkpt>
      <trkpt lat="44.10123" lon="1.90373">
        <ele>235.18</ele>
        <time>2018-09-08T08:30:21Z</time>
      </trkpt>
      <trkpt lat="44.10156" lon="1.90398">
        <ele>234.7</ele>
        <time>2018-09-08T08:30:27Z</time>
      </trkpt>
      <trkpt lat="44.10162" lon="1.90401">
        <ele>234.7</ele>
        <time>2018-09-08T08:30:28Z</time>
      </trkpt>
      <trkpt lat="44.10245" lon="1.90423">
        <ele>232.78</ele>
        <time>2018-09-08T08:30:42Z</time>
      </trkpt>
      <trkpt lat="44.10257" lon="1.90428">
        <ele>231.81</ele>
        <time>2018-09-08T08:30:44Z</time>
      </trkpt>
      <trkpt lat="44.10291" lon="1.90447">
        <ele>227.97</ele>
        <time>2018-09-08T08:30:49Z</time>
      </trkpt>
      <trkpt lat="44.10323" lon="1.90468">
        <ele>224.12</ele>
        <time>2018-09-08T08:30:53Z</time>
      </trkpt>
      <trkpt lat="44.10355" lon="1.90491">
        <ele>218.84</ele>
        <time>2018-09-08T08:30:57Z</time>
      </trkpt>
      <trkpt lat="44.10369" lon="1.90499">
        <ele>217.88</ele>
        <time>2018-09-08T08:30:59Z</time>
      </trkpt>
      <trkpt lat="44.10376" lon="1.90501">
        <ele>216.43</ele>
        <time>2018-09-08T08:31:00Z</time>
      </trkpt>
      <trkpt lat="44.10384" lon="1.90501">
        <ele>215.95</ele>
        <time>2018-09-08T08:31:01Z</time>
      </trkpt>
      <trkpt lat="44.10391" lon="1.90501">
        <ele>215.47</ele>
        <time>2018-09-08T08:31:02Z</time>
      </trkpt>
      <trkpt lat="44.10398" lon="1.905">
        <ele>214.51</ele>
        <time>2018-09-08T08:31:03Z</time>
      </trkpt>
      <trkpt lat="44.10411" lon="1.905">
        <ele>213.55</ele>
        <time>2018-09-08T08:31:05Z</time>
      </trkpt>
      <trkpt lat="44.10422" lon="1.90503">
        <ele>211.63</ele>
        <time>2018-09-08T08:31:07Z</time>
      </trkpt>
      <trkpt lat="44.10427" lon="1.90505">
        <ele>211.15</ele>
        <time>2018-09-08T08:31:08Z</time>
      </trkpt>
      <trkpt lat="44.10431" lon="1.9051">
        <ele>210.67</ele>
        <time>2018-09-08T08:31:09Z</time>
      </trkpt>
      <trkpt lat="44.10439" lon="1.90519">
        <ele>208.26</ele>
        <time>2018-09-08T08:31:11Z</time>
      </trkpt>
      <trkpt lat="44.10443" lon="1.90523">
        <ele>208.26</ele>
        <time>2018-09-08T08:31:12Z</time>
      </trkpt>
      <trkpt lat="44.10448" lon="1.90525">
        <ele>207.3</ele>
        <time>2018-09-08T08:31:13Z</time>
      </trkpt>
      <trkpt lat="44.10453" lon="1.90527">
        <ele>206.82</ele>
        <time>2018-09-08T08:31:14Z</time>
      </trkpt>
      <trkpt lat="44.10458" lon="1.90527">
        <ele>205.86</ele>
        <time>2018-09-08T08:31:15Z</time>
      </trkpt>
      <trkpt lat="44.10464" lon="1.90527">
        <ele>204.9</ele>
        <time>2018-09-08T08:31:16Z</time>
      </trkpt>
      <trkpt lat="44.10477" lon="1.90526">
        <ele>202.49</ele>
        <time>2018-09-08T08:31:18Z</time>
      </trkpt>
      <trkpt lat="44.10484" lon="1.90526">
        <ele>201.05</ele>
        <time>2018-09-08T08:31:19Z</time>
      </trkpt>
      <trkpt lat="44.1049" lon="1.90528">
        <ele>199.61</ele>
        <time>2018-09-08T08:31:20Z</time>
      </trkpt>
      <trkpt lat="44.10497" lon="1.9053">
        <ele>198.65</ele>
        <time>2018-09-08T08:31:21Z</time>
      </trkpt>
      <trkpt lat="44.10505" lon="1.90533">
        <ele>197.69</ele>
        <time>2018-09-08T08:31:22Z</time>
      </trkpt>
      <trkpt lat="44.10513" lon="1.90535">
        <ele>196.25</ele>
        <time>2018-09-08T08:31:23Z</time>
      </trkpt>
      <trkpt lat="44.10522" lon="1.90536">
        <ele>194.8</ele>
        <time>2018-09-08T08:31:24Z</time>
      </trkpt>
      <trkpt lat="44.10542" lon="1.90541">
        <ele>190.96</ele>
        <time>2018-09-08T08:31:26Z</time>
      </trkpt>
      <trkpt lat="44.10553" lon="1.90548">
        <ele>190</ele>
        <time>2018-09-08T08:31:27Z</time>
      </trkpt>
      <trkpt lat="44.10563" lon="1.90557">
        <ele>190</ele>
        <time>2018-09-08T08:31:28Z</time>
      </trkpt>
      <trkpt lat="44.10578" lon="1.90571">
        <ele>186.63</ele>
        <time>2018-09-08T08:31:30Z</time>
      </trkpt>
      <trkpt lat="44.10585" lon="1.90574">
        <ele>185.19</ele>
        <time>2018-09-08T08:31:31Z</time>
      </trkpt>
      <trkpt lat="44.10593" lon="1.90574">
        <ele>183.75</ele>
        <time>2018-09-08T08:31:32Z</time>
      </trkpt>
      <trkpt lat="44.10601" lon="1.90571">
        <ele>183.27</ele>
        <time>2018-09-08T08:31:33Z</time>
      </trkpt>
      <trkpt lat="44.10609" lon="1.90567">
        <ele>182.79</ele>
        <time>2018-09-08T08:31:34Z</time>
      </trkpt>
      <trkpt lat="44.10618" lon="1.90563">
        <ele>182.79</ele>
        <time>2018-09-08T08:31:35Z</time>
      </trkpt>
      <trkpt lat="44.10635" lon="1.90555">
        <ele>178.46</ele>
        <time>2018-09-08T08:31:37Z</time>
      </trkpt>
      <trkpt lat="44.1066" lon="1.90544">
        <ele>175.1</ele>
        <time>2018-09-08T08:31:40Z</time>
      </trkpt>
      <trkpt lat="44.10677" lon="1.90535">
        <ele>171.25</ele>
        <time>2018-09-08T08:31:42Z</time>
      </trkpt>
      <trkpt lat="44.10704" lon="1.90521">
        <ele>166.93</ele>
        <time>2018-09-08T08:31:45Z</time>
      </trkpt>
      <trkpt lat="44.10722" lon="1.90513">
        <ele>163.56</ele>
        <time>2018-09-08T08:31:47Z</time>
      </trkpt>
      <trkpt lat="44.10739" lon="1.90506">
        <ele>160.2</ele>
        <time>2018-09-08T08:31:49Z</time>
      </trkpt>
      <trkpt lat="44.10761" lon="1.90499">
        <ele>156.35</ele>
        <time>2018-09-08T08:31:52Z</time>
      </trkpt>
      <trkpt lat="44.10782" lon="1.905">
        <ele>152.99</ele>
        <time>2018-09-08T08:31:58Z</time>
      </trkpt>
      <trkpt lat="44.10782" lon="1.90501">
        <ele>154.43</ele>
        <time>2018-09-08T08:32:01Z</time>
      </trkpt>
      <trkpt lat="44.10783" lon="1.90501">
        <ele>153.95</ele>
        <time>2018-09-08T08:32:21Z</time>
      </trkpt>
      <trkpt lat="44.10784" lon="1.90503">
        <ele>153.47</ele>
        <time>2018-09-08T08:32:22Z</time>
      </trkpt>
      <trkpt lat="44.10785" lon="1.90505">
        <ele>153.95</ele>
        <time>2018-09-08T08:32:23Z</time>
      </trkpt>
      <trkpt lat="44.10786" lon="1.90508">
        <ele>153.95</ele>
        <time>2018-09-08T08:32:24Z</time>
      </trkpt>
      <trkpt lat="44.10786" lon="1.90512">
        <ele>154.43</ele>
        <time>2018-09-08T08:32:25Z</time>
      </trkpt>
      <trkpt lat="44.10787" lon="1.90516">
        <ele>154.43</ele>
        <time>2018-09-08T08:32:26Z</time>
      </trkpt>
      <trkpt lat="44.10808" lon="1.90569">
        <ele>156.83</ele>
        <time>2018-09-08T08:32:39Z</time>
      </trkpt>
      <trkpt lat="44.10802" lon="1.90605">
        <ele>159.24</ele>
        <time>2018-09-08T08:32:47Z</time>
      </trkpt>
      <trkpt lat="44.10767" lon="1.90644">
        <ele>161.64</ele>
        <time>2018-09-08T08:33:01Z</time>
      </trkpt>
      <trkpt lat="44.10759" lon="1.90664">
        <ele>162.6</ele>
        <time>2018-09-08T08:33:07Z</time>
      </trkpt>
      <trkpt lat="44.1076" lon="1.90667">
        <ele>163.56</ele>
        <time>2018-09-08T08:33:08Z</time>
      </trkpt>
      <trkpt lat="44.10762" lon="1.90669">
        <ele>162.6</ele>
        <time>2018-09-08T08:33:09Z</time>
      </trkpt>
      <trkpt lat="44.10765" lon="1.9067">
        <ele>163.56</ele>
        <time>2018-09-08T08:33:10Z</time>
      </trkpt>
      <trkpt lat="44.10767" lon="1.90671">
        <ele>163.56</ele>
        <time>2018-09-08T08:33:11Z</time>
      </trkpt>
      <trkpt lat="44.10769" lon="1.9067">
        <ele>164.04</ele>
        <time>2018-09-08T08:33:12Z</time>
      </trkpt>
      <trkpt lat="44.10772" lon="1.90668">
        <ele>163.56</ele>
        <time>2018-09-08T08:33:13Z</time>
      </trkpt>
      <trkpt lat="44.10774" lon="1.90665">
        <ele>164.04</ele>
        <time>2018-09-08T08:33:14Z</time>
      </trkpt>
      <trkpt lat="44.10776" lon="1.90663">
        <ele>164.04</ele>
        <time>2018-09-08T08:33:15Z</time>
      </trkpt>
      <trkpt lat="44.10778" lon="1.90662">
        <ele>164.04</ele>
        <time>2018-09-08T08:33:16Z</time>
      </trkpt>
      <trkpt lat="44.10779" lon="1.90661">
        <ele>163.56</ele>
        <time>2018-09-08T08:33:32Z</time>
      </trkpt>
      <trkpt lat="44.10805" lon="1.9064">
        <ele>165</ele>
        <time>2018-09-08T08:33:42Z</time>
      </trkpt>
      <trkpt lat="44.10867" lon="1.9061">
        <ele>168.37</ele>
        <time>2018-09-08T08:34:00Z</time>
      </trkpt>
      <trkpt lat="44.10908" lon="1.90602">
        <ele>171.25</ele>
        <time>2018-09-08T08:34:12Z</time>
      </trkpt>
      <trkpt lat="44.10951" lon="1.90607">
        <ele>173.66</ele>
        <time>2018-09-08T08:34:25Z</time>
      </trkpt>
      <trkpt lat="44.10993" lon="1.90625">
        <ele>176.06</ele>
        <time>2018-09-08T08:34:39Z</time>
      </trkpt>
      <trkpt lat="44.1103" lon="1.90652">
        <ele>177.98</ele>
        <time>2018-09-08T08:34:52Z</time>
      </trkpt>
      <trkpt lat="44.11049" lon="1.90666">
        <ele>177.98</ele>
        <time>2018-09-08T08:34:57Z</time>
      </trkpt>
      <trkpt lat="44.1112" lon="1.90717">
        <ele>178.94</ele>
        <time>2018-09-08T08:35:13Z</time>
      </trkpt>
      <trkpt lat="44.11172" lon="1.90755">
        <ele>176.06</ele>
        <time>2018-09-08T08:35:23Z</time>
      </trkpt>
      <trkpt lat="44.11227" lon="1.90788">
        <ele>173.17</ele>
        <time>2018-09-08T08:35:31Z</time>
      </trkpt>
      <trkpt lat="44.11276" lon="1.90816">
        <ele>169.81</ele>
        <time>2018-09-08T08:35:37Z</time>
      </trkpt>
      <trkpt lat="44.11298" lon="1.9083">
        <ele>170.29</ele>
        <time>2018-09-08T08:35:40Z</time>
      </trkpt>
      <trkpt lat="44.11306" lon="1.90832">
        <ele>170.77</ele>
        <time>2018-09-08T08:35:41Z</time>
      </trkpt>
      <trkpt lat="44.11313" lon="1.90832">
        <ele>170.77</ele>
        <time>2018-09-08T08:35:42Z</time>
      </trkpt>
      <trkpt lat="44.11319" lon="1.9083">
        <ele>170.77</ele>
        <time>2018-09-08T08:35:43Z</time>
      </trkpt>
      <trkpt lat="44.11325" lon="1.90826">
        <ele>171.25</ele>
        <time>2018-09-08T08:35:44Z</time>
      </trkpt>
      <trkpt lat="44.11331" lon="1.90822">
        <ele>171.73</ele>
        <time>2018-09-08T08:35:45Z</time>
      </trkpt>
      <trkpt lat="44.11336" lon="1.90817">
        <ele>171.73</ele>
        <time>2018-09-08T08:35:46Z</time>
      </trkpt>
      <trkpt lat="44.1134" lon="1.90812">
        <ele>171.25</ele>
        <time>2018-09-08T08:35:47Z</time>
      </trkpt>
      <trkpt lat="44.11344" lon="1.90807">
        <ele>172.21</ele>
        <time>2018-09-08T08:35:48Z</time>
      </trkpt>
      <trkpt lat="44.11368" lon="1.90781">
        <ele>173.17</ele>
        <time>2018-09-08T08:35:54Z</time>
      </trkpt>
      <trkpt lat="44.11372" lon="1.90778">
        <ele>173.17</ele>
        <time>2018-09-08T08:35:55Z</time>
      </trkpt>
      <trkpt lat="44.11377" lon="1.90777">
        <ele>173.66</ele>
        <time>2018-09-08T08:35:56Z</time>
      </trkpt>
      <trkpt lat="44.11381" lon="1.90776">
        <ele>173.66</ele>
        <time>2018-09-08T08:35:57Z</time>
      </trkpt>
      <trkpt lat="44.11385" lon="1.90776">
        <ele>174.14</ele>
        <time>2018-09-08T08:35:58Z</time>
      </trkpt>
      <trkpt lat="44.11389" lon="1.90777">
        <ele>174.14</ele>
        <time>2018-09-08T08:35:59Z</time>
      </trkpt>
      <trkpt lat="44.11394" lon="1.90778">
        <ele>173.66</ele>
        <time>2018-09-08T08:36:00Z</time>
      </trkpt>
      <trkpt lat="44.11402" lon="1.90782">
        <ele>175.1</ele>
        <time>2018-09-08T08:36:02Z</time>
      </trkpt>
      <trkpt lat="44.11406" lon="1.90785">
        <ele>174.14</ele>
        <time>2018-09-08T08:36:03Z</time>
      </trkpt>
      <trkpt lat="44.11433" lon="1.90807">
        <ele>173.17</ele>
        <time>2018-09-08T08:36:10Z</time>
      </trkpt>
      <trkpt lat="44.11438" lon="1.9081">
        <ele>173.17</ele>
        <time>2018-09-08T08:36:11Z</time>
      </trkpt>
      <trkpt lat="44.11443" lon="1.90813">
        <ele>173.17</ele>
        <time>2018-09-08T08:36:12Z</time>
      </trkpt>
      <trkpt lat="44.11514" lon="1.90843">
        <ele>170.29</ele>
        <time>2018-09-08T08:36:23Z</time>
      </trkpt>
      <trkpt lat="44.11544" lon="1.90855">
        <ele>168.37</ele>
        <time>2018-09-08T08:36:27Z</time>
      </trkpt>
      <trkpt lat="44.11552" lon="1.90857">
        <ele>167.89</ele>
        <time>2018-09-08T08:36:28Z</time>
      </trkpt>
      <trkpt lat="44.1156" lon="1.90856">
        <ele>167.41</ele>
        <time>2018-09-08T08:36:29Z</time>
      </trkpt>
      <trkpt lat="44.11569" lon="1.90853">
        <ele>166.93</ele>
        <time>2018-09-08T08:36:30Z</time>
      </trkpt>
      <trkpt lat="44.11577" lon="1.90848">
        <ele>166.45</ele>
        <time>2018-09-08T08:36:31Z</time>
      </trkpt>
      <trkpt lat="44.11585" lon="1.90842">
        <ele>165.96</ele>
        <time>2018-09-08T08:36:32Z</time>
      </trkpt>
      <trkpt lat="44.11592" lon="1.90834">
        <ele>165.48</ele>
        <time>2018-09-08T08:36:33Z</time>
      </trkpt>
      <trkpt lat="44.11607" lon="1.9082">
        <ele>164.52</ele>
        <time>2018-09-08T08:36:35Z</time>
      </trkpt>
      <trkpt lat="44.11623" lon="1.90806">
        <ele>163.08</ele>
        <time>2018-09-08T08:36:37Z</time>
      </trkpt>
      <trkpt lat="44.11648" lon="1.90791">
        <ele>161.16</ele>
        <time>2018-09-08T08:36:40Z</time>
      </trkpt>
      <trkpt lat="44.11657" lon="1.90788">
        <ele>160.68</ele>
        <time>2018-09-08T08:36:41Z</time>
      </trkpt>
      <trkpt lat="44.11745" lon="1.90773">
        <ele>157.31</ele>
        <time>2018-09-08T08:36:51Z</time>
      </trkpt>
      <trkpt lat="44.1183" lon="1.90773">
        <ele>155.39</ele>
        <time>2018-09-08T08:37:02Z</time>
      </trkpt>
      <trkpt lat="44.11837" lon="1.90775">
        <ele>155.87</ele>
        <time>2018-09-08T08:37:03Z</time>
      </trkpt>
      <trkpt lat="44.11844" lon="1.90779">
        <ele>155.39</ele>
        <time>2018-09-08T08:37:04Z</time>
      </trkpt>
      <trkpt lat="44.1185" lon="1.90785">
        <ele>155.39</ele>
        <time>2018-09-08T08:37:05Z</time>
      </trkpt>
      <trkpt lat="44.11855" lon="1.90791">
        <ele>155.39</ele>
        <time>2018-09-08T08:37:06Z</time>
      </trkpt>
      <trkpt lat="44.11859" lon="1.90799">
        <ele>154.91</ele>
        <time>2018-09-08T08:37:07Z</time>
      </trkpt>
      <trkpt lat="44.11862" lon="1.90807">
        <ele>154.91</ele>
        <time>2018-09-08T08:37:08Z</time>
      </trkpt>
      <trkpt lat="44.11863" lon="1.90814">
        <ele>154.43</ele>
        <time>2018-09-08T08:37:09Z</time>
      </trkpt>
      <trkpt lat="44.11865" lon="1.90821">
        <ele>153.95</ele>
        <time>2018-09-08T08:37:10Z</time>
      </trkpt>
      <trkpt lat="44.11865" lon="1.90827">
        <ele>154.43</ele>
        <time>2018-09-08T08:37:11Z</time>
      </trkpt>
      <trkpt lat="44.11865" lon="1.90832">
        <ele>153.95</ele>
        <time>2018-09-08T08:37:12Z</time>
      </trkpt>
      <trkpt lat="44.11866" lon="1.90843">
        <ele>153.95</ele>
        <time>2018-09-08T08:37:21Z</time>
      </trkpt>
      <trkpt lat="44.11866" lon="1.90846">
        <ele>153.95</ele>
        <time>2018-09-08T08:37:28Z</time>
      </trkpt>
      <trkpt lat="44.11867" lon="1.90846">
        <ele>153.95</ele>
        <time>2018-09-08T08:37:29Z</time>
      </trkpt>
      <trkpt lat="44.11869" lon="1.90845">
        <ele>153.95</ele>
        <time>2018-09-08T08:37:30Z</time>
      </trkpt>
      <trkpt lat="44.11871" lon="1.90843">
        <ele>153.47</ele>
        <time>2018-09-08T08:37:31Z</time>
      </trkpt>
      <trkpt lat="44.11872" lon="1.9084">
        <ele>153.47</ele>
        <time>2018-09-08T08:37:32Z</time>
      </trkpt>
      <trkpt lat="44.11872" lon="1.90836">
        <ele>152.51</ele>
        <time>2018-09-08T08:37:33Z</time>
      </trkpt>
      <trkpt lat="44.11872" lon="1.90831">
        <ele>152.51</ele>
        <time>2018-09-08T08:37:34Z</time>
      </trkpt>
      <trkpt lat="44.11873" lon="1.90825">
        <ele>152.51</ele>
        <time>2018-09-08T08:37:35Z</time>
      </trkpt>
      <trkpt lat="44.11875" lon="1.90819">
        <ele>152.03</ele>
        <time>2018-09-08T08:37:36Z</time>
      </trkpt>
      <trkpt lat="44.11877" lon="1.90811">
        <ele>151.54</ele>
        <time>2018-09-08T08:37:37Z</time>
      </trkpt>
      <trkpt lat="44.11884" lon="1.90794">
        <ele>150.58</ele>
        <time>2018-09-08T08:37:39Z</time>
      </trkpt>
      <trkpt lat="44.11889" lon="1.90786">
        <ele>149.14</ele>
        <time>2018-09-08T08:37:40Z</time>
      </trkpt>
      <trkpt lat="44.11895" lon="1.90779">
        <ele>149.14</ele>
        <time>2018-09-08T08:37:41Z</time>
      </trkpt>
      <trkpt lat="44.11901" lon="1.90773">
        <ele>148.18</ele>
        <time>2018-09-08T08:37:42Z</time>
      </trkpt>
      <trkpt lat="44.11907" lon="1.90769">
        <ele>149.14</ele>
        <time>2018-09-08T08:37:43Z</time>
      </trkpt>
      <trkpt lat="44.11936" lon="1.90741">
        <ele>149.14</ele>
        <time>2018-09-08T08:37:52Z</time>
      </trkpt>
      <trkpt lat="44.11961" lon="1.90718">
        <ele>152.51</ele>
        <time>2018-09-08T08:38:03Z</time>
      </trkpt>
      <trkpt lat="44.11964" lon="1.90717">
        <ele>152.99</ele>
        <time>2018-09-08T08:38:04Z</time>
      </trkpt>
      <trkpt lat="44.11967" lon="1.90716">
        <ele>152.99</ele>
        <time>2018-09-08T08:38:15Z</time>
      </trkpt>
      <trkpt lat="44.11968" lon="1.90716">
        <ele>152.99</ele>
        <time>2018-09-08T08:38:16Z</time>
      </trkpt>
      <trkpt lat="44.11982" lon="1.90735">
        <ele>155.87</ele>
        <time>2018-09-08T08:38:29Z</time>
      </trkpt>
      <trkpt lat="44.11997" lon="1.90767">
        <ele>157.79</ele>
        <time>2018-09-08T08:38:44Z</time>
      </trkpt>
      <trkpt lat="44.11998" lon="1.90767">
        <ele>157.79</ele>
        <time>2018-09-08T08:38:45Z</time>
      </trkpt>
      <trkpt lat="44.12006" lon="1.90764">
        <ele>162.12</ele>
        <time>2018-09-08T08:38:56Z</time>
      </trkpt>
      <trkpt lat="44.12007" lon="1.90763">
        <ele>162.12</ele>
        <time>2018-09-08T08:38:57Z</time>
      </trkpt>
      <trkpt lat="44.12014" lon="1.90762">
        <ele>165</ele>
        <time>2018-09-08T08:39:07Z</time>
      </trkpt>
      <trkpt lat="44.12019" lon="1.90757">
        <ele>167.41</ele>
        <time>2018-09-08T08:39:21Z</time>
      </trkpt>
      <trkpt lat="44.12022" lon="1.90744">
        <ele>169.81</ele>
        <time>2018-09-08T08:39:35Z</time>
      </trkpt>
      <trkpt lat="44.12024" lon="1.90721">
        <ele>172.69</ele>
        <time>2018-09-08T08:39:50Z</time>
      </trkpt>
      <trkpt lat="44.12026" lon="1.90702">
        <ele>175.58</ele>
        <time>2018-09-08T08:40:04Z</time>
      </trkpt>
      <trkpt lat="44.12026" lon="1.90684">
        <ele>178.46</ele>
        <time>2018-09-08T08:40:18Z</time>
      </trkpt>
      <trkpt lat="44.12026" lon="1.90666">
        <ele>182.31</ele>
        <time>2018-09-08T08:40:33Z</time>
      </trkpt>
      <trkpt lat="44.12027" lon="1.90646">
        <ele>184.71</ele>
        <time>2018-09-08T08:40:47Z</time>
      </trkpt>
      <trkpt lat="44.12025" lon="1.9064">
        <ele>185.19</ele>
        <time>2018-09-08T08:40:53Z</time>
      </trkpt>
      <trkpt lat="44.12024" lon="1.90619">
        <ele>188.56</ele>
        <time>2018-09-08T08:41:07Z</time>
      </trkpt>
      <trkpt lat="44.12024" lon="1.90599">
        <ele>190.48</ele>
        <time>2018-09-08T08:41:22Z</time>
      </trkpt>
      <trkpt lat="44.12027" lon="1.90576">
        <ele>191.92</ele>
        <time>2018-09-08T08:41:39Z</time>
      </trkpt>
      <trkpt lat="44.12029" lon="1.90566">
        <ele>192.88</ele>
        <time>2018-09-08T08:41:45Z</time>
      </trkpt>
      <trkpt lat="44.1204" lon="1.9056">
        <ele>194.32</ele>
        <time>2018-09-08T08:42:02Z</time>
      </trkpt>
      <trkpt lat="44.12051" lon="1.90544">
        <ele>197.21</ele>
        <time>2018-09-08T08:42:14Z</time>
      </trkpt>
      <trkpt lat="44.12055" lon="1.90529">
        <ele>199.61</ele>
        <time>2018-09-08T08:42:26Z</time>
      </trkpt>
      <trkpt lat="44.12059" lon="1.90516">
        <ele>200.57</ele>
        <time>2018-09-08T08:42:42Z</time>
      </trkpt>
      <trkpt lat="44.12065" lon="1.90497">
        <ele>202.98</ele>
        <time>2018-09-08T08:42:58Z</time>
      </trkpt>
      <trkpt lat="44.1207" lon="1.90478">
        <ele>203.94</ele>
        <time>2018-09-08T08:43:10Z</time>
      </trkpt>
      <trkpt lat="44.1208" lon="1.90438">
        <ele>206.34</ele>
        <time>2018-09-08T08:43:26Z</time>
      </trkpt>
      <trkpt lat="44.12086" lon="1.90416">
        <ele>206.82</ele>
        <time>2018-09-08T08:43:39Z</time>
      </trkpt>
      <trkpt lat="44.12085" lon="1.90421">
        <ele>206.82</ele>
        <time>2018-09-08T08:43:53Z</time>
      </trkpt>
      <trkpt lat="44.12085" lon="1.90422">
        <ele>207.3</ele>
        <time>2018-09-08T08:44:41Z</time>
      </trkpt>
      <trkpt lat="44.12085" lon="1.90416">
        <ele>207.3</ele>
        <time>2018-09-08T08:45:05Z</time>
      </trkpt>
      <trkpt lat="44.12088" lon="1.90414">
        <ele>207.3</ele>
        <time>2018-09-08T08:45:18Z</time>
      </trkpt>
      <trkpt lat="44.12089" lon="1.90415">
        <ele>208.26</ele>
        <time>2018-09-08T08:46:02Z</time>
      </trkpt>
      <trkpt lat="44.12088" lon="1.90414">
        <ele>207.78</ele>
        <time>2018-09-08T08:46:41Z</time>
      </trkpt>
      <trkpt lat="44.12089" lon="1.9041">
        <ele>208.26</ele>
        <time>2018-09-08T08:46:47Z</time>
      </trkpt>
      <trkpt lat="44.12091" lon="1.90386">
        <ele>209.7</ele>
        <time>2018-09-08T08:46:56Z</time>
      </trkpt>
      <trkpt lat="44.12091" lon="1.90384">
        <ele>210.19</ele>
        <time>2018-09-08T08:46:57Z</time>
      </trkpt>
      <trkpt lat="44.12103" lon="1.90344">
        <ele>210.19</ele>
        <time>2018-09-08T08:47:10Z</time>
      </trkpt>
      <trkpt lat="44.12112" lon="1.90309">
        <ele>213.55</ele>
        <time>2018-09-08T08:47:24Z</time>
      </trkpt>
      <trkpt lat="44.12113" lon="1.90298">
        <ele>214.03</ele>
        <time>2018-09-08T08:47:28Z</time>
      </trkpt>
      <trkpt lat="44.12114" lon="1.90296">
        <ele>214.51</ele>
        <time>2018-09-08T08:47:29Z</time>
      </trkpt>
      <trkpt lat="44.12115" lon="1.90293">
        <ele>214.03</ele>
        <time>2018-09-08T08:47:30Z</time>
      </trkpt>
      <trkpt lat="44.12115" lon="1.90291">
        <ele>214.99</ele>
        <time>2018-09-08T08:47:31Z</time>
      </trkpt>
      <trkpt lat="44.12116" lon="1.90289">
        <ele>214.99</ele>
        <time>2018-09-08T08:47:32Z</time>
      </trkpt>
      <trkpt lat="44.12122" lon="1.90251">
        <ele>216.91</ele>
        <time>2018-09-08T08:47:46Z</time>
      </trkpt>
      <trkpt lat="44.12123" lon="1.90206">
        <ele>216.43</ele>
        <time>2018-09-08T08:47:59Z</time>
      </trkpt>
      <trkpt lat="44.12123" lon="1.90178">
        <ele>215.47</ele>
        <time>2018-09-08T08:48:07Z</time>
      </trkpt>
      <trkpt lat="44.12123" lon="1.90176">
        <ele>215.47</ele>
        <time>2018-09-08T08:48:08Z</time>
      </trkpt>
      <trkpt lat="44.12123" lon="1.90174">
        <ele>215.95</ele>
        <time>2018-09-08T08:48:09Z</time>
      </trkpt>
      <trkpt lat="44.12123" lon="1.9017">
        <ele>215.95</ele>
        <time>2018-09-08T08:48:11Z</time>
      </trkpt>
      <trkpt lat="44.12123" lon="1.90167">
        <ele>215.95</ele>
        <time>2018-09-08T08:48:12Z</time>
      </trkpt>
      <trkpt lat="44.12122" lon="1.90165">
        <ele>215.95</ele>
        <time>2018-09-08T08:48:13Z</time>
      </trkpt>
      <trkpt lat="44.12121" lon="1.90162">
        <ele>216.43</ele>
        <time>2018-09-08T08:48:14Z</time>
      </trkpt>
      <trkpt lat="44.12121" lon="1.9016">
        <ele>216.43</ele>
        <time>2018-09-08T08:48:15Z</time>
      </trkpt>
      <trkpt lat="44.12121" lon="1.90157">
        <ele>216.91</ele>
        <time>2018-09-08T08:48:16Z</time>
      </trkpt>
      <trkpt lat="44.12121" lon="1.90155">
        <ele>216.91</ele>
        <time>2018-09-08T08:48:17Z</time>
      </trkpt>
      <trkpt lat="44.1212" lon="1.90146">
        <ele>218.36</ele>
        <time>2018-09-08T08:48:21Z</time>
      </trkpt>
      <trkpt lat="44.1212" lon="1.9014">
        <ele>218.84</ele>
        <time>2018-09-08T08:48:31Z</time>
      </trkpt>
      <trkpt lat="44.12118" lon="1.90142">
        <ele>218.36</ele>
        <time>2018-09-08T08:49:00Z</time>
      </trkpt>
      <trkpt lat="44.12117" lon="1.90137">
        <ele>218.84</ele>
        <time>2018-09-08T08:49:29Z</time>
      </trkpt>
      <trkpt lat="44.12116" lon="1.90117">
        <ele>221.24</ele>
        <time>2018-09-08T08:49:39Z</time>
      </trkpt>
      <trkpt lat="44.12116" lon="1.90115">
        <ele>222.2</ele>
        <time>2018-09-08T08:49:40Z</time>
      </trkpt>
      <trkpt lat="44.12118" lon="1.90106">
        <ele>222.68</ele>
        <time>2018-09-08T08:49:53Z</time>
      </trkpt>
      <trkpt lat="44.12119" lon="1.90105">
        <ele>222.68</ele>
        <time>2018-09-08T08:49:57Z</time>
      </trkpt>
      <trkpt lat="44.12121" lon="1.90102">
        <ele>222.68</ele>
        <time>2018-09-08T08:50:01Z</time>
      </trkpt>
      <trkpt lat="44.12122" lon="1.90101">
        <ele>221.72</ele>
        <time>2018-09-08T08:50:17Z</time>
      </trkpt>
      <trkpt lat="44.12122" lon="1.90105">
        <ele>221.72</ele>
        <time>2018-09-08T08:51:07Z</time>
      </trkpt>
      <trkpt lat="44.12123" lon="1.90102">
        <ele>222.2</ele>
        <time>2018-09-08T08:51:29Z</time>
      </trkpt>
      <trkpt lat="44.12127" lon="1.901">
        <ele>222.2</ele>
        <time>2018-09-08T08:52:00Z</time>
      </trkpt>
      <trkpt lat="44.12129" lon="1.90098">
        <ele>221.72</ele>
        <time>2018-09-08T08:52:02Z</time>
      </trkpt>
      <trkpt lat="44.1213" lon="1.90097">
        <ele>222.68</ele>
        <time>2018-09-08T08:52:03Z</time>
      </trkpt>
      <trkpt lat="44.12131" lon="1.90095">
        <ele>222.68</ele>
        <time>2018-09-08T08:52:04Z</time>
      </trkpt>
      <trkpt lat="44.12131" lon="1.90092">
        <ele>221.72</ele>
        <time>2018-09-08T08:52:05Z</time>
      </trkpt>
      <trkpt lat="44.12132" lon="1.90089">
        <ele>221.24</ele>
        <time>2018-09-08T08:52:06Z</time>
      </trkpt>
      <trkpt lat="44.12132" lon="1.90085">
        <ele>221.72</ele>
        <time>2018-09-08T08:52:07Z</time>
      </trkpt>
      <trkpt lat="44.12132" lon="1.90048">
        <ele>218.36</ele>
        <time>2018-09-08T08:52:17Z</time>
      </trkpt>
      <trkpt lat="44.12132" lon="1.90046">
        <ele>217.88</ele>
        <time>2018-09-08T08:52:18Z</time>
      </trkpt>
      <trkpt lat="44.12131" lon="1.90043">
        <ele>217.88</ele>
        <time>2018-09-08T08:52:19Z</time>
      </trkpt>
      <trkpt lat="44.12131" lon="1.90039">
        <ele>216.91</ele>
        <time>2018-09-08T08:52:20Z</time>
      </trkpt>
      <trkpt lat="44.12131" lon="1.90035">
        <ele>217.4</ele>
        <time>2018-09-08T08:52:21Z</time>
      </trkpt>
      <trkpt lat="44.12132" lon="1.9003">
        <ele>216.91</ele>
        <time>2018-09-08T08:52:22Z</time>
      </trkpt>
      <trkpt lat="44.12133" lon="1.90024">
        <ele>215.95</ele>
        <time>2018-09-08T08:52:23Z</time>
      </trkpt>
      <trkpt lat="44.12135" lon="1.90017">
        <ele>215.47</ele>
        <time>2018-09-08T08:52:24Z</time>
      </trkpt>
      <trkpt lat="44.12137" lon="1.90009">
        <ele>215.47</ele>
        <time>2018-09-08T08:52:25Z</time>
      </trkpt>
      <trkpt lat="44.1214" lon="1.89992">
        <ele>213.07</ele>
        <time>2018-09-08T08:52:27Z</time>
      </trkpt>
      <trkpt lat="44.12148" lon="1.8997">
        <ele>210.19</ele>
        <time>2018-09-08T08:52:30Z</time>
      </trkpt>
      <trkpt lat="44.12151" lon="1.89964">
        <ele>209.7</ele>
        <time>2018-09-08T08:52:31Z</time>
      </trkpt>
      <trkpt lat="44.12161" lon="1.89939">
        <ele>205.86</ele>
        <time>2018-09-08T08:52:35Z</time>
      </trkpt>
      <trkpt lat="44.12166" lon="1.89925">
        <ele>204.9</ele>
        <time>2018-09-08T08:52:37Z</time>
      </trkpt>
      <trkpt lat="44.1217" lon="1.89919">
        <ele>203.94</ele>
        <time>2018-09-08T08:52:38Z</time>
      </trkpt>
      <trkpt lat="44.12185" lon="1.89898">
        <ele>201.05</ele>
        <time>2018-09-08T08:52:41Z</time>
      </trkpt>
      <trkpt lat="44.12204" lon="1.89871">
        <ele>197.21</ele>
        <time>2018-09-08T08:52:45Z</time>
      </trkpt>
      <trkpt lat="44.12224" lon="1.89848">
        <ele>193.84</ele>
        <time>2018-09-08T08:52:49Z</time>
      </trkpt>
      <trkpt lat="44.12238" lon="1.89828">
        <ele>190.96</ele>
        <time>2018-09-08T08:52:52Z</time>
      </trkpt>
      <trkpt lat="44.12242" lon="1.8982">
        <ele>190</ele>
        <time>2018-09-08T08:52:53Z</time>
      </trkpt>
      <trkpt lat="44.12246" lon="1.89811">
        <ele>189.04</ele>
        <time>2018-09-08T08:52:54Z</time>
      </trkpt>
      <trkpt lat="44.12259" lon="1.8977">
        <ele>184.71</ele>
        <time>2018-09-08T08:52:58Z</time>
      </trkpt>
      <trkpt lat="44.12264" lon="1.89751">
        <ele>183.27</ele>
        <time>2018-09-08T08:53:00Z</time>
      </trkpt>
      <trkpt lat="44.1229" lon="1.89705">
        <ele>180.38</ele>
        <time>2018-09-08T08:53:05Z</time>
      </trkpt>
      <trkpt lat="44.12304" lon="1.89688">
        <ele>178.46</ele>
        <time>2018-09-08T08:53:07Z</time>
      </trkpt>
      <trkpt lat="44.12336" lon="1.89649">
        <ele>177.02</ele>
        <time>2018-09-08T08:53:12Z</time>
      </trkpt>
      <trkpt lat="44.12342" lon="1.8964">
        <ele>175.58</ele>
        <time>2018-09-08T08:53:13Z</time>
      </trkpt>
      <trkpt lat="44.12346" lon="1.89631">
        <ele>176.06</ele>
        <time>2018-09-08T08:53:14Z</time>
      </trkpt>
      <trkpt lat="44.12382" lon="1.89549">
        <ele>174.62</ele>
        <time>2018-09-08T08:53:23Z</time>
      </trkpt>
      <trkpt lat="44.12385" lon="1.8954">
        <ele>174.62</ele>
        <time>2018-09-08T08:53:24Z</time>
      </trkpt>
      <trkpt lat="44.12386" lon="1.89531">
        <ele>174.62</ele>
        <time>2018-09-08T08:53:25Z</time>
      </trkpt>
      <trkpt lat="44.12387" lon="1.89522">
        <ele>174.62</ele>
        <time>2018-09-08T08:53:26Z</time>
      </trkpt>
      <trkpt lat="44.12388" lon="1.89514">
        <ele>174.62</ele>
        <time>2018-09-08T08:53:27Z</time>
      </trkpt>
      <trkpt lat="44.12393" lon="1.89465">
        <ele>175.1</ele>
        <time>2018-09-08T08:53:33Z</time>
      </trkpt>
      <trkpt lat="44.12392" lon="1.89456">
        <ele>175.1</ele>
        <time>2018-09-08T08:53:34Z</time>
      </trkpt>
      <trkpt lat="44.1239" lon="1.89403">
        <ele>173.17</ele>
        <time>2018-09-08T08:53:40Z</time>
      </trkpt>
      <trkpt lat="44.12391" lon="1.89394">
        <ele>172.69</ele>
        <time>2018-09-08T08:53:41Z</time>
      </trkpt>
      <trkpt lat="44.12393" lon="1.89385">
        <ele>173.17</ele>
        <time>2018-09-08T08:53:42Z</time>
      </trkpt>
      <trkpt lat="44.12395" lon="1.89376">
        <ele>172.21</ele>
        <time>2018-09-08T08:53:43Z</time>
      </trkpt>
      <trkpt lat="44.12397" lon="1.89367">
        <ele>171.73</ele>
        <time>2018-09-08T08:53:44Z</time>
      </trkpt>
      <trkpt lat="44.12401" lon="1.89358">
        <ele>171.73</ele>
        <time>2018-09-08T08:53:45Z</time>
      </trkpt>
      <trkpt lat="44.12404" lon="1.89349">
        <ele>171.73</ele>
        <time>2018-09-08T08:53:46Z</time>
      </trkpt>
      <trkpt lat="44.12415" lon="1.89307">
        <ele>168.85</ele>
        <time>2018-09-08T08:53:50Z</time>
      </trkpt>
      <trkpt lat="44.12423" lon="1.89275">
        <ele>165</ele>
        <time>2018-09-08T08:53:53Z</time>
      </trkpt>
      <trkpt lat="44.12428" lon="1.89257">
        <ele>163.08</ele>
        <time>2018-09-08T08:53:55Z</time>
      </trkpt>
      <trkpt lat="44.12432" lon="1.89248">
        <ele>161.64</ele>
        <time>2018-09-08T08:53:56Z</time>
      </trkpt>
      <trkpt lat="44.12438" lon="1.8924">
        <ele>161.64</ele>
        <time>2018-09-08T08:53:57Z</time>
      </trkpt>
      <trkpt lat="44.12457" lon="1.89214">
        <ele>160.2</ele>
        <time>2018-09-08T08:54:00Z</time>
      </trkpt>
      <trkpt lat="44.12461" lon="1.89203">
        <ele>159.24</ele>
        <time>2018-09-08T08:54:01Z</time>
      </trkpt>
      <trkpt lat="44.12465" lon="1.89192">
        <ele>158.75</ele>
        <time>2018-09-08T08:54:02Z</time>
      </trkpt>
      <trkpt lat="44.12471" lon="1.89169">
        <ele>157.79</ele>
        <time>2018-09-08T08:54:04Z</time>
      </trkpt>
      <trkpt lat="44.12492" lon="1.89109">
        <ele>154.43</ele>
        <time>2018-09-08T08:54:10Z</time>
      </trkpt>
      <trkpt lat="44.12553" lon="1.88986">
        <ele>153.47</ele>
        <time>2018-09-08T08:54:25Z</time>
      </trkpt>
      <trkpt lat="44.12558" lon="1.8898">
        <ele>152.99</ele>
        <time>2018-09-08T08:54:26Z</time>
      </trkpt>
      <trkpt lat="44.12564" lon="1.88975">
        <ele>152.51</ele>
        <time>2018-09-08T08:54:27Z</time>
      </trkpt>
      <trkpt lat="44.1257" lon="1.88972">
        <ele>152.51</ele>
        <time>2018-09-08T08:54:28Z</time>
      </trkpt>
      <trkpt lat="44.12577" lon="1.88969">
        <ele>152.51</ele>
        <time>2018-09-08T08:54:29Z</time>
      </trkpt>
      <trkpt lat="44.12628" lon="1.88936">
        <ele>151.06</ele>
        <time>2018-09-08T08:54:40Z</time>
      </trkpt>
      <trkpt lat="44.12627" lon="1.88935">
        <ele>151.06</ele>
        <time>2018-09-08T08:54:53Z</time>
      </trkpt>
      <trkpt lat="44.12629" lon="1.88933">
        <ele>151.54</ele>
        <time>2018-09-08T08:54:54Z</time>
      </trkpt>
      <trkpt lat="44.1264" lon="1.88925">
        <ele>151.06</ele>
        <time>2018-09-08T08:54:57Z</time>
      </trkpt>
      <trkpt lat="44.1266" lon="1.88904">
        <ele>150.1</ele>
        <time>2018-09-08T08:55:01Z</time>
      </trkpt>
      <trkpt lat="44.1274" lon="1.8879">
        <ele>147.7</ele>
        <time>2018-09-08T08:55:17Z</time>
      </trkpt>
      <trkpt lat="44.1279" lon="1.8865">
        <ele>146.26</ele>
        <time>2018-09-08T08:55:33Z</time>
      </trkpt>
      <trkpt lat="44.12816" lon="1.88504">
        <ele>146.26</ele>
        <time>2018-09-08T08:55:50Z</time>
      </trkpt>
      <trkpt lat="44.12841" lon="1.88358">
        <ele>145.3</ele>
        <time>2018-09-08T08:56:06Z</time>
      </trkpt>
      <trkpt lat="44.12864" lon="1.88212">
        <ele>143.37</ele>
        <time>2018-09-08T08:56:22Z</time>
      </trkpt>
      <trkpt lat="44.12878" lon="1.88156">
        <ele>142.89</ele>
        <time>2018-09-08T08:56:29Z</time>
      </trkpt>
      <trkpt lat="44.12882" lon="1.88145">
        <ele>141.93</ele>
        <time>2018-09-08T08:56:31Z</time>
      </trkpt>
      <trkpt lat="44.12882" lon="1.88142">
        <ele>141.93</ele>
        <time>2018-09-08T08:56:32Z</time>
      </trkpt>
      <trkpt lat="44.12881" lon="1.88139">
        <ele>141.93</ele>
        <time>2018-09-08T08:56:33Z</time>
      </trkpt>
      <trkpt lat="44.12874" lon="1.88132">
        <ele>141.45</ele>
        <time>2018-09-08T08:56:43Z</time>
      </trkpt>
      <trkpt lat="44.1286" lon="1.8812">
        <ele>141.93</ele>
        <time>2018-09-08T08:56:50Z</time>
      </trkpt>
      <trkpt lat="44.12861" lon="1.88115">
        <ele>141.45</ele>
        <time>2018-09-08T08:56:51Z</time>
      </trkpt>
      <trkpt lat="44.12862" lon="1.88109">
        <ele>141.93</ele>
        <time>2018-09-08T08:56:52Z</time>
      </trkpt>
      <trkpt lat="44.1288" lon="1.88068">
        <ele>142.89</ele>
        <time>2018-09-08T08:56:59Z</time>
      </trkpt>
      <trkpt lat="44.12886" lon="1.88057">
        <ele>142.41</ele>
        <time>2018-09-08T08:57:01Z</time>
      </trkpt>
      <trkpt lat="44.12889" lon="1.88051">
        <ele>142.89</ele>
        <time>2018-09-08T08:57:02Z</time>
      </trkpt>
      <trkpt lat="44.12911" lon="1.88006">
        <ele>144.82</ele>
        <time>2018-09-08T08:57:13Z</time>
      </trkpt>
      <trkpt lat="44.12908" lon="1.88003">
        <ele>144.34</ele>
        <time>2018-09-08T08:57:14Z</time>
      </trkpt>
      <trkpt lat="44.12855" lon="1.87946">
        <ele>144.82</ele>
        <time>2018-09-08T08:57:28Z</time>
      </trkpt>
      <trkpt lat="44.12798" lon="1.87889">
        <ele>147.22</ele>
        <time>2018-09-08T08:57:44Z</time>
      </trkpt>
      <trkpt lat="44.12797" lon="1.87884">
        <ele>147.7</ele>
        <time>2018-09-08T08:57:45Z</time>
      </trkpt>
      <trkpt lat="44.12798" lon="1.87878">
        <ele>147.22</ele>
        <time>2018-09-08T08:57:46Z</time>
      </trkpt>
      <trkpt lat="44.12799" lon="1.87872">
        <ele>146.74</ele>
        <time>2018-09-08T08:57:47Z</time>
      </trkpt>
      <trkpt lat="44.12801" lon="1.87865">
        <ele>146.74</ele>
        <time>2018-09-08T08:57:48Z</time>
      </trkpt>
      <trkpt lat="44.12807" lon="1.87845">
        <ele>146.26</ele>
        <time>2018-09-08T08:57:51Z</time>
      </trkpt>
      <trkpt lat="44.12809" lon="1.87838">
        <ele>145.78</ele>
        <time>2018-09-08T08:57:52Z</time>
      </trkpt>
      <trkpt lat="44.12813" lon="1.87832">
        <ele>145.78</ele>
        <time>2018-09-08T08:57:53Z</time>
      </trkpt>
      <trkpt lat="44.12817" lon="1.87825">
        <ele>145.78</ele>
        <time>2018-09-08T08:57:54Z</time>
      </trkpt>
      <trkpt lat="44.12822" lon="1.8782">
        <ele>145.3</ele>
        <time>2018-09-08T08:57:55Z</time>
      </trkpt>
      <trkpt lat="44.12827" lon="1.87815">
        <ele>144.82</ele>
        <time>2018-09-08T08:57:56Z</time>
      </trkpt>
      <trkpt lat="44.1287" lon="1.87732">
        <ele>143.37</ele>
        <time>2018-09-08T08:58:07Z</time>
      </trkpt>
      <trkpt lat="44.12876" lon="1.87717">
        <ele>142.89</ele>
        <time>2018-09-08T08:58:09Z</time>
      </trkpt>
      <trkpt lat="44.12879" lon="1.87709">
        <ele>143.37</ele>
        <time>2018-09-08T08:58:10Z</time>
      </trkpt>
      <trkpt lat="44.12884" lon="1.87703">
        <ele>143.37</ele>
        <time>2018-09-08T08:58:11Z</time>
      </trkpt>
      <trkpt lat="44.12897" lon="1.87685">
        <ele>143.37</ele>
        <time>2018-09-08T08:58:14Z</time>
      </trkpt>
      <trkpt lat="44.12899" lon="1.87677">
        <ele>142.89</ele>
        <time>2018-09-08T08:58:15Z</time>
      </trkpt>
      <trkpt lat="44.12901" lon="1.8767">
        <ele>142.41</ele>
        <time>2018-09-08T08:58:16Z</time>
      </trkpt>
      <trkpt lat="44.12903" lon="1.87647">
        <ele>143.37</ele>
        <time>2018-09-08T08:58:19Z</time>
      </trkpt>
      <trkpt lat="44.12902" lon="1.8764">
        <ele>142.89</ele>
        <time>2018-09-08T08:58:20Z</time>
      </trkpt>
      <trkpt lat="44.129" lon="1.87634">
        <ele>143.37</ele>
        <time>2018-09-08T08:58:21Z</time>
      </trkpt>
      <trkpt lat="44.12896" lon="1.87629">
        <ele>143.37</ele>
        <time>2018-09-08T08:58:22Z</time>
      </trkpt>
      <trkpt lat="44.12893" lon="1.87625">
        <ele>143.37</ele>
        <time>2018-09-08T08:58:23Z</time>
      </trkpt>
      <trkpt lat="44.1289" lon="1.87599">
        <ele>147.22</ele>
        <time>2018-09-08T08:58:30Z</time>
      </trkpt>
      <trkpt lat="44.12891" lon="1.87597">
        <ele>147.22</ele>
        <time>2018-09-08T08:58:31Z</time>
      </trkpt>
      <trkpt lat="44.12912" lon="1.87567">
        <ele>148.66</ele>
        <time>2018-09-08T08:58:43Z</time>
      </trkpt>
      <trkpt lat="44.12919" lon="1.87557">
        <ele>149.14</ele>
        <time>2018-09-08T08:58:54Z</time>
      </trkpt>
      <trkpt lat="44.12924" lon="1.87546">
        <ele>150.1</ele>
        <time>2018-09-08T08:58:59Z</time>
      </trkpt>
      <trkpt lat="44.12925" lon="1.87544">
        <ele>150.1</ele>
        <time>2018-09-08T08:59:00Z</time>
      </trkpt>
      <trkpt lat="44.12926" lon="1.87542">
        <ele>150.1</ele>
        <time>2018-09-08T08:59:01Z</time>
      </trkpt>
      <trkpt lat="44.12927" lon="1.8754">
        <ele>150.58</ele>
        <time>2018-09-08T08:59:02Z</time>
      </trkpt>
      <trkpt lat="44.12929" lon="1.87538">
        <ele>150.58</ele>
        <time>2018-09-08T08:59:03Z</time>
      </trkpt>
      <trkpt lat="44.12949" lon="1.87505">
        <ele>152.51</ele>
        <time>2018-09-08T08:59:14Z</time>
      </trkpt>
      <trkpt lat="44.12981" lon="1.8746">
        <ele>154.43</ele>
        <time>2018-09-08T08:59:27Z</time>
      </trkpt>
      <trkpt lat="44.13024" lon="1.87418">
        <ele>155.39</ele>
        <time>2018-09-08T08:59:40Z</time>
      </trkpt>
      <trkpt lat="44.13059" lon="1.874">
        <ele>155.39</ele>
        <time>2018-09-08T08:59:50Z</time>
      </trkpt>
      <trkpt lat="44.13126" lon="1.87372">
        <ele>152.99</ele>
        <time>2018-09-08T09:00:02Z</time>
      </trkpt>
      <trkpt lat="44.13139" lon="1.87367">
        <ele>152.03</ele>
        <time>2018-09-08T09:00:04Z</time>
      </trkpt>
      <trkpt lat="44.13173" lon="1.87351">
        <ele>152.51</ele>
        <time>2018-09-08T09:00:10Z</time>
      </trkpt>
      <trkpt lat="44.13223" lon="1.87344">
        <ele>149.14</ele>
        <time>2018-09-08T09:00:17Z</time>
      </trkpt>
      <trkpt lat="44.13239" lon="1.87342">
        <ele>147.22</ele>
        <time>2018-09-08T09:00:19Z</time>
      </trkpt>
      <trkpt lat="44.13282" lon="1.87335">
        <ele>144.82</ele>
        <time>2018-09-08T09:00:24Z</time>
      </trkpt>
      <trkpt lat="44.1336" lon="1.87315">
        <ele>141.45</ele>
        <time>2018-09-08T09:00:34Z</time>
      </trkpt>
      <trkpt lat="44.13399" lon="1.87305">
        <ele>140.97</ele>
        <time>2018-09-08T09:00:40Z</time>
      </trkpt>
      <trkpt lat="44.13405" lon="1.87302">
        <ele>140.49</ele>
        <time>2018-09-08T09:00:41Z</time>
      </trkpt>
      <trkpt lat="44.13437" lon="1.87293">
        <ele>140.01</ele>
        <time>2018-09-08T09:00:47Z</time>
      </trkpt>
      <trkpt lat="44.13442" lon="1.87292">
        <ele>140.01</ele>
        <time>2018-09-08T09:00:48Z</time>
      </trkpt>
      <trkpt lat="44.13495" lon="1.87279">
        <ele>140.01</ele>
        <time>2018-09-08T09:00:59Z</time>
      </trkpt>
      <trkpt lat="44.13547" lon="1.87268">
        <ele>140.97</ele>
        <time>2018-09-08T09:01:11Z</time>
      </trkpt>
      <trkpt lat="44.13583" lon="1.87286">
        <ele>141.45</ele>
        <time>2018-09-08T09:01:22Z</time>
      </trkpt>
      <trkpt lat="44.13585" lon="1.87287">
        <ele>140.97</ele>
        <time>2018-09-08T09:01:54Z</time>
      </trkpt>
      <trkpt lat="44.13584" lon="1.87288">
        <ele>140.97</ele>
        <time>2018-09-08T09:02:27Z</time>
      </trkpt>
      <trkpt lat="44.13586" lon="1.87287">
        <ele>140.49</ele>
        <time>2018-09-08T09:03:01Z</time>
      </trkpt>
      <trkpt lat="44.13586" lon="1.87289">
        <ele>140.49</ele>
        <time>2018-09-08T09:03:40Z</time>
      </trkpt>
      <trkpt lat="44.13587" lon="1.87289">
        <ele>140.97</ele>
        <time>2018-09-08T09:03:41Z</time>
      </trkpt>
      <trkpt lat="44.13589" lon="1.87288">
        <ele>141.45</ele>
        <time>2018-09-08T09:03:42Z</time>
      </trkpt>
      <trkpt lat="44.13591" lon="1.87285">
        <ele>141.93</ele>
        <time>2018-09-08T09:03:43Z</time>
      </trkpt>
      <trkpt lat="44.13596" lon="1.87277">
        <ele>141.45</ele>
        <time>2018-09-08T09:03:45Z</time>
      </trkpt>
      <trkpt lat="44.13606" lon="1.87265">
        <ele>140.97</ele>
        <time>2018-09-08T09:03:48Z</time>
      </trkpt>
      <trkpt lat="44.1361" lon="1.87262">
        <ele>141.45</ele>
        <time>2018-09-08T09:03:49Z</time>
      </trkpt>
      <trkpt lat="44.13617" lon="1.87254">
        <ele>140.49</ele>
        <time>2018-09-08T09:03:51Z</time>
      </trkpt>
      <trkpt lat="44.13619" lon="1.8725">
        <ele>141.45</ele>
        <time>2018-09-08T09:03:52Z</time>
      </trkpt>
      <trkpt lat="44.1362" lon="1.87244">
        <ele>141.45</ele>
        <time>2018-09-08T09:03:53Z</time>
      </trkpt>
      <trkpt lat="44.13618" lon="1.87238">
        <ele>141.93</ele>
        <time>2018-09-08T09:03:54Z</time>
      </trkpt>
      <trkpt lat="44.13615" lon="1.87233">
        <ele>141.93</ele>
        <time>2018-09-08T09:03:55Z</time>
      </trkpt>
      <trkpt lat="44.13611" lon="1.87229">
        <ele>141.93</ele>
        <time>2018-09-08T09:03:56Z</time>
      </trkpt>
      <trkpt lat="44.13597" lon="1.8721">
        <ele>142.41</ele>
        <time>2018-09-08T09:04:00Z</time>
      </trkpt>
      <trkpt lat="44.13545" lon="1.87134">
        <ele>145.3</ele>
        <time>2018-09-08T09:04:17Z</time>
      </trkpt>
      <trkpt lat="44.13535" lon="1.87123">
        <ele>145.3</ele>
        <time>2018-09-08T09:04:20Z</time>
      </trkpt>
      <trkpt lat="44.13467" lon="1.87067">
        <ele>147.22</ele>
        <time>2018-09-08T09:04:38Z</time>
      </trkpt>
      <trkpt lat="44.13433" lon="1.87036">
        <ele>150.1</ele>
        <time>2018-09-08T09:04:51Z</time>
      </trkpt>
      <trkpt lat="44.1343" lon="1.87033">
        <ele>150.1</ele>
        <time>2018-09-08T09:04:52Z</time>
      </trkpt>
      <trkpt lat="44.13418" lon="1.87022">
        <ele>152.03</ele>
        <time>2018-09-08T09:04:57Z</time>
      </trkpt>
      <trkpt lat="44.13393" lon="1.87007">
        <ele>154.91</ele>
        <time>2018-09-08T09:05:07Z</time>
      </trkpt>
      <trkpt lat="44.1339" lon="1.87006">
        <ele>155.39</ele>
        <time>2018-09-08T09:05:08Z</time>
      </trkpt>
      <trkpt lat="44.13351" lon="1.86991">
        <ele>155.87</ele>
        <time>2018-09-08T09:05:20Z</time>
      </trkpt>
      <trkpt lat="44.13292" lon="1.86978">
        <ele>154.43</ele>
        <time>2018-09-08T09:05:33Z</time>
      </trkpt>
      <trkpt lat="44.13228" lon="1.86965">
        <ele>155.87</ele>
        <time>2018-09-08T09:05:47Z</time>
      </trkpt>
      <trkpt lat="44.13181" lon="1.86973">
        <ele>158.75</ele>
        <time>2018-09-08T09:06:01Z</time>
      </trkpt>
      <trkpt lat="44.13137" lon="1.86977">
        <ele>159.72</ele>
        <time>2018-09-08T09:06:13Z</time>
      </trkpt>
      <trkpt lat="44.13119" lon="1.86964">
        <ele>159.72</ele>
        <time>2018-09-08T09:06:18Z</time>
      </trkpt>
      <trkpt lat="44.13099" lon="1.86933">
        <ele>158.75</ele>
        <time>2018-09-08T09:06:24Z</time>
      </trkpt>
      <trkpt lat="44.13094" lon="1.8692">
        <ele>157.79</ele>
        <time>2018-09-08T09:06:26Z</time>
      </trkpt>
      <trkpt lat="44.1309" lon="1.86915">
        <ele>157.31</ele>
        <time>2018-09-08T09:06:27Z</time>
      </trkpt>
      <trkpt lat="44.13085" lon="1.8691">
        <ele>157.31</ele>
        <time>2018-09-08T09:06:28Z</time>
      </trkpt>
      <trkpt lat="44.1308" lon="1.86907">
        <ele>156.83</ele>
        <time>2018-09-08T09:06:29Z</time>
      </trkpt>
      <trkpt lat="44.13074" lon="1.86904">
        <ele>157.31</ele>
        <time>2018-09-08T09:06:30Z</time>
      </trkpt>
      <trkpt lat="44.13068" lon="1.86902">
        <ele>156.83</ele>
        <time>2018-09-08T09:06:31Z</time>
      </trkpt>
      <trkpt lat="44.13062" lon="1.86902">
        <ele>156.83</ele>
        <time>2018-09-08T09:06:32Z</time>
      </trkpt>
      <trkpt lat="44.13056" lon="1.86902">
        <ele>157.31</ele>
        <time>2018-09-08T09:06:33Z</time>
      </trkpt>
      <trkpt lat="44.13052" lon="1.86902">
        <ele>156.83</ele>
        <time>2018-09-08T09:06:34Z</time>
      </trkpt>
      <trkpt lat="44.13048" lon="1.869">
        <ele>156.35</ele>
        <time>2018-09-08T09:06:35Z</time>
      </trkpt>
      <trkpt lat="44.13046" lon="1.86898">
        <ele>156.83</ele>
        <time>2018-09-08T09:06:36Z</time>
      </trkpt>
      <trkpt lat="44.13044" lon="1.86895">
        <ele>156.35</ele>
        <time>2018-09-08T09:06:37Z</time>
      </trkpt>
      <trkpt lat="44.13043" lon="1.8689">
        <ele>156.35</ele>
        <time>2018-09-08T09:06:38Z</time>
      </trkpt>
      <trkpt lat="44.13042" lon="1.86884">
        <ele>155.87</ele>
        <time>2018-09-08T09:06:39Z</time>
      </trkpt>
      <trkpt lat="44.13032" lon="1.86808">
        <ele>156.83</ele>
        <time>2018-09-08T09:06:51Z</time>
      </trkpt>
      <trkpt lat="44.13029" lon="1.86799">
        <ele>156.83</ele>
        <time>2018-09-08T09:06:53Z</time>
      </trkpt>
      <trkpt lat="44.13027" lon="1.86794">
        <ele>157.31</ele>
        <time>2018-09-08T09:06:54Z</time>
      </trkpt>
      <trkpt lat="44.13025" lon="1.86789">
        <ele>156.83</ele>
        <time>2018-09-08T09:06:55Z</time>
      </trkpt>
      <trkpt lat="44.13011" lon="1.86741">
        <ele>157.79</ele>
        <time>2018-09-08T09:07:04Z</time>
      </trkpt>
      <trkpt lat="44.12997" lon="1.86709">
        <ele>158.27</ele>
        <time>2018-09-08T09:07:11Z</time>
      </trkpt>
      <trkpt lat="44.12974" lon="1.86666">
        <ele>158.27</ele>
        <time>2018-09-08T09:07:19Z</time>
      </trkpt>
      <trkpt lat="44.12971" lon="1.86659">
        <ele>158.27</ele>
        <time>2018-09-08T09:07:20Z</time>
      </trkpt>
      <trkpt lat="44.12932" lon="1.86587">
        <ele>160.68</ele>
        <time>2018-09-08T09:07:34Z</time>
      </trkpt>
      <trkpt lat="44.12893" lon="1.86534">
        <ele>162.6</ele>
        <time>2018-09-08T09:07:47Z</time>
      </trkpt>
      <trkpt lat="44.12847" lon="1.86488">
        <ele>162.12</ele>
        <time>2018-09-08T09:08:00Z</time>
      </trkpt>
      <trkpt lat="44.12844" lon="1.8648">
        <ele>161.64</ele>
        <time>2018-09-08T09:08:03Z</time>
      </trkpt>
      <trkpt lat="44.12844" lon="1.86463">
        <ele>161.64</ele>
        <time>2018-09-08T09:08:10Z</time>
      </trkpt>
      <trkpt lat="44.12845" lon="1.86457">
        <ele>161.64</ele>
        <time>2018-09-08T09:08:11Z</time>
      </trkpt>
      <trkpt lat="44.12847" lon="1.86451">
        <ele>161.16</ele>
        <time>2018-09-08T09:08:12Z</time>
      </trkpt>
      <trkpt lat="44.1285" lon="1.86445">
        <ele>161.16</ele>
        <time>2018-09-08T09:08:13Z</time>
      </trkpt>
      <trkpt lat="44.12853" lon="1.86441">
        <ele>161.64</ele>
        <time>2018-09-08T09:08:14Z</time>
      </trkpt>
      <trkpt lat="44.12855" lon="1.86437">
        <ele>161.64</ele>
        <time>2018-09-08T09:08:15Z</time>
      </trkpt>
      <trkpt lat="44.12868" lon="1.86396">
        <ele>174.14</ele>
        <time>2018-09-08T09:12:32Z</time>
      </trkpt>
      <trkpt lat="44.12866" lon="1.86393">
        <ele>174.62</ele>
        <time>2018-09-08T09:12:33Z</time>
      </trkpt>
      <trkpt lat="44.12843" lon="1.8636">
        <ele>175.58</ele>
        <time>2018-09-08T09:12:44Z</time>
      </trkpt>
      <trkpt lat="44.12812" lon="1.86303">
        <ele>175.58</ele>
        <time>2018-09-08T09:12:57Z</time>
      </trkpt>
      <trkpt lat="44.12794" lon="1.86259">
        <ele>176.54</ele>
        <time>2018-09-08T09:13:08Z</time>
      </trkpt>
      <trkpt lat="44.12775" lon="1.86201">
        <ele>176.06</ele>
        <time>2018-09-08T09:13:19Z</time>
      </trkpt>
      <trkpt lat="44.12747" lon="1.86143">
        <ele>177.02</ele>
        <time>2018-09-08T09:13:32Z</time>
      </trkpt>
      <trkpt lat="44.12743" lon="1.86134">
        <ele>177.5</ele>
        <time>2018-09-08T09:13:34Z</time>
      </trkpt>
      <trkpt lat="44.12741" lon="1.86128">
        <ele>177.98</ele>
        <time>2018-09-08T09:13:35Z</time>
      </trkpt>
      <trkpt lat="44.12714" lon="1.86082">
        <ele>179.42</ele>
        <time>2018-09-08T09:13:46Z</time>
      </trkpt>
      <trkpt lat="44.12687" lon="1.86039">
        <ele>182.31</ele>
        <time>2018-09-08T09:13:57Z</time>
      </trkpt>
      <trkpt lat="44.12678" lon="1.85995">
        <ele>182.31</ele>
        <time>2018-09-08T09:14:05Z</time>
      </trkpt>
      <trkpt lat="44.12676" lon="1.85988">
        <ele>182.31</ele>
        <time>2018-09-08T09:14:06Z</time>
      </trkpt>
      <trkpt lat="44.12674" lon="1.85981">
        <ele>182.31</ele>
        <time>2018-09-08T09:14:07Z</time>
      </trkpt>
      <trkpt lat="44.12671" lon="1.85975">
        <ele>182.31</ele>
        <time>2018-09-08T09:14:08Z</time>
      </trkpt>
      <trkpt lat="44.12668" lon="1.85969">
        <ele>182.79</ele>
        <time>2018-09-08T09:14:09Z</time>
      </trkpt>
      <trkpt lat="44.12665" lon="1.85964">
        <ele>182.31</ele>
        <time>2018-09-08T09:14:10Z</time>
      </trkpt>
      <trkpt lat="44.12652" lon="1.85948">
        <ele>183.27</ele>
        <time>2018-09-08T09:14:14Z</time>
      </trkpt>
      <trkpt lat="44.12648" lon="1.85944">
        <ele>182.31</ele>
        <time>2018-09-08T09:14:15Z</time>
      </trkpt>
      <trkpt lat="44.12645" lon="1.8594">
        <ele>182.79</ele>
        <time>2018-09-08T09:14:16Z</time>
      </trkpt>
      <trkpt lat="44.12641" lon="1.85936">
        <ele>182.79</ele>
        <time>2018-09-08T09:14:17Z</time>
      </trkpt>
      <trkpt lat="44.12638" lon="1.85933">
        <ele>182.31</ele>
        <time>2018-09-08T09:14:18Z</time>
      </trkpt>
      <trkpt lat="44.12634" lon="1.85929">
        <ele>183.27</ele>
        <time>2018-09-08T09:14:19Z</time>
      </trkpt>
      <trkpt lat="44.12578" lon="1.85871">
        <ele>184.23</ele>
        <time>2018-09-08T09:14:35Z</time>
      </trkpt>
      <trkpt lat="44.12517" lon="1.8581">
        <ele>185.19</ele>
        <time>2018-09-08T09:14:53Z</time>
      </trkpt>
      <trkpt lat="44.12477" lon="1.85766">
        <ele>186.63</ele>
        <time>2018-09-08T09:15:06Z</time>
      </trkpt>
      <trkpt lat="44.12429" lon="1.85709">
        <ele>189.04</ele>
        <time>2018-09-08T09:15:22Z</time>
      </trkpt>
      <trkpt lat="44.12393" lon="1.85654">
        <ele>190</ele>
        <time>2018-09-08T09:15:35Z</time>
      </trkpt>
      <trkpt lat="44.12362" lon="1.85609">
        <ele>191.44</ele>
        <time>2018-09-08T09:15:47Z</time>
      </trkpt>
      <trkpt lat="44.12333" lon="1.85555">
        <ele>193.36</ele>
        <time>2018-09-08T09:15:59Z</time>
      </trkpt>
      <trkpt lat="44.12309" lon="1.85513">
        <ele>193.84</ele>
        <time>2018-09-08T09:16:10Z</time>
      </trkpt>
      <trkpt lat="44.12287" lon="1.85476">
        <ele>196.25</ele>
        <time>2018-09-08T09:16:20Z</time>
      </trkpt>
      <trkpt lat="44.12269" lon="1.85445">
        <ele>198.65</ele>
        <time>2018-09-08T09:16:28Z</time>
      </trkpt>
      <trkpt lat="44.12233" lon="1.85397">
        <ele>199.61</ele>
        <time>2018-09-08T09:16:41Z</time>
      </trkpt>
      <trkpt lat="44.12202" lon="1.85364">
        <ele>201.53</ele>
        <time>2018-09-08T09:16:52Z</time>
      </trkpt>
      <trkpt lat="44.12168" lon="1.85313">
        <ele>202.98</ele>
        <time>2018-09-08T09:17:04Z</time>
      </trkpt>
      <trkpt lat="44.12165" lon="1.85308">
        <ele>202.01</ele>
        <time>2018-09-08T09:17:05Z</time>
      </trkpt>
      <trkpt lat="44.12127" lon="1.85218">
        <ele>203.94</ele>
        <time>2018-09-08T09:17:21Z</time>
      </trkpt>
      <trkpt lat="44.12103" lon="1.8515">
        <ele>204.9</ele>
        <time>2018-09-08T09:17:34Z</time>
      </trkpt>
      <trkpt lat="44.12079" lon="1.85092">
        <ele>205.86</ele>
        <time>2018-09-08T09:17:45Z</time>
      </trkpt>
      <trkpt lat="44.12057" lon="1.85049">
        <ele>206.82</ele>
        <time>2018-09-08T09:17:56Z</time>
      </trkpt>
      <trkpt lat="44.12034" lon="1.85015">
        <ele>209.22</ele>
        <time>2018-09-08T09:18:07Z</time>
      </trkpt>
      <trkpt lat="44.11999" lon="1.84984">
        <ele>209.22</ele>
        <time>2018-09-08T09:18:17Z</time>
      </trkpt>
      <trkpt lat="44.11971" lon="1.84956">
        <ele>211.15</ele>
        <time>2018-09-08T09:18:27Z</time>
      </trkpt>
      <trkpt lat="44.11952" lon="1.84944">
        <ele>212.11</ele>
        <time>2018-09-08T09:18:33Z</time>
      </trkpt>
      <trkpt lat="44.11935" lon="1.84907">
        <ele>213.07</ele>
        <time>2018-09-08T09:18:43Z</time>
      </trkpt>
      <trkpt lat="44.11924" lon="1.84875">
        <ele>214.03</ele>
        <time>2018-09-08T09:18:52Z</time>
      </trkpt>
      <trkpt lat="44.11922" lon="1.84874">
        <ele>214.99</ele>
        <time>2018-09-08T09:18:53Z</time>
      </trkpt>
      <trkpt lat="44.11919" lon="1.84872">
        <ele>214.51</ele>
        <time>2018-09-08T09:18:54Z</time>
      </trkpt>
      <trkpt lat="44.11916" lon="1.8487">
        <ele>214.51</ele>
        <time>2018-09-08T09:18:55Z</time>
      </trkpt>
      <trkpt lat="44.11912" lon="1.84869">
        <ele>215.47</ele>
        <time>2018-09-08T09:18:56Z</time>
      </trkpt>
      <trkpt lat="44.11879" lon="1.84864">
        <ele>217.88</ele>
        <time>2018-09-08T09:19:09Z</time>
      </trkpt>
      <trkpt lat="44.11865" lon="1.84861">
        <ele>219.8</ele>
        <time>2018-09-08T09:19:17Z</time>
      </trkpt>
      <trkpt lat="44.11845" lon="1.84854">
        <ele>222.2</ele>
        <time>2018-09-08T09:19:29Z</time>
      </trkpt>
      <trkpt lat="44.11844" lon="1.84854">
        <ele>223.16</ele>
        <time>2018-09-08T09:19:30Z</time>
      </trkpt>
      <trkpt lat="44.11842" lon="1.84854">
        <ele>223.16</ele>
        <time>2018-09-08T09:19:31Z</time>
      </trkpt>
      <trkpt lat="44.11841" lon="1.84855">
        <ele>223.16</ele>
        <time>2018-09-08T09:19:32Z</time>
      </trkpt>
      <trkpt lat="44.11839" lon="1.84855">
        <ele>223.64</ele>
        <time>2018-09-08T09:19:33Z</time>
      </trkpt>
      <trkpt lat="44.11837" lon="1.84855">
        <ele>224.12</ele>
        <time>2018-09-08T09:19:34Z</time>
      </trkpt>
      <trkpt lat="44.11835" lon="1.84855">
        <ele>224.12</ele>
        <time>2018-09-08T09:19:35Z</time>
      </trkpt>
      <trkpt lat="44.11833" lon="1.84855">
        <ele>224.61</ele>
        <time>2018-09-08T09:19:36Z</time>
      </trkpt>
      <trkpt lat="44.11832" lon="1.84855">
        <ele>224.61</ele>
        <time>2018-09-08T09:19:37Z</time>
      </trkpt>
      <trkpt lat="44.11831" lon="1.84855">
        <ele>224.61</ele>
        <time>2018-09-08T09:19:38Z</time>
      </trkpt>
      <trkpt lat="44.11829" lon="1.84855">
        <ele>225.09</ele>
        <time>2018-09-08T09:19:39Z</time>
      </trkpt>
      <trkpt lat="44.118" lon="1.84844">
        <ele>227.01</ele>
        <time>2018-09-08T09:19:56Z</time>
      </trkpt>
      <trkpt lat="44.11775" lon="1.84821">
        <ele>228.45</ele>
        <time>2018-09-08T09:20:11Z</time>
      </trkpt>
      <trkpt lat="44.11752" lon="1.8479">
        <ele>229.41</ele>
        <time>2018-09-08T09:20:27Z</time>
      </trkpt>
      <trkpt lat="44.11737" lon="1.8476">
        <ele>231.33</ele>
        <time>2018-09-08T09:20:41Z</time>
      </trkpt>
      <trkpt lat="44.11721" lon="1.84741">
        <ele>234.22</ele>
        <time>2018-09-08T09:20:54Z</time>
      </trkpt>
      <trkpt lat="44.11704" lon="1.84723">
        <ele>237.58</ele>
        <time>2018-09-08T09:21:08Z</time>
      </trkpt>
      <trkpt lat="44.11685" lon="1.84706">
        <ele>239.99</ele>
        <time>2018-09-08T09:21:22Z</time>
      </trkpt>
      <trkpt lat="44.11671" lon="1.84698">
        <ele>242.87</ele>
        <time>2018-09-08T09:21:33Z</time>
      </trkpt>
      <trkpt lat="44.1167" lon="1.84697">
        <ele>242.87</ele>
        <time>2018-09-08T09:21:34Z</time>
      </trkpt>
      <trkpt lat="44.11669" lon="1.84696">
        <ele>242.87</ele>
        <time>2018-09-08T09:21:35Z</time>
      </trkpt>
      <trkpt lat="44.11668" lon="1.84695">
        <ele>243.35</ele>
        <time>2018-09-08T09:21:36Z</time>
      </trkpt>
      <trkpt lat="44.11667" lon="1.84694">
        <ele>243.35</ele>
        <time>2018-09-08T09:21:37Z</time>
      </trkpt>
      <trkpt lat="44.11647" lon="1.84682">
        <ele>246.72</ele>
        <time>2018-09-08T09:21:53Z</time>
      </trkpt>
      <trkpt lat="44.11637" lon="1.84676">
        <ele>248.64</ele>
        <time>2018-09-08T09:22:03Z</time>
      </trkpt>
      <trkpt lat="44.11636" lon="1.84675">
        <ele>249.6</ele>
        <time>2018-09-08T09:22:04Z</time>
      </trkpt>
      <trkpt lat="44.11619" lon="1.84662">
        <ele>251.52</ele>
        <time>2018-09-08T09:22:18Z</time>
      </trkpt>
      <trkpt lat="44.11614" lon="1.8465">
        <ele>252.48</ele>
        <time>2018-09-08T09:22:29Z</time>
      </trkpt>
      <trkpt lat="44.11611" lon="1.84629">
        <ele>254.89</ele>
        <time>2018-09-08T09:22:42Z</time>
      </trkpt>
      <trkpt lat="44.11606" lon="1.84607">
        <ele>258.73</ele>
        <time>2018-09-08T09:22:57Z</time>
      </trkpt>
      <trkpt lat="44.11595" lon="1.84587">
        <ele>261.62</ele>
        <time>2018-09-08T09:23:14Z</time>
      </trkpt>
      <trkpt lat="44.11581" lon="1.84584">
        <ele>263.54</ele>
        <time>2018-09-08T09:23:27Z</time>
      </trkpt>
      <trkpt lat="44.11579" lon="1.84586">
        <ele>264.02</ele>
        <time>2018-09-08T09:23:39Z</time>
      </trkpt>
      <trkpt lat="44.11576" lon="1.84588">
        <ele>264.98</ele>
        <time>2018-09-08T09:23:43Z</time>
      </trkpt>
      <trkpt lat="44.11568" lon="1.84581">
        <ele>266.42</ele>
        <time>2018-09-08T09:23:56Z</time>
      </trkpt>
      <trkpt lat="44.11563" lon="1.84575">
        <ele>267.86</ele>
        <time>2018-09-08T09:24:03Z</time>
      </trkpt>
      <trkpt lat="44.11555" lon="1.84568">
        <ele>268.83</ele>
        <time>2018-09-08T09:24:10Z</time>
      </trkpt>
      <trkpt lat="44.11554" lon="1.84567">
        <ele>269.79</ele>
        <time>2018-09-08T09:24:11Z</time>
      </trkpt>
      <trkpt lat="44.11553" lon="1.84565">
        <ele>269.31</ele>
        <time>2018-09-08T09:24:12Z</time>
      </trkpt>
      <trkpt lat="44.11539" lon="1.84546">
        <ele>272.67</ele>
        <time>2018-09-08T09:24:26Z</time>
      </trkpt>
      <trkpt lat="44.11537" lon="1.84544">
        <ele>272.67</ele>
        <time>2018-09-08T09:24:27Z</time>
      </trkpt>
      <trkpt lat="44.1153" lon="1.84535">
        <ele>274.11</ele>
        <time>2018-09-08T09:24:34Z</time>
      </trkpt>
      <trkpt lat="44.11528" lon="1.84534">
        <ele>274.11</ele>
        <time>2018-09-08T09:24:35Z</time>
      </trkpt>
      <trkpt lat="44.11527" lon="1.84532">
        <ele>274.11</ele>
        <time>2018-09-08T09:24:36Z</time>
      </trkpt>
      <trkpt lat="44.11526" lon="1.84531">
        <ele>274.59</ele>
        <time>2018-09-08T09:24:37Z</time>
      </trkpt>
      <trkpt lat="44.11524" lon="1.8453">
        <ele>274.11</ele>
        <time>2018-09-08T09:24:38Z</time>
      </trkpt>
      <trkpt lat="44.11523" lon="1.84528">
        <ele>274.59</ele>
        <time>2018-09-08T09:24:39Z</time>
      </trkpt>
      <trkpt lat="44.11511" lon="1.8451">
        <ele>276.52</ele>
        <time>2018-09-08T09:24:51Z</time>
      </trkpt>
      <trkpt lat="44.11506" lon="1.84503">
        <ele>276.52</ele>
        <time>2018-09-08T09:24:56Z</time>
      </trkpt>
      <trkpt lat="44.11492" lon="1.84474">
        <ele>278.92</ele>
        <time>2018-09-08T09:25:09Z</time>
      </trkpt>
      <trkpt lat="44.11472" lon="1.8444">
        <ele>276.52</ele>
        <time>2018-09-08T09:25:23Z</time>
      </trkpt>
      <trkpt lat="44.11466" lon="1.8443">
        <ele>276.04</ele>
        <time>2018-09-08T09:25:35Z</time>
      </trkpt>
      <trkpt lat="44.11461" lon="1.84422">
        <ele>276.52</ele>
        <time>2018-09-08T09:26:04Z</time>
      </trkpt>
      <trkpt lat="44.11461" lon="1.8442">
        <ele>276.52</ele>
        <time>2018-09-08T09:26:05Z</time>
      </trkpt>
      <trkpt lat="44.11461" lon="1.84418">
        <ele>276.52</ele>
        <time>2018-09-08T09:26:06Z</time>
      </trkpt>
      <trkpt lat="44.11455" lon="1.84402">
        <ele>275.07</ele>
        <time>2018-09-08T09:26:10Z</time>
      </trkpt>
      <trkpt lat="44.11451" lon="1.84387">
        <ele>273.63</ele>
        <time>2018-09-08T09:26:13Z</time>
      </trkpt>
      <trkpt lat="44.1145" lon="1.84372">
        <ele>271.71</ele>
        <time>2018-09-08T09:26:17Z</time>
      </trkpt>
      <trkpt lat="44.1145" lon="1.84336">
        <ele>270.27</ele>
        <time>2018-09-08T09:26:28Z</time>
      </trkpt>
      <trkpt lat="44.11449" lon="1.84332">
        <ele>270.27</ele>
        <time>2018-09-08T09:26:30Z</time>
      </trkpt>
      <trkpt lat="44.11447" lon="1.84324">
        <ele>270.27</ele>
        <time>2018-09-08T09:26:41Z</time>
      </trkpt>
      <trkpt lat="44.11448" lon="1.84322">
        <ele>270.27</ele>
        <time>2018-09-08T09:26:42Z</time>
      </trkpt>
      <trkpt lat="44.11448" lon="1.8432">
        <ele>270.27</ele>
        <time>2018-09-08T09:26:43Z</time>
      </trkpt>
      <trkpt lat="44.1145" lon="1.84307">
        <ele>271.23</ele>
        <time>2018-09-08T09:26:48Z</time>
      </trkpt>
      <trkpt lat="44.1145" lon="1.84305">
        <ele>271.23</ele>
        <time>2018-09-08T09:26:49Z</time>
      </trkpt>
      <trkpt lat="44.1145" lon="1.84295">
        <ele>272.19</ele>
        <time>2018-09-08T09:26:53Z</time>
      </trkpt>
      <trkpt lat="44.11453" lon="1.84281">
        <ele>273.15</ele>
        <time>2018-09-08T09:27:01Z</time>
      </trkpt>
      <trkpt lat="44.11459" lon="1.84254">
        <ele>275.56</ele>
        <time>2018-09-08T09:27:15Z</time>
      </trkpt>
      <trkpt lat="44.11464" lon="1.84216">
        <ele>278.44</ele>
        <time>2018-09-08T09:27:28Z</time>
      </trkpt>
      <trkpt lat="44.11466" lon="1.84203">
        <ele>279.4</ele>
        <time>2018-09-08T09:27:34Z</time>
      </trkpt>
      <trkpt lat="44.11465" lon="1.84201">
        <ele>279.4</ele>
        <time>2018-09-08T09:27:35Z</time>
      </trkpt>
      <trkpt lat="44.11467" lon="1.84163">
        <ele>280.84</ele>
        <time>2018-09-08T09:27:48Z</time>
      </trkpt>
      <trkpt lat="44.11466" lon="1.84117">
        <ele>282.28</ele>
        <time>2018-09-08T09:28:00Z</time>
      </trkpt>
      <trkpt lat="44.11466" lon="1.84109">
        <ele>282.77</ele>
        <time>2018-09-08T09:28:04Z</time>
      </trkpt>
      <trkpt lat="44.11466" lon="1.84106">
        <ele>282.28</ele>
        <time>2018-09-08T09:28:05Z</time>
      </trkpt>
      <trkpt lat="44.11466" lon="1.84105">
        <ele>282.77</ele>
        <time>2018-09-08T09:28:06Z</time>
      </trkpt>
      <trkpt lat="44.11464" lon="1.84098">
        <ele>282.77</ele>
        <time>2018-09-08T09:28:10Z</time>
      </trkpt>
      <trkpt lat="44.11464" lon="1.84096">
        <ele>282.77</ele>
        <time>2018-09-08T09:28:11Z</time>
      </trkpt>
      <trkpt lat="44.11462" lon="1.84063">
        <ele>284.21</ele>
        <time>2018-09-08T09:28:23Z</time>
      </trkpt>
      <trkpt lat="44.11465" lon="1.84038">
        <ele>286.61</ele>
        <time>2018-09-08T09:28:35Z</time>
      </trkpt>
      <trkpt lat="44.11453" lon="1.84003">
        <ele>289.49</ele>
        <time>2018-09-08T09:28:50Z</time>
      </trkpt>
      <trkpt lat="44.11438" lon="1.83968">
        <ele>292.38</ele>
        <time>2018-09-08T09:29:07Z</time>
      </trkpt>
      <trkpt lat="44.11427" lon="1.83938">
        <ele>295.74</ele>
        <time>2018-09-08T09:29:21Z</time>
      </trkpt>
      <trkpt lat="44.11411" lon="1.83907">
        <ele>297.67</ele>
        <time>2018-09-08T09:29:36Z</time>
      </trkpt>
      <trkpt lat="44.11393" lon="1.83886">
        <ele>299.59</ele>
        <time>2018-09-08T09:29:49Z</time>
      </trkpt>
      <trkpt lat="44.11373" lon="1.83855">
        <ele>301.51</ele>
        <time>2018-09-08T09:30:05Z</time>
      </trkpt>
      <trkpt lat="44.11365" lon="1.8382">
        <ele>303.91</ele>
        <time>2018-09-08T09:30:19Z</time>
      </trkpt>
      <trkpt lat="44.11363" lon="1.83779">
        <ele>306.8</ele>
        <time>2018-09-08T09:30:34Z</time>
      </trkpt>
      <trkpt lat="44.11359" lon="1.83745">
        <ele>308.72</ele>
        <time>2018-09-08T09:30:48Z</time>
      </trkpt>
      <trkpt lat="44.11353" lon="1.83705">
        <ele>311.12</ele>
        <time>2018-09-08T09:31:05Z</time>
      </trkpt>
      <trkpt lat="44.11344" lon="1.83671">
        <ele>313.53</ele>
        <time>2018-09-08T09:31:20Z</time>
      </trkpt>
      <trkpt lat="44.11334" lon="1.83631">
        <ele>315.93</ele>
        <time>2018-09-08T09:31:38Z</time>
      </trkpt>
      <trkpt lat="44.11331" lon="1.83599">
        <ele>318.81</ele>
        <time>2018-09-08T09:31:52Z</time>
      </trkpt>
      <trkpt lat="44.11327" lon="1.83566">
        <ele>320.74</ele>
        <time>2018-09-08T09:32:07Z</time>
      </trkpt>
      <trkpt lat="44.11319" lon="1.83542">
        <ele>322.18</ele>
        <time>2018-09-08T09:32:19Z</time>
      </trkpt>
      <trkpt lat="44.11306" lon="1.83511">
        <ele>325.06</ele>
        <time>2018-09-08T09:32:36Z</time>
      </trkpt>
      <trkpt lat="44.11298" lon="1.83507">
        <ele>326.02</ele>
        <time>2018-09-08T09:32:41Z</time>
      </trkpt>
      <trkpt lat="44.11296" lon="1.83506">
        <ele>325.54</ele>
        <time>2018-09-08T09:32:42Z</time>
      </trkpt>
      <trkpt lat="44.11294" lon="1.83506">
        <ele>326.02</ele>
        <time>2018-09-08T09:32:43Z</time>
      </trkpt>
      <trkpt lat="44.11293" lon="1.83506">
        <ele>326.5</ele>
        <time>2018-09-08T09:32:44Z</time>
      </trkpt>
      <trkpt lat="44.11291" lon="1.83506">
        <ele>326.5</ele>
        <time>2018-09-08T09:32:45Z</time>
      </trkpt>
      <trkpt lat="44.11289" lon="1.83506">
        <ele>326.5</ele>
        <time>2018-09-08T09:32:46Z</time>
      </trkpt>
      <trkpt lat="44.11268" lon="1.83518">
        <ele>329.87</ele>
        <time>2018-09-08T09:33:02Z</time>
      </trkpt>
      <trkpt lat="44.11246" lon="1.83533">
        <ele>331.79</ele>
        <time>2018-09-08T09:33:16Z</time>
      </trkpt>
      <trkpt lat="44.11237" lon="1.8355">
        <ele>333.23</ele>
        <time>2018-09-08T09:33:28Z</time>
      </trkpt>
      <trkpt lat="44.11223" lon="1.83581">
        <ele>334.68</ele>
        <time>2018-09-08T09:33:42Z</time>
      </trkpt>
      <trkpt lat="44.1121" lon="1.83617">
        <ele>336.6</ele>
        <time>2018-09-08T09:33:57Z</time>
      </trkpt>
      <trkpt lat="44.11201" lon="1.83655">
        <ele>337.56</ele>
        <time>2018-09-08T09:34:11Z</time>
      </trkpt>
      <trkpt lat="44.11193" lon="1.83686">
        <ele>339</ele>
        <time>2018-09-08T09:34:22Z</time>
      </trkpt>
      <trkpt lat="44.1118" lon="1.8371">
        <ele>341.41</ele>
        <time>2018-09-08T09:34:34Z</time>
      </trkpt>
      <trkpt lat="44.11178" lon="1.8371">
        <ele>341.41</ele>
        <time>2018-09-08T09:34:35Z</time>
      </trkpt>
      <trkpt lat="44.11177" lon="1.83711">
        <ele>341.41</ele>
        <time>2018-09-08T09:34:36Z</time>
      </trkpt>
      <trkpt lat="44.11175" lon="1.8371">
        <ele>342.37</ele>
        <time>2018-09-08T09:34:37Z</time>
      </trkpt>
      <trkpt lat="44.11174" lon="1.83709">
        <ele>342.37</ele>
        <time>2018-09-08T09:34:38Z</time>
      </trkpt>
      <trkpt lat="44.11172" lon="1.83708">
        <ele>342.37</ele>
        <time>2018-09-08T09:34:39Z</time>
      </trkpt>
      <trkpt lat="44.11171" lon="1.83706">
        <ele>342.85</ele>
        <time>2018-09-08T09:34:40Z</time>
      </trkpt>
      <trkpt lat="44.11171" lon="1.83704">
        <ele>342.85</ele>
        <time>2018-09-08T09:34:41Z</time>
      </trkpt>
      <trkpt lat="44.1117" lon="1.83703">
        <ele>342.85</ele>
        <time>2018-09-08T09:34:42Z</time>
      </trkpt>
      <trkpt lat="44.1117" lon="1.83701">
        <ele>343.33</ele>
        <time>2018-09-08T09:34:43Z</time>
      </trkpt>
      <trkpt lat="44.1117" lon="1.83699">
        <ele>344.29</ele>
        <time>2018-09-08T09:34:44Z</time>
      </trkpt>
      <trkpt lat="44.11171" lon="1.83697">
        <ele>343.81</ele>
        <time>2018-09-08T09:34:45Z</time>
      </trkpt>
      <trkpt lat="44.11171" lon="1.83695">
        <ele>344.29</ele>
        <time>2018-09-08T09:34:46Z</time>
      </trkpt>
      <trkpt lat="44.11171" lon="1.83671">
        <ele>347.17</ele>
        <time>2018-09-08T09:35:00Z</time>
      </trkpt>
      <trkpt lat="44.11174" lon="1.83647">
        <ele>350.06</ele>
        <time>2018-09-08T09:35:13Z</time>
      </trkpt>
      <trkpt lat="44.11173" lon="1.83638">
        <ele>350.54</ele>
        <time>2018-09-08T09:35:18Z</time>
      </trkpt>
      <trkpt lat="44.11172" lon="1.83636">
        <ele>350.54</ele>
        <time>2018-09-08T09:35:19Z</time>
      </trkpt>
      <trkpt lat="44.11171" lon="1.83635">
        <ele>351.5</ele>
        <time>2018-09-08T09:35:20Z</time>
      </trkpt>
      <trkpt lat="44.11171" lon="1.83633">
        <ele>351.02</ele>
        <time>2018-09-08T09:35:21Z</time>
      </trkpt>
      <trkpt lat="44.11166" lon="1.83613">
        <ele>352.94</ele>
        <time>2018-09-08T09:35:34Z</time>
      </trkpt>
      <trkpt lat="44.11161" lon="1.83608">
        <ele>353.42</ele>
        <time>2018-09-08T09:35:38Z</time>
      </trkpt>
      <trkpt lat="44.1116" lon="1.83607">
        <ele>353.9</ele>
        <time>2018-09-08T09:35:39Z</time>
      </trkpt>
      <trkpt lat="44.11147" lon="1.83595">
        <ele>356.79</ele>
        <time>2018-09-08T09:35:50Z</time>
      </trkpt>
      <trkpt lat="44.1113" lon="1.83576">
        <ele>359.19</ele>
        <time>2018-09-08T09:36:05Z</time>
      </trkpt>
      <trkpt lat="44.11113" lon="1.83551">
        <ele>360.15</ele>
        <time>2018-09-08T09:36:19Z</time>
      </trkpt>
      <trkpt lat="44.11101" lon="1.83532">
        <ele>363.52</ele>
        <time>2018-09-08T09:36:31Z</time>
      </trkpt>
      <trkpt lat="44.11101" lon="1.8353">
        <ele>363.52</ele>
        <time>2018-09-08T09:36:32Z</time>
      </trkpt>
      <trkpt lat="44.11101" lon="1.83528">
        <ele>363.52</ele>
        <time>2018-09-08T09:36:33Z</time>
      </trkpt>
      <trkpt lat="44.11101" lon="1.83527">
        <ele>363.52</ele>
        <time>2018-09-08T09:36:34Z</time>
      </trkpt>
      <trkpt lat="44.111" lon="1.83525">
        <ele>363.52</ele>
        <time>2018-09-08T09:36:35Z</time>
      </trkpt>
      <trkpt lat="44.111" lon="1.83523">
        <ele>364</ele>
        <time>2018-09-08T09:36:36Z</time>
      </trkpt>
      <trkpt lat="44.11096" lon="1.83512">
        <ele>364.96</ele>
        <time>2018-09-08T09:36:42Z</time>
      </trkpt>
      <trkpt lat="44.11095" lon="1.8351">
        <ele>364.96</ele>
        <time>2018-09-08T09:36:43Z</time>
      </trkpt>
      <trkpt lat="44.11094" lon="1.83508">
        <ele>365.44</ele>
        <time>2018-09-08T09:36:44Z</time>
      </trkpt>
      <trkpt lat="44.11093" lon="1.83507">
        <ele>364.96</ele>
        <time>2018-09-08T09:36:45Z</time>
      </trkpt>
      <trkpt lat="44.11092" lon="1.83505">
        <ele>365.44</ele>
        <time>2018-09-08T09:36:46Z</time>
      </trkpt>
      <trkpt lat="44.11091" lon="1.83503">
        <ele>365.44</ele>
        <time>2018-09-08T09:36:47Z</time>
      </trkpt>
      <trkpt lat="44.11086" lon="1.83474">
        <ele>367.36</ele>
        <time>2018-09-08T09:37:00Z</time>
      </trkpt>
      <trkpt lat="44.11086" lon="1.83457">
        <ele>368.8</ele>
        <time>2018-09-08T09:37:08Z</time>
      </trkpt>
      <trkpt lat="44.11086" lon="1.83454">
        <ele>369.28</ele>
        <time>2018-09-08T09:37:09Z</time>
      </trkpt>
      <trkpt lat="44.11087" lon="1.83452">
        <ele>368.8</ele>
        <time>2018-09-08T09:37:10Z</time>
      </trkpt>
      <trkpt lat="44.11088" lon="1.8345">
        <ele>369.28</ele>
        <time>2018-09-08T09:37:11Z</time>
      </trkpt>
      <trkpt lat="44.11089" lon="1.83448">
        <ele>368.8</ele>
        <time>2018-09-08T09:37:12Z</time>
      </trkpt>
      <trkpt lat="44.1109" lon="1.83445">
        <ele>369.76</ele>
        <time>2018-09-08T09:37:13Z</time>
      </trkpt>
      <trkpt lat="44.1109" lon="1.83443">
        <ele>369.28</ele>
        <time>2018-09-08T09:37:14Z</time>
      </trkpt>
      <trkpt lat="44.11105" lon="1.83402">
        <ele>370.24</ele>
        <time>2018-09-08T09:37:27Z</time>
      </trkpt>
      <trkpt lat="44.11112" lon="1.83365">
        <ele>371.21</ele>
        <time>2018-09-08T09:37:37Z</time>
      </trkpt>
      <trkpt lat="44.11113" lon="1.83363">
        <ele>371.21</ele>
        <time>2018-09-08T09:37:38Z</time>
      </trkpt>
      <trkpt lat="44.1111" lon="1.83315">
        <ele>372.17</ele>
        <time>2018-09-08T09:37:50Z</time>
      </trkpt>
      <trkpt lat="44.11089" lon="1.83284">
        <ele>373.61</ele>
        <time>2018-09-08T09:38:02Z</time>
      </trkpt>
      <trkpt lat="44.11069" lon="1.83249">
        <ele>374.57</ele>
        <time>2018-09-08T09:38:14Z</time>
      </trkpt>
      <trkpt lat="44.1104" lon="1.83212">
        <ele>375.05</ele>
        <time>2018-09-08T09:38:28Z</time>
      </trkpt>
      <trkpt lat="44.11004" lon="1.83158">
        <ele>376.97</ele>
        <time>2018-09-08T09:38:46Z</time>
      </trkpt>
      <trkpt lat="44.10988" lon="1.83143">
        <ele>377.45</ele>
        <time>2018-09-08T09:39:00Z</time>
      </trkpt>
      <trkpt lat="44.10985" lon="1.83142">
        <ele>377.94</ele>
        <time>2018-09-08T09:39:33Z</time>
      </trkpt>
      <trkpt lat="44.10982" lon="1.8314">
        <ele>377.45</ele>
        <time>2018-09-08T09:40:11Z</time>
      </trkpt>
      <trkpt lat="44.10979" lon="1.83135">
        <ele>377.94</ele>
        <time>2018-09-08T09:40:24Z</time>
      </trkpt>
      <trkpt lat="44.10977" lon="1.83135">
        <ele>377.94</ele>
        <time>2018-09-08T09:40:25Z</time>
      </trkpt>
      <trkpt lat="44.10943" lon="1.83136">
        <ele>379.86</ele>
        <time>2018-09-08T09:40:38Z</time>
      </trkpt>
      <trkpt lat="44.10897" lon="1.83147">
        <ele>380.82</ele>
        <time>2018-09-08T09:40:53Z</time>
      </trkpt>
      <trkpt lat="44.10846" lon="1.83159">
        <ele>383.22</ele>
        <time>2018-09-08T09:41:09Z</time>
      </trkpt>
      <trkpt lat="44.10815" lon="1.83172">
        <ele>386.59</ele>
        <time>2018-09-08T09:41:21Z</time>
      </trkpt>
      <trkpt lat="44.10803" lon="1.83176">
        <ele>387.55</ele>
        <time>2018-09-08T09:41:25Z</time>
      </trkpt>
      <trkpt lat="44.10779" lon="1.83182">
        <ele>390.43</ele>
        <time>2018-09-08T09:41:35Z</time>
      </trkpt>
      <trkpt lat="44.10743" lon="1.83192">
        <ele>393.32</ele>
        <time>2018-09-08T09:41:49Z</time>
      </trkpt>
      <trkpt lat="44.1074" lon="1.83176">
        <ele>393.8</ele>
        <time>2018-09-08T09:43:23Z</time>
      </trkpt>
      <trkpt lat="44.10747" lon="1.8317">
        <ele>392.84</ele>
        <time>2018-09-08T09:43:38Z</time>
      </trkpt>
      <trkpt lat="44.1076" lon="1.83154">
        <ele>393.32</ele>
        <time>2018-09-08T09:44:00Z</time>
      </trkpt>
      <trkpt lat="44.10791" lon="1.8311">
        <ele>391.87</ele>
        <time>2018-09-08T09:44:12Z</time>
      </trkpt>
      <trkpt lat="44.10824" lon="1.83074">
        <ele>388.99</ele>
        <time>2018-09-08T09:44:20Z</time>
      </trkpt>
      <trkpt lat="44.10873" lon="1.83037">
        <ele>388.99</ele>
        <time>2018-09-08T09:44:29Z</time>
      </trkpt>
      <trkpt lat="44.10876" lon="1.83032">
        <ele>389.47</ele>
        <time>2018-09-08T09:44:30Z</time>
      </trkpt>
      <trkpt lat="44.10878" lon="1.83026">
        <ele>388.99</ele>
        <time>2018-09-08T09:44:31Z</time>
      </trkpt>
      <trkpt lat="44.10879" lon="1.8302">
        <ele>388.99</ele>
        <time>2018-09-08T09:44:32Z</time>
      </trkpt>
      <trkpt lat="44.1088" lon="1.83014">
        <ele>389.95</ele>
        <time>2018-09-08T09:44:33Z</time>
      </trkpt>
      <trkpt lat="44.10901" lon="1.82969">
        <ele>391.39</ele>
        <time>2018-09-08T09:44:42Z</time>
      </trkpt>
      <trkpt lat="44.10904" lon="1.82964">
        <ele>390.91</ele>
        <time>2018-09-08T09:44:43Z</time>
      </trkpt>
      <trkpt lat="44.10928" lon="1.82929">
        <ele>390.43</ele>
        <time>2018-09-08T09:44:50Z</time>
      </trkpt>
      <trkpt lat="44.10983" lon="1.82855">
        <ele>390.43</ele>
        <time>2018-09-08T09:45:05Z</time>
      </trkpt>
      <trkpt lat="44.11004" lon="1.82832">
        <ele>390.43</ele>
        <time>2018-09-08T09:45:10Z</time>
      </trkpt>
      <trkpt lat="44.11009" lon="1.82829">
        <ele>389.47</ele>
        <time>2018-09-08T09:45:11Z</time>
      </trkpt>
      <trkpt lat="44.11013" lon="1.82825">
        <ele>390.43</ele>
        <time>2018-09-08T09:45:12Z</time>
      </trkpt>
      <trkpt lat="44.11022" lon="1.82818">
        <ele>389.95</ele>
        <time>2018-09-08T09:45:14Z</time>
      </trkpt>
      <trkpt lat="44.11043" lon="1.82797">
        <ele>390.43</ele>
        <time>2018-09-08T09:45:19Z</time>
      </trkpt>
      <trkpt lat="44.11082" lon="1.82755">
        <ele>389.95</ele>
        <time>2018-09-08T09:45:29Z</time>
      </trkpt>
      <trkpt lat="44.1109" lon="1.82748">
        <ele>390.43</ele>
        <time>2018-09-08T09:45:31Z</time>
      </trkpt>
      <trkpt lat="44.11103" lon="1.8273">
        <ele>391.39</ele>
        <time>2018-09-08T09:45:35Z</time>
      </trkpt>
      <trkpt lat="44.11143" lon="1.82692">
        <ele>393.8</ele>
        <time>2018-09-08T09:45:47Z</time>
      </trkpt>
      <trkpt lat="44.11175" lon="1.82683">
        <ele>396.2</ele>
        <time>2018-09-08T09:45:57Z</time>
      </trkpt>
      <trkpt lat="44.11205" lon="1.82648">
        <ele>396.2</ele>
        <time>2018-09-08T09:46:08Z</time>
      </trkpt>
      <trkpt lat="44.11232" lon="1.82618">
        <ele>394.28</ele>
        <time>2018-09-08T09:46:16Z</time>
      </trkpt>
      <trkpt lat="44.11236" lon="1.82613">
        <ele>394.28</ele>
        <time>2018-09-08T09:46:17Z</time>
      </trkpt>
      <trkpt lat="44.11251" lon="1.82592">
        <ele>393.32</ele>
        <time>2018-09-08T09:46:21Z</time>
      </trkpt>
      <trkpt lat="44.11253" lon="1.82586">
        <ele>392.36</ele>
        <time>2018-09-08T09:46:22Z</time>
      </trkpt>
      <trkpt lat="44.11255" lon="1.82579">
        <ele>391.87</ele>
        <time>2018-09-08T09:46:23Z</time>
      </trkpt>
      <trkpt lat="44.11258" lon="1.82572">
        <ele>391.39</ele>
        <time>2018-09-08T09:46:24Z</time>
      </trkpt>
      <trkpt lat="44.1126" lon="1.82564">
        <ele>390.91</ele>
        <time>2018-09-08T09:46:25Z</time>
      </trkpt>
      <trkpt lat="44.11269" lon="1.82543">
        <ele>388.03</ele>
        <time>2018-09-08T09:46:28Z</time>
      </trkpt>
      <trkpt lat="44.11276" lon="1.82521">
        <ele>384.66</ele>
        <time>2018-09-08T09:46:32Z</time>
      </trkpt>
      <trkpt lat="44.11276" lon="1.82514">
        <ele>384.66</ele>
        <time>2018-09-08T09:46:33Z</time>
      </trkpt>
      <trkpt lat="44.11276" lon="1.82508">
        <ele>383.22</ele>
        <time>2018-09-08T09:46:34Z</time>
      </trkpt>
      <trkpt lat="44.11278" lon="1.82486">
        <ele>380.34</ele>
        <time>2018-09-08T09:46:38Z</time>
      </trkpt>
      <trkpt lat="44.11282" lon="1.82469">
        <ele>377.45</ele>
        <time>2018-09-08T09:46:42Z</time>
      </trkpt>
      <trkpt lat="44.1129" lon="1.82457">
        <ele>375.53</ele>
        <time>2018-09-08T09:46:45Z</time>
      </trkpt>
      <trkpt lat="44.11291" lon="1.82452">
        <ele>373.61</ele>
        <time>2018-09-08T09:46:46Z</time>
      </trkpt>
      <trkpt lat="44.11291" lon="1.82447">
        <ele>373.13</ele>
        <time>2018-09-08T09:46:47Z</time>
      </trkpt>
      <trkpt lat="44.11292" lon="1.82443">
        <ele>372.65</ele>
        <time>2018-09-08T09:46:48Z</time>
      </trkpt>
      <trkpt lat="44.11292" lon="1.82439">
        <ele>372.17</ele>
        <time>2018-09-08T09:46:49Z</time>
      </trkpt>
      <trkpt lat="44.11293" lon="1.82436">
        <ele>371.21</ele>
        <time>2018-09-08T09:46:50Z</time>
      </trkpt>
      <trkpt lat="44.11294" lon="1.82434">
        <ele>370.73</ele>
        <time>2018-09-08T09:46:51Z</time>
      </trkpt>
      <trkpt lat="44.11291" lon="1.8241">
        <ele>366.88</ele>
        <time>2018-09-08T09:46:56Z</time>
      </trkpt>
      <trkpt lat="44.11288" lon="1.824">
        <ele>365.44</ele>
        <time>2018-09-08T09:46:58Z</time>
      </trkpt>
      <trkpt lat="44.11293" lon="1.82371">
        <ele>364.48</ele>
        <time>2018-09-08T09:47:02Z</time>
      </trkpt>
      <trkpt lat="44.11299" lon="1.82336">
        <ele>363.04</ele>
        <time>2018-09-08T09:47:06Z</time>
      </trkpt>
      <trkpt lat="44.11302" lon="1.82314">
        <ele>361.59</ele>
        <time>2018-09-08T09:47:09Z</time>
      </trkpt>
      <trkpt lat="44.11301" lon="1.82298">
        <ele>360.15</ele>
        <time>2018-09-08T09:47:13Z</time>
      </trkpt>
      <trkpt lat="44.11301" lon="1.82294">
        <ele>360.15</ele>
        <time>2018-09-08T09:47:14Z</time>
      </trkpt>
      <trkpt lat="44.11301" lon="1.82287">
        <ele>359.67</ele>
        <time>2018-09-08T09:47:26Z</time>
      </trkpt>
      <trkpt lat="44.113" lon="1.82283">
        <ele>359.67</ele>
        <time>2018-09-08T09:48:06Z</time>
      </trkpt>
      <trkpt lat="44.11303" lon="1.82262">
        <ele>359.67</ele>
        <time>2018-09-08T09:48:25Z</time>
      </trkpt>
      <trkpt lat="44.11303" lon="1.82224">
        <ele>359.19</ele>
        <time>2018-09-08T09:48:31Z</time>
      </trkpt>
      <trkpt lat="44.11305" lon="1.8221">
        <ele>358.23</ele>
        <time>2018-09-08T09:48:33Z</time>
      </trkpt>
      <trkpt lat="44.11307" lon="1.82203">
        <ele>358.23</ele>
        <time>2018-09-08T09:48:34Z</time>
      </trkpt>
      <trkpt lat="44.1131" lon="1.82196">
        <ele>357.27</ele>
        <time>2018-09-08T09:48:35Z</time>
      </trkpt>
      <trkpt lat="44.11313" lon="1.82188">
        <ele>356.79</ele>
        <time>2018-09-08T09:48:36Z</time>
      </trkpt>
      <trkpt lat="44.11316" lon="1.82179">
        <ele>356.79</ele>
        <time>2018-09-08T09:48:37Z</time>
      </trkpt>
      <trkpt lat="44.11321" lon="1.82172">
        <ele>355.83</ele>
        <time>2018-09-08T09:48:38Z</time>
      </trkpt>
      <trkpt lat="44.11326" lon="1.82164">
        <ele>355.34</ele>
        <time>2018-09-08T09:48:39Z</time>
      </trkpt>
      <trkpt lat="44.11335" lon="1.82146">
        <ele>354.38</ele>
        <time>2018-09-08T09:48:41Z</time>
      </trkpt>
      <trkpt lat="44.11339" lon="1.82137">
        <ele>353.42</ele>
        <time>2018-09-08T09:48:42Z</time>
      </trkpt>
      <trkpt lat="44.11358" lon="1.82081">
        <ele>350.54</ele>
        <time>2018-09-08T09:48:48Z</time>
      </trkpt>
      <trkpt lat="44.11359" lon="1.82072">
        <ele>350.54</ele>
        <time>2018-09-08T09:48:49Z</time>
      </trkpt>
      <trkpt lat="44.11359" lon="1.82065">
        <ele>350.54</ele>
        <time>2018-09-08T09:48:50Z</time>
      </trkpt>
      <trkpt lat="44.11358" lon="1.82058">
        <ele>350.06</ele>
        <time>2018-09-08T09:48:51Z</time>
      </trkpt>
      <trkpt lat="44.11356" lon="1.82051">
        <ele>350.54</ele>
        <time>2018-09-08T09:48:52Z</time>
      </trkpt>
      <trkpt lat="44.11355" lon="1.82045">
        <ele>351.02</ele>
        <time>2018-09-08T09:48:53Z</time>
      </trkpt>
      <trkpt lat="44.11353" lon="1.82039">
        <ele>351.02</ele>
        <time>2018-09-08T09:48:54Z</time>
      </trkpt>
      <trkpt lat="44.11328" lon="1.8196">
        <ele>352.94</ele>
        <time>2018-09-08T09:49:07Z</time>
      </trkpt>
      <trkpt lat="44.11316" lon="1.81879">
        <ele>356.31</ele>
        <time>2018-09-08T09:49:22Z</time>
      </trkpt>
      <trkpt lat="44.11303" lon="1.81815">
        <ele>355.83</ele>
        <time>2018-09-08T09:49:33Z</time>
      </trkpt>
      <trkpt lat="44.11297" lon="1.81803">
        <ele>355.83</ele>
        <time>2018-09-08T09:49:35Z</time>
      </trkpt>
      <trkpt lat="44.11293" lon="1.81797">
        <ele>355.34</ele>
        <time>2018-09-08T09:49:36Z</time>
      </trkpt>
      <trkpt lat="44.11286" lon="1.81788">
        <ele>354.86</ele>
        <time>2018-09-08T09:49:38Z</time>
      </trkpt>
      <trkpt lat="44.11247" lon="1.81735">
        <ele>352.94</ele>
        <time>2018-09-08T09:58:45Z</time>
      </trkpt>
      <trkpt lat="44.11234" lon="1.81714">
        <ele>352.46</ele>
        <time>2018-09-08T09:58:48Z</time>
      </trkpt>
      <trkpt lat="44.11205" lon="1.81678">
        <ele>349.58</ele>
        <time>2018-09-08T09:58:53Z</time>
      </trkpt>
      <trkpt lat="44.11199" lon="1.81671">
        <ele>349.58</ele>
        <time>2018-09-08T09:58:54Z</time>
      </trkpt>
      <trkpt lat="44.11188" lon="1.81655">
        <ele>348.13</ele>
        <time>2018-09-08T09:58:57Z</time>
      </trkpt>
      <trkpt lat="44.11185" lon="1.81651">
        <ele>347.17</ele>
        <time>2018-09-08T09:58:58Z</time>
      </trkpt>
      <trkpt lat="44.11183" lon="1.81648">
        <ele>346.69</ele>
        <time>2018-09-08T09:58:59Z</time>
      </trkpt>
      <trkpt lat="44.11171" lon="1.81598">
        <ele>343.81</ele>
        <time>2018-09-08T09:59:11Z</time>
      </trkpt>
      <trkpt lat="44.11173" lon="1.81561">
        <ele>340.44</ele>
        <time>2018-09-08T09:59:19Z</time>
      </trkpt>
      <trkpt lat="44.11178" lon="1.81531">
        <ele>338.04</ele>
        <time>2018-09-08T09:59:25Z</time>
      </trkpt>
      <trkpt lat="44.1118" lon="1.81519">
        <ele>337.08</ele>
        <time>2018-09-08T09:59:28Z</time>
      </trkpt>
      <trkpt lat="44.11191" lon="1.81489">
        <ele>333.71</ele>
        <time>2018-09-08T09:59:34Z</time>
      </trkpt>
      <trkpt lat="44.11193" lon="1.81483">
        <ele>333.71</ele>
        <time>2018-09-08T09:59:35Z</time>
      </trkpt>
      <trkpt lat="44.11194" lon="1.81477">
        <ele>332.75</ele>
        <time>2018-09-08T09:59:36Z</time>
      </trkpt>
      <trkpt lat="44.11196" lon="1.81472">
        <ele>332.27</ele>
        <time>2018-09-08T09:59:37Z</time>
      </trkpt>
      <trkpt lat="44.11205" lon="1.81447">
        <ele>328.91</ele>
        <time>2018-09-08T09:59:42Z</time>
      </trkpt>
      <trkpt lat="44.11211" lon="1.81427">
        <ele>325.54</ele>
        <time>2018-09-08T09:59:48Z</time>
      </trkpt>
      <trkpt lat="44.11213" lon="1.81422">
        <ele>325.06</ele>
        <time>2018-09-08T09:59:50Z</time>
      </trkpt>
      <trkpt lat="44.11214" lon="1.81419">
        <ele>325.06</ele>
        <time>2018-09-08T09:59:51Z</time>
      </trkpt>
      <trkpt lat="44.11215" lon="1.81417">
        <ele>324.58</ele>
        <time>2018-09-08T09:59:52Z</time>
      </trkpt>
      <trkpt lat="44.11215" lon="1.81414">
        <ele>324.1</ele>
        <time>2018-09-08T09:59:54Z</time>
      </trkpt>
      <trkpt lat="44.11214" lon="1.814">
        <ele>322.66</ele>
        <time>2018-09-08T10:00:08Z</time>
      </trkpt>
      <trkpt lat="44.11216" lon="1.81396">
        <ele>322.18</ele>
        <time>2018-09-08T10:00:26Z</time>
      </trkpt>
      <trkpt lat="44.11217" lon="1.81393">
        <ele>322.66</ele>
        <time>2018-09-08T10:00:56Z</time>
      </trkpt>
      <trkpt lat="44.11216" lon="1.81392">
        <ele>322.66</ele>
        <time>2018-09-08T10:01:26Z</time>
      </trkpt>
      <trkpt lat="44.11216" lon="1.81393">
        <ele>323.14</ele>
        <time>2018-09-08T10:02:00Z</time>
      </trkpt>
      <trkpt lat="44.11215" lon="1.81394">
        <ele>322.18</ele>
        <time>2018-09-08T10:02:23Z</time>
      </trkpt>
      <trkpt lat="44.11214" lon="1.81396">
        <ele>321.7</ele>
        <time>2018-09-08T10:02:53Z</time>
      </trkpt>
      <trkpt lat="44.11215" lon="1.81384">
        <ele>319.3</ele>
        <time>2018-09-08T10:03:15Z</time>
      </trkpt>
      <trkpt lat="44.11217" lon="1.81376">
        <ele>318.33</ele>
        <time>2018-09-08T10:03:22Z</time>
      </trkpt>
      <trkpt lat="44.11218" lon="1.81358">
        <ele>316.41</ele>
        <time>2018-09-08T10:03:35Z</time>
      </trkpt>
      <trkpt lat="44.11221" lon="1.81342">
        <ele>314.49</ele>
        <time>2018-09-08T10:03:48Z</time>
      </trkpt>
      <trkpt lat="44.11228" lon="1.81327">
        <ele>311.6</ele>
        <time>2018-09-08T10:04:00Z</time>
      </trkpt>
      <trkpt lat="44.11235" lon="1.81308">
        <ele>310.16</ele>
        <time>2018-09-08T10:04:14Z</time>
      </trkpt>
      <trkpt lat="44.11236" lon="1.81301">
        <ele>309.68</ele>
        <time>2018-09-08T10:04:30Z</time>
      </trkpt>
      <trkpt lat="44.11238" lon="1.81294">
        <ele>308.24</ele>
        <time>2018-09-08T10:04:36Z</time>
      </trkpt>
      <trkpt lat="44.11239" lon="1.81291">
        <ele>308.24</ele>
        <time>2018-09-08T10:04:37Z</time>
      </trkpt>
      <trkpt lat="44.11239" lon="1.81288">
        <ele>307.76</ele>
        <time>2018-09-08T10:04:38Z</time>
      </trkpt>
      <trkpt lat="44.11241" lon="1.81285">
        <ele>307.28</ele>
        <time>2018-09-08T10:04:39Z</time>
      </trkpt>
      <trkpt lat="44.11242" lon="1.8128">
        <ele>306.8</ele>
        <time>2018-09-08T10:04:40Z</time>
      </trkpt>
      <trkpt lat="44.11242" lon="1.81277">
        <ele>306.8</ele>
        <time>2018-09-08T10:04:41Z</time>
      </trkpt>
      <trkpt lat="44.11243" lon="1.81273">
        <ele>305.84</ele>
        <time>2018-09-08T10:04:42Z</time>
      </trkpt>
      <trkpt lat="44.11244" lon="1.81266">
        <ele>303.91</ele>
        <time>2018-09-08T10:04:44Z</time>
      </trkpt>
      <trkpt lat="44.11244" lon="1.81263">
        <ele>303.43</ele>
        <time>2018-09-08T10:04:45Z</time>
      </trkpt>
      <trkpt lat="44.11245" lon="1.81259">
        <ele>302.95</ele>
        <time>2018-09-08T10:04:46Z</time>
      </trkpt>
      <trkpt lat="44.11245" lon="1.81256">
        <ele>301.51</ele>
        <time>2018-09-08T10:04:47Z</time>
      </trkpt>
      <trkpt lat="44.11245" lon="1.81252">
        <ele>301.03</ele>
        <time>2018-09-08T10:04:48Z</time>
      </trkpt>
      <trkpt lat="44.11245" lon="1.81249">
        <ele>300.55</ele>
        <time>2018-09-08T10:04:49Z</time>
      </trkpt>
      <trkpt lat="44.11246" lon="1.81247">
        <ele>299.59</ele>
        <time>2018-09-08T10:04:50Z</time>
      </trkpt>
      <trkpt lat="44.11247" lon="1.81245">
        <ele>299.11</ele>
        <time>2018-09-08T10:04:51Z</time>
      </trkpt>
      <trkpt lat="44.11248" lon="1.81243">
        <ele>298.63</ele>
        <time>2018-09-08T10:04:52Z</time>
      </trkpt>
      <trkpt lat="44.1125" lon="1.8124">
        <ele>298.15</ele>
        <time>2018-09-08T10:04:53Z</time>
      </trkpt>
      <trkpt lat="44.11251" lon="1.81238">
        <ele>297.67</ele>
        <time>2018-09-08T10:04:54Z</time>
      </trkpt>
      <trkpt lat="44.11284" lon="1.81224">
        <ele>290.46</ele>
        <time>2018-09-08T10:08:34Z</time>
      </trkpt>
      <trkpt lat="44.11285" lon="1.81221">
        <ele>290.94</ele>
        <time>2018-09-08T10:08:37Z</time>
      </trkpt>
      <trkpt lat="44.11293" lon="1.812">
        <ele>288.05</ele>
        <time>2018-09-08T10:08:44Z</time>
      </trkpt>
      <trkpt lat="44.11302" lon="1.81167">
        <ele>284.69</ele>
        <time>2018-09-08T10:08:56Z</time>
      </trkpt>
      <trkpt lat="44.11306" lon="1.81155">
        <ele>282.28</ele>
        <time>2018-09-08T10:09:07Z</time>
      </trkpt>
      <trkpt lat="44.11312" lon="1.81139">
        <ele>279.88</ele>
        <time>2018-09-08T10:09:20Z</time>
      </trkpt>
      <trkpt lat="44.11314" lon="1.8114">
        <ele>279.88</ele>
        <time>2018-09-08T10:09:21Z</time>
      </trkpt>
      <trkpt lat="44.11315" lon="1.81141">
        <ele>279.4</ele>
        <time>2018-09-08T10:09:22Z</time>
      </trkpt>
      <trkpt lat="44.11316" lon="1.81143">
        <ele>279.4</ele>
        <time>2018-09-08T10:09:23Z</time>
      </trkpt>
      <trkpt lat="44.11317" lon="1.81144">
        <ele>279.88</ele>
        <time>2018-09-08T10:09:24Z</time>
      </trkpt>
      <trkpt lat="44.11318" lon="1.81149">
        <ele>278.92</ele>
        <time>2018-09-08T10:09:28Z</time>
      </trkpt>
      <trkpt lat="44.11335" lon="1.81175">
        <ele>278.92</ele>
        <time>2018-09-08T10:09:38Z</time>
      </trkpt>
      <trkpt lat="44.11341" lon="1.81169">
        <ele>278.92</ele>
        <time>2018-09-08T10:09:40Z</time>
      </trkpt>
      <trkpt lat="44.11342" lon="1.81164">
        <ele>277.96</ele>
        <time>2018-09-08T10:09:41Z</time>
      </trkpt>
      <trkpt lat="44.11342" lon="1.81157">
        <ele>277.48</ele>
        <time>2018-09-08T10:09:42Z</time>
      </trkpt>
      <trkpt lat="44.1134" lon="1.8115">
        <ele>276.52</ele>
        <time>2018-09-08T10:09:43Z</time>
      </trkpt>
      <trkpt lat="44.11339" lon="1.81142">
        <ele>276.52</ele>
        <time>2018-09-08T10:09:44Z</time>
      </trkpt>
      <trkpt lat="44.11337" lon="1.81132">
        <ele>275.56</ele>
        <time>2018-09-08T10:09:45Z</time>
      </trkpt>
      <trkpt lat="44.11334" lon="1.81103">
        <ele>272.19</ele>
        <time>2018-09-08T10:09:48Z</time>
      </trkpt>
      <trkpt lat="44.11333" lon="1.81094">
        <ele>271.71</ele>
        <time>2018-09-08T10:09:49Z</time>
      </trkpt>
      <trkpt lat="44.11328" lon="1.81066">
        <ele>267.86</ele>
        <time>2018-09-08T10:09:52Z</time>
      </trkpt>
      <trkpt lat="44.11322" lon="1.81041">
        <ele>264.5</ele>
        <time>2018-09-08T10:09:55Z</time>
      </trkpt>
      <trkpt lat="44.1132" lon="1.81035">
        <ele>263.06</ele>
        <time>2018-09-08T10:09:56Z</time>
      </trkpt>
      <trkpt lat="44.11318" lon="1.81029">
        <ele>261.62</ele>
        <time>2018-09-08T10:09:57Z</time>
      </trkpt>
      <trkpt lat="44.11318" lon="1.81024">
        <ele>261.62</ele>
        <time>2018-09-08T10:09:58Z</time>
      </trkpt>
      <trkpt lat="44.1132" lon="1.8102">
        <ele>261.14</ele>
        <time>2018-09-08T10:09:59Z</time>
      </trkpt>
      <trkpt lat="44.11322" lon="1.81018">
        <ele>260.17</ele>
        <time>2018-09-08T10:10:00Z</time>
      </trkpt>
      <trkpt lat="44.11326" lon="1.81019">
        <ele>259.21</ele>
        <time>2018-09-08T10:10:01Z</time>
      </trkpt>
      <trkpt lat="44.1133" lon="1.81021">
        <ele>259.21</ele>
        <time>2018-09-08T10:10:02Z</time>
      </trkpt>
      <trkpt lat="44.11335" lon="1.81025">
        <ele>259.21</ele>
        <time>2018-09-08T10:10:03Z</time>
      </trkpt>
      <trkpt lat="44.11358" lon="1.81046">
        <ele>255.37</ele>
        <time>2018-09-08T10:10:07Z</time>
      </trkpt>
      <trkpt lat="44.11364" lon="1.81053">
        <ele>255.85</ele>
        <time>2018-09-08T10:10:08Z</time>
      </trkpt>
      <trkpt lat="44.11394" lon="1.81082">
        <ele>252.48</ele>
        <time>2018-09-08T10:10:12Z</time>
      </trkpt>
      <trkpt lat="44.11411" lon="1.81095">
        <ele>251.04</ele>
        <time>2018-09-08T10:10:15Z</time>
      </trkpt>
      <trkpt lat="44.11418" lon="1.81098">
        <ele>250.08</ele>
        <time>2018-09-08T10:10:23Z</time>
      </trkpt>
      <trkpt lat="44.11419" lon="1.81102">
        <ele>250.56</ele>
        <time>2018-09-08T10:10:52Z</time>
      </trkpt>
      <trkpt lat="44.1142" lon="1.811">
        <ele>249.6</ele>
        <time>2018-09-08T10:10:55Z</time>
      </trkpt>
      <trkpt lat="44.11421" lon="1.81098">
        <ele>250.08</ele>
        <time>2018-09-08T10:10:56Z</time>
      </trkpt>
      <trkpt lat="44.11421" lon="1.81096">
        <ele>250.08</ele>
        <time>2018-09-08T10:10:57Z</time>
      </trkpt>
      <trkpt lat="44.11422" lon="1.81092">
        <ele>250.08</ele>
        <time>2018-09-08T10:10:58Z</time>
      </trkpt>
      <trkpt lat="44.11422" lon="1.81087">
        <ele>249.6</ele>
        <time>2018-09-08T10:10:59Z</time>
      </trkpt>
      <trkpt lat="44.11421" lon="1.81074">
        <ele>248.64</ele>
        <time>2018-09-08T10:11:01Z</time>
      </trkpt>
      <trkpt lat="44.11419" lon="1.81059">
        <ele>247.68</ele>
        <time>2018-09-08T10:11:03Z</time>
      </trkpt>
      <trkpt lat="44.11417" lon="1.81051">
        <ele>247.2</ele>
        <time>2018-09-08T10:11:04Z</time>
      </trkpt>
      <trkpt lat="44.11415" lon="1.81043">
        <ele>247.2</ele>
        <time>2018-09-08T10:11:05Z</time>
      </trkpt>
      <trkpt lat="44.11411" lon="1.81035">
        <ele>246.72</ele>
        <time>2018-09-08T10:11:06Z</time>
      </trkpt>
      <trkpt lat="44.11407" lon="1.81026">
        <ele>246.23</ele>
        <time>2018-09-08T10:11:07Z</time>
      </trkpt>
      <trkpt lat="44.11402" lon="1.81017">
        <ele>245.27</ele>
        <time>2018-09-08T10:11:08Z</time>
      </trkpt>
      <trkpt lat="44.11398" lon="1.81008">
        <ele>245.27</ele>
        <time>2018-09-08T10:11:09Z</time>
      </trkpt>
      <trkpt lat="44.11379" lon="1.80936">
        <ele>244.31</ele>
        <time>2018-09-08T10:11:17Z</time>
      </trkpt>
      <trkpt lat="44.11381" lon="1.8093">
        <ele>243.35</ele>
        <time>2018-09-08T10:11:18Z</time>
      </trkpt>
      <trkpt lat="44.11384" lon="1.80923">
        <ele>242.87</ele>
        <time>2018-09-08T10:11:19Z</time>
      </trkpt>
      <trkpt lat="44.11389" lon="1.80918">
        <ele>242.87</ele>
        <time>2018-09-08T10:11:20Z</time>
      </trkpt>
      <trkpt lat="44.11393" lon="1.80913">
        <ele>242.39</ele>
        <time>2018-09-08T10:11:21Z</time>
      </trkpt>
      <trkpt lat="44.11397" lon="1.80909">
        <ele>242.87</ele>
        <time>2018-09-08T10:11:22Z</time>
      </trkpt>
      <trkpt lat="44.114" lon="1.80906">
        <ele>241.91</ele>
        <time>2018-09-08T10:11:23Z</time>
      </trkpt>
      <trkpt lat="44.11401" lon="1.80903">
        <ele>241.91</ele>
        <time>2018-09-08T10:11:24Z</time>
      </trkpt>
      <trkpt lat="44.11402" lon="1.80899">
        <ele>241.43</ele>
        <time>2018-09-08T10:11:25Z</time>
      </trkpt>
      <trkpt lat="44.11401" lon="1.80895">
        <ele>241.43</ele>
        <time>2018-09-08T10:11:26Z</time>
      </trkpt>
      <trkpt lat="44.11398" lon="1.80888">
        <ele>240.47</ele>
        <time>2018-09-08T10:11:28Z</time>
      </trkpt>
      <trkpt lat="44.11385" lon="1.80865">
        <ele>237.1</ele>
        <time>2018-09-08T10:11:32Z</time>
      </trkpt>
      <trkpt lat="44.11376" lon="1.80854">
        <ele>234.7</ele>
        <time>2018-09-08T10:11:34Z</time>
      </trkpt>
      <trkpt lat="44.11354" lon="1.80829">
        <ele>229.89</ele>
        <time>2018-09-08T10:11:39Z</time>
      </trkpt>
      <trkpt lat="44.11347" lon="1.8082">
        <ele>228.45</ele>
        <time>2018-09-08T10:11:41Z</time>
      </trkpt>
      <trkpt lat="44.11334" lon="1.80808">
        <ele>225.57</ele>
        <time>2018-09-08T10:11:44Z</time>
      </trkpt>
      <trkpt lat="44.11312" lon="1.80787">
        <ele>219.8</ele>
        <time>2018-09-08T10:11:50Z</time>
      </trkpt>
      <trkpt lat="44.11304" lon="1.80777">
        <ele>218.36</ele>
        <time>2018-09-08T10:11:53Z</time>
      </trkpt>
      <trkpt lat="44.11288" lon="1.80756">
        <ele>214.99</ele>
        <time>2018-09-08T10:11:59Z</time>
      </trkpt>
      <trkpt lat="44.11281" lon="1.80745">
        <ele>212.11</ele>
        <time>2018-09-08T10:12:02Z</time>
      </trkpt>
      <trkpt lat="44.11279" lon="1.80741">
        <ele>211.63</ele>
        <time>2018-09-08T10:12:03Z</time>
      </trkpt>
      <trkpt lat="44.11268" lon="1.80737">
        <ele>209.7</ele>
        <time>2018-09-08T10:12:06Z</time>
      </trkpt>
      <trkpt lat="44.11234" lon="1.80739">
        <ele>206.82</ele>
        <time>2018-09-08T10:12:16Z</time>
      </trkpt>
      <trkpt lat="44.11221" lon="1.8073">
        <ele>205.86</ele>
        <time>2018-09-08T10:12:20Z</time>
      </trkpt>
      <trkpt lat="44.11198" lon="1.80677">
        <ele>205.38</ele>
        <time>2018-09-08T10:12:33Z</time>
      </trkpt>
      <trkpt lat="44.11176" lon="1.80639">
        <ele>204.9</ele>
        <time>2018-09-08T10:12:43Z</time>
      </trkpt>
      <trkpt lat="44.1114" lon="1.80601">
        <ele>205.86</ele>
        <time>2018-09-08T10:12:57Z</time>
      </trkpt>
      <trkpt lat="44.11138" lon="1.806">
        <ele>205.86</ele>
        <time>2018-09-08T10:12:58Z</time>
      </trkpt>
      <trkpt lat="44.11136" lon="1.80601">
        <ele>205.86</ele>
        <time>2018-09-08T10:12:59Z</time>
      </trkpt>
      <trkpt lat="44.11135" lon="1.80602">
        <ele>206.34</ele>
        <time>2018-09-08T10:13:00Z</time>
      </trkpt>
      <trkpt lat="44.11134" lon="1.80606">
        <ele>205.86</ele>
        <time>2018-09-08T10:13:12Z</time>
      </trkpt>
      <trkpt lat="44.11135" lon="1.80608">
        <ele>206.34</ele>
        <time>2018-09-08T10:13:28Z</time>
      </trkpt>
      <trkpt lat="44.11135" lon="1.80609">
        <ele>206.82</ele>
        <time>2018-09-08T10:13:29Z</time>
      </trkpt>
      <trkpt lat="44.11135" lon="1.80612">
        <ele>206.34</ele>
        <time>2018-09-08T10:13:30Z</time>
      </trkpt>
      <trkpt lat="44.11134" lon="1.80614">
        <ele>206.82</ele>
        <time>2018-09-08T10:13:31Z</time>
      </trkpt>
      <trkpt lat="44.11132" lon="1.80617">
        <ele>207.3</ele>
        <time>2018-09-08T10:13:32Z</time>
      </trkpt>
      <trkpt lat="44.11131" lon="1.8062">
        <ele>207.78</ele>
        <time>2018-09-08T10:13:33Z</time>
      </trkpt>
      <trkpt lat="44.11131" lon="1.80623">
        <ele>207.78</ele>
        <time>2018-09-08T10:13:34Z</time>
      </trkpt>
      <trkpt lat="44.1113" lon="1.80625">
        <ele>207.78</ele>
        <time>2018-09-08T10:13:35Z</time>
      </trkpt>
      <trkpt lat="44.11114" lon="1.80663">
        <ele>211.15</ele>
        <time>2018-09-08T10:13:47Z</time>
      </trkpt>
      <trkpt lat="44.11093" lon="1.80704">
        <ele>213.55</ele>
        <time>2018-09-08T10:14:00Z</time>
      </trkpt>
      <trkpt lat="44.1106" lon="1.80743">
        <ele>214.99</ele>
        <time>2018-09-08T10:14:15Z</time>
      </trkpt>
      <trkpt lat="44.11031" lon="1.80775">
        <ele>216.91</ele>
        <time>2018-09-08T10:14:28Z</time>
      </trkpt>
      <trkpt lat="44.1101" lon="1.80824">
        <ele>218.36</ele>
        <time>2018-09-08T10:14:42Z</time>
      </trkpt>
      <trkpt lat="44.11013" lon="1.80872">
        <ele>219.32</ele>
        <time>2018-09-08T10:14:54Z</time>
      </trkpt>
      <trkpt lat="44.11025" lon="1.80915">
        <ele>221.72</ele>
        <time>2018-09-08T10:15:05Z</time>
      </trkpt>
      <trkpt lat="44.11019" lon="1.80968">
        <ele>221.72</ele>
        <time>2018-09-08T10:15:18Z</time>
      </trkpt>
      <trkpt lat="44.11011" lon="1.80988">
        <ele>221.72</ele>
        <time>2018-09-08T10:15:22Z</time>
      </trkpt>
      <trkpt lat="44.11006" lon="1.80998">
        <ele>222.2</ele>
        <time>2018-09-08T10:15:24Z</time>
      </trkpt>
      <trkpt lat="44.10999" lon="1.81007">
        <ele>221.72</ele>
        <time>2018-09-08T10:15:26Z</time>
      </trkpt>
      <trkpt lat="44.10995" lon="1.81011">
        <ele>221.72</ele>
        <time>2018-09-08T10:15:27Z</time>
      </trkpt>
      <trkpt lat="44.10983" lon="1.81024">
        <ele>220.76</ele>
        <time>2018-09-08T10:15:30Z</time>
      </trkpt>
      <trkpt lat="44.1097" lon="1.8104">
        <ele>220.28</ele>
        <time>2018-09-08T10:15:33Z</time>
      </trkpt>
      <trkpt lat="44.10966" lon="1.81046">
        <ele>219.8</ele>
        <time>2018-09-08T10:15:34Z</time>
      </trkpt>
      <trkpt lat="44.10963" lon="1.81053">
        <ele>219.8</ele>
        <time>2018-09-08T10:15:35Z</time>
      </trkpt>
      <trkpt lat="44.1096" lon="1.81059">
        <ele>220.28</ele>
        <time>2018-09-08T10:15:36Z</time>
      </trkpt>
      <trkpt lat="44.10958" lon="1.81066">
        <ele>219.32</ele>
        <time>2018-09-08T10:15:37Z</time>
      </trkpt>
      <trkpt lat="44.10956" lon="1.81072">
        <ele>219.8</ele>
        <time>2018-09-08T10:15:38Z</time>
      </trkpt>
      <trkpt lat="44.10954" lon="1.81079">
        <ele>219.8</ele>
        <time>2018-09-08T10:15:39Z</time>
      </trkpt>
      <trkpt lat="44.10953" lon="1.81092">
        <ele>220.28</ele>
        <time>2018-09-08T10:15:41Z</time>
      </trkpt>
      <trkpt lat="44.10952" lon="1.811">
        <ele>220.76</ele>
        <time>2018-09-08T10:15:42Z</time>
      </trkpt>
      <trkpt lat="44.10951" lon="1.81106">
        <ele>220.76</ele>
        <time>2018-09-08T10:15:43Z</time>
      </trkpt>
      <trkpt lat="44.10948" lon="1.81119">
        <ele>220.28</ele>
        <time>2018-09-08T10:15:45Z</time>
      </trkpt>
      <trkpt lat="44.10945" lon="1.81126">
        <ele>220.28</ele>
        <time>2018-09-08T10:15:46Z</time>
      </trkpt>
      <trkpt lat="44.10937" lon="1.81142">
        <ele>220.28</ele>
        <time>2018-09-08T10:15:49Z</time>
      </trkpt>
      <trkpt lat="44.1093" lon="1.81151">
        <ele>219.8</ele>
        <time>2018-09-08T10:15:51Z</time>
      </trkpt>
      <trkpt lat="44.10928" lon="1.81155">
        <ele>219.8</ele>
        <time>2018-09-08T10:15:52Z</time>
      </trkpt>
      <trkpt lat="44.10925" lon="1.81159">
        <ele>220.28</ele>
        <time>2018-09-08T10:15:53Z</time>
      </trkpt>
      <trkpt lat="44.109" lon="1.81212">
        <ele>221.24</ele>
        <time>2018-09-08T10:16:05Z</time>
      </trkpt>
      <trkpt lat="44.10901" lon="1.81215">
        <ele>221.24</ele>
        <time>2018-09-08T10:16:06Z</time>
      </trkpt>
      <trkpt lat="44.10902" lon="1.81219">
        <ele>220.28</ele>
        <time>2018-09-08T10:16:07Z</time>
      </trkpt>
      <trkpt lat="44.10904" lon="1.81222">
        <ele>220.76</ele>
        <time>2018-09-08T10:16:08Z</time>
      </trkpt>
      <trkpt lat="44.10906" lon="1.81225">
        <ele>220.76</ele>
        <time>2018-09-08T10:16:09Z</time>
      </trkpt>
      <trkpt lat="44.10918" lon="1.81257">
        <ele>223.16</ele>
        <time>2018-09-08T10:16:20Z</time>
      </trkpt>
      <trkpt lat="44.10921" lon="1.81279">
        <ele>224.12</ele>
        <time>2018-09-08T10:16:28Z</time>
      </trkpt>
      <trkpt lat="44.10921" lon="1.81305">
        <ele>226.05</ele>
        <time>2018-09-08T10:16:37Z</time>
      </trkpt>
      <trkpt lat="44.1092" lon="1.81344">
        <ele>228.45</ele>
        <time>2018-09-08T10:16:51Z</time>
      </trkpt>
      <trkpt lat="44.10907" lon="1.81375">
        <ele>230.85</ele>
        <time>2018-09-08T10:17:04Z</time>
      </trkpt>
      <trkpt lat="44.10901" lon="1.81408">
        <ele>233.74</ele>
        <time>2018-09-08T10:17:18Z</time>
      </trkpt>
      <trkpt lat="44.10898" lon="1.81426">
        <ele>235.18</ele>
        <time>2018-09-08T10:17:27Z</time>
      </trkpt>
      <trkpt lat="44.10897" lon="1.81427">
        <ele>235.66</ele>
        <time>2018-09-08T10:17:28Z</time>
      </trkpt>
      <trkpt lat="44.10897" lon="1.81429">
        <ele>235.66</ele>
        <time>2018-09-08T10:17:29Z</time>
      </trkpt>
      <trkpt lat="44.10896" lon="1.8143">
        <ele>235.66</ele>
        <time>2018-09-08T10:17:30Z</time>
      </trkpt>
      <trkpt lat="44.10896" lon="1.81432">
        <ele>236.62</ele>
        <time>2018-09-08T10:17:31Z</time>
      </trkpt>
      <trkpt lat="44.10895" lon="1.81434">
        <ele>236.62</ele>
        <time>2018-09-08T10:17:32Z</time>
      </trkpt>
      <trkpt lat="44.10894" lon="1.81436">
        <ele>236.14</ele>
        <time>2018-09-08T10:17:33Z</time>
      </trkpt>
      <trkpt lat="44.10891" lon="1.81446">
        <ele>237.58</ele>
        <time>2018-09-08T10:17:39Z</time>
      </trkpt>
      <trkpt lat="44.1089" lon="1.81449">
        <ele>237.58</ele>
        <time>2018-09-08T10:17:40Z</time>
      </trkpt>
      <trkpt lat="44.1089" lon="1.81451">
        <ele>237.58</ele>
        <time>2018-09-08T10:17:41Z</time>
      </trkpt>
      <trkpt lat="44.10889" lon="1.81454">
        <ele>238.06</ele>
        <time>2018-09-08T10:17:43Z</time>
      </trkpt>
      <trkpt lat="44.10888" lon="1.81456">
        <ele>238.54</ele>
        <time>2018-09-08T10:17:44Z</time>
      </trkpt>
      <trkpt lat="44.10888" lon="1.81458">
        <ele>238.54</ele>
        <time>2018-09-08T10:17:45Z</time>
      </trkpt>
      <trkpt lat="44.10886" lon="1.81467">
        <ele>239.51</ele>
        <time>2018-09-08T10:17:50Z</time>
      </trkpt>
      <trkpt lat="44.10885" lon="1.8147">
        <ele>239.51</ele>
        <time>2018-09-08T10:17:51Z</time>
      </trkpt>
      <trkpt lat="44.10883" lon="1.8148">
        <ele>240.47</ele>
        <time>2018-09-08T10:17:55Z</time>
      </trkpt>
      <trkpt lat="44.10883" lon="1.81482">
        <ele>239.99</ele>
        <time>2018-09-08T10:17:56Z</time>
      </trkpt>
      <trkpt lat="44.10883" lon="1.81485">
        <ele>239.99</ele>
        <time>2018-09-08T10:17:57Z</time>
      </trkpt>
      <trkpt lat="44.10881" lon="1.8151">
        <ele>241.91</ele>
        <time>2018-09-08T10:18:08Z</time>
      </trkpt>
      <trkpt lat="44.10881" lon="1.81513">
        <ele>242.39</ele>
        <time>2018-09-08T10:18:09Z</time>
      </trkpt>
      <trkpt lat="44.10879" lon="1.81525">
        <ele>243.83</ele>
        <time>2018-09-08T10:18:15Z</time>
      </trkpt>
      <trkpt lat="44.10879" lon="1.81527">
        <ele>243.35</ele>
        <time>2018-09-08T10:18:16Z</time>
      </trkpt>
      <trkpt lat="44.10878" lon="1.81529">
        <ele>244.31</ele>
        <time>2018-09-08T10:18:17Z</time>
      </trkpt>
      <trkpt lat="44.10878" lon="1.81531">
        <ele>243.83</ele>
        <time>2018-09-08T10:18:18Z</time>
      </trkpt>
      <trkpt lat="44.10877" lon="1.81532">
        <ele>243.83</ele>
        <time>2018-09-08T10:18:19Z</time>
      </trkpt>
      <trkpt lat="44.10876" lon="1.81534">
        <ele>243.83</ele>
        <time>2018-09-08T10:18:20Z</time>
      </trkpt>
      <trkpt lat="44.10876" lon="1.8154">
        <ele>244.79</ele>
        <time>2018-09-08T10:18:23Z</time>
      </trkpt>
      <trkpt lat="44.10877" lon="1.81557">
        <ele>246.72</ele>
        <time>2018-09-08T10:18:31Z</time>
      </trkpt>
      <trkpt lat="44.10877" lon="1.81559">
        <ele>246.72</ele>
        <time>2018-09-08T10:18:32Z</time>
      </trkpt>
      <trkpt lat="44.10876" lon="1.81561">
        <ele>246.72</ele>
        <time>2018-09-08T10:18:33Z</time>
      </trkpt>
      <trkpt lat="44.10875" lon="1.81586">
        <ele>250.08</ele>
        <time>2018-09-08T10:18:45Z</time>
      </trkpt>
      <trkpt lat="44.10871" lon="1.81608">
        <ele>251.52</ele>
        <time>2018-09-08T10:18:58Z</time>
      </trkpt>
      <trkpt lat="44.10871" lon="1.81611">
        <ele>251.52</ele>
        <time>2018-09-08T10:19:00Z</time>
      </trkpt>
      <trkpt lat="44.1087" lon="1.81612">
        <ele>251.52</ele>
        <time>2018-09-08T10:19:01Z</time>
      </trkpt>
      <trkpt lat="44.1087" lon="1.81614">
        <ele>252</ele>
        <time>2018-09-08T10:19:02Z</time>
      </trkpt>
      <trkpt lat="44.10869" lon="1.81615">
        <ele>252.48</ele>
        <time>2018-09-08T10:19:03Z</time>
      </trkpt>
      <trkpt lat="44.10868" lon="1.81617">
        <ele>252.48</ele>
        <time>2018-09-08T10:19:04Z</time>
      </trkpt>
      <trkpt lat="44.10859" lon="1.81632">
        <ele>255.37</ele>
        <time>2018-09-08T10:19:19Z</time>
      </trkpt>
      <trkpt lat="44.10852" lon="1.81647">
        <ele>258.25</ele>
        <time>2018-09-08T10:19:30Z</time>
      </trkpt>
      <trkpt lat="44.10844" lon="1.81664">
        <ele>260.65</ele>
        <time>2018-09-08T10:19:44Z</time>
      </trkpt>
      <trkpt lat="44.10839" lon="1.81675">
        <ele>263.54</ele>
        <time>2018-09-08T10:19:57Z</time>
      </trkpt>
      <trkpt lat="44.10833" lon="1.81682">
        <ele>264.02</ele>
        <time>2018-09-08T10:20:13Z</time>
      </trkpt>
      <trkpt lat="44.10824" lon="1.81696">
        <ele>266.9</ele>
        <time>2018-09-08T10:20:26Z</time>
      </trkpt>
      <trkpt lat="44.10815" lon="1.81713">
        <ele>270.27</ele>
        <time>2018-09-08T10:20:42Z</time>
      </trkpt>
      <trkpt lat="44.10808" lon="1.8173">
        <ele>273.63</ele>
        <time>2018-09-08T10:20:56Z</time>
      </trkpt>
      <trkpt lat="44.10798" lon="1.81746">
        <ele>277</ele>
        <time>2018-09-08T10:21:10Z</time>
      </trkpt>
      <trkpt lat="44.10793" lon="1.81764">
        <ele>279.88</ele>
        <time>2018-09-08T10:21:27Z</time>
      </trkpt>
      <trkpt lat="44.10787" lon="1.81779">
        <ele>282.28</ele>
        <time>2018-09-08T10:21:40Z</time>
      </trkpt>
      <trkpt lat="44.10784" lon="1.81809">
        <ele>286.61</ele>
        <time>2018-09-08T10:23:33Z</time>
      </trkpt>
      <trkpt lat="44.10784" lon="1.81811">
        <ele>286.61</ele>
        <time>2018-09-08T10:23:34Z</time>
      </trkpt>
      <trkpt lat="44.10782" lon="1.81829">
        <ele>288.53</ele>
        <time>2018-09-08T10:23:48Z</time>
      </trkpt>
      <trkpt lat="44.10778" lon="1.81843">
        <ele>291.9</ele>
        <time>2018-09-08T10:24:00Z</time>
      </trkpt>
      <trkpt lat="44.10775" lon="1.81864">
        <ele>294.3</ele>
        <time>2018-09-08T10:24:16Z</time>
      </trkpt>
      <trkpt lat="44.10775" lon="1.81872">
        <ele>296.22</ele>
        <time>2018-09-08T10:24:24Z</time>
      </trkpt>
      <trkpt lat="44.10769" lon="1.81887">
        <ele>298.63</ele>
        <time>2018-09-08T10:24:37Z</time>
      </trkpt>
      <trkpt lat="44.10759" lon="1.81903">
        <ele>301.51</ele>
        <time>2018-09-08T10:24:51Z</time>
      </trkpt>
      <trkpt lat="44.10755" lon="1.81911">
        <ele>303.43</ele>
        <time>2018-09-08T10:25:05Z</time>
      </trkpt>
      <trkpt lat="44.10747" lon="1.81929">
        <ele>306.8</ele>
        <time>2018-09-08T10:25:20Z</time>
      </trkpt>
      <trkpt lat="44.10742" lon="1.81937">
        <ele>308.72</ele>
        <time>2018-09-08T10:25:28Z</time>
      </trkpt>
      <trkpt lat="44.10733" lon="1.8195">
        <ele>310.16</ele>
        <time>2018-09-08T10:25:44Z</time>
      </trkpt>
      <trkpt lat="44.10729" lon="1.8196">
        <ele>313.53</ele>
        <time>2018-09-08T10:25:58Z</time>
      </trkpt>
      <trkpt lat="44.10728" lon="1.81963">
        <ele>313.53</ele>
        <time>2018-09-08T10:26:00Z</time>
      </trkpt>
      <trkpt lat="44.10724" lon="1.8198">
        <ele>316.41</ele>
        <time>2018-09-08T10:26:16Z</time>
      </trkpt>
      <trkpt lat="44.10718" lon="1.81995">
        <ele>318.81</ele>
        <time>2018-09-08T10:26:30Z</time>
      </trkpt>
      <trkpt lat="44.10714" lon="1.82008">
        <ele>322.18</ele>
        <time>2018-09-08T10:26:46Z</time>
      </trkpt>
      <trkpt lat="44.1071" lon="1.82015">
        <ele>323.62</ele>
        <time>2018-09-08T10:27:00Z</time>
      </trkpt>
      <trkpt lat="44.10709" lon="1.82019">
        <ele>324.58</ele>
        <time>2018-09-08T10:27:08Z</time>
      </trkpt>
      <trkpt lat="44.10707" lon="1.82031">
        <ele>327.95</ele>
        <time>2018-09-08T10:27:22Z</time>
      </trkpt>
      <trkpt lat="44.10703" lon="1.82048">
        <ele>330.83</ele>
        <time>2018-09-08T10:27:37Z</time>
      </trkpt>
      <trkpt lat="44.107" lon="1.8206">
        <ele>332.75</ele>
        <time>2018-09-08T10:27:49Z</time>
      </trkpt>
      <trkpt lat="44.10699" lon="1.82073">
        <ele>335.64</ele>
        <time>2018-09-08T10:28:02Z</time>
      </trkpt>
      <trkpt lat="44.10697" lon="1.82085">
        <ele>338.04</ele>
        <time>2018-09-08T10:28:15Z</time>
      </trkpt>
      <trkpt lat="44.10693" lon="1.82099">
        <ele>340.44</ele>
        <time>2018-09-08T10:28:30Z</time>
      </trkpt>
      <trkpt lat="44.1069" lon="1.82114">
        <ele>343.81</ele>
        <time>2018-09-08T10:28:46Z</time>
      </trkpt>
      <trkpt lat="44.10689" lon="1.82128">
        <ele>346.69</ele>
        <time>2018-09-08T10:29:01Z</time>
      </trkpt>
      <trkpt lat="44.10686" lon="1.8214">
        <ele>349.1</ele>
        <time>2018-09-08T10:29:15Z</time>
      </trkpt>
      <trkpt lat="44.10682" lon="1.82153">
        <ele>351.98</ele>
        <time>2018-09-08T10:29:30Z</time>
      </trkpt>
      <trkpt lat="44.10678" lon="1.82172">
        <ele>354.38</ele>
        <time>2018-09-08T10:29:47Z</time>
      </trkpt>
      <trkpt lat="44.10674" lon="1.82185">
        <ele>357.27</ele>
        <time>2018-09-08T10:30:00Z</time>
      </trkpt>
      <trkpt lat="44.10668" lon="1.82201">
        <ele>360.15</ele>
        <time>2018-09-08T10:30:15Z</time>
      </trkpt>
      <trkpt lat="44.1066" lon="1.82214">
        <ele>362.07</ele>
        <time>2018-09-08T10:30:29Z</time>
      </trkpt>
      <trkpt lat="44.10653" lon="1.82225">
        <ele>364.96</ele>
        <time>2018-09-08T10:30:45Z</time>
      </trkpt>
      <trkpt lat="44.10643" lon="1.82238">
        <ele>367.36</ele>
        <time>2018-09-08T10:31:01Z</time>
      </trkpt>
      <trkpt lat="44.10637" lon="1.82253">
        <ele>371.21</ele>
        <time>2018-09-08T10:31:19Z</time>
      </trkpt>
      <trkpt lat="44.10631" lon="1.82264">
        <ele>373.61</ele>
        <time>2018-09-08T10:31:35Z</time>
      </trkpt>
      <trkpt lat="44.10624" lon="1.82271">
        <ele>375.53</ele>
        <time>2018-09-08T10:31:54Z</time>
      </trkpt>
      <trkpt lat="44.10615" lon="1.8228">
        <ele>378.42</ele>
        <time>2018-09-08T10:32:17Z</time>
      </trkpt>
      <trkpt lat="44.10605" lon="1.8229">
        <ele>381.3</ele>
        <time>2018-09-08T10:32:30Z</time>
      </trkpt>
      <trkpt lat="44.106" lon="1.82302">
        <ele>383.7</ele>
        <time>2018-09-08T10:32:43Z</time>
      </trkpt>
      <trkpt lat="44.10591" lon="1.82319">
        <ele>386.59</ele>
        <time>2018-09-08T10:33:00Z</time>
      </trkpt>
      <trkpt lat="44.10583" lon="1.82329">
        <ele>388.99</ele>
        <time>2018-09-08T10:33:15Z</time>
      </trkpt>
      <trkpt lat="44.10572" lon="1.82337">
        <ele>392.36</ele>
        <time>2018-09-08T10:33:29Z</time>
      </trkpt>
      <trkpt lat="44.10561" lon="1.82341">
        <ele>394.76</ele>
        <time>2018-09-08T10:33:43Z</time>
      </trkpt>
      <trkpt lat="44.10555" lon="1.8234">
        <ele>396.2</ele>
        <time>2018-09-08T10:33:52Z</time>
      </trkpt>
      <trkpt lat="44.10553" lon="1.82341">
        <ele>396.2</ele>
        <time>2018-09-08T10:33:54Z</time>
      </trkpt>
      <trkpt lat="44.1054" lon="1.82352">
        <ele>398.6</ele>
        <time>2018-09-08T10:34:06Z</time>
      </trkpt>
      <trkpt lat="44.10536" lon="1.82364">
        <ele>400.05</ele>
        <time>2018-09-08T10:34:14Z</time>
      </trkpt>
      <trkpt lat="44.10537" lon="1.82392">
        <ele>402.93</ele>
        <time>2018-09-08T10:34:29Z</time>
      </trkpt>
      <trkpt lat="44.10536" lon="1.82396">
        <ele>402.93</ele>
        <time>2018-09-08T10:34:31Z</time>
      </trkpt>
      <trkpt lat="44.10528" lon="1.82422">
        <ele>406.29</ele>
        <time>2018-09-08T10:34:47Z</time>
      </trkpt>
      <trkpt lat="44.10522" lon="1.82449">
        <ele>409.18</ele>
        <time>2018-09-08T10:35:04Z</time>
      </trkpt>
      <trkpt lat="44.10505" lon="1.8247">
        <ele>410.62</ele>
        <time>2018-09-08T10:35:19Z</time>
      </trkpt>
      <trkpt lat="44.10502" lon="1.82479">
        <ele>411.1</ele>
        <time>2018-09-08T10:35:25Z</time>
      </trkpt>
      <trkpt lat="44.10482" lon="1.82482">
        <ele>412.06</ele>
        <time>2018-09-08T10:37:29Z</time>
      </trkpt>
      <trkpt lat="44.1048" lon="1.82483">
        <ele>412.06</ele>
        <time>2018-09-08T10:37:30Z</time>
      </trkpt>
      <trkpt lat="44.10478" lon="1.82483">
        <ele>412.06</ele>
        <time>2018-09-08T10:37:31Z</time>
      </trkpt>
      <trkpt lat="44.10475" lon="1.82483">
        <ele>411.58</ele>
        <time>2018-09-08T10:37:43Z</time>
      </trkpt>
      <trkpt lat="44.10475" lon="1.82483">
        <ele>410.62</ele>
        <time>2018-09-08T10:38:01Z</time>
      </trkpt>
      <trkpt lat="44.10475" lon="1.82482">
        <ele>412.06</ele>
        <time>2018-09-08T10:38:33Z</time>
      </trkpt>
      <trkpt lat="44.10455" lon="1.82484">
        <ele>412.06</ele>
        <time>2018-09-08T10:38:52Z</time>
      </trkpt>
      <trkpt lat="44.10409" lon="1.82479">
        <ele>413.98</ele>
        <time>2018-09-08T10:39:05Z</time>
      </trkpt>
      <trkpt lat="44.10366" lon="1.82478">
        <ele>415.91</ele>
        <time>2018-09-08T10:39:18Z</time>
      </trkpt>
      <trkpt lat="44.10335" lon="1.82472">
        <ele>416.87</ele>
        <time>2018-09-08T10:39:29Z</time>
      </trkpt>
      <trkpt lat="44.10283" lon="1.82474">
        <ele>418.79</ele>
        <time>2018-09-08T10:39:43Z</time>
      </trkpt>
      <trkpt lat="44.10253" lon="1.82479">
        <ele>418.31</ele>
        <time>2018-09-08T10:39:50Z</time>
      </trkpt>
      <trkpt lat="44.10249" lon="1.82481">
        <ele>418.31</ele>
        <time>2018-09-08T10:39:51Z</time>
      </trkpt>
      <trkpt lat="44.10245" lon="1.82482">
        <ele>418.31</ele>
        <time>2018-09-08T10:39:52Z</time>
      </trkpt>
      <trkpt lat="44.10241" lon="1.82484">
        <ele>418.31</ele>
        <time>2018-09-08T10:39:53Z</time>
      </trkpt>
      <trkpt lat="44.10237" lon="1.82486">
        <ele>418.31</ele>
        <time>2018-09-08T10:39:54Z</time>
      </trkpt>
      <trkpt lat="44.10228" lon="1.8249">
        <ele>417.83</ele>
        <time>2018-09-08T10:39:56Z</time>
      </trkpt>
      <trkpt lat="44.10157" lon="1.825">
        <ele>418.31</ele>
        <time>2018-09-08T10:40:13Z</time>
      </trkpt>
      <trkpt lat="44.10153" lon="1.82501">
        <ele>418.31</ele>
        <time>2018-09-08T10:40:14Z</time>
      </trkpt>
      <trkpt lat="44.10102" lon="1.82498">
        <ele>420.23</ele>
        <time>2018-09-08T10:40:28Z</time>
      </trkpt>
      <trkpt lat="44.10071" lon="1.82508">
        <ele>421.19</ele>
        <time>2018-09-08T10:40:37Z</time>
      </trkpt>
      <trkpt lat="44.10035" lon="1.82539">
        <ele>424.56</ele>
        <time>2018-09-08T10:40:50Z</time>
      </trkpt>
      <trkpt lat="44.10006" lon="1.82582">
        <ele>425.04</ele>
        <time>2018-09-08T10:41:03Z</time>
      </trkpt>
      <trkpt lat="44.09981" lon="1.82652">
        <ele>425.52</ele>
        <time>2018-09-08T10:41:18Z</time>
      </trkpt>
      <trkpt lat="44.09978" lon="1.82664">
        <ele>425.52</ele>
        <time>2018-09-08T10:41:20Z</time>
      </trkpt>
      <trkpt lat="44.09974" lon="1.82761">
        <ele>425.04</ele>
        <time>2018-09-08T10:41:34Z</time>
      </trkpt>
      <trkpt lat="44.09989" lon="1.82863">
        <ele>427.44</ele>
        <time>2018-09-08T10:41:51Z</time>
      </trkpt>
      <trkpt lat="44.09993" lon="1.82905">
        <ele>427.44</ele>
        <time>2018-09-08T10:41:58Z</time>
      </trkpt>
      <trkpt lat="44.09991" lon="1.82994">
        <ele>429.37</ele>
        <time>2018-09-08T10:42:14Z</time>
      </trkpt>
      <trkpt lat="44.09987" lon="1.83058">
        <ele>430.33</ele>
        <time>2018-09-08T10:42:25Z</time>
      </trkpt>
      <trkpt lat="44.09986" lon="1.83064">
        <ele>429.37</ele>
        <time>2018-09-08T10:42:26Z</time>
      </trkpt>
      <trkpt lat="44.09983" lon="1.83086">
        <ele>429.85</ele>
        <time>2018-09-08T10:42:29Z</time>
      </trkpt>
      <trkpt lat="44.09981" lon="1.83117">
        <ele>429.37</ele>
        <time>2018-09-08T10:42:33Z</time>
      </trkpt>
      <trkpt lat="44.09982" lon="1.83189">
        <ele>426.96</ele>
        <time>2018-09-08T10:42:45Z</time>
      </trkpt>
      <trkpt lat="44.0998" lon="1.83196">
        <ele>427.44</ele>
        <time>2018-09-08T10:42:52Z</time>
      </trkpt>
      <trkpt lat="44.09955" lon="1.83246">
        <ele>429.85</ele>
        <time>2018-09-08T10:43:04Z</time>
      </trkpt>
      <trkpt lat="44.09952" lon="1.83257">
        <ele>429.37</ele>
        <time>2018-09-08T10:43:06Z</time>
      </trkpt>
      <trkpt lat="44.09949" lon="1.83261">
        <ele>429.37</ele>
        <time>2018-09-08T10:43:07Z</time>
      </trkpt>
      <trkpt lat="44.09935" lon="1.83286">
        <ele>428.89</ele>
        <time>2018-09-08T10:43:17Z</time>
      </trkpt>
      <trkpt lat="44.09919" lon="1.83309">
        <ele>428.89</ele>
        <time>2018-09-08T10:43:31Z</time>
      </trkpt>
      <trkpt lat="44.09899" lon="1.83335">
        <ele>427.92</ele>
        <time>2018-09-08T10:43:36Z</time>
      </trkpt>
      <trkpt lat="44.09849" lon="1.83448">
        <ele>425.52</ele>
        <time>2018-09-08T10:43:52Z</time>
      </trkpt>
      <trkpt lat="44.09807" lon="1.83542">
        <ele>426.96</ele>
        <time>2018-09-08T10:44:34Z</time>
      </trkpt>
      <trkpt lat="44.09805" lon="1.83543">
        <ele>426.48</ele>
        <time>2018-09-08T10:44:50Z</time>
      </trkpt>
      <trkpt lat="44.09799" lon="1.83553">
        <ele>426.96</ele>
        <time>2018-09-08T10:45:03Z</time>
      </trkpt>
      <trkpt lat="44.0979" lon="1.83572">
        <ele>427.44</ele>
        <time>2018-09-08T10:45:20Z</time>
      </trkpt>
      <trkpt lat="44.09749" lon="1.83643">
        <ele>429.85</ele>
        <time>2018-09-08T10:45:36Z</time>
      </trkpt>
      <trkpt lat="44.09724" lon="1.8373">
        <ele>428.4</ele>
        <time>2018-09-08T10:45:50Z</time>
      </trkpt>
      <trkpt lat="44.09707" lon="1.83784">
        <ele>427.92</ele>
        <time>2018-09-08T10:45:57Z</time>
      </trkpt>
      <trkpt lat="44.09704" lon="1.8379">
        <ele>427.92</ele>
        <time>2018-09-08T10:45:58Z</time>
      </trkpt>
      <trkpt lat="44.097" lon="1.83796">
        <ele>427.92</ele>
        <time>2018-09-08T10:45:59Z</time>
      </trkpt>
      <trkpt lat="44.09696" lon="1.83801">
        <ele>428.4</ele>
        <time>2018-09-08T10:46:00Z</time>
      </trkpt>
      <trkpt lat="44.09691" lon="1.83805">
        <ele>428.89</ele>
        <time>2018-09-08T10:46:01Z</time>
      </trkpt>
      <trkpt lat="44.09687" lon="1.83809">
        <ele>427.92</ele>
        <time>2018-09-08T10:46:02Z</time>
      </trkpt>
      <trkpt lat="44.09682" lon="1.83811">
        <ele>428.4</ele>
        <time>2018-09-08T10:46:03Z</time>
      </trkpt>
      <trkpt lat="44.09677" lon="1.83814">
        <ele>428.89</ele>
        <time>2018-09-08T10:46:04Z</time>
      </trkpt>
      <trkpt lat="44.09672" lon="1.83815">
        <ele>428.89</ele>
        <time>2018-09-08T10:46:05Z</time>
      </trkpt>
      <trkpt lat="44.09637" lon="1.83831">
        <ele>431.77</ele>
        <time>2018-09-08T10:46:15Z</time>
      </trkpt>
      <trkpt lat="44.09625" lon="1.83841">
        <ele>431.77</ele>
        <time>2018-09-08T10:46:25Z</time>
      </trkpt>
      <trkpt lat="44.09624" lon="1.83842">
        <ele>431.29</ele>
        <time>2018-09-08T10:46:52Z</time>
      </trkpt>
      <trkpt lat="44.09626" lon="1.83844">
        <ele>431.77</ele>
        <time>2018-09-08T10:47:31Z</time>
      </trkpt>
      <trkpt lat="44.09623" lon="1.83849">
        <ele>432.25</ele>
        <time>2018-09-08T10:47:47Z</time>
      </trkpt>
      <trkpt lat="44.09621" lon="1.83851">
        <ele>432.73</ele>
        <time>2018-09-08T10:47:48Z</time>
      </trkpt>
      <trkpt lat="44.0962" lon="1.83853">
        <ele>433.21</ele>
        <time>2018-09-08T10:47:49Z</time>
      </trkpt>
      <trkpt lat="44.096" lon="1.83894">
        <ele>435.61</ele>
        <time>2018-09-08T10:48:01Z</time>
      </trkpt>
      <trkpt lat="44.09586" lon="1.8394">
        <ele>438.98</ele>
        <time>2018-09-08T10:48:13Z</time>
      </trkpt>
      <trkpt lat="44.09572" lon="1.8398">
        <ele>441.38</ele>
        <time>2018-09-08T10:48:25Z</time>
      </trkpt>
      <trkpt lat="44.09554" lon="1.84031">
        <ele>443.79</ele>
        <time>2018-09-08T10:48:39Z</time>
      </trkpt>
      <trkpt lat="44.09536" lon="1.8409">
        <ele>446.19</ele>
        <time>2018-09-08T10:48:54Z</time>
      </trkpt>
      <trkpt lat="44.09517" lon="1.84157">
        <ele>447.15</ele>
        <time>2018-09-08T10:49:09Z</time>
      </trkpt>
      <trkpt lat="44.09526" lon="1.84217">
        <ele>449.07</ele>
        <time>2018-09-08T10:49:22Z</time>
      </trkpt>
      <trkpt lat="44.09564" lon="1.84246">
        <ele>450.52</ele>
        <time>2018-09-08T10:49:34Z</time>
      </trkpt>
      <trkpt lat="44.09596" lon="1.84269">
        <ele>452.44</ele>
        <time>2018-09-08T10:49:46Z</time>
      </trkpt>
      <trkpt lat="44.09609" lon="1.84302">
        <ele>453.88</ele>
        <time>2018-09-08T10:49:56Z</time>
      </trkpt>
      <trkpt lat="44.09606" lon="1.84322">
        <ele>455.8</ele>
        <time>2018-09-08T10:50:01Z</time>
      </trkpt>
      <trkpt lat="44.09603" lon="1.84333">
        <ele>456.76</ele>
        <time>2018-09-08T10:50:04Z</time>
      </trkpt>
      <trkpt lat="44.09588" lon="1.84376">
        <ele>460.13</ele>
        <time>2018-09-08T10:50:16Z</time>
      </trkpt>
      <trkpt lat="44.09574" lon="1.84421">
        <ele>463.01</ele>
        <time>2018-09-08T10:50:28Z</time>
      </trkpt>
      <trkpt lat="44.09566" lon="1.84467">
        <ele>464.93</ele>
        <time>2018-09-08T10:50:42Z</time>
      </trkpt>
      <trkpt lat="44.09558" lon="1.84507">
        <ele>467.82</ele>
        <time>2018-09-08T10:50:54Z</time>
      </trkpt>
      <trkpt lat="44.09548" lon="1.84569">
        <ele>469.74</ele>
        <time>2018-09-08T10:51:10Z</time>
      </trkpt>
      <trkpt lat="44.0954" lon="1.84625">
        <ele>470.7</ele>
        <time>2018-09-08T10:51:23Z</time>
      </trkpt>
      <trkpt lat="44.09529" lon="1.84683">
        <ele>469.26</ele>
        <time>2018-09-08T10:51:36Z</time>
      </trkpt>
      <trkpt lat="44.09529" lon="1.84689">
        <ele>469.74</ele>
        <time>2018-09-08T10:51:46Z</time>
      </trkpt>
      <trkpt lat="44.0953" lon="1.84692">
        <ele>469.74</ele>
        <time>2018-09-08T10:51:47Z</time>
      </trkpt>
      <trkpt lat="44.09531" lon="1.84695">
        <ele>469.74</ele>
        <time>2018-09-08T10:51:48Z</time>
      </trkpt>
      <trkpt lat="44.09533" lon="1.84697">
        <ele>469.74</ele>
        <time>2018-09-08T10:51:49Z</time>
      </trkpt>
      <trkpt lat="44.09536" lon="1.84698">
        <ele>468.78</ele>
        <time>2018-09-08T10:51:50Z</time>
      </trkpt>
      <trkpt lat="44.09539" lon="1.84699">
        <ele>469.74</ele>
        <time>2018-09-08T10:51:51Z</time>
      </trkpt>
      <trkpt lat="44.09577" lon="1.84716">
        <ele>468.78</ele>
        <time>2018-09-08T10:52:00Z</time>
      </trkpt>
      <trkpt lat="44.09581" lon="1.84721">
        <ele>467.82</ele>
        <time>2018-09-08T10:52:01Z</time>
      </trkpt>
      <trkpt lat="44.09585" lon="1.84727">
        <ele>468.3</ele>
        <time>2018-09-08T10:52:02Z</time>
      </trkpt>
      <trkpt lat="44.09587" lon="1.84735">
        <ele>466.86</ele>
        <time>2018-09-08T10:52:03Z</time>
      </trkpt>
      <trkpt lat="44.09588" lon="1.84744">
        <ele>466.86</ele>
        <time>2018-09-08T10:52:04Z</time>
      </trkpt>
      <trkpt lat="44.09587" lon="1.84754">
        <ele>466.86</ele>
        <time>2018-09-08T10:52:05Z</time>
      </trkpt>
      <trkpt lat="44.09585" lon="1.84763">
        <ele>465.9</ele>
        <time>2018-09-08T10:52:06Z</time>
      </trkpt>
      <trkpt lat="44.09581" lon="1.84772">
        <ele>465.42</ele>
        <time>2018-09-08T10:52:07Z</time>
      </trkpt>
      <trkpt lat="44.09576" lon="1.84782">
        <ele>465.42</ele>
        <time>2018-09-08T10:52:08Z</time>
      </trkpt>
      <trkpt lat="44.09554" lon="1.84828">
        <ele>463.01</ele>
        <time>2018-09-08T10:52:12Z</time>
      </trkpt>
      <trkpt lat="44.09551" lon="1.84841">
        <ele>462.05</ele>
        <time>2018-09-08T10:52:13Z</time>
      </trkpt>
      <trkpt lat="44.09549" lon="1.84853">
        <ele>460.13</ele>
        <time>2018-09-08T10:52:14Z</time>
      </trkpt>
      <trkpt lat="44.09548" lon="1.84865">
        <ele>459.65</ele>
        <time>2018-09-08T10:52:15Z</time>
      </trkpt>
      <trkpt lat="44.0955" lon="1.84878">
        <ele>458.69</ele>
        <time>2018-09-08T10:52:16Z</time>
      </trkpt>
      <trkpt lat="44.09556" lon="1.84891">
        <ele>457.24</ele>
        <time>2018-09-08T10:52:17Z</time>
      </trkpt>
      <trkpt lat="44.09562" lon="1.84904">
        <ele>456.28</ele>
        <time>2018-09-08T10:52:18Z</time>
      </trkpt>
      <trkpt lat="44.09569" lon="1.84916">
        <ele>455.8</ele>
        <time>2018-09-08T10:52:19Z</time>
      </trkpt>
      <trkpt lat="44.09575" lon="1.84928">
        <ele>455.32</ele>
        <time>2018-09-08T10:52:20Z</time>
      </trkpt>
      <trkpt lat="44.09629" lon="1.85031">
        <ele>454.36</ele>
        <time>2018-09-08T10:52:31Z</time>
      </trkpt>
      <trkpt lat="44.09582" lon="1.85008">
        <ele>450.52</ele>
        <time>2018-09-08T10:54:03Z</time>
      </trkpt>
      <trkpt lat="44.09527" lon="1.84957">
        <ele>446.67</ele>
        <time>2018-09-08T10:54:10Z</time>
      </trkpt>
      <trkpt lat="44.09519" lon="1.8495">
        <ele>446.67</ele>
        <time>2018-09-08T10:54:11Z</time>
      </trkpt>
      <trkpt lat="44.0951" lon="1.84943">
        <ele>445.23</ele>
        <time>2018-09-08T10:54:12Z</time>
      </trkpt>
      <trkpt lat="44.09452" lon="1.84912">
        <ele>441.86</ele>
        <time>2018-09-08T10:54:18Z</time>
      </trkpt>
      <trkpt lat="44.09443" lon="1.84909">
        <ele>441.86</ele>
        <time>2018-09-08T10:54:19Z</time>
      </trkpt>
      <trkpt lat="44.09434" lon="1.84909">
        <ele>440.9</ele>
        <time>2018-09-08T10:54:20Z</time>
      </trkpt>
      <trkpt lat="44.09426" lon="1.8491">
        <ele>440.42</ele>
        <time>2018-09-08T10:54:21Z</time>
      </trkpt>
      <trkpt lat="44.09418" lon="1.84914">
        <ele>440.42</ele>
        <time>2018-09-08T10:54:22Z</time>
      </trkpt>
      <trkpt lat="44.09412" lon="1.8492">
        <ele>439.46</ele>
        <time>2018-09-08T10:54:23Z</time>
      </trkpt>
      <trkpt lat="44.09406" lon="1.84928">
        <ele>438.98</ele>
        <time>2018-09-08T10:54:24Z</time>
      </trkpt>
      <trkpt lat="44.09402" lon="1.84938">
        <ele>438.98</ele>
        <time>2018-09-08T10:54:25Z</time>
      </trkpt>
      <trkpt lat="44.09398" lon="1.84949">
        <ele>438.98</ele>
        <time>2018-09-08T10:54:26Z</time>
      </trkpt>
      <trkpt lat="44.09396" lon="1.8496">
        <ele>438.98</ele>
        <time>2018-09-08T10:54:27Z</time>
      </trkpt>
      <trkpt lat="44.09394" lon="1.84971">
        <ele>438.02</ele>
        <time>2018-09-08T10:54:28Z</time>
      </trkpt>
      <trkpt lat="44.09392" lon="1.84982">
        <ele>438.02</ele>
        <time>2018-09-08T10:54:29Z</time>
      </trkpt>
      <trkpt lat="44.09367" lon="1.85082">
        <ele>435.13</ele>
        <time>2018-09-08T10:54:38Z</time>
      </trkpt>
      <trkpt lat="44.09357" lon="1.85115">
        <ele>433.21</ele>
        <time>2018-09-08T10:54:41Z</time>
      </trkpt>
      <trkpt lat="44.09354" lon="1.85125">
        <ele>433.21</ele>
        <time>2018-09-08T10:54:42Z</time>
      </trkpt>
      <trkpt lat="44.09349" lon="1.85135">
        <ele>433.21</ele>
        <time>2018-09-08T10:54:43Z</time>
      </trkpt>
      <trkpt lat="44.09299" lon="1.85214">
        <ele>429.85</ele>
        <time>2018-09-08T10:54:52Z</time>
      </trkpt>
      <trkpt lat="44.09279" lon="1.85248">
        <ele>429.37</ele>
        <time>2018-09-08T10:54:57Z</time>
      </trkpt>
      <trkpt lat="44.09267" lon="1.85261">
        <ele>428.4</ele>
        <time>2018-09-08T10:55:00Z</time>
      </trkpt>
      <trkpt lat="44.09263" lon="1.85266">
        <ele>428.89</ele>
        <time>2018-09-08T10:55:01Z</time>
      </trkpt>
      <trkpt lat="44.0926" lon="1.85272">
        <ele>428.89</ele>
        <time>2018-09-08T10:55:02Z</time>
      </trkpt>
      <trkpt lat="44.09258" lon="1.85279">
        <ele>428.4</ele>
        <time>2018-09-08T10:55:03Z</time>
      </trkpt>
      <trkpt lat="44.09257" lon="1.85286">
        <ele>428.89</ele>
        <time>2018-09-08T10:55:04Z</time>
      </trkpt>
      <trkpt lat="44.09257" lon="1.85293">
        <ele>428.89</ele>
        <time>2018-09-08T10:55:05Z</time>
      </trkpt>
      <trkpt lat="44.09256" lon="1.85306">
        <ele>428.89</ele>
        <time>2018-09-08T10:55:07Z</time>
      </trkpt>
      <trkpt lat="44.09253" lon="1.85312">
        <ele>429.85</ele>
        <time>2018-09-08T10:55:08Z</time>
      </trkpt>
      <trkpt lat="44.09241" lon="1.85334">
        <ele>430.81</ele>
        <time>2018-09-08T10:55:13Z</time>
      </trkpt>
      <trkpt lat="44.0924" lon="1.85345">
        <ele>431.77</ele>
        <time>2018-09-08T10:55:16Z</time>
      </trkpt>
      <trkpt lat="44.09244" lon="1.85382">
        <ele>435.13</ele>
        <time>2018-09-08T10:55:27Z</time>
      </trkpt>
      <trkpt lat="44.09246" lon="1.85411">
        <ele>437.06</ele>
        <time>2018-09-08T10:55:36Z</time>
      </trkpt>
      <trkpt lat="44.0924" lon="1.85449">
        <ele>439.46</ele>
        <time>2018-09-08T10:55:48Z</time>
      </trkpt>
      <trkpt lat="44.09192" lon="1.85503">
        <ele>439.94</ele>
        <time>2018-09-08T10:56:07Z</time>
      </trkpt>
      <trkpt lat="44.0916" lon="1.85541">
        <ele>443.31</ele>
        <time>2018-09-08T10:56:22Z</time>
      </trkpt>
      <trkpt lat="44.09145" lon="1.85591">
        <ele>444.27</ele>
        <time>2018-09-08T10:56:37Z</time>
      </trkpt>
      <trkpt lat="44.09139" lon="1.85632">
        <ele>444.27</ele>
        <time>2018-09-08T10:56:47Z</time>
      </trkpt>
      <trkpt lat="44.09137" lon="1.85637">
        <ele>443.79</ele>
        <time>2018-09-08T10:56:48Z</time>
      </trkpt>
      <trkpt lat="44.09107" lon="1.85678">
        <ele>442.82</ele>
        <time>2018-09-08T10:56:58Z</time>
      </trkpt>
      <trkpt lat="44.09104" lon="1.85682">
        <ele>443.31</ele>
        <time>2018-09-08T10:56:59Z</time>
      </trkpt>
      <trkpt lat="44.09101" lon="1.85686">
        <ele>443.31</ele>
        <time>2018-09-08T10:57:00Z</time>
      </trkpt>
      <trkpt lat="44.09085" lon="1.85711">
        <ele>443.79</ele>
        <time>2018-09-08T10:57:06Z</time>
      </trkpt>
      <trkpt lat="44.09055" lon="1.85743">
        <ele>441.86</ele>
        <time>2018-09-08T10:57:14Z</time>
      </trkpt>
      <trkpt lat="44.09051" lon="1.85748">
        <ele>441.86</ele>
        <time>2018-09-08T10:57:15Z</time>
      </trkpt>
      <trkpt lat="44.09034" lon="1.85777">
        <ele>439.94</ele>
        <time>2018-09-08T10:57:19Z</time>
      </trkpt>
      <trkpt lat="44.09025" lon="1.85794">
        <ele>438.98</ele>
        <time>2018-09-08T10:57:21Z</time>
      </trkpt>
      <trkpt lat="44.09021" lon="1.85802">
        <ele>438.5</ele>
        <time>2018-09-08T10:57:22Z</time>
      </trkpt>
      <trkpt lat="44.09012" lon="1.8582">
        <ele>437.54</ele>
        <time>2018-09-08T10:57:24Z</time>
      </trkpt>
      <trkpt lat="44.08984" lon="1.8588">
        <ele>434.65</ele>
        <time>2018-09-08T10:57:30Z</time>
      </trkpt>
      <trkpt lat="44.0897" lon="1.85912">
        <ele>432.73</ele>
        <time>2018-09-08T10:57:33Z</time>
      </trkpt>
      <trkpt lat="44.08929" lon="1.85987">
        <ele>429.37</ele>
        <time>2018-09-08T10:57:41Z</time>
      </trkpt>
      <trkpt lat="44.08895" lon="1.86057">
        <ele>426.96</ele>
        <time>2018-09-08T10:57:49Z</time>
      </trkpt>
      <trkpt lat="44.0889" lon="1.86064">
        <ele>426.96</ele>
        <time>2018-09-08T10:57:50Z</time>
      </trkpt>
      <trkpt lat="44.0886" lon="1.86115">
        <ele>426.48</ele>
        <time>2018-09-08T10:57:59Z</time>
      </trkpt>
      <trkpt lat="44.08846" lon="1.8614">
        <ele>425.52</ele>
        <time>2018-09-08T10:58:04Z</time>
      </trkpt>
      <trkpt lat="44.08842" lon="1.86153">
        <ele>425.04</ele>
        <time>2018-09-08T10:58:06Z</time>
      </trkpt>
      <trkpt lat="44.08841" lon="1.86161">
        <ele>424.56</ele>
        <time>2018-09-08T10:58:07Z</time>
      </trkpt>
      <trkpt lat="44.08841" lon="1.86182">
        <ele>424.56</ele>
        <time>2018-09-08T10:58:10Z</time>
      </trkpt>
      <trkpt lat="44.08843" lon="1.86196">
        <ele>425.52</ele>
        <time>2018-09-08T10:58:12Z</time>
      </trkpt>
      <trkpt lat="44.08843" lon="1.86203">
        <ele>425.52</ele>
        <time>2018-09-08T10:58:13Z</time>
      </trkpt>
      <trkpt lat="44.08842" lon="1.86232">
        <ele>425.04</ele>
        <time>2018-09-08T10:58:17Z</time>
      </trkpt>
      <trkpt lat="44.08844" lon="1.86317">
        <ele>423.12</ele>
        <time>2018-09-08T10:58:28Z</time>
      </trkpt>
      <trkpt lat="44.08842" lon="1.86349">
        <ele>422.16</ele>
        <time>2018-09-08T10:58:32Z</time>
      </trkpt>
      <trkpt lat="44.08841" lon="1.86357">
        <ele>422.16</ele>
        <time>2018-09-08T10:58:33Z</time>
      </trkpt>
      <trkpt lat="44.08838" lon="1.86381">
        <ele>420.71</ele>
        <time>2018-09-08T10:58:36Z</time>
      </trkpt>
      <trkpt lat="44.08838" lon="1.8639">
        <ele>418.79</ele>
        <time>2018-09-08T10:58:37Z</time>
      </trkpt>
      <trkpt lat="44.08836" lon="1.86398">
        <ele>417.83</ele>
        <time>2018-09-08T10:58:38Z</time>
      </trkpt>
      <trkpt lat="44.08833" lon="1.86405">
        <ele>417.35</ele>
        <time>2018-09-08T10:58:39Z</time>
      </trkpt>
      <trkpt lat="44.08829" lon="1.86412">
        <ele>415.43</ele>
        <time>2018-09-08T10:58:40Z</time>
      </trkpt>
      <trkpt lat="44.08812" lon="1.86451">
        <ele>411.58</ele>
        <time>2018-09-08T10:58:44Z</time>
      </trkpt>
      <trkpt lat="44.08806" lon="1.86467">
        <ele>409.66</ele>
        <time>2018-09-08T10:58:46Z</time>
      </trkpt>
      <trkpt lat="44.08802" lon="1.86481">
        <ele>408.7</ele>
        <time>2018-09-08T10:58:48Z</time>
      </trkpt>
      <trkpt lat="44.08789" lon="1.86521">
        <ele>405.33</ele>
        <time>2018-09-08T10:58:53Z</time>
      </trkpt>
      <trkpt lat="44.0878" lon="1.86547">
        <ele>402.93</ele>
        <time>2018-09-08T10:58:56Z</time>
      </trkpt>
      <trkpt lat="44.08779" lon="1.86556">
        <ele>401.49</ele>
        <time>2018-09-08T10:58:57Z</time>
      </trkpt>
      <trkpt lat="44.08776" lon="1.8657">
        <ele>399.08</ele>
        <time>2018-09-08T10:58:59Z</time>
      </trkpt>
      <trkpt lat="44.08775" lon="1.86576">
        <ele>398.12</ele>
        <time>2018-09-08T10:59:00Z</time>
      </trkpt>
      <trkpt lat="44.08772" lon="1.8658">
        <ele>397.16</ele>
        <time>2018-09-08T10:59:01Z</time>
      </trkpt>
      <trkpt lat="44.08769" lon="1.86584">
        <ele>397.16</ele>
        <time>2018-09-08T10:59:02Z</time>
      </trkpt>
      <trkpt lat="44.08765" lon="1.86587">
        <ele>396.68</ele>
        <time>2018-09-08T10:59:03Z</time>
      </trkpt>
      <trkpt lat="44.08745" lon="1.86599">
        <ele>394.76</ele>
        <time>2018-09-08T10:59:08Z</time>
      </trkpt>
      <trkpt lat="44.08734" lon="1.86626">
        <ele>392.36</ele>
        <time>2018-09-08T10:59:12Z</time>
      </trkpt>
      <trkpt lat="44.08726" lon="1.86654">
        <ele>390.43</ele>
        <time>2018-09-08T10:59:16Z</time>
      </trkpt>
      <trkpt lat="44.08712" lon="1.86668">
        <ele>388.99</ele>
        <time>2018-09-08T10:59:26Z</time>
      </trkpt>
      <trkpt lat="44.087" lon="1.86687">
        <ele>387.07</ele>
        <time>2018-09-08T10:59:38Z</time>
      </trkpt>
      <trkpt lat="44.08685" lon="1.86712">
        <ele>385.15</ele>
        <time>2018-09-08T10:59:44Z</time>
      </trkpt>
      <trkpt lat="44.08676" lon="1.86749">
        <ele>383.7</ele>
        <time>2018-09-08T10:59:52Z</time>
      </trkpt>
      <trkpt lat="44.08661" lon="1.86764">
        <ele>382.26</ele>
        <time>2018-09-08T10:59:56Z</time>
      </trkpt>
      <trkpt lat="44.08654" lon="1.86775">
        <ele>380.82</ele>
        <time>2018-09-08T10:59:58Z</time>
      </trkpt>
      <trkpt lat="44.08641" lon="1.86799">
        <ele>376.97</ele>
        <time>2018-09-08T11:00:02Z</time>
      </trkpt>
      <trkpt lat="44.08636" lon="1.8681">
        <ele>375.53</ele>
        <time>2018-09-08T11:00:04Z</time>
      </trkpt>
      <trkpt lat="44.08613" lon="1.86815">
        <ele>371.21</ele>
        <time>2018-09-08T11:00:10Z</time>
      </trkpt>
      <trkpt lat="44.0861" lon="1.86812">
        <ele>371.21</ele>
        <time>2018-09-08T11:00:11Z</time>
      </trkpt>
      <trkpt lat="44.08606" lon="1.86805">
        <ele>370.24</ele>
        <time>2018-09-08T11:00:13Z</time>
      </trkpt>
      <trkpt lat="44.08591" lon="1.86772">
        <ele>365.92</ele>
        <time>2018-09-08T11:00:19Z</time>
      </trkpt>
      <trkpt lat="44.08584" lon="1.86755">
        <ele>364.48</ele>
        <time>2018-09-08T11:00:22Z</time>
      </trkpt>
      <trkpt lat="44.08582" lon="1.8675">
        <ele>364.48</ele>
        <time>2018-09-08T11:00:23Z</time>
      </trkpt>
      <trkpt lat="44.08578" lon="1.86738">
        <ele>362.55</ele>
        <time>2018-09-08T11:00:26Z</time>
      </trkpt>
      <trkpt lat="44.08578" lon="1.8673">
        <ele>361.11</ele>
        <time>2018-09-08T11:00:28Z</time>
      </trkpt>
      <trkpt lat="44.08571" lon="1.86713">
        <ele>359.19</ele>
        <time>2018-09-08T11:00:32Z</time>
      </trkpt>
      <trkpt lat="44.08553" lon="1.86687">
        <ele>356.79</ele>
        <time>2018-09-08T11:00:38Z</time>
      </trkpt>
      <trkpt lat="44.08552" lon="1.86676">
        <ele>356.31</ele>
        <time>2018-09-08T11:00:40Z</time>
      </trkpt>
      <trkpt lat="44.08552" lon="1.8667">
        <ele>355.34</ele>
        <time>2018-09-08T11:00:41Z</time>
      </trkpt>
      <trkpt lat="44.08551" lon="1.86658">
        <ele>355.83</ele>
        <time>2018-09-08T11:00:43Z</time>
      </trkpt>
      <trkpt lat="44.0855" lon="1.86651">
        <ele>355.83</ele>
        <time>2018-09-08T11:00:44Z</time>
      </trkpt>
      <trkpt lat="44.08548" lon="1.86643">
        <ele>354.38</ele>
        <time>2018-09-08T11:00:45Z</time>
      </trkpt>
      <trkpt lat="44.08547" lon="1.86634">
        <ele>353.9</ele>
        <time>2018-09-08T11:00:46Z</time>
      </trkpt>
      <trkpt lat="44.08546" lon="1.86626">
        <ele>353.9</ele>
        <time>2018-09-08T11:00:47Z</time>
      </trkpt>
      <trkpt lat="44.08547" lon="1.86618">
        <ele>353.42</ele>
        <time>2018-09-08T11:00:48Z</time>
      </trkpt>
      <trkpt lat="44.08548" lon="1.8661">
        <ele>353.9</ele>
        <time>2018-09-08T11:00:49Z</time>
      </trkpt>
      <trkpt lat="44.08549" lon="1.86601">
        <ele>353.9</ele>
        <time>2018-09-08T11:00:50Z</time>
      </trkpt>
      <trkpt lat="44.08549" lon="1.86594">
        <ele>353.9</ele>
        <time>2018-09-08T11:00:51Z</time>
      </trkpt>
      <trkpt lat="44.08548" lon="1.86586">
        <ele>353.42</ele>
        <time>2018-09-08T11:00:52Z</time>
      </trkpt>
      <trkpt lat="44.08547" lon="1.8658">
        <ele>352.94</ele>
        <time>2018-09-08T11:00:53Z</time>
      </trkpt>
      <trkpt lat="44.08542" lon="1.86567">
        <ele>352.46</ele>
        <time>2018-09-08T11:00:55Z</time>
      </trkpt>
      <trkpt lat="44.08539" lon="1.86558">
        <ele>351.98</ele>
        <time>2018-09-08T11:00:56Z</time>
      </trkpt>
      <trkpt lat="44.08538" lon="1.86549">
        <ele>351.5</ele>
        <time>2018-09-08T11:00:57Z</time>
      </trkpt>
      <trkpt lat="44.08537" lon="1.86539">
        <ele>351.5</ele>
        <time>2018-09-08T11:00:58Z</time>
      </trkpt>
      <trkpt lat="44.08537" lon="1.86529">
        <ele>351.02</ele>
        <time>2018-09-08T11:00:59Z</time>
      </trkpt>
      <trkpt lat="44.08537" lon="1.8652">
        <ele>350.54</ele>
        <time>2018-09-08T11:01:00Z</time>
      </trkpt>
      <trkpt lat="44.08537" lon="1.86502">
        <ele>351.02</ele>
        <time>2018-09-08T11:01:02Z</time>
      </trkpt>
      <trkpt lat="44.08534" lon="1.86478">
        <ele>350.06</ele>
        <time>2018-09-08T11:01:05Z</time>
      </trkpt>
      <trkpt lat="44.08531" lon="1.86463">
        <ele>349.58</ele>
        <time>2018-09-08T11:01:07Z</time>
      </trkpt>
      <trkpt lat="44.0853" lon="1.86456">
        <ele>349.58</ele>
        <time>2018-09-08T11:01:08Z</time>
      </trkpt>
      <trkpt lat="44.08529" lon="1.86448">
        <ele>349.1</ele>
        <time>2018-09-08T11:01:09Z</time>
      </trkpt>
      <trkpt lat="44.0853" lon="1.86441">
        <ele>349.58</ele>
        <time>2018-09-08T11:01:10Z</time>
      </trkpt>
      <trkpt lat="44.0853" lon="1.86433">
        <ele>349.58</ele>
        <time>2018-09-08T11:01:11Z</time>
      </trkpt>
      <trkpt lat="44.08529" lon="1.86426">
        <ele>349.58</ele>
        <time>2018-09-08T11:01:12Z</time>
      </trkpt>
      <trkpt lat="44.08528" lon="1.86414">
        <ele>349.58</ele>
        <time>2018-09-08T11:01:14Z</time>
      </trkpt>
      <trkpt lat="44.08526" lon="1.86408">
        <ele>349.58</ele>
        <time>2018-09-08T11:01:15Z</time>
      </trkpt>
      <trkpt lat="44.08525" lon="1.86402">
        <ele>349.1</ele>
        <time>2018-09-08T11:01:16Z</time>
      </trkpt>
      <trkpt lat="44.08523" lon="1.86396">
        <ele>349.1</ele>
        <time>2018-09-08T11:01:17Z</time>
      </trkpt>
      <trkpt lat="44.08522" lon="1.8639">
        <ele>349.58</ele>
        <time>2018-09-08T11:01:18Z</time>
      </trkpt>
      <trkpt lat="44.0852" lon="1.86378">
        <ele>349.1</ele>
        <time>2018-09-08T11:01:20Z</time>
      </trkpt>
      <trkpt lat="44.08517" lon="1.86373">
        <ele>349.58</ele>
        <time>2018-09-08T11:01:21Z</time>
      </trkpt>
      <trkpt lat="44.08514" lon="1.86368">
        <ele>349.1</ele>
        <time>2018-09-08T11:01:22Z</time>
      </trkpt>
      <trkpt lat="44.08502" lon="1.8635">
        <ele>347.65</ele>
        <time>2018-09-08T11:01:25Z</time>
      </trkpt>
      <trkpt lat="44.08494" lon="1.86336">
        <ele>346.21</ele>
        <time>2018-09-08T11:01:27Z</time>
      </trkpt>
      <trkpt lat="44.08485" lon="1.86311">
        <ele>343.81</ele>
        <time>2018-09-08T11:01:30Z</time>
      </trkpt>
      <trkpt lat="44.0847" lon="1.86279">
        <ele>340.92</ele>
        <time>2018-09-08T11:01:34Z</time>
      </trkpt>
      <trkpt lat="44.08466" lon="1.86264">
        <ele>339.48</ele>
        <time>2018-09-08T11:01:36Z</time>
      </trkpt>
      <trkpt lat="44.08455" lon="1.86238">
        <ele>336.6</ele>
        <time>2018-09-08T11:01:40Z</time>
      </trkpt>
      <trkpt lat="44.08435" lon="1.86204">
        <ele>334.68</ele>
        <time>2018-09-08T11:01:45Z</time>
      </trkpt>
      <trkpt lat="44.08427" lon="1.86194">
        <ele>332.27</ele>
        <time>2018-09-08T11:01:48Z</time>
      </trkpt>
      <trkpt lat="44.08425" lon="1.86194">
        <ele>333.23</ele>
        <time>2018-09-08T11:02:06Z</time>
      </trkpt>
      <trkpt lat="44.08407" lon="1.86184">
        <ele>334.68</ele>
        <time>2018-09-08T11:02:17Z</time>
      </trkpt>
      <trkpt lat="44.08365" lon="1.86179">
        <ele>335.16</ele>
        <time>2018-09-08T11:02:28Z</time>
      </trkpt>
      <trkpt lat="44.08347" lon="1.86177">
        <ele>338.52</ele>
        <time>2018-09-08T11:02:37Z</time>
      </trkpt>
      <trkpt lat="44.08327" lon="1.86176">
        <ele>341.41</ele>
        <time>2018-09-08T11:02:47Z</time>
      </trkpt>
      <trkpt lat="44.08312" lon="1.86169">
        <ele>342.85</ele>
        <time>2018-09-08T11:02:55Z</time>
      </trkpt>
      <trkpt lat="44.0831" lon="1.86165">
        <ele>342.85</ele>
        <time>2018-09-08T11:02:57Z</time>
      </trkpt>
      <trkpt lat="44.0831" lon="1.86123">
        <ele>345.25</ele>
        <time>2018-09-08T11:03:13Z</time>
      </trkpt>
      <trkpt lat="44.08311" lon="1.86085">
        <ele>346.21</ele>
        <time>2018-09-08T11:03:27Z</time>
      </trkpt>
      <trkpt lat="44.08313" lon="1.86038">
        <ele>349.1</ele>
        <time>2018-09-08T11:03:41Z</time>
      </trkpt>
      <trkpt lat="44.08311" lon="1.85974">
        <ele>351.02</ele>
        <time>2018-09-08T11:03:58Z</time>
      </trkpt>
      <trkpt lat="44.08312" lon="1.85913">
        <ele>351.98</ele>
        <time>2018-09-08T11:04:12Z</time>
      </trkpt>
      <trkpt lat="44.08309" lon="1.85907">
        <ele>351.98</ele>
        <time>2018-09-08T11:04:15Z</time>
      </trkpt>
      <trkpt lat="44.08307" lon="1.85907">
        <ele>351.5</ele>
        <time>2018-09-08T11:04:16Z</time>
      </trkpt>
      <trkpt lat="44.08305" lon="1.85908">
        <ele>351.98</ele>
        <time>2018-09-08T11:04:17Z</time>
      </trkpt>
      <trkpt lat="44.08302" lon="1.85911">
        <ele>351.98</ele>
        <time>2018-09-08T11:04:18Z</time>
      </trkpt>
      <trkpt lat="44.083" lon="1.85914">
        <ele>351.98</ele>
        <time>2018-09-08T11:04:19Z</time>
      </trkpt>
      <trkpt lat="44.08256" lon="1.85967">
        <ele>348.13</ele>
        <time>2018-09-08T11:04:29Z</time>
      </trkpt>
      <trkpt lat="44.08221" lon="1.86013">
        <ele>345.25</ele>
        <time>2018-09-08T11:04:35Z</time>
      </trkpt>
      <trkpt lat="44.08185" lon="1.86072">
        <ele>342.37</ele>
        <time>2018-09-08T11:04:41Z</time>
      </trkpt>
      <trkpt lat="44.08135" lon="1.86075">
        <ele>339</ele>
        <time>2018-09-08T11:07:54Z</time>
      </trkpt>
      <trkpt lat="44.08075" lon="1.86071">
        <ele>339.96</ele>
        <time>2018-09-08T11:08:12Z</time>
      </trkpt>
      <trkpt lat="44.08028" lon="1.86059">
        <ele>343.81</ele>
        <time>2018-09-08T11:08:28Z</time>
      </trkpt>
      <trkpt lat="44.07989" lon="1.8604">
        <ele>347.17</ele>
        <time>2018-09-08T11:08:43Z</time>
      </trkpt>
      <trkpt lat="44.07954" lon="1.8602">
        <ele>349.1</ele>
        <time>2018-09-08T11:08:58Z</time>
      </trkpt>
      <trkpt lat="44.07928" lon="1.86007">
        <ele>351.98</ele>
        <time>2018-09-08T11:09:10Z</time>
      </trkpt>
      <trkpt lat="44.07886" lon="1.85984">
        <ele>354.86</ele>
        <time>2018-09-08T11:09:29Z</time>
      </trkpt>
      <trkpt lat="44.07837" lon="1.8597">
        <ele>357.27</ele>
        <time>2018-09-08T11:09:45Z</time>
      </trkpt>
      <trkpt lat="44.07777" lon="1.85993">
        <ele>359.19</ele>
        <time>2018-09-08T11:10:01Z</time>
      </trkpt>
      <trkpt lat="44.07731" lon="1.86042">
        <ele>359.19</ele>
        <time>2018-09-08T11:10:16Z</time>
      </trkpt>
      <trkpt lat="44.07709" lon="1.86078">
        <ele>357.27</ele>
        <time>2018-09-08T11:10:22Z</time>
      </trkpt>
      <trkpt lat="44.07687" lon="1.86114">
        <ele>357.75</ele>
        <time>2018-09-08T11:10:27Z</time>
      </trkpt>
      <trkpt lat="44.07681" lon="1.8612">
        <ele>356.31</ele>
        <time>2018-09-08T11:10:28Z</time>
      </trkpt>
      <trkpt lat="44.07674" lon="1.86124">
        <ele>356.31</ele>
        <time>2018-09-08T11:10:29Z</time>
      </trkpt>
      <trkpt lat="44.07669" lon="1.86127">
        <ele>355.34</ele>
        <time>2018-09-08T11:10:30Z</time>
      </trkpt>
      <trkpt lat="44.07663" lon="1.86128">
        <ele>353.9</ele>
        <time>2018-09-08T11:10:31Z</time>
      </trkpt>
      <trkpt lat="44.07658" lon="1.86127">
        <ele>354.38</ele>
        <time>2018-09-08T11:10:32Z</time>
      </trkpt>
      <trkpt lat="44.07653" lon="1.86125">
        <ele>353.42</ele>
        <time>2018-09-08T11:10:33Z</time>
      </trkpt>
      <trkpt lat="44.07648" lon="1.86121">
        <ele>353.42</ele>
        <time>2018-09-08T11:10:34Z</time>
      </trkpt>
      <trkpt lat="44.07643" lon="1.86117">
        <ele>354.38</ele>
        <time>2018-09-08T11:10:35Z</time>
      </trkpt>
      <trkpt lat="44.07639" lon="1.86111">
        <ele>353.9</ele>
        <time>2018-09-08T11:10:36Z</time>
      </trkpt>
      <trkpt lat="44.07635" lon="1.86105">
        <ele>354.38</ele>
        <time>2018-09-08T11:10:37Z</time>
      </trkpt>
      <trkpt lat="44.07631" lon="1.86099">
        <ele>354.38</ele>
        <time>2018-09-08T11:10:38Z</time>
      </trkpt>
      <trkpt lat="44.07581" lon="1.86046">
        <ele>354.38</ele>
        <time>2018-09-08T11:10:49Z</time>
      </trkpt>
      <trkpt lat="44.07575" lon="1.86044">
        <ele>353.9</ele>
        <time>2018-09-08T11:10:50Z</time>
      </trkpt>
      <trkpt lat="44.07564" lon="1.86041">
        <ele>352.94</ele>
        <time>2018-09-08T11:10:52Z</time>
      </trkpt>
      <trkpt lat="44.07548" lon="1.86042">
        <ele>354.38</ele>
        <time>2018-09-08T11:10:55Z</time>
      </trkpt>
      <trkpt lat="44.07532" lon="1.86048">
        <ele>352.94</ele>
        <time>2018-09-08T11:10:58Z</time>
      </trkpt>
      <trkpt lat="44.07514" lon="1.86061">
        <ele>353.9</ele>
        <time>2018-09-08T11:11:02Z</time>
      </trkpt>
      <trkpt lat="44.0751" lon="1.86065">
        <ele>353.9</ele>
        <time>2018-09-08T11:11:03Z</time>
      </trkpt>
      <trkpt lat="44.07506" lon="1.86069">
        <ele>354.38</ele>
        <time>2018-09-08T11:11:04Z</time>
      </trkpt>
      <trkpt lat="44.07442" lon="1.86123">
        <ele>356.79</ele>
        <time>2018-09-08T11:11:21Z</time>
      </trkpt>
      <trkpt lat="44.07406" lon="1.86169">
        <ele>360.15</ele>
        <time>2018-09-08T11:11:37Z</time>
      </trkpt>
      <trkpt lat="44.0737" lon="1.86212">
        <ele>362.55</ele>
        <time>2018-09-08T11:11:54Z</time>
      </trkpt>
      <trkpt lat="44.07337" lon="1.86256">
        <ele>364.96</ele>
        <time>2018-09-08T11:12:11Z</time>
      </trkpt>
      <trkpt lat="44.07298" lon="1.86301">
        <ele>367.36</ele>
        <time>2018-09-08T11:12:31Z</time>
      </trkpt>
      <trkpt lat="44.07275" lon="1.86325">
        <ele>370.73</ele>
        <time>2018-09-08T11:12:43Z</time>
      </trkpt>
      <trkpt lat="44.07247" lon="1.86351">
        <ele>373.61</ele>
        <time>2018-09-08T11:12:56Z</time>
      </trkpt>
      <trkpt lat="44.07214" lon="1.8639">
        <ele>376.01</ele>
        <time>2018-09-08T11:13:13Z</time>
      </trkpt>
      <trkpt lat="44.07196" lon="1.86458">
        <ele>377.45</ele>
        <time>2018-09-08T11:13:31Z</time>
      </trkpt>
      <trkpt lat="44.07196" lon="1.86505">
        <ele>378.42</ele>
        <time>2018-09-08T11:13:42Z</time>
      </trkpt>
      <trkpt lat="44.07187" lon="1.86566">
        <ele>380.34</ele>
        <time>2018-09-08T11:13:55Z</time>
      </trkpt>
      <trkpt lat="44.07178" lon="1.86636">
        <ele>380.82</ele>
        <time>2018-09-08T11:14:09Z</time>
      </trkpt>
      <trkpt lat="44.07176" lon="1.86641">
        <ele>380.82</ele>
        <time>2018-09-08T11:14:10Z</time>
      </trkpt>
      <trkpt lat="44.07173" lon="1.86646">
        <ele>381.3</ele>
        <time>2018-09-08T11:14:11Z</time>
      </trkpt>
      <trkpt lat="44.07144" lon="1.86705">
        <ele>378.9</ele>
        <time>2018-09-08T11:14:21Z</time>
      </trkpt>
      <trkpt lat="44.0711" lon="1.86755">
        <ele>377.45</ele>
        <time>2018-09-08T11:14:29Z</time>
      </trkpt>
      <trkpt lat="44.07084" lon="1.86785">
        <ele>378.9</ele>
        <time>2018-09-08T11:14:34Z</time>
      </trkpt>
      <trkpt lat="44.07068" lon="1.868">
        <ele>377.45</ele>
        <time>2018-09-08T11:14:37Z</time>
      </trkpt>
      <trkpt lat="44.07025" lon="1.8684">
        <ele>375.05</ele>
        <time>2018-09-08T11:14:45Z</time>
      </trkpt>
      <trkpt lat="44.0702" lon="1.86846">
        <ele>375.53</ele>
        <time>2018-09-08T11:14:46Z</time>
      </trkpt>
      <trkpt lat="44.07005" lon="1.86866">
        <ele>375.05</ele>
        <time>2018-09-08T11:14:49Z</time>
      </trkpt>
      <trkpt lat="44.06995" lon="1.86888">
        <ele>374.57</ele>
        <time>2018-09-08T11:14:52Z</time>
      </trkpt>
      <trkpt lat="44.06994" lon="1.86896">
        <ele>374.57</ele>
        <time>2018-09-08T11:14:53Z</time>
      </trkpt>
      <trkpt lat="44.06988" lon="1.86953">
        <ele>372.17</ele>
        <time>2018-09-08T11:15:00Z</time>
      </trkpt>
      <trkpt lat="44.06986" lon="1.86959">
        <ele>372.65</ele>
        <time>2018-09-08T11:15:01Z</time>
      </trkpt>
      <trkpt lat="44.06983" lon="1.86962">
        <ele>372.65</ele>
        <time>2018-09-08T11:15:02Z</time>
      </trkpt>
      <trkpt lat="44.06979" lon="1.86963">
        <ele>371.69</ele>
        <time>2018-09-08T11:15:03Z</time>
      </trkpt>
      <trkpt lat="44.06976" lon="1.86961">
        <ele>372.17</ele>
        <time>2018-09-08T11:15:04Z</time>
      </trkpt>
      <trkpt lat="44.06973" lon="1.8696">
        <ele>373.13</ele>
        <time>2018-09-08T11:15:05Z</time>
      </trkpt>
      <trkpt lat="44.0697" lon="1.86959">
        <ele>372.65</ele>
        <time>2018-09-08T11:15:06Z</time>
      </trkpt>
      <trkpt lat="44.06931" lon="1.86966">
        <ele>376.01</ele>
        <time>2018-09-08T11:15:20Z</time>
      </trkpt>
      <trkpt lat="44.06906" lon="1.86949">
        <ele>377.94</ele>
        <time>2018-09-08T11:15:31Z</time>
      </trkpt>
      <trkpt lat="44.06899" lon="1.86937">
        <ele>376.49</ele>
        <time>2018-09-08T11:15:34Z</time>
      </trkpt>
      <trkpt lat="44.06895" lon="1.86927">
        <ele>376.01</ele>
        <time>2018-09-08T11:15:36Z</time>
      </trkpt>
      <trkpt lat="44.06893" lon="1.86921">
        <ele>375.53</ele>
        <time>2018-09-08T11:15:37Z</time>
      </trkpt>
      <trkpt lat="44.06891" lon="1.86915">
        <ele>376.01</ele>
        <time>2018-09-08T11:15:38Z</time>
      </trkpt>
      <trkpt lat="44.06889" lon="1.86909">
        <ele>376.01</ele>
        <time>2018-09-08T11:15:39Z</time>
      </trkpt>
      <trkpt lat="44.06886" lon="1.86904">
        <ele>375.53</ele>
        <time>2018-09-08T11:15:40Z</time>
      </trkpt>
      <trkpt lat="44.06877" lon="1.86884">
        <ele>374.09</ele>
        <time>2018-09-08T11:15:43Z</time>
      </trkpt>
      <trkpt lat="44.06874" lon="1.86877">
        <ele>375.05</ele>
        <time>2018-09-08T11:15:44Z</time>
      </trkpt>
      <trkpt lat="44.0687" lon="1.8687">
        <ele>374.57</ele>
        <time>2018-09-08T11:15:45Z</time>
      </trkpt>
      <trkpt lat="44.06865" lon="1.86864">
        <ele>373.13</ele>
        <time>2018-09-08T11:15:46Z</time>
      </trkpt>
      <trkpt lat="44.06855" lon="1.86849">
        <ele>372.17</ele>
        <time>2018-09-08T11:15:48Z</time>
      </trkpt>
      <trkpt lat="44.06834" lon="1.86819">
        <ele>369.28</ele>
        <time>2018-09-08T11:15:52Z</time>
      </trkpt>
      <trkpt lat="44.06828" lon="1.86816">
        <ele>369.28</ele>
        <time>2018-09-08T11:15:53Z</time>
      </trkpt>
      <trkpt lat="44.06822" lon="1.86816">
        <ele>367.84</ele>
        <time>2018-09-08T11:15:54Z</time>
      </trkpt>
      <trkpt lat="44.06816" lon="1.86818">
        <ele>367.84</ele>
        <time>2018-09-08T11:15:55Z</time>
      </trkpt>
      <trkpt lat="44.0681" lon="1.86823">
        <ele>366.88</ele>
        <time>2018-09-08T11:15:56Z</time>
      </trkpt>
      <trkpt lat="44.06769" lon="1.86848">
        <ele>364</ele>
        <time>2018-09-08T11:16:04Z</time>
      </trkpt>
      <trkpt lat="44.06765" lon="1.86848">
        <ele>363.04</ele>
        <time>2018-09-08T11:16:05Z</time>
      </trkpt>
      <trkpt lat="44.06761" lon="1.86846">
        <ele>363.04</ele>
        <time>2018-09-08T11:16:06Z</time>
      </trkpt>
      <trkpt lat="44.06758" lon="1.86841">
        <ele>362.55</ele>
        <time>2018-09-08T11:16:07Z</time>
      </trkpt>
      <trkpt lat="44.06755" lon="1.86834">
        <ele>361.59</ele>
        <time>2018-09-08T11:16:08Z</time>
      </trkpt>
      <trkpt lat="44.06752" lon="1.86827">
        <ele>362.55</ele>
        <time>2018-09-08T11:16:09Z</time>
      </trkpt>
      <trkpt lat="44.06732" lon="1.86779">
        <ele>358.71</ele>
        <time>2018-09-08T11:16:14Z</time>
      </trkpt>
      <trkpt lat="44.06718" lon="1.86745">
        <ele>357.75</ele>
        <time>2018-09-08T11:16:17Z</time>
      </trkpt>
      <trkpt lat="44.06697" lon="1.86696">
        <ele>356.79</ele>
        <time>2018-09-08T11:16:22Z</time>
      </trkpt>
      <trkpt lat="44.06691" lon="1.86692">
        <ele>355.83</ele>
        <time>2018-09-08T11:16:23Z</time>
      </trkpt>
      <trkpt lat="44.06685" lon="1.86692">
        <ele>356.79</ele>
        <time>2018-09-08T11:16:24Z</time>
      </trkpt>
      <trkpt lat="44.06679" lon="1.86695">
        <ele>356.31</ele>
        <time>2018-09-08T11:16:25Z</time>
      </trkpt>
      <trkpt lat="44.06673" lon="1.86698">
        <ele>355.83</ele>
        <time>2018-09-08T11:16:26Z</time>
      </trkpt>
      <trkpt lat="44.06607" lon="1.86736">
        <ele>352.46</ele>
        <time>2018-09-08T11:16:35Z</time>
      </trkpt>
      <trkpt lat="44.0659" lon="1.8674">
        <ele>351.5</ele>
        <time>2018-09-08T11:16:37Z</time>
      </trkpt>
      <trkpt lat="44.06568" lon="1.86743">
        <ele>352.46</ele>
        <time>2018-09-08T11:16:40Z</time>
      </trkpt>
      <trkpt lat="44.06561" lon="1.86742">
        <ele>352.94</ele>
        <time>2018-09-08T11:16:41Z</time>
      </trkpt>
      <trkpt lat="44.06555" lon="1.8674">
        <ele>351.98</ele>
        <time>2018-09-08T11:16:42Z</time>
      </trkpt>
      <trkpt lat="44.06484" lon="1.86726">
        <ele>353.9</ele>
        <time>2018-09-08T11:16:56Z</time>
      </trkpt>
      <trkpt lat="44.06453" lon="1.86706">
        <ele>354.86</ele>
        <time>2018-09-08T11:17:03Z</time>
      </trkpt>
      <trkpt lat="44.06433" lon="1.86697">
        <ele>353.9</ele>
        <time>2018-09-08T11:17:07Z</time>
      </trkpt>
      <trkpt lat="44.06428" lon="1.86696">
        <ele>353.9</ele>
        <time>2018-09-08T11:17:08Z</time>
      </trkpt>
      <trkpt lat="44.06417" lon="1.86693">
        <ele>352.94</ele>
        <time>2018-09-08T11:17:10Z</time>
      </trkpt>
      <trkpt lat="44.06413" lon="1.8669">
        <ele>353.9</ele>
        <time>2018-09-08T11:17:11Z</time>
      </trkpt>
      <trkpt lat="44.06409" lon="1.86684">
        <ele>352.46</ele>
        <time>2018-09-08T11:17:12Z</time>
      </trkpt>
      <trkpt lat="44.06408" lon="1.86677">
        <ele>351.98</ele>
        <time>2018-09-08T11:17:13Z</time>
      </trkpt>
      <trkpt lat="44.06408" lon="1.8667">
        <ele>353.42</ele>
        <time>2018-09-08T11:17:14Z</time>
      </trkpt>
      <trkpt lat="44.0641" lon="1.86663">
        <ele>352.94</ele>
        <time>2018-09-08T11:17:15Z</time>
      </trkpt>
      <trkpt lat="44.06412" lon="1.86656">
        <ele>352.94</ele>
        <time>2018-09-08T11:17:16Z</time>
      </trkpt>
      <trkpt lat="44.06415" lon="1.86644">
        <ele>354.38</ele>
        <time>2018-09-08T11:17:18Z</time>
      </trkpt>
      <trkpt lat="44.06431" lon="1.86577">
        <ele>357.27</ele>
        <time>2018-09-08T11:17:30Z</time>
      </trkpt>
      <trkpt lat="44.06435" lon="1.86542">
        <ele>358.71</ele>
        <time>2018-09-08T11:17:37Z</time>
      </trkpt>
      <trkpt lat="44.06444" lon="1.86447">
        <ele>361.11</ele>
        <time>2018-09-08T11:17:55Z</time>
      </trkpt>
      <trkpt lat="44.06464" lon="1.86344">
        <ele>359.19</ele>
        <time>2018-09-08T11:18:10Z</time>
      </trkpt>
      <trkpt lat="44.06496" lon="1.86231">
        <ele>357.75</ele>
        <time>2018-09-08T11:18:24Z</time>
      </trkpt>
      <trkpt lat="44.06536" lon="1.86153">
        <ele>358.23</ele>
        <time>2018-09-08T11:18:38Z</time>
      </trkpt>
      <trkpt lat="44.06538" lon="1.86143">
        <ele>358.71</ele>
        <time>2018-09-08T11:18:40Z</time>
      </trkpt>
      <trkpt lat="44.06537" lon="1.86138">
        <ele>358.71</ele>
        <time>2018-09-08T11:18:41Z</time>
      </trkpt>
      <trkpt lat="44.06534" lon="1.86134">
        <ele>358.23</ele>
        <time>2018-09-08T11:18:42Z</time>
      </trkpt>
      <trkpt lat="44.06505" lon="1.86104">
        <ele>356.79</ele>
        <time>2018-09-08T11:18:48Z</time>
      </trkpt>
      <trkpt lat="44.06486" lon="1.86083">
        <ele>354.38</ele>
        <time>2018-09-08T11:18:51Z</time>
      </trkpt>
      <trkpt lat="44.0648" lon="1.86073">
        <ele>354.38</ele>
        <time>2018-09-08T11:18:52Z</time>
      </trkpt>
      <trkpt lat="44.06475" lon="1.86062">
        <ele>352.94</ele>
        <time>2018-09-08T11:18:53Z</time>
      </trkpt>
      <trkpt lat="44.06472" lon="1.86049">
        <ele>352.94</ele>
        <time>2018-09-08T11:18:54Z</time>
      </trkpt>
      <trkpt lat="44.06468" lon="1.86037">
        <ele>352.94</ele>
        <time>2018-09-08T11:18:55Z</time>
      </trkpt>
      <trkpt lat="44.06464" lon="1.86025">
        <ele>352.46</ele>
        <time>2018-09-08T11:18:56Z</time>
      </trkpt>
      <trkpt lat="44.06459" lon="1.86014">
        <ele>351.02</ele>
        <time>2018-09-08T11:18:57Z</time>
      </trkpt>
      <trkpt lat="44.06454" lon="1.86005">
        <ele>351.02</ele>
        <time>2018-09-08T11:18:58Z</time>
      </trkpt>
      <trkpt lat="44.06434" lon="1.85971">
        <ele>351.98</ele>
        <time>2018-09-08T11:19:02Z</time>
      </trkpt>
      <trkpt lat="44.0643" lon="1.85963">
        <ele>351.98</ele>
        <time>2018-09-08T11:19:03Z</time>
      </trkpt>
      <trkpt lat="44.06429" lon="1.85955">
        <ele>352.94</ele>
        <time>2018-09-08T11:19:04Z</time>
      </trkpt>
      <trkpt lat="44.06426" lon="1.85933">
        <ele>353.42</ele>
        <time>2018-09-08T11:19:07Z</time>
      </trkpt>
      <trkpt lat="44.06426" lon="1.85926">
        <ele>353.9</ele>
        <time>2018-09-08T11:19:08Z</time>
      </trkpt>
      <trkpt lat="44.06426" lon="1.85921">
        <ele>354.38</ele>
        <time>2018-09-08T11:19:09Z</time>
      </trkpt>
      <trkpt lat="44.06427" lon="1.85916">
        <ele>354.86</ele>
        <time>2018-09-08T11:19:10Z</time>
      </trkpt>
      <trkpt lat="44.06428" lon="1.85912">
        <ele>355.34</ele>
        <time>2018-09-08T11:19:11Z</time>
      </trkpt>
      <trkpt lat="44.0643" lon="1.85908">
        <ele>355.83</ele>
        <time>2018-09-08T11:19:12Z</time>
      </trkpt>
      <trkpt lat="44.06426" lon="1.8586">
        <ele>359.19</ele>
        <time>2018-09-08T11:19:24Z</time>
      </trkpt>
      <trkpt lat="44.06433" lon="1.85789">
        <ele>361.11</ele>
        <time>2018-09-08T11:19:40Z</time>
      </trkpt>
      <trkpt lat="44.06439" lon="1.8574">
        <ele>363.52</ele>
        <time>2018-09-08T11:19:53Z</time>
      </trkpt>
      <trkpt lat="44.06438" lon="1.8567">
        <ele>367.36</ele>
        <time>2018-09-08T11:20:13Z</time>
      </trkpt>
      <trkpt lat="44.06406" lon="1.85631">
        <ele>366.88</ele>
        <time>2018-09-08T11:20:26Z</time>
      </trkpt>
      <trkpt lat="44.06353" lon="1.85641">
        <ele>365.92</ele>
        <time>2018-09-08T11:20:38Z</time>
      </trkpt>
      <trkpt lat="44.06343" lon="1.85642">
        <ele>365.44</ele>
        <time>2018-09-08T11:20:40Z</time>
      </trkpt>
      <trkpt lat="44.06338" lon="1.85645">
        <ele>365.44</ele>
        <time>2018-09-08T11:20:41Z</time>
      </trkpt>
      <trkpt lat="44.06329" lon="1.85651">
        <ele>365.44</ele>
        <time>2018-09-08T11:20:43Z</time>
      </trkpt>
      <trkpt lat="44.06325" lon="1.85652">
        <ele>365.44</ele>
        <time>2018-09-08T11:20:44Z</time>
      </trkpt>
      <trkpt lat="44.06258" lon="1.85672">
        <ele>364.96</ele>
        <time>2018-09-08T11:20:59Z</time>
      </trkpt>
      <trkpt lat="44.0617" lon="1.85679">
        <ele>364</ele>
        <time>2018-09-08T11:21:17Z</time>
      </trkpt>
      <trkpt lat="44.06104" lon="1.85687">
        <ele>361.11</ele>
        <time>2018-09-08T11:21:28Z</time>
      </trkpt>
      <trkpt lat="44.06033" lon="1.85697">
        <ele>358.23</ele>
        <time>2018-09-08T11:21:39Z</time>
      </trkpt>
      <trkpt lat="44.06004" lon="1.85692">
        <ele>357.27</ele>
        <time>2018-09-08T11:21:44Z</time>
      </trkpt>
      <trkpt lat="44.05998" lon="1.85689">
        <ele>357.27</ele>
        <time>2018-09-08T11:21:45Z</time>
      </trkpt>
      <trkpt lat="44.05988" lon="1.85684">
        <ele>357.27</ele>
        <time>2018-09-08T11:21:47Z</time>
      </trkpt>
      <trkpt lat="44.05984" lon="1.85683">
        <ele>357.27</ele>
        <time>2018-09-08T11:21:48Z</time>
      </trkpt>
      <trkpt lat="44.05979" lon="1.85684">
        <ele>356.79</ele>
        <time>2018-09-08T11:21:49Z</time>
      </trkpt>
      <trkpt lat="44.05922" lon="1.85698">
        <ele>357.27</ele>
        <time>2018-09-08T11:22:01Z</time>
      </trkpt>
      <trkpt lat="44.05888" lon="1.85712">
        <ele>356.31</ele>
        <time>2018-09-08T11:22:08Z</time>
      </trkpt>
      <trkpt lat="44.05818" lon="1.85745">
        <ele>353.9</ele>
        <time>2018-09-08T11:22:21Z</time>
      </trkpt>
      <trkpt lat="44.05772" lon="1.85783">
        <ele>351.02</ele>
        <time>2018-09-08T11:22:29Z</time>
      </trkpt>
      <trkpt lat="44.05755" lon="1.85795">
        <ele>348.13</ele>
        <time>2018-09-08T11:22:32Z</time>
      </trkpt>
      <trkpt lat="44.0575" lon="1.85797">
        <ele>347.17</ele>
        <time>2018-09-08T11:22:33Z</time>
      </trkpt>
      <trkpt lat="44.05746" lon="1.85797">
        <ele>346.69</ele>
        <time>2018-09-08T11:22:34Z</time>
      </trkpt>
      <trkpt lat="44.05743" lon="1.85794">
        <ele>345.73</ele>
        <time>2018-09-08T11:22:35Z</time>
      </trkpt>
      <trkpt lat="44.05742" lon="1.85791">
        <ele>346.21</ele>
        <time>2018-09-08T11:22:36Z</time>
      </trkpt>
      <trkpt lat="44.0574" lon="1.85788">
        <ele>345.73</ele>
        <time>2018-09-08T11:22:37Z</time>
      </trkpt>
      <trkpt lat="44.05723" lon="1.85775">
        <ele>346.69</ele>
        <time>2018-09-08T11:22:43Z</time>
      </trkpt>
      <trkpt lat="44.05714" lon="1.85771">
        <ele>346.21</ele>
        <time>2018-09-08T11:22:45Z</time>
      </trkpt>
      <trkpt lat="44.05709" lon="1.85769">
        <ele>346.21</ele>
        <time>2018-09-08T11:22:46Z</time>
      </trkpt>
      <trkpt lat="44.05705" lon="1.85767">
        <ele>345.25</ele>
        <time>2018-09-08T11:22:47Z</time>
      </trkpt>
      <trkpt lat="44.057" lon="1.85764">
        <ele>344.77</ele>
        <time>2018-09-08T11:22:48Z</time>
      </trkpt>
      <trkpt lat="44.05695" lon="1.85761">
        <ele>344.77</ele>
        <time>2018-09-08T11:22:49Z</time>
      </trkpt>
      <trkpt lat="44.05679" lon="1.85754">
        <ele>344.29</ele>
        <time>2018-09-08T11:22:52Z</time>
      </trkpt>
      <trkpt lat="44.05674" lon="1.85754">
        <ele>344.29</ele>
        <time>2018-09-08T11:22:53Z</time>
      </trkpt>
      <trkpt lat="44.05668" lon="1.85757">
        <ele>343.33</ele>
        <time>2018-09-08T11:22:54Z</time>
      </trkpt>
      <trkpt lat="44.05664" lon="1.85762">
        <ele>342.85</ele>
        <time>2018-09-08T11:22:55Z</time>
      </trkpt>
      <trkpt lat="44.0566" lon="1.85769">
        <ele>342.85</ele>
        <time>2018-09-08T11:22:56Z</time>
      </trkpt>
      <trkpt lat="44.05656" lon="1.85776">
        <ele>342.37</ele>
        <time>2018-09-08T11:22:57Z</time>
      </trkpt>
      <trkpt lat="44.05653" lon="1.85783">
        <ele>342.85</ele>
        <time>2018-09-08T11:22:58Z</time>
      </trkpt>
      <trkpt lat="44.0565" lon="1.8579">
        <ele>342.37</ele>
        <time>2018-09-08T11:22:59Z</time>
      </trkpt>
      <trkpt lat="44.05645" lon="1.85795">
        <ele>341.41</ele>
        <time>2018-09-08T11:23:00Z</time>
      </trkpt>
      <trkpt lat="44.05639" lon="1.858">
        <ele>341.41</ele>
        <time>2018-09-08T11:23:01Z</time>
      </trkpt>
      <trkpt lat="44.05609" lon="1.85825">
        <ele>339.48</ele>
        <time>2018-09-08T11:23:06Z</time>
      </trkpt>
      <trkpt lat="44.05583" lon="1.85848">
        <ele>337.08</ele>
        <time>2018-09-08T11:23:10Z</time>
      </trkpt>
      <trkpt lat="44.05576" lon="1.85853">
        <ele>337.08</ele>
        <time>2018-09-08T11:23:11Z</time>
      </trkpt>
      <trkpt lat="44.05529" lon="1.85887">
        <ele>333.71</ele>
        <time>2018-09-08T11:23:17Z</time>
      </trkpt>
      <trkpt lat="44.05522" lon="1.85893">
        <ele>332.75</ele>
        <time>2018-09-08T11:23:18Z</time>
      </trkpt>
      <trkpt lat="44.05515" lon="1.859">
        <ele>332.27</ele>
        <time>2018-09-08T11:23:19Z</time>
      </trkpt>
      <trkpt lat="44.05509" lon="1.85908">
        <ele>330.83</ele>
        <time>2018-09-08T11:23:20Z</time>
      </trkpt>
      <trkpt lat="44.05503" lon="1.85917">
        <ele>330.35</ele>
        <time>2018-09-08T11:23:21Z</time>
      </trkpt>
      <trkpt lat="44.05485" lon="1.85947">
        <ele>328.43</ele>
        <time>2018-09-08T11:23:24Z</time>
      </trkpt>
      <trkpt lat="44.05472" lon="1.85966">
        <ele>325.06</ele>
        <time>2018-09-08T11:23:26Z</time>
      </trkpt>
      <trkpt lat="44.05451" lon="1.85992">
        <ele>322.18</ele>
        <time>2018-09-08T11:23:29Z</time>
      </trkpt>
      <trkpt lat="44.05436" lon="1.8601">
        <ele>321.22</ele>
        <time>2018-09-08T11:23:31Z</time>
      </trkpt>
      <trkpt lat="44.05414" lon="1.86039">
        <ele>316.41</ele>
        <time>2018-09-08T11:23:34Z</time>
      </trkpt>
      <trkpt lat="44.05395" lon="1.8606">
        <ele>313.05</ele>
        <time>2018-09-08T11:23:37Z</time>
      </trkpt>
      <trkpt lat="44.05389" lon="1.86066">
        <ele>312.57</ele>
        <time>2018-09-08T11:23:38Z</time>
      </trkpt>
      <trkpt lat="44.05384" lon="1.86073">
        <ele>312.09</ele>
        <time>2018-09-08T11:23:39Z</time>
      </trkpt>
      <trkpt lat="44.05375" lon="1.86088">
        <ele>309.68</ele>
        <time>2018-09-08T11:23:41Z</time>
      </trkpt>
      <trkpt lat="44.05369" lon="1.86095">
        <ele>310.16</ele>
        <time>2018-09-08T11:23:42Z</time>
      </trkpt>
      <trkpt lat="44.05353" lon="1.86113">
        <ele>308.72</ele>
        <time>2018-09-08T11:23:45Z</time>
      </trkpt>
      <trkpt lat="44.05292" lon="1.86193">
        <ele>307.28</ele>
        <time>2018-09-08T11:23:58Z</time>
      </trkpt>
      <trkpt lat="44.0528" lon="1.86211">
        <ele>307.28</ele>
        <time>2018-09-08T11:24:01Z</time>
      </trkpt>
      <trkpt lat="44.05247" lon="1.86253">
        <ele>308.24</ele>
        <time>2018-09-08T11:24:10Z</time>
      </trkpt>
      <trkpt lat="44.05242" lon="1.86257">
        <ele>307.28</ele>
        <time>2018-09-08T11:24:11Z</time>
      </trkpt>
      <trkpt lat="44.05191" lon="1.86283">
        <ele>303.91</ele>
        <time>2018-09-08T11:24:19Z</time>
      </trkpt>
      <trkpt lat="44.05181" lon="1.86287">
        <ele>301.99</ele>
        <time>2018-09-08T11:24:20Z</time>
      </trkpt>
      <trkpt lat="44.05171" lon="1.8629">
        <ele>301.99</ele>
        <time>2018-09-08T11:24:21Z</time>
      </trkpt>
      <trkpt lat="44.05148" lon="1.86297">
        <ele>297.67</ele>
        <time>2018-09-08T11:24:24Z</time>
      </trkpt>
      <trkpt lat="44.05143" lon="1.863">
        <ele>298.15</ele>
        <time>2018-09-08T11:24:25Z</time>
      </trkpt>
      <trkpt lat="44.05131" lon="1.86305">
        <ele>298.15</ele>
        <time>2018-09-08T11:24:28Z</time>
      </trkpt>
      <trkpt lat="44.05128" lon="1.86307">
        <ele>298.15</ele>
        <time>2018-09-08T11:24:29Z</time>
      </trkpt>
      <trkpt lat="44.05125" lon="1.86311">
        <ele>298.63</ele>
        <time>2018-09-08T11:24:30Z</time>
      </trkpt>
      <trkpt lat="44.05124" lon="1.86315">
        <ele>298.63</ele>
        <time>2018-09-08T11:24:31Z</time>
      </trkpt>
      <trkpt lat="44.05124" lon="1.8632">
        <ele>299.11</ele>
        <time>2018-09-08T11:24:32Z</time>
      </trkpt>
      <trkpt lat="44.05124" lon="1.86324">
        <ele>298.63</ele>
        <time>2018-09-08T11:24:33Z</time>
      </trkpt>
      <trkpt lat="44.05125" lon="1.86329">
        <ele>299.11</ele>
        <time>2018-09-08T11:24:34Z</time>
      </trkpt>
      <trkpt lat="44.05125" lon="1.86333">
        <ele>299.59</ele>
        <time>2018-09-08T11:24:35Z</time>
      </trkpt>
      <trkpt lat="44.05126" lon="1.86338">
        <ele>299.59</ele>
        <time>2018-09-08T11:24:36Z</time>
      </trkpt>
      <trkpt lat="44.05137" lon="1.86373">
        <ele>299.11</ele>
        <time>2018-09-08T11:24:45Z</time>
      </trkpt>
      <trkpt lat="44.05135" lon="1.86372">
        <ele>298.63</ele>
        <time>2018-09-08T11:25:05Z</time>
      </trkpt>
      <trkpt lat="44.05135" lon="1.86372">
        <ele>298.15</ele>
        <time>2018-09-08T11:25:12Z</time>
      </trkpt>
      <trkpt lat="44.05138" lon="1.86373">
        <ele>307.28</ele>
        <time>2018-09-08T11:29:25Z</time>
      </trkpt>
      <trkpt lat="44.05136" lon="1.86396">
        <ele>307.28</ele>
        <time>2018-09-08T11:29:26Z</time>
      </trkpt>
      <trkpt lat="44.05148" lon="1.8641">
        <ele>304.39</ele>
        <time>2018-09-08T11:29:34Z</time>
      </trkpt>
      <trkpt lat="44.05149" lon="1.86412">
        <ele>301.99</ele>
        <time>2018-09-08T11:29:39Z</time>
      </trkpt>
      <trkpt lat="44.0515" lon="1.86415">
        <ele>301.99</ele>
        <time>2018-09-08T11:29:40Z</time>
      </trkpt>
      <trkpt lat="44.05151" lon="1.86419">
        <ele>301.03</ele>
        <time>2018-09-08T11:29:41Z</time>
      </trkpt>
      <trkpt lat="44.05153" lon="1.86423">
        <ele>300.55</ele>
        <time>2018-09-08T11:29:42Z</time>
      </trkpt>
      <trkpt lat="44.05154" lon="1.86428">
        <ele>300.07</ele>
        <time>2018-09-08T11:29:43Z</time>
      </trkpt>
      <trkpt lat="44.05156" lon="1.86439">
        <ele>299.11</ele>
        <time>2018-09-08T11:29:45Z</time>
      </trkpt>
      <trkpt lat="44.0516" lon="1.86452">
        <ele>298.15</ele>
        <time>2018-09-08T11:29:47Z</time>
      </trkpt>
      <trkpt lat="44.05174" lon="1.86495">
        <ele>294.78</ele>
        <time>2018-09-08T11:29:53Z</time>
      </trkpt>
      <trkpt lat="44.05177" lon="1.86503">
        <ele>294.78</ele>
        <time>2018-09-08T11:29:54Z</time>
      </trkpt>
      <trkpt lat="44.05189" lon="1.86544">
        <ele>292.38</ele>
        <time>2018-09-08T11:29:59Z</time>
      </trkpt>
      <trkpt lat="44.05204" lon="1.86603">
        <ele>289.49</ele>
        <time>2018-09-08T11:30:07Z</time>
      </trkpt>
      <trkpt lat="44.05207" lon="1.86618">
        <ele>288.05</ele>
        <time>2018-09-08T11:30:09Z</time>
      </trkpt>
      <trkpt lat="44.05207" lon="1.86625">
        <ele>288.53</ele>
        <time>2018-09-08T11:30:10Z</time>
      </trkpt>
      <trkpt lat="44.05207" lon="1.86632">
        <ele>288.05</ele>
        <time>2018-09-08T11:30:11Z</time>
      </trkpt>
      <trkpt lat="44.05205" lon="1.86639">
        <ele>288.05</ele>
        <time>2018-09-08T11:30:12Z</time>
      </trkpt>
      <trkpt lat="44.05203" lon="1.86646">
        <ele>287.09</ele>
        <time>2018-09-08T11:30:13Z</time>
      </trkpt>
      <trkpt lat="44.05202" lon="1.86653">
        <ele>286.61</ele>
        <time>2018-09-08T11:30:14Z</time>
      </trkpt>
      <trkpt lat="44.05202" lon="1.86661">
        <ele>286.13</ele>
        <time>2018-09-08T11:30:15Z</time>
      </trkpt>
      <trkpt lat="44.05202" lon="1.86678">
        <ele>284.69</ele>
        <time>2018-09-08T11:30:17Z</time>
      </trkpt>
      <trkpt lat="44.05203" lon="1.86685">
        <ele>284.21</ele>
        <time>2018-09-08T11:30:18Z</time>
      </trkpt>
      <trkpt lat="44.05205" lon="1.86692">
        <ele>283.25</ele>
        <time>2018-09-08T11:30:19Z</time>
      </trkpt>
      <trkpt lat="44.05209" lon="1.86698">
        <ele>283.73</ele>
        <time>2018-09-08T11:30:20Z</time>
      </trkpt>
      <trkpt lat="44.05213" lon="1.86703">
        <ele>282.77</ele>
        <time>2018-09-08T11:30:21Z</time>
      </trkpt>
      <trkpt lat="44.05219" lon="1.86706">
        <ele>282.28</ele>
        <time>2018-09-08T11:30:22Z</time>
      </trkpt>
      <trkpt lat="44.05224" lon="1.86708">
        <ele>281.32</ele>
        <time>2018-09-08T11:30:23Z</time>
      </trkpt>
      <trkpt lat="44.05229" lon="1.86709">
        <ele>281.32</ele>
        <time>2018-09-08T11:30:24Z</time>
      </trkpt>
      <trkpt lat="44.05234" lon="1.86711">
        <ele>280.36</ele>
        <time>2018-09-08T11:30:25Z</time>
      </trkpt>
      <trkpt lat="44.05253" lon="1.86716">
        <ele>277.48</ele>
        <time>2018-09-08T11:30:30Z</time>
      </trkpt>
      <trkpt lat="44.05253" lon="1.86718">
        <ele>276.52</ele>
        <time>2018-09-08T11:30:31Z</time>
      </trkpt>
      <trkpt lat="44.05252" lon="1.86721">
        <ele>276.52</ele>
        <time>2018-09-08T11:30:32Z</time>
      </trkpt>
      <trkpt lat="44.0525" lon="1.86722">
        <ele>276.52</ele>
        <time>2018-09-08T11:30:33Z</time>
      </trkpt>
      <trkpt lat="44.05247" lon="1.86724">
        <ele>276.52</ele>
        <time>2018-09-08T11:30:34Z</time>
      </trkpt>
      <trkpt lat="44.05243" lon="1.86725">
        <ele>276.52</ele>
        <time>2018-09-08T11:30:35Z</time>
      </trkpt>
      <trkpt lat="44.0524" lon="1.86727">
        <ele>277</ele>
        <time>2018-09-08T11:30:36Z</time>
      </trkpt>
      <trkpt lat="44.05236" lon="1.8673">
        <ele>276.52</ele>
        <time>2018-09-08T11:30:37Z</time>
      </trkpt>
      <trkpt lat="44.05232" lon="1.86732">
        <ele>276.04</ele>
        <time>2018-09-08T11:30:38Z</time>
      </trkpt>
      <trkpt lat="44.05206" lon="1.86741">
        <ele>275.07</ele>
        <time>2018-09-08T11:30:43Z</time>
      </trkpt>
      <trkpt lat="44.05193" lon="1.86746">
        <ele>273.63</ele>
        <time>2018-09-08T11:30:45Z</time>
      </trkpt>
      <trkpt lat="44.05186" lon="1.86749">
        <ele>273.63</ele>
        <time>2018-09-08T11:30:46Z</time>
      </trkpt>
      <trkpt lat="44.05179" lon="1.86752">
        <ele>273.15</ele>
        <time>2018-09-08T11:30:47Z</time>
      </trkpt>
      <trkpt lat="44.05173" lon="1.86753">
        <ele>272.67</ele>
        <time>2018-09-08T11:30:48Z</time>
      </trkpt>
      <trkpt lat="44.05166" lon="1.86753">
        <ele>272.67</ele>
        <time>2018-09-08T11:30:49Z</time>
      </trkpt>
      <trkpt lat="44.05159" lon="1.86752">
        <ele>272.19</ele>
        <time>2018-09-08T11:30:50Z</time>
      </trkpt>
      <trkpt lat="44.05152" lon="1.8675">
        <ele>272.19</ele>
        <time>2018-09-08T11:30:51Z</time>
      </trkpt>
      <trkpt lat="44.05078" lon="1.86734">
        <ele>270.75</ele>
        <time>2018-09-08T11:31:04Z</time>
      </trkpt>
      <trkpt lat="44.05034" lon="1.86738">
        <ele>269.31</ele>
        <time>2018-09-08T11:31:13Z</time>
      </trkpt>
      <trkpt lat="44.05014" lon="1.86743">
        <ele>268.83</ele>
        <time>2018-09-08T11:31:18Z</time>
      </trkpt>
      <trkpt lat="44.05" lon="1.86753">
        <ele>268.35</ele>
        <time>2018-09-08T11:31:21Z</time>
      </trkpt>
      <trkpt lat="44.04996" lon="1.86757">
        <ele>267.86</ele>
        <time>2018-09-08T11:31:22Z</time>
      </trkpt>
      <trkpt lat="44.0499" lon="1.86762">
        <ele>267.38</ele>
        <time>2018-09-08T11:31:23Z</time>
      </trkpt>
      <trkpt lat="44.04963" lon="1.8679">
        <ele>266.9</ele>
        <time>2018-09-08T11:31:29Z</time>
      </trkpt>
      <trkpt lat="44.04941" lon="1.86821">
        <ele>264.98</ele>
        <time>2018-09-08T11:31:35Z</time>
      </trkpt>
      <trkpt lat="44.04937" lon="1.86823">
        <ele>264.02</ele>
        <time>2018-09-08T11:31:36Z</time>
      </trkpt>
      <trkpt lat="44.04933" lon="1.86823">
        <ele>263.06</ele>
        <time>2018-09-08T11:31:37Z</time>
      </trkpt>
      <trkpt lat="44.0493" lon="1.86822">
        <ele>263.06</ele>
        <time>2018-09-08T11:31:38Z</time>
      </trkpt>
      <trkpt lat="44.04927" lon="1.86819">
        <ele>262.58</ele>
        <time>2018-09-08T11:31:39Z</time>
      </trkpt>
      <trkpt lat="44.04924" lon="1.86814">
        <ele>262.58</ele>
        <time>2018-09-08T11:31:40Z</time>
      </trkpt>
      <trkpt lat="44.0492" lon="1.86809">
        <ele>262.1</ele>
        <time>2018-09-08T11:31:41Z</time>
      </trkpt>
      <trkpt lat="44.04899" lon="1.86769">
        <ele>259.21</ele>
        <time>2018-09-08T11:31:48Z</time>
      </trkpt>
      <trkpt lat="44.04897" lon="1.86763">
        <ele>258.73</ele>
        <time>2018-09-08T11:31:49Z</time>
      </trkpt>
      <trkpt lat="44.04894" lon="1.86758">
        <ele>259.21</ele>
        <time>2018-09-08T11:31:50Z</time>
      </trkpt>
      <trkpt lat="44.0488" lon="1.86734">
        <ele>257.77</ele>
        <time>2018-09-08T11:31:54Z</time>
      </trkpt>
      <trkpt lat="44.04876" lon="1.86729">
        <ele>257.77</ele>
        <time>2018-09-08T11:31:55Z</time>
      </trkpt>
      <trkpt lat="44.04849" lon="1.86702">
        <ele>256.81</ele>
        <time>2018-09-08T11:32:01Z</time>
      </trkpt>
      <trkpt lat="44.04828" lon="1.86686">
        <ele>257.29</ele>
        <time>2018-09-08T11:32:06Z</time>
      </trkpt>
      <trkpt lat="44.04825" lon="1.8668">
        <ele>256.33</ele>
        <time>2018-09-08T11:32:07Z</time>
      </trkpt>
      <trkpt lat="44.04822" lon="1.86674">
        <ele>256.33</ele>
        <time>2018-09-08T11:32:08Z</time>
      </trkpt>
      <trkpt lat="44.04817" lon="1.86661">
        <ele>256.33</ele>
        <time>2018-09-08T11:32:10Z</time>
      </trkpt>
      <trkpt lat="44.04814" lon="1.86648">
        <ele>256.33</ele>
        <time>2018-09-08T11:32:12Z</time>
      </trkpt>
      <trkpt lat="44.04813" lon="1.86642">
        <ele>256.33</ele>
        <time>2018-09-08T11:32:13Z</time>
      </trkpt>
      <trkpt lat="44.04813" lon="1.86636">
        <ele>255.85</ele>
        <time>2018-09-08T11:32:14Z</time>
      </trkpt>
      <trkpt lat="44.04812" lon="1.86624">
        <ele>256.33</ele>
        <time>2018-09-08T11:32:16Z</time>
      </trkpt>
      <trkpt lat="44.04812" lon="1.86618">
        <ele>255.85</ele>
        <time>2018-09-08T11:32:17Z</time>
      </trkpt>
      <trkpt lat="44.04812" lon="1.86612">
        <ele>256.81</ele>
        <time>2018-09-08T11:32:18Z</time>
      </trkpt>
      <trkpt lat="44.0481" lon="1.86573">
        <ele>255.85</ele>
        <time>2018-09-08T11:32:24Z</time>
      </trkpt>
      <trkpt lat="44.04808" lon="1.86566">
        <ele>255.85</ele>
        <time>2018-09-08T11:32:25Z</time>
      </trkpt>
      <trkpt lat="44.04807" lon="1.8656">
        <ele>255.85</ele>
        <time>2018-09-08T11:32:26Z</time>
      </trkpt>
      <trkpt lat="44.04805" lon="1.86555">
        <ele>255.37</ele>
        <time>2018-09-08T11:32:27Z</time>
      </trkpt>
      <trkpt lat="44.04803" lon="1.86549">
        <ele>255.37</ele>
        <time>2018-09-08T11:32:28Z</time>
      </trkpt>
      <trkpt lat="44.04783" lon="1.86513">
        <ele>255.37</ele>
        <time>2018-09-08T11:32:39Z</time>
      </trkpt>
      <trkpt lat="44.0478" lon="1.8651">
        <ele>255.37</ele>
        <time>2018-09-08T11:32:41Z</time>
      </trkpt>
      <trkpt lat="44.04772" lon="1.86506">
        <ele>255.37</ele>
        <time>2018-09-08T11:32:43Z</time>
      </trkpt>
      <trkpt lat="44.04762" lon="1.86504">
        <ele>254.89</ele>
        <time>2018-09-08T11:32:45Z</time>
      </trkpt>
      <trkpt lat="44.04726" lon="1.86509">
        <ele>251.52</ele>
        <time>2018-09-08T11:32:50Z</time>
      </trkpt>
      <trkpt lat="44.04707" lon="1.86508">
        <ele>250.08</ele>
        <time>2018-09-08T11:32:52Z</time>
      </trkpt>
      <trkpt lat="44.04698" lon="1.86506">
        <ele>249.6</ele>
        <time>2018-09-08T11:32:53Z</time>
      </trkpt>
      <trkpt lat="44.0469" lon="1.86503">
        <ele>248.16</ele>
        <time>2018-09-08T11:32:54Z</time>
      </trkpt>
      <trkpt lat="44.04681" lon="1.86498">
        <ele>248.16</ele>
        <time>2018-09-08T11:32:55Z</time>
      </trkpt>
      <trkpt lat="44.04673" lon="1.86492">
        <ele>248.16</ele>
        <time>2018-09-08T11:32:56Z</time>
      </trkpt>
      <trkpt lat="44.04665" lon="1.86485">
        <ele>247.68</ele>
        <time>2018-09-08T11:32:57Z</time>
      </trkpt>
      <trkpt lat="44.04631" lon="1.8645">
        <ele>246.72</ele>
        <time>2018-09-08T11:33:02Z</time>
      </trkpt>
      <trkpt lat="44.04587" lon="1.864">
        <ele>244.79</ele>
        <time>2018-09-08T11:33:09Z</time>
      </trkpt>
      <trkpt lat="44.04582" lon="1.86391">
        <ele>244.31</ele>
        <time>2018-09-08T11:33:10Z</time>
      </trkpt>
      <trkpt lat="44.04578" lon="1.86381">
        <ele>243.35</ele>
        <time>2018-09-08T11:33:11Z</time>
      </trkpt>
      <trkpt lat="44.04575" lon="1.86369">
        <ele>242.87</ele>
        <time>2018-09-08T11:33:12Z</time>
      </trkpt>
      <trkpt lat="44.04573" lon="1.86357">
        <ele>242.87</ele>
        <time>2018-09-08T11:33:13Z</time>
      </trkpt>
      <trkpt lat="44.0457" lon="1.86347">
        <ele>242.39</ele>
        <time>2018-09-08T11:33:14Z</time>
      </trkpt>
      <trkpt lat="44.04567" lon="1.86337">
        <ele>241.91</ele>
        <time>2018-09-08T11:33:15Z</time>
      </trkpt>
      <trkpt lat="44.04562" lon="1.86328">
        <ele>241.43</ele>
        <time>2018-09-08T11:33:16Z</time>
      </trkpt>
      <trkpt lat="44.04556" lon="1.86321">
        <ele>240.47</ele>
        <time>2018-09-08T11:33:17Z</time>
      </trkpt>
      <trkpt lat="44.04549" lon="1.86315">
        <ele>240.47</ele>
        <time>2018-09-08T11:33:18Z</time>
      </trkpt>
      <trkpt lat="44.04507" lon="1.86279">
        <ele>240.47</ele>
        <time>2018-09-08T11:33:26Z</time>
      </trkpt>
      <trkpt lat="44.04502" lon="1.86277">
        <ele>239.99</ele>
        <time>2018-09-08T11:33:27Z</time>
      </trkpt>
      <trkpt lat="44.04498" lon="1.86275">
        <ele>240.47</ele>
        <time>2018-09-08T11:33:28Z</time>
      </trkpt>
      <trkpt lat="44.04494" lon="1.86274">
        <ele>240.95</ele>
        <time>2018-09-08T11:33:29Z</time>
      </trkpt>
      <trkpt lat="44.04489" lon="1.86273">
        <ele>240.95</ele>
        <time>2018-09-08T11:33:30Z</time>
      </trkpt>
      <trkpt lat="44.04485" lon="1.86272">
        <ele>240.95</ele>
        <time>2018-09-08T11:33:31Z</time>
      </trkpt>
      <trkpt lat="44.04481" lon="1.86272">
        <ele>240.47</ele>
        <time>2018-09-08T11:33:32Z</time>
      </trkpt>
      <trkpt lat="44.04472" lon="1.86271">
        <ele>240.95</ele>
        <time>2018-09-08T11:33:34Z</time>
      </trkpt>
      <trkpt lat="44.04457" lon="1.86269">
        <ele>240.95</ele>
        <time>2018-09-08T11:33:38Z</time>
      </trkpt>
      <trkpt lat="44.04453" lon="1.86271">
        <ele>240.95</ele>
        <time>2018-09-08T11:33:39Z</time>
      </trkpt>
      <trkpt lat="44.04451" lon="1.86275">
        <ele>240.95</ele>
        <time>2018-09-08T11:33:40Z</time>
      </trkpt>
      <trkpt lat="44.0445" lon="1.8628">
        <ele>240.95</ele>
        <time>2018-09-08T11:33:41Z</time>
      </trkpt>
      <trkpt lat="44.04449" lon="1.86286">
        <ele>240.47</ele>
        <time>2018-09-08T11:33:42Z</time>
      </trkpt>
      <trkpt lat="44.04449" lon="1.86292">
        <ele>239.51</ele>
        <time>2018-09-08T11:33:43Z</time>
      </trkpt>
      <trkpt lat="44.04445" lon="1.86313">
        <ele>239.99</ele>
        <time>2018-09-08T11:33:47Z</time>
      </trkpt>
      <trkpt lat="44.04442" lon="1.86318">
        <ele>239.51</ele>
        <time>2018-09-08T11:33:48Z</time>
      </trkpt>
      <trkpt lat="44.04439" lon="1.86322">
        <ele>239.51</ele>
        <time>2018-09-08T11:33:49Z</time>
      </trkpt>
      <trkpt lat="44.04437" lon="1.86326">
        <ele>239.99</ele>
        <time>2018-09-08T11:33:50Z</time>
      </trkpt>
      <trkpt lat="44.04434" lon="1.8633">
        <ele>239.02</ele>
        <time>2018-09-08T11:33:51Z</time>
      </trkpt>
      <trkpt lat="44.04433" lon="1.86371">
        <ele>240.47</ele>
        <time>2018-09-08T11:34:01Z</time>
      </trkpt>
      <trkpt lat="44.04432" lon="1.86383">
        <ele>240.47</ele>
        <time>2018-09-08T11:34:05Z</time>
      </trkpt>
      <trkpt lat="44.04431" lon="1.86386">
        <ele>241.43</ele>
        <time>2018-09-08T11:34:06Z</time>
      </trkpt>
      <trkpt lat="44.04431" lon="1.86388">
        <ele>241.43</ele>
        <time>2018-09-08T11:34:07Z</time>
      </trkpt>
      <trkpt lat="44.0443" lon="1.8639">
        <ele>240.95</ele>
        <time>2018-09-08T11:34:08Z</time>
      </trkpt>
      <trkpt lat="44.04429" lon="1.86393">
        <ele>242.39</ele>
        <time>2018-09-08T11:34:09Z</time>
      </trkpt>
      <trkpt lat="44.04428" lon="1.86395">
        <ele>241.43</ele>
        <time>2018-09-08T11:34:10Z</time>
      </trkpt>
      <trkpt lat="44.04421" lon="1.86411">
        <ele>244.31</ele>
        <time>2018-09-08T11:34:19Z</time>
      </trkpt>
      <trkpt lat="44.04421" lon="1.86412">
        <ele>244.31</ele>
        <time>2018-09-08T11:34:20Z</time>
      </trkpt>
      <trkpt lat="44.0442" lon="1.86414">
        <ele>244.79</ele>
        <time>2018-09-08T11:34:21Z</time>
      </trkpt>
      <trkpt lat="44.0442" lon="1.86415">
        <ele>245.27</ele>
        <time>2018-09-08T11:34:22Z</time>
      </trkpt>
      <trkpt lat="44.0442" lon="1.86417">
        <ele>245.75</ele>
        <time>2018-09-08T11:34:23Z</time>
      </trkpt>
      <trkpt lat="44.04421" lon="1.86418">
        <ele>245.75</ele>
        <time>2018-09-08T11:34:24Z</time>
      </trkpt>
      <trkpt lat="44.04427" lon="1.86425">
        <ele>247.2</ele>
        <time>2018-09-08T11:34:32Z</time>
      </trkpt>
      <trkpt lat="44.04428" lon="1.86425">
        <ele>247.2</ele>
        <time>2018-09-08T11:34:33Z</time>
      </trkpt>
      <trkpt lat="44.04445" lon="1.86441">
        <ele>249.6</ele>
        <time>2018-09-08T11:34:48Z</time>
      </trkpt>
      <trkpt lat="44.0446" lon="1.86451">
        <ele>252</ele>
        <time>2018-09-08T11:35:02Z</time>
      </trkpt>
      <trkpt lat="44.04469" lon="1.86457">
        <ele>252.96</ele>
        <time>2018-09-08T11:35:09Z</time>
      </trkpt>
      <trkpt lat="44.0447" lon="1.86459">
        <ele>253.93</ele>
        <time>2018-09-08T11:35:10Z</time>
      </trkpt>
      <trkpt lat="44.04471" lon="1.8646">
        <ele>253.44</ele>
        <time>2018-09-08T11:35:11Z</time>
      </trkpt>
      <trkpt lat="44.04472" lon="1.86462">
        <ele>253.44</ele>
        <time>2018-09-08T11:35:12Z</time>
      </trkpt>
      <trkpt lat="44.04474" lon="1.86463">
        <ele>253.93</ele>
        <time>2018-09-08T11:35:13Z</time>
      </trkpt>
      <trkpt lat="44.04475" lon="1.86464">
        <ele>253.44</ele>
        <time>2018-09-08T11:35:14Z</time>
      </trkpt>
      <trkpt lat="44.04476" lon="1.86466">
        <ele>253.93</ele>
        <time>2018-09-08T11:35:15Z</time>
      </trkpt>
      <trkpt lat="44.04477" lon="1.86467">
        <ele>254.41</ele>
        <time>2018-09-08T11:35:16Z</time>
      </trkpt>
      <trkpt lat="44.04479" lon="1.86468">
        <ele>254.41</ele>
        <time>2018-09-08T11:35:17Z</time>
      </trkpt>
      <trkpt lat="44.04495" lon="1.86483">
        <ele>255.85</ele>
        <time>2018-09-08T11:35:30Z</time>
      </trkpt>
      <trkpt lat="44.04504" lon="1.865">
        <ele>256.81</ele>
        <time>2018-09-08T11:35:40Z</time>
      </trkpt>
      <trkpt lat="44.04505" lon="1.86502">
        <ele>257.29</ele>
        <time>2018-09-08T11:35:41Z</time>
      </trkpt>
      <trkpt lat="44.04505" lon="1.86503">
        <ele>257.29</ele>
        <time>2018-09-08T11:35:42Z</time>
      </trkpt>
      <trkpt lat="44.04506" lon="1.86505">
        <ele>257.29</ele>
        <time>2018-09-08T11:35:43Z</time>
      </trkpt>
      <trkpt lat="44.04507" lon="1.86507">
        <ele>257.77</ele>
        <time>2018-09-08T11:35:44Z</time>
      </trkpt>
      <trkpt lat="44.04507" lon="1.86508">
        <ele>258.25</ele>
        <time>2018-09-08T11:35:45Z</time>
      </trkpt>
      <trkpt lat="44.04508" lon="1.8651">
        <ele>258.25</ele>
        <time>2018-09-08T11:35:46Z</time>
      </trkpt>
      <trkpt lat="44.04509" lon="1.86513">
        <ele>258.73</ele>
        <time>2018-09-08T11:35:47Z</time>
      </trkpt>
      <trkpt lat="44.04517" lon="1.86546">
        <ele>260.17</ele>
        <time>2018-09-08T11:36:02Z</time>
      </trkpt>
      <trkpt lat="44.0454" lon="1.86554">
        <ele>257.29</ele>
        <time>2018-09-08T11:36:13Z</time>
      </trkpt>
      <trkpt lat="44.04544" lon="1.86555">
        <ele>256.33</ele>
        <time>2018-09-08T11:36:14Z</time>
      </trkpt>
      <trkpt lat="44.04549" lon="1.86557">
        <ele>255.37</ele>
        <time>2018-09-08T11:36:15Z</time>
      </trkpt>
      <trkpt lat="44.04588" lon="1.86579">
        <ele>256.81</ele>
        <time>2018-09-08T11:36:24Z</time>
      </trkpt>
      <trkpt lat="44.04611" lon="1.8659">
        <ele>258.25</ele>
        <time>2018-09-08T11:36:35Z</time>
      </trkpt>
      <trkpt lat="44.04642" lon="1.86616">
        <ele>259.21</ele>
        <time>2018-09-08T11:36:48Z</time>
      </trkpt>
      <trkpt lat="44.0466" lon="1.86639">
        <ele>261.14</ele>
        <time>2018-09-08T11:36:59Z</time>
      </trkpt>
      <trkpt lat="44.04663" lon="1.86683">
        <ele>257.77</ele>
        <time>2018-09-08T11:37:09Z</time>
      </trkpt>
      <trkpt lat="44.04667" lon="1.86691">
        <ele>256.33</ele>
        <time>2018-09-08T11:37:11Z</time>
      </trkpt>
      <trkpt lat="44.04682" lon="1.8669">
        <ele>255.85</ele>
        <time>2018-09-08T11:37:15Z</time>
      </trkpt>
      <trkpt lat="44.04716" lon="1.86676">
        <ele>259.69</ele>
        <time>2018-09-08T11:37:27Z</time>
      </trkpt>
      <trkpt lat="44.04735" lon="1.86662">
        <ele>262.1</ele>
        <time>2018-09-08T11:37:35Z</time>
      </trkpt>
      <trkpt lat="44.04743" lon="1.86662">
        <ele>262.58</ele>
        <time>2018-09-08T11:37:38Z</time>
      </trkpt>
      <trkpt lat="44.04745" lon="1.86664">
        <ele>262.1</ele>
        <time>2018-09-08T11:37:39Z</time>
      </trkpt>
      <trkpt lat="44.04758" lon="1.86699">
        <ele>263.54</ele>
        <time>2018-09-08T11:37:52Z</time>
      </trkpt>
      <trkpt lat="44.04761" lon="1.86708">
        <ele>264.5</ele>
        <time>2018-09-08T11:37:56Z</time>
      </trkpt>
      <trkpt lat="44.04762" lon="1.8671">
        <ele>264.5</ele>
        <time>2018-09-08T11:37:57Z</time>
      </trkpt>
      <trkpt lat="44.04763" lon="1.86712">
        <ele>264.5</ele>
        <time>2018-09-08T11:37:58Z</time>
      </trkpt>
      <trkpt lat="44.04765" lon="1.86716">
        <ele>264.98</ele>
        <time>2018-09-08T11:38:00Z</time>
      </trkpt>
      <trkpt lat="44.04766" lon="1.86718">
        <ele>264.98</ele>
        <time>2018-09-08T11:38:01Z</time>
      </trkpt>
      <trkpt lat="44.04767" lon="1.86721">
        <ele>264.98</ele>
        <time>2018-09-08T11:38:02Z</time>
      </trkpt>
      <trkpt lat="44.0478" lon="1.86749">
        <ele>267.86</ele>
        <time>2018-09-08T11:38:16Z</time>
      </trkpt>
      <trkpt lat="44.04785" lon="1.86762">
        <ele>269.79</ele>
        <time>2018-09-08T11:38:29Z</time>
      </trkpt>
      <trkpt lat="44.0479" lon="1.86785">
        <ele>272.67</ele>
        <time>2018-09-08T11:38:45Z</time>
      </trkpt>
      <trkpt lat="44.04792" lon="1.86805">
        <ele>275.07</ele>
        <time>2018-09-08T11:39:01Z</time>
      </trkpt>
      <trkpt lat="44.04791" lon="1.86824">
        <ele>277</ele>
        <time>2018-09-08T11:39:15Z</time>
      </trkpt>
      <trkpt lat="44.0479" lon="1.86847">
        <ele>279.4</ele>
        <time>2018-09-08T11:39:31Z</time>
      </trkpt>
      <trkpt lat="44.0479" lon="1.86873">
        <ele>282.77</ele>
        <time>2018-09-08T11:39:49Z</time>
      </trkpt>
      <trkpt lat="44.04785" lon="1.869">
        <ele>284.21</ele>
        <time>2018-09-08T11:40:06Z</time>
      </trkpt>
      <trkpt lat="44.04782" lon="1.86909">
        <ele>284.69</ele>
        <time>2018-09-08T11:40:21Z</time>
      </trkpt>
      <trkpt lat="44.04773" lon="1.86946">
        <ele>286.61</ele>
        <time>2018-09-08T11:40:36Z</time>
      </trkpt>
      <trkpt lat="44.04763" lon="1.8698">
        <ele>288.53</ele>
        <time>2018-09-08T11:40:50Z</time>
      </trkpt>
      <trkpt lat="44.0475" lon="1.87016">
        <ele>290.46</ele>
        <time>2018-09-08T11:41:04Z</time>
      </trkpt>
      <trkpt lat="44.04747" lon="1.87073">
        <ele>291.42</ele>
        <time>2018-09-08T11:41:19Z</time>
      </trkpt>
      <trkpt lat="44.04739" lon="1.87147">
        <ele>290.94</ele>
        <time>2018-09-08T11:41:34Z</time>
      </trkpt>
      <trkpt lat="44.0472" lon="1.87224">
        <ele>290.94</ele>
        <time>2018-09-08T11:41:48Z</time>
      </trkpt>
      <trkpt lat="44.04701" lon="1.8731">
        <ele>291.42</ele>
        <time>2018-09-08T11:42:04Z</time>
      </trkpt>
      <trkpt lat="44.04683" lon="1.87373">
        <ele>292.38</ele>
        <time>2018-09-08T11:42:19Z</time>
      </trkpt>
      <trkpt lat="44.04648" lon="1.87478">
        <ele>293.82</ele>
        <time>2018-09-08T11:42:40Z</time>
      </trkpt>
      <trkpt lat="44.04614" lon="1.87563">
        <ele>292.86</ele>
        <time>2018-09-08T11:42:56Z</time>
      </trkpt>
      <trkpt lat="44.04578" lon="1.87639">
        <ele>295.74</ele>
        <time>2018-09-08T11:43:15Z</time>
      </trkpt>
      <trkpt lat="44.04549" lon="1.87701">
        <ele>297.18</ele>
        <time>2018-09-08T11:43:31Z</time>
      </trkpt>
      <trkpt lat="44.04525" lon="1.87753">
        <ele>298.63</ele>
        <time>2018-09-08T11:43:45Z</time>
      </trkpt>
      <trkpt lat="44.04498" lon="1.87815">
        <ele>300.55</ele>
        <time>2018-09-08T11:44:02Z</time>
      </trkpt>
      <trkpt lat="44.04474" lon="1.87859">
        <ele>302.47</ele>
        <time>2018-09-08T11:44:15Z</time>
      </trkpt>
      <trkpt lat="44.04437" lon="1.87904">
        <ele>301.99</ele>
        <time>2018-09-08T11:44:29Z</time>
      </trkpt>
      <trkpt lat="44.04431" lon="1.87913">
        <ele>301.51</ele>
        <time>2018-09-08T11:44:31Z</time>
      </trkpt>
      <trkpt lat="44.04421" lon="1.87931">
        <ele>301.51</ele>
        <time>2018-09-08T11:44:35Z</time>
      </trkpt>
      <trkpt lat="44.04417" lon="1.87935">
        <ele>301.99</ele>
        <time>2018-09-08T11:44:36Z</time>
      </trkpt>
      <trkpt lat="44.04413" lon="1.87937">
        <ele>301.03</ele>
        <time>2018-09-08T11:44:37Z</time>
      </trkpt>
      <trkpt lat="44.04409" lon="1.87937">
        <ele>300.55</ele>
        <time>2018-09-08T11:44:38Z</time>
      </trkpt>
      <trkpt lat="44.04405" lon="1.87937">
        <ele>301.03</ele>
        <time>2018-09-08T11:44:39Z</time>
      </trkpt>
      <trkpt lat="44.04396" lon="1.87935">
        <ele>300.55</ele>
        <time>2018-09-08T11:44:41Z</time>
      </trkpt>
      <trkpt lat="44.04392" lon="1.87933">
        <ele>301.03</ele>
        <time>2018-09-08T11:44:42Z</time>
      </trkpt>
      <trkpt lat="44.04387" lon="1.87932">
        <ele>300.55</ele>
        <time>2018-09-08T11:44:43Z</time>
      </trkpt>
      <trkpt lat="44.04375" lon="1.87927">
        <ele>300.55</ele>
        <time>2018-09-08T11:44:46Z</time>
      </trkpt>
      <trkpt lat="44.04371" lon="1.87926">
        <ele>300.55</ele>
        <time>2018-09-08T11:44:47Z</time>
      </trkpt>
      <trkpt lat="44.04354" lon="1.87924">
        <ele>300.55</ele>
        <time>2018-09-08T11:44:53Z</time>
      </trkpt>
      <trkpt lat="44.04353" lon="1.87927">
        <ele>300.07</ele>
        <time>2018-09-08T11:44:54Z</time>
      </trkpt>
      <trkpt lat="44.04353" lon="1.87932">
        <ele>300.07</ele>
        <time>2018-09-08T11:44:55Z</time>
      </trkpt>
      <trkpt lat="44.04353" lon="1.87936">
        <ele>301.03</ele>
        <time>2018-09-08T11:44:56Z</time>
      </trkpt>
      <trkpt lat="44.04354" lon="1.87942">
        <ele>300.55</ele>
        <time>2018-09-08T11:44:57Z</time>
      </trkpt>
      <trkpt lat="44.04361" lon="1.8803">
        <ele>299.59</ele>
        <time>2018-09-08T11:45:10Z</time>
      </trkpt>
      <trkpt lat="44.04369" lon="1.88087">
        <ele>297.18</ele>
        <time>2018-09-08T11:45:20Z</time>
      </trkpt>
      <trkpt lat="44.04382" lon="1.88151">
        <ele>298.63</ele>
        <time>2018-09-08T11:45:33Z</time>
      </trkpt>
      <trkpt lat="44.04399" lon="1.88228">
        <ele>297.67</ele>
        <time>2018-09-08T11:45:45Z</time>
      </trkpt>
      <trkpt lat="44.04425" lon="1.88354">
        <ele>298.15</ele>
        <time>2018-09-08T11:46:04Z</time>
      </trkpt>
      <trkpt lat="44.04442" lon="1.88435">
        <ele>298.15</ele>
        <time>2018-09-08T11:46:17Z</time>
      </trkpt>
      <trkpt lat="44.04444" lon="1.88441">
        <ele>296.7</ele>
        <time>2018-09-08T11:46:18Z</time>
      </trkpt>
      <trkpt lat="44.04446" lon="1.88447">
        <ele>297.67</ele>
        <time>2018-09-08T11:46:19Z</time>
      </trkpt>
      <trkpt lat="44.04449" lon="1.88453">
        <ele>296.7</ele>
        <time>2018-09-08T11:46:20Z</time>
      </trkpt>
      <trkpt lat="44.04453" lon="1.88457">
        <ele>296.7</ele>
        <time>2018-09-08T11:46:21Z</time>
      </trkpt>
      <trkpt lat="44.04458" lon="1.88459">
        <ele>295.74</ele>
        <time>2018-09-08T11:46:22Z</time>
      </trkpt>
      <trkpt lat="44.04464" lon="1.8846">
        <ele>295.26</ele>
        <time>2018-09-08T11:46:23Z</time>
      </trkpt>
      <trkpt lat="44.0447" lon="1.88461">
        <ele>295.26</ele>
        <time>2018-09-08T11:46:24Z</time>
      </trkpt>
      <trkpt lat="44.04502" lon="1.88459">
        <ele>295.26</ele>
        <time>2018-09-08T11:46:30Z</time>
      </trkpt>
      <trkpt lat="44.04508" lon="1.88461">
        <ele>294.3</ele>
        <time>2018-09-08T11:46:31Z</time>
      </trkpt>
      <trkpt lat="44.04513" lon="1.88463">
        <ele>294.78</ele>
        <time>2018-09-08T11:46:32Z</time>
      </trkpt>
      <trkpt lat="44.04519" lon="1.88463">
        <ele>294.78</ele>
        <time>2018-09-08T11:46:33Z</time>
      </trkpt>
      <trkpt lat="44.04525" lon="1.88464">
        <ele>294.3</ele>
        <time>2018-09-08T11:46:34Z</time>
      </trkpt>
      <trkpt lat="44.04547" lon="1.88469">
        <ele>293.82</ele>
        <time>2018-09-08T11:46:38Z</time>
      </trkpt>
      <trkpt lat="44.04552" lon="1.88471">
        <ele>293.82</ele>
        <time>2018-09-08T11:46:39Z</time>
      </trkpt>
      <trkpt lat="44.04557" lon="1.88474">
        <ele>293.82</ele>
        <time>2018-09-08T11:46:40Z</time>
      </trkpt>
      <trkpt lat="44.04567" lon="1.88481">
        <ele>294.3</ele>
        <time>2018-09-08T11:46:42Z</time>
      </trkpt>
      <trkpt lat="44.04624" lon="1.8852">
        <ele>292.38</ele>
        <time>2018-09-08T11:46:54Z</time>
      </trkpt>
      <trkpt lat="44.04651" lon="1.88544">
        <ele>291.42</ele>
        <time>2018-09-08T11:46:59Z</time>
      </trkpt>
      <trkpt lat="44.04662" lon="1.88557">
        <ele>291.42</ele>
        <time>2018-09-08T11:47:01Z</time>
      </trkpt>
      <trkpt lat="44.04725" lon="1.88606">
        <ele>288.05</ele>
        <time>2018-09-08T11:47:12Z</time>
      </trkpt>
      <trkpt lat="44.04736" lon="1.88612">
        <ele>288.53</ele>
        <time>2018-09-08T11:47:14Z</time>
      </trkpt>
      <trkpt lat="44.04742" lon="1.88614">
        <ele>287.57</ele>
        <time>2018-09-08T11:47:15Z</time>
      </trkpt>
      <trkpt lat="44.04748" lon="1.88616">
        <ele>287.09</ele>
        <time>2018-09-08T11:47:16Z</time>
      </trkpt>
      <trkpt lat="44.04826" lon="1.88625">
        <ele>283.73</ele>
        <time>2018-09-08T11:47:29Z</time>
      </trkpt>
      <trkpt lat="44.04836" lon="1.8863">
        <ele>283.25</ele>
        <time>2018-09-08T11:47:32Z</time>
      </trkpt>
      <trkpt lat="44.04837" lon="1.88634">
        <ele>283.25</ele>
        <time>2018-09-08T11:47:33Z</time>
      </trkpt>
      <trkpt lat="44.04836" lon="1.88639">
        <ele>283.25</ele>
        <time>2018-09-08T11:47:34Z</time>
      </trkpt>
      <trkpt lat="44.04835" lon="1.88643">
        <ele>282.77</ele>
        <time>2018-09-08T11:47:35Z</time>
      </trkpt>
      <trkpt lat="44.04833" lon="1.88646">
        <ele>283.25</ele>
        <time>2018-09-08T11:47:36Z</time>
      </trkpt>
      <trkpt lat="44.0483" lon="1.88649">
        <ele>282.77</ele>
        <time>2018-09-08T11:47:37Z</time>
      </trkpt>
      <trkpt lat="44.04793" lon="1.88724">
        <ele>284.69</ele>
        <time>2018-09-08T11:47:52Z</time>
      </trkpt>
      <trkpt lat="44.04751" lon="1.88811">
        <ele>284.69</ele>
        <time>2018-09-08T11:48:10Z</time>
      </trkpt>
      <trkpt lat="44.04717" lon="1.88878">
        <ele>282.28</ele>
        <time>2018-09-08T11:48:22Z</time>
      </trkpt>
      <trkpt lat="44.04715" lon="1.88886">
        <ele>282.28</ele>
        <time>2018-09-08T11:48:23Z</time>
      </trkpt>
      <trkpt lat="44.04713" lon="1.88894">
        <ele>281.32</ele>
        <time>2018-09-08T11:48:24Z</time>
      </trkpt>
      <trkpt lat="44.04709" lon="1.88901">
        <ele>281.32</ele>
        <time>2018-09-08T11:48:25Z</time>
      </trkpt>
      <trkpt lat="44.04705" lon="1.88909">
        <ele>280.84</ele>
        <time>2018-09-08T11:48:26Z</time>
      </trkpt>
      <trkpt lat="44.0469" lon="1.88939">
        <ele>277.48</ele>
        <time>2018-09-08T11:48:30Z</time>
      </trkpt>
      <trkpt lat="44.04687" lon="1.88946">
        <ele>277.48</ele>
        <time>2018-09-08T11:48:31Z</time>
      </trkpt>
      <trkpt lat="44.04685" lon="1.88952">
        <ele>275.56</ele>
        <time>2018-09-08T11:48:32Z</time>
      </trkpt>
      <trkpt lat="44.04684" lon="1.88958">
        <ele>275.56</ele>
        <time>2018-09-08T11:48:33Z</time>
      </trkpt>
      <trkpt lat="44.04685" lon="1.88964">
        <ele>275.07</ele>
        <time>2018-09-08T11:48:34Z</time>
      </trkpt>
      <trkpt lat="44.04686" lon="1.88971">
        <ele>275.07</ele>
        <time>2018-09-08T11:48:35Z</time>
      </trkpt>
      <trkpt lat="44.04688" lon="1.88978">
        <ele>274.11</ele>
        <time>2018-09-08T11:48:36Z</time>
      </trkpt>
      <trkpt lat="44.04691" lon="1.88983">
        <ele>273.63</ele>
        <time>2018-09-08T11:48:37Z</time>
      </trkpt>
      <trkpt lat="44.04694" lon="1.88989">
        <ele>274.11</ele>
        <time>2018-09-08T11:48:38Z</time>
      </trkpt>
      <trkpt lat="44.04704" lon="1.89006">
        <ele>272.19</ele>
        <time>2018-09-08T11:48:42Z</time>
      </trkpt>
      <trkpt lat="44.04704" lon="1.8901">
        <ele>272.19</ele>
        <time>2018-09-08T11:48:43Z</time>
      </trkpt>
      <trkpt lat="44.04703" lon="1.89013">
        <ele>270.75</ele>
        <time>2018-09-08T11:48:44Z</time>
      </trkpt>
      <trkpt lat="44.04701" lon="1.89014">
        <ele>269.79</ele>
        <time>2018-09-08T11:48:45Z</time>
      </trkpt>
      <trkpt lat="44.04699" lon="1.89014">
        <ele>268.83</ele>
        <time>2018-09-08T11:48:46Z</time>
      </trkpt>
      <trkpt lat="44.04697" lon="1.89012">
        <ele>269.79</ele>
        <time>2018-09-08T11:48:47Z</time>
      </trkpt>
      <trkpt lat="44.04694" lon="1.89009">
        <ele>268.83</ele>
        <time>2018-09-08T11:48:48Z</time>
      </trkpt>
      <trkpt lat="44.04691" lon="1.89006">
        <ele>268.83</ele>
        <time>2018-09-08T11:48:49Z</time>
      </trkpt>
      <trkpt lat="44.04663" lon="1.88984">
        <ele>267.86</ele>
        <time>2018-09-08T11:48:56Z</time>
      </trkpt>
      <trkpt lat="44.04657" lon="1.88983">
        <ele>268.83</ele>
        <time>2018-09-08T11:48:57Z</time>
      </trkpt>
      <trkpt lat="44.04651" lon="1.88984">
        <ele>267.86</ele>
        <time>2018-09-08T11:48:58Z</time>
      </trkpt>
      <trkpt lat="44.04645" lon="1.88987">
        <ele>267.86</ele>
        <time>2018-09-08T11:48:59Z</time>
      </trkpt>
      <trkpt lat="44.0464" lon="1.88992">
        <ele>267.86</ele>
        <time>2018-09-08T11:49:00Z</time>
      </trkpt>
      <trkpt lat="44.04636" lon="1.88997">
        <ele>267.38</ele>
        <time>2018-09-08T11:49:01Z</time>
      </trkpt>
      <trkpt lat="44.04632" lon="1.89003">
        <ele>267.86</ele>
        <time>2018-09-08T11:49:02Z</time>
      </trkpt>
      <trkpt lat="44.04626" lon="1.89013">
        <ele>267.86</ele>
        <time>2018-09-08T11:49:04Z</time>
      </trkpt>
      <trkpt lat="44.04624" lon="1.89018">
        <ele>268.35</ele>
        <time>2018-09-08T11:49:05Z</time>
      </trkpt>
      <trkpt lat="44.04623" lon="1.89023">
        <ele>268.35</ele>
        <time>2018-09-08T11:49:06Z</time>
      </trkpt>
      <trkpt lat="44.04623" lon="1.89029">
        <ele>267.86</ele>
        <time>2018-09-08T11:49:07Z</time>
      </trkpt>
      <trkpt lat="44.04623" lon="1.89035">
        <ele>267.38</ele>
        <time>2018-09-08T11:49:08Z</time>
      </trkpt>
      <trkpt lat="44.04623" lon="1.89041">
        <ele>268.35</ele>
        <time>2018-09-08T11:49:09Z</time>
      </trkpt>
      <trkpt lat="44.04618" lon="1.89087">
        <ele>269.79</ele>
        <time>2018-09-08T11:49:17Z</time>
      </trkpt>
      <trkpt lat="44.04616" lon="1.89092">
        <ele>270.27</ele>
        <time>2018-09-08T11:49:18Z</time>
      </trkpt>
      <trkpt lat="44.04577" lon="1.89178">
        <ele>271.71</ele>
        <time>2018-09-08T11:49:37Z</time>
      </trkpt>
      <trkpt lat="44.04528" lon="1.89221">
        <ele>273.63</ele>
        <time>2018-09-08T11:49:52Z</time>
      </trkpt>
      <trkpt lat="44.04524" lon="1.89226">
        <ele>273.63</ele>
        <time>2018-09-08T11:49:53Z</time>
      </trkpt>
      <trkpt lat="44.0449" lon="1.89305">
        <ele>270.75</ele>
        <time>2018-09-08T11:50:03Z</time>
      </trkpt>
      <trkpt lat="44.04474" lon="1.8935">
        <ele>270.75</ele>
        <time>2018-09-08T11:50:08Z</time>
      </trkpt>
      <trkpt lat="44.0447" lon="1.89356">
        <ele>270.27</ele>
        <time>2018-09-08T11:50:09Z</time>
      </trkpt>
      <trkpt lat="44.04466" lon="1.89362">
        <ele>270.75</ele>
        <time>2018-09-08T11:50:10Z</time>
      </trkpt>
      <trkpt lat="44.04462" lon="1.89367">
        <ele>270.27</ele>
        <time>2018-09-08T11:50:11Z</time>
      </trkpt>
      <trkpt lat="44.04458" lon="1.89372">
        <ele>271.71</ele>
        <time>2018-09-08T11:50:12Z</time>
      </trkpt>
      <trkpt lat="44.04454" lon="1.89377">
        <ele>271.23</ele>
        <time>2018-09-08T11:50:13Z</time>
      </trkpt>
      <trkpt lat="44.04422" lon="1.89431">
        <ele>274.11</ele>
        <time>2018-09-08T11:50:25Z</time>
      </trkpt>
      <trkpt lat="44.04391" lon="1.89464">
        <ele>274.59</ele>
        <time>2018-09-08T11:50:39Z</time>
      </trkpt>
      <trkpt lat="44.04375" lon="1.89479">
        <ele>275.07</ele>
        <time>2018-09-08T11:50:48Z</time>
      </trkpt>
      <trkpt lat="44.04333" lon="1.89513">
        <ele>274.59</ele>
        <time>2018-09-08T11:50:58Z</time>
      </trkpt>
      <trkpt lat="44.04327" lon="1.89515">
        <ele>273.63</ele>
        <time>2018-09-08T11:50:59Z</time>
      </trkpt>
      <trkpt lat="44.0432" lon="1.89513">
        <ele>273.15</ele>
        <time>2018-09-08T11:51:00Z</time>
      </trkpt>
      <trkpt lat="44.04314" lon="1.89509">
        <ele>272.67</ele>
        <time>2018-09-08T11:51:01Z</time>
      </trkpt>
      <trkpt lat="44.04308" lon="1.89502">
        <ele>272.19</ele>
        <time>2018-09-08T11:51:02Z</time>
      </trkpt>
      <trkpt lat="44.04304" lon="1.89495">
        <ele>271.71</ele>
        <time>2018-09-08T11:51:03Z</time>
      </trkpt>
      <trkpt lat="44.04298" lon="1.89485">
        <ele>271.23</ele>
        <time>2018-09-08T11:51:23Z</time>
      </trkpt>
      <trkpt lat="44.043" lon="1.8949">
        <ele>271.71</ele>
        <time>2018-09-08T11:51:24Z</time>
      </trkpt>
      <trkpt lat="44.043" lon="1.89493">
        <ele>270.75</ele>
        <time>2018-09-08T11:51:25Z</time>
      </trkpt>
      <trkpt lat="44.04306" lon="1.89524">
        <ele>270.27</ele>
        <time>2018-09-08T11:51:31Z</time>
      </trkpt>
      <trkpt lat="44.04308" lon="1.89537">
        <ele>269.31</ele>
        <time>2018-09-08T11:51:33Z</time>
      </trkpt>
      <trkpt lat="44.04308" lon="1.8955">
        <ele>268.35</ele>
        <time>2018-09-08T11:51:35Z</time>
      </trkpt>
      <trkpt lat="44.04309" lon="1.89559">
        <ele>266.9</ele>
        <time>2018-09-08T11:51:36Z</time>
      </trkpt>
      <trkpt lat="44.04308" lon="1.8958">
        <ele>263.06</ele>
        <time>2018-09-08T11:51:39Z</time>
      </trkpt>
      <trkpt lat="44.04294" lon="1.89594">
        <ele>260.17</ele>
        <time>2018-09-08T11:51:44Z</time>
      </trkpt>
      <trkpt lat="44.04275" lon="1.89595">
        <ele>259.21</ele>
        <time>2018-09-08T11:51:48Z</time>
      </trkpt>
      <trkpt lat="44.04271" lon="1.89597">
        <ele>258.73</ele>
        <time>2018-09-08T11:51:49Z</time>
      </trkpt>
      <trkpt lat="44.04262" lon="1.89601">
        <ele>260.17</ele>
        <time>2018-09-08T11:51:51Z</time>
      </trkpt>
      <trkpt lat="44.04258" lon="1.89602">
        <ele>260.65</ele>
        <time>2018-09-08T11:51:52Z</time>
      </trkpt>
      <trkpt lat="44.04255" lon="1.89603">
        <ele>260.65</ele>
        <time>2018-09-08T11:51:53Z</time>
      </trkpt>
      <trkpt lat="44.04223" lon="1.89626">
        <ele>263.06</ele>
        <time>2018-09-08T11:52:04Z</time>
      </trkpt>
      <trkpt lat="44.04205" lon="1.89673">
        <ele>265.46</ele>
        <time>2018-09-08T11:52:16Z</time>
      </trkpt>
      <trkpt lat="44.04186" lon="1.8969">
        <ele>268.83</ele>
        <time>2018-09-08T11:52:25Z</time>
      </trkpt>
      <trkpt lat="44.04181" lon="1.89727">
        <ele>270.75</ele>
        <time>2018-09-08T11:52:36Z</time>
      </trkpt>
      <trkpt lat="44.04171" lon="1.89767">
        <ele>273.15</ele>
        <time>2018-09-08T11:52:48Z</time>
      </trkpt>
      <trkpt lat="44.04134" lon="1.89763">
        <ele>274.59</ele>
        <time>2018-09-08T11:53:01Z</time>
      </trkpt>
      <trkpt lat="44.04095" lon="1.89761">
        <ele>276.52</ele>
        <time>2018-09-08T11:53:15Z</time>
      </trkpt>
      <trkpt lat="44.04045" lon="1.89781">
        <ele>277.48</ele>
        <time>2018-09-08T11:53:30Z</time>
      </trkpt>
      <trkpt lat="44.03972" lon="1.89815">
        <ele>278.92</ele>
        <time>2018-09-08T11:53:49Z</time>
      </trkpt>
      <trkpt lat="44.03948" lon="1.89828">
        <ele>279.88</ele>
        <time>2018-09-08T11:53:56Z</time>
      </trkpt>
      <trkpt lat="44.03947" lon="1.89832">
        <ele>279.4</ele>
        <time>2018-09-08T11:53:57Z</time>
      </trkpt>
      <trkpt lat="44.03947" lon="1.89838">
        <ele>279.88</ele>
        <time>2018-09-08T11:53:58Z</time>
      </trkpt>
      <trkpt lat="44.03948" lon="1.89844">
        <ele>279.88</ele>
        <time>2018-09-08T11:53:59Z</time>
      </trkpt>
      <trkpt lat="44.03948" lon="1.89849">
        <ele>279.88</ele>
        <time>2018-09-08T11:54:00Z</time>
      </trkpt>
      <trkpt lat="44.03949" lon="1.89855">
        <ele>279.88</ele>
        <time>2018-09-08T11:54:01Z</time>
      </trkpt>
      <trkpt lat="44.03949" lon="1.89861">
        <ele>279.88</ele>
        <time>2018-09-08T11:54:02Z</time>
      </trkpt>
      <trkpt lat="44.03949" lon="1.89868">
        <ele>279.88</ele>
        <time>2018-09-08T11:54:03Z</time>
      </trkpt>
      <trkpt lat="44.03949" lon="1.89874">
        <ele>278.92</ele>
        <time>2018-09-08T11:54:04Z</time>
      </trkpt>
      <trkpt lat="44.03949" lon="1.89912">
        <ele>278.44</ele>
        <time>2018-09-08T11:54:10Z</time>
      </trkpt>
      <trkpt lat="44.03948" lon="1.89926">
        <ele>277.48</ele>
        <time>2018-09-08T11:54:12Z</time>
      </trkpt>
      <trkpt lat="44.03947" lon="1.89933">
        <ele>277.48</ele>
        <time>2018-09-08T11:54:13Z</time>
      </trkpt>
      <trkpt lat="44.03945" lon="1.89951">
        <ele>276.04</ele>
        <time>2018-09-08T11:54:15Z</time>
      </trkpt>
      <trkpt lat="44.03945" lon="1.89962">
        <ele>275.07</ele>
        <time>2018-09-08T11:54:16Z</time>
      </trkpt>
      <trkpt lat="44.03946" lon="1.89973">
        <ele>275.07</ele>
        <time>2018-09-08T11:54:17Z</time>
      </trkpt>
      <trkpt lat="44.03948" lon="1.89985">
        <ele>273.63</ele>
        <time>2018-09-08T11:54:18Z</time>
      </trkpt>
      <trkpt lat="44.03951" lon="1.89996">
        <ele>272.19</ele>
        <time>2018-09-08T11:54:19Z</time>
      </trkpt>
      <trkpt lat="44.03954" lon="1.90007">
        <ele>270.75</ele>
        <time>2018-09-08T11:54:20Z</time>
      </trkpt>
      <trkpt lat="44.03958" lon="1.90016">
        <ele>269.79</ele>
        <time>2018-09-08T11:54:21Z</time>
      </trkpt>
      <trkpt lat="44.03964" lon="1.90025">
        <ele>268.83</ele>
        <time>2018-09-08T11:54:22Z</time>
      </trkpt>
      <trkpt lat="44.0397" lon="1.90032">
        <ele>268.83</ele>
        <time>2018-09-08T11:54:23Z</time>
      </trkpt>
      <trkpt lat="44.03976" lon="1.90038">
        <ele>268.35</ele>
        <time>2018-09-08T11:54:24Z</time>
      </trkpt>
      <trkpt lat="44.03983" lon="1.90042">
        <ele>268.35</ele>
        <time>2018-09-08T11:54:25Z</time>
      </trkpt>
      <trkpt lat="44.03989" lon="1.90046">
        <ele>268.35</ele>
        <time>2018-09-08T11:54:26Z</time>
      </trkpt>
      <trkpt lat="44.04013" lon="1.90058">
        <ele>266.42</ele>
        <time>2018-09-08T11:54:30Z</time>
      </trkpt>
      <trkpt lat="44.04018" lon="1.90062">
        <ele>266.42</ele>
        <time>2018-09-08T11:54:31Z</time>
      </trkpt>
      <trkpt lat="44.04022" lon="1.90066">
        <ele>266.42</ele>
        <time>2018-09-08T11:54:32Z</time>
      </trkpt>
      <trkpt lat="44.04023" lon="1.90071">
        <ele>265.94</ele>
        <time>2018-09-08T11:54:33Z</time>
      </trkpt>
      <trkpt lat="44.04023" lon="1.90076">
        <ele>265.46</ele>
        <time>2018-09-08T11:54:34Z</time>
      </trkpt>
      <trkpt lat="44.04023" lon="1.90082">
        <ele>264.98</ele>
        <time>2018-09-08T11:54:35Z</time>
      </trkpt>
      <trkpt lat="44.04024" lon="1.90088">
        <ele>264.02</ele>
        <time>2018-09-08T11:54:36Z</time>
      </trkpt>
      <trkpt lat="44.04027" lon="1.90094">
        <ele>263.54</ele>
        <time>2018-09-08T11:54:37Z</time>
      </trkpt>
      <trkpt lat="44.04031" lon="1.90099">
        <ele>263.06</ele>
        <time>2018-09-08T11:54:38Z</time>
      </trkpt>
      <trkpt lat="44.04038" lon="1.90112">
        <ele>262.1</ele>
        <time>2018-09-08T11:54:40Z</time>
      </trkpt>
      <trkpt lat="44.04042" lon="1.90119">
        <ele>262.1</ele>
        <time>2018-09-08T11:54:41Z</time>
      </trkpt>
      <trkpt lat="44.04045" lon="1.90127">
        <ele>261.62</ele>
        <time>2018-09-08T11:54:42Z</time>
      </trkpt>
      <trkpt lat="44.04048" lon="1.90135">
        <ele>261.62</ele>
        <time>2018-09-08T11:54:43Z</time>
      </trkpt>
      <trkpt lat="44.04051" lon="1.90144">
        <ele>261.14</ele>
        <time>2018-09-08T11:54:44Z</time>
      </trkpt>
      <trkpt lat="44.04058" lon="1.90166">
        <ele>257.77</ele>
        <time>2018-09-08T11:54:48Z</time>
      </trkpt>
      <trkpt lat="44.04057" lon="1.90171">
        <ele>257.77</ele>
        <time>2018-09-08T11:54:49Z</time>
      </trkpt>
      <trkpt lat="44.04055" lon="1.90176">
        <ele>257.29</ele>
        <time>2018-09-08T11:54:50Z</time>
      </trkpt>
      <trkpt lat="44.04052" lon="1.90182">
        <ele>256.81</ele>
        <time>2018-09-08T11:54:51Z</time>
      </trkpt>
      <trkpt lat="44.0405" lon="1.90186">
        <ele>257.29</ele>
        <time>2018-09-08T11:54:52Z</time>
      </trkpt>
      <trkpt lat="44.04047" lon="1.90189">
        <ele>257.29</ele>
        <time>2018-09-08T11:54:53Z</time>
      </trkpt>
      <trkpt lat="44.04045" lon="1.90192">
        <ele>257.29</ele>
        <time>2018-09-08T11:54:54Z</time>
      </trkpt>
      <trkpt lat="44.04044" lon="1.90194">
        <ele>257.29</ele>
        <time>2018-09-08T11:54:55Z</time>
      </trkpt>
      <trkpt lat="44.04037" lon="1.90201">
        <ele>259.21</ele>
        <time>2018-09-08T11:55:00Z</time>
      </trkpt>
      <trkpt lat="44.04028" lon="1.90218">
        <ele>262.58</ele>
        <time>2018-09-08T11:55:10Z</time>
      </trkpt>
      <trkpt lat="44.04034" lon="1.90255">
        <ele>263.06</ele>
        <time>2018-09-08T11:55:23Z</time>
      </trkpt>
      <trkpt lat="44.04025" lon="1.90306">
        <ele>264.98</ele>
        <time>2018-09-08T11:55:39Z</time>
      </trkpt>
      <trkpt lat="44.04015" lon="1.90378">
        <ele>265.46</ele>
        <time>2018-09-08T11:55:58Z</time>
      </trkpt>
      <trkpt lat="44.04006" lon="1.90466">
        <ele>262.1</ele>
        <time>2018-09-08T11:56:10Z</time>
      </trkpt>
      <trkpt lat="44.04005" lon="1.90475">
        <ele>262.1</ele>
        <time>2018-09-08T11:56:11Z</time>
      </trkpt>
      <trkpt lat="44.04003" lon="1.90512">
        <ele>263.06</ele>
        <time>2018-09-08T11:56:18Z</time>
      </trkpt>
      <trkpt lat="44.03983" lon="1.9055">
        <ele>264.02</ele>
        <time>2018-09-08T11:56:29Z</time>
      </trkpt>
      <trkpt lat="44.03934" lon="1.90586">
        <ele>264.5</ele>
        <time>2018-09-08T11:56:45Z</time>
      </trkpt>
      <trkpt lat="44.03885" lon="1.90581">
        <ele>265.94</ele>
        <time>2018-09-08T11:57:01Z</time>
      </trkpt>
      <trkpt lat="44.03834" lon="1.90592">
        <ele>265.46</ele>
        <time>2018-09-08T12:02:37Z</time>
      </trkpt>
      <trkpt lat="44.03834" lon="1.90601">
        <ele>264.02</ele>
        <time>2018-09-08T12:02:38Z</time>
      </trkpt>
      <trkpt lat="44.03833" lon="1.90611">
        <ele>263.54</ele>
        <time>2018-09-08T12:02:39Z</time>
      </trkpt>
      <trkpt lat="44.0383" lon="1.9062">
        <ele>262.1</ele>
        <time>2018-09-08T12:02:40Z</time>
      </trkpt>
      <trkpt lat="44.03828" lon="1.90628">
        <ele>263.06</ele>
        <time>2018-09-08T12:02:41Z</time>
      </trkpt>
      <trkpt lat="44.03827" lon="1.90635">
        <ele>263.54</ele>
        <time>2018-09-08T12:02:42Z</time>
      </trkpt>
      <trkpt lat="44.03829" lon="1.90642">
        <ele>263.54</ele>
        <time>2018-09-08T12:02:43Z</time>
      </trkpt>
      <trkpt lat="44.03831" lon="1.90646">
        <ele>263.54</ele>
        <time>2018-09-08T12:02:44Z</time>
      </trkpt>
      <trkpt lat="44.03834" lon="1.90649">
        <ele>264.02</ele>
        <time>2018-09-08T12:02:45Z</time>
      </trkpt>
      <trkpt lat="44.03837" lon="1.90651">
        <ele>264.02</ele>
        <time>2018-09-08T12:02:46Z</time>
      </trkpt>
      <trkpt lat="44.03839" lon="1.90652">
        <ele>264.5</ele>
        <time>2018-09-08T12:02:47Z</time>
      </trkpt>
      <trkpt lat="44.03842" lon="1.90653">
        <ele>265.46</ele>
        <time>2018-09-08T12:02:48Z</time>
      </trkpt>
      <trkpt lat="44.03875" lon="1.90672">
        <ele>266.9</ele>
        <time>2018-09-08T12:03:00Z</time>
      </trkpt>
      <trkpt lat="44.03923" lon="1.90714">
        <ele>266.9</ele>
        <time>2018-09-08T12:03:15Z</time>
      </trkpt>
      <trkpt lat="44.03929" lon="1.90761">
        <ele>268.35</ele>
        <time>2018-09-08T12:03:26Z</time>
      </trkpt>
      <trkpt lat="44.03907" lon="1.90851">
        <ele>267.38</ele>
        <time>2018-09-08T12:03:42Z</time>
      </trkpt>
      <trkpt lat="44.03901" lon="1.9088">
        <ele>267.38</ele>
        <time>2018-09-08T12:03:46Z</time>
      </trkpt>
      <trkpt lat="44.03901" lon="1.90888">
        <ele>266.9</ele>
        <time>2018-09-08T12:03:47Z</time>
      </trkpt>
      <trkpt lat="44.03901" lon="1.90895">
        <ele>267.38</ele>
        <time>2018-09-08T12:03:48Z</time>
      </trkpt>
      <trkpt lat="44.03907" lon="1.90982">
        <ele>266.42</ele>
        <time>2018-09-08T12:04:02Z</time>
      </trkpt>
      <trkpt lat="44.03913" lon="1.91018">
        <ele>265.94</ele>
        <time>2018-09-08T12:04:08Z</time>
      </trkpt>
      <trkpt lat="44.03916" lon="1.91023">
        <ele>265.94</ele>
        <time>2018-09-08T12:04:09Z</time>
      </trkpt>
      <trkpt lat="44.03919" lon="1.91028">
        <ele>265.46</ele>
        <time>2018-09-08T12:04:10Z</time>
      </trkpt>
      <trkpt lat="44.03922" lon="1.91033">
        <ele>264.98</ele>
        <time>2018-09-08T12:04:11Z</time>
      </trkpt>
      <trkpt lat="44.03926" lon="1.91038">
        <ele>264.98</ele>
        <time>2018-09-08T12:04:12Z</time>
      </trkpt>
      <trkpt lat="44.03936" lon="1.91049">
        <ele>264.98</ele>
        <time>2018-09-08T12:04:15Z</time>
      </trkpt>
      <trkpt lat="44.03967" lon="1.91082">
        <ele>267.86</ele>
        <time>2018-09-08T12:04:28Z</time>
      </trkpt>
      <trkpt lat="44.03995" lon="1.91113">
        <ele>269.79</ele>
        <time>2018-09-08T12:04:44Z</time>
      </trkpt>
      <trkpt lat="44.03996" lon="1.91122">
        <ele>270.75</ele>
        <time>2018-09-08T12:04:47Z</time>
      </trkpt>
      <trkpt lat="44.03995" lon="1.91124">
        <ele>270.75</ele>
        <time>2018-09-08T12:04:48Z</time>
      </trkpt>
      <trkpt lat="44.03994" lon="1.91127">
        <ele>270.75</ele>
        <time>2018-09-08T12:04:49Z</time>
      </trkpt>
      <trkpt lat="44.03992" lon="1.91129">
        <ele>270.75</ele>
        <time>2018-09-08T12:04:50Z</time>
      </trkpt>
      <trkpt lat="44.0399" lon="1.9113">
        <ele>270.75</ele>
        <time>2018-09-08T12:04:51Z</time>
      </trkpt>
      <trkpt lat="44.03952" lon="1.91172">
        <ele>272.19</ele>
        <time>2018-09-08T12:05:06Z</time>
      </trkpt>
      <trkpt lat="44.03929" lon="1.91195">
        <ele>273.63</ele>
        <time>2018-09-08T12:05:14Z</time>
      </trkpt>
      <trkpt lat="44.03887" lon="1.91249">
        <ele>275.07</ele>
        <time>2018-09-08T12:05:30Z</time>
      </trkpt>
      <trkpt lat="44.03841" lon="1.91315">
        <ele>277</ele>
        <time>2018-09-08T12:05:48Z</time>
      </trkpt>
      <trkpt lat="44.03837" lon="1.91325">
        <ele>277.96</ele>
        <time>2018-09-08T12:05:50Z</time>
      </trkpt>
      <trkpt lat="44.03816" lon="1.91402">
        <ele>278.44</ele>
        <time>2018-09-08T12:06:05Z</time>
      </trkpt>
      <trkpt lat="44.0379" lon="1.91437">
        <ele>278.92</ele>
        <time>2018-09-08T12:06:13Z</time>
      </trkpt>
      <trkpt lat="44.03786" lon="1.9144">
        <ele>277.96</ele>
        <time>2018-09-08T12:06:14Z</time>
      </trkpt>
      <trkpt lat="44.03781" lon="1.91441">
        <ele>278.92</ele>
        <time>2018-09-08T12:06:15Z</time>
      </trkpt>
      <trkpt lat="44.03776" lon="1.91442">
        <ele>278.92</ele>
        <time>2018-09-08T12:06:16Z</time>
      </trkpt>
      <trkpt lat="44.03771" lon="1.91442">
        <ele>278.92</ele>
        <time>2018-09-08T12:06:17Z</time>
      </trkpt>
      <trkpt lat="44.03757" lon="1.91443">
        <ele>278.44</ele>
        <time>2018-09-08T12:06:20Z</time>
      </trkpt>
      <trkpt lat="44.03752" lon="1.91444">
        <ele>277.96</ele>
        <time>2018-09-08T12:06:21Z</time>
      </trkpt>
      <trkpt lat="44.03701" lon="1.91461">
        <ele>275.07</ele>
        <time>2018-09-08T12:06:30Z</time>
      </trkpt>
      <trkpt lat="44.03693" lon="1.91462">
        <ele>275.07</ele>
        <time>2018-09-08T12:06:31Z</time>
      </trkpt>
      <trkpt lat="44.03685" lon="1.91461">
        <ele>274.59</ele>
        <time>2018-09-08T12:06:32Z</time>
      </trkpt>
      <trkpt lat="44.03676" lon="1.9146">
        <ele>274.11</ele>
        <time>2018-09-08T12:06:33Z</time>
      </trkpt>
      <trkpt lat="44.03668" lon="1.91458">
        <ele>273.63</ele>
        <time>2018-09-08T12:06:34Z</time>
      </trkpt>
      <trkpt lat="44.03633" lon="1.91445">
        <ele>272.19</ele>
        <time>2018-09-08T12:06:38Z</time>
      </trkpt>
      <trkpt lat="44.03625" lon="1.91445">
        <ele>271.23</ele>
        <time>2018-09-08T12:06:39Z</time>
      </trkpt>
      <trkpt lat="44.03617" lon="1.91447">
        <ele>270.75</ele>
        <time>2018-09-08T12:06:40Z</time>
      </trkpt>
      <trkpt lat="44.03611" lon="1.91453">
        <ele>269.31</ele>
        <time>2018-09-08T12:06:41Z</time>
      </trkpt>
      <trkpt lat="44.03606" lon="1.91462">
        <ele>267.38</ele>
        <time>2018-09-08T12:06:42Z</time>
      </trkpt>
      <trkpt lat="44.03604" lon="1.91472">
        <ele>267.86</ele>
        <time>2018-09-08T12:06:43Z</time>
      </trkpt>
      <trkpt lat="44.03604" lon="1.91483">
        <ele>266.42</ele>
        <time>2018-09-08T12:06:44Z</time>
      </trkpt>
      <trkpt lat="44.03606" lon="1.91494">
        <ele>266.9</ele>
        <time>2018-09-08T12:06:45Z</time>
      </trkpt>
      <trkpt lat="44.0361" lon="1.91503">
        <ele>266.42</ele>
        <time>2018-09-08T12:06:46Z</time>
      </trkpt>
      <trkpt lat="44.03613" lon="1.9151">
        <ele>265.94</ele>
        <time>2018-09-08T12:06:47Z</time>
      </trkpt>
      <trkpt lat="44.03617" lon="1.91517">
        <ele>265.46</ele>
        <time>2018-09-08T12:06:48Z</time>
      </trkpt>
      <trkpt lat="44.03624" lon="1.91533">
        <ele>264.98</ele>
        <time>2018-09-08T12:06:51Z</time>
      </trkpt>
      <trkpt lat="44.03625" lon="1.91538">
        <ele>264.98</ele>
        <time>2018-09-08T12:06:52Z</time>
      </trkpt>
      <trkpt lat="44.03624" lon="1.91544">
        <ele>264.98</ele>
        <time>2018-09-08T12:06:53Z</time>
      </trkpt>
      <trkpt lat="44.03623" lon="1.91549">
        <ele>265.94</ele>
        <time>2018-09-08T12:06:54Z</time>
      </trkpt>
      <trkpt lat="44.03622" lon="1.91554">
        <ele>265.46</ele>
        <time>2018-09-08T12:06:55Z</time>
      </trkpt>
      <trkpt lat="44.03604" lon="1.91602">
        <ele>268.35</ele>
        <time>2018-09-08T12:07:07Z</time>
      </trkpt>
      <trkpt lat="44.03593" lon="1.91635">
        <ele>270.27</ele>
        <time>2018-09-08T12:07:17Z</time>
      </trkpt>
      <trkpt lat="44.0358" lon="1.91695">
        <ele>272.67</ele>
        <time>2018-09-08T12:07:34Z</time>
      </trkpt>
      <trkpt lat="44.03552" lon="1.91748">
        <ele>274.59</ele>
        <time>2018-09-08T12:07:51Z</time>
      </trkpt>
      <trkpt lat="44.03519" lon="1.91791">
        <ele>276.04</ele>
        <time>2018-09-08T12:08:08Z</time>
      </trkpt>
      <trkpt lat="44.03505" lon="1.91846">
        <ele>277.96</ele>
        <time>2018-09-08T12:08:23Z</time>
      </trkpt>
      <trkpt lat="44.03494" lon="1.9191">
        <ele>278.44</ele>
        <time>2018-09-08T12:09:57Z</time>
      </trkpt>
      <trkpt lat="44.03493" lon="1.91914">
        <ele>278.44</ele>
        <time>2018-09-08T12:09:58Z</time>
      </trkpt>
      <trkpt lat="44.03492" lon="1.91919">
        <ele>278.92</ele>
        <time>2018-09-08T12:09:59Z</time>
      </trkpt>
      <trkpt lat="44.03484" lon="1.91949">
        <ele>278.44</ele>
        <time>2018-09-08T12:10:05Z</time>
      </trkpt>
      <trkpt lat="44.03481" lon="1.91954">
        <ele>278.44</ele>
        <time>2018-09-08T12:10:06Z</time>
      </trkpt>
      <trkpt lat="44.03478" lon="1.91958">
        <ele>277.96</ele>
        <time>2018-09-08T12:10:07Z</time>
      </trkpt>
      <trkpt lat="44.03475" lon="1.91962">
        <ele>277.96</ele>
        <time>2018-09-08T12:10:08Z</time>
      </trkpt>
      <trkpt lat="44.03472" lon="1.91966">
        <ele>277.96</ele>
        <time>2018-09-08T12:10:09Z</time>
      </trkpt>
      <trkpt lat="44.03468" lon="1.9197">
        <ele>277.96</ele>
        <time>2018-09-08T12:10:10Z</time>
      </trkpt>
      <trkpt lat="44.03465" lon="1.91975">
        <ele>278.92</ele>
        <time>2018-09-08T12:10:11Z</time>
      </trkpt>
      <trkpt lat="44.03431" lon="1.9202">
        <ele>275.07</ele>
        <time>2018-09-08T12:10:19Z</time>
      </trkpt>
      <trkpt lat="44.03424" lon="1.92027">
        <ele>274.11</ele>
        <time>2018-09-08T12:10:20Z</time>
      </trkpt>
      <trkpt lat="44.0341" lon="1.92041">
        <ele>272.19</ele>
        <time>2018-09-08T12:10:22Z</time>
      </trkpt>
      <trkpt lat="44.03401" lon="1.92046">
        <ele>271.71</ele>
        <time>2018-09-08T12:10:23Z</time>
      </trkpt>
      <trkpt lat="44.03383" lon="1.92054">
        <ele>268.35</ele>
        <time>2018-09-08T12:10:25Z</time>
      </trkpt>
      <trkpt lat="44.03375" lon="1.92056">
        <ele>267.38</ele>
        <time>2018-09-08T12:10:26Z</time>
      </trkpt>
      <trkpt lat="44.03368" lon="1.92059">
        <ele>266.9</ele>
        <time>2018-09-08T12:10:27Z</time>
      </trkpt>
      <trkpt lat="44.03361" lon="1.92064">
        <ele>266.42</ele>
        <time>2018-09-08T12:10:28Z</time>
      </trkpt>
      <trkpt lat="44.03355" lon="1.92071">
        <ele>265.46</ele>
        <time>2018-09-08T12:10:29Z</time>
      </trkpt>
      <trkpt lat="44.0335" lon="1.92078">
        <ele>265.94</ele>
        <time>2018-09-08T12:10:30Z</time>
      </trkpt>
      <trkpt lat="44.03345" lon="1.92084">
        <ele>265.46</ele>
        <time>2018-09-08T12:10:31Z</time>
      </trkpt>
      <trkpt lat="44.03341" lon="1.92091">
        <ele>265.94</ele>
        <time>2018-09-08T12:10:32Z</time>
      </trkpt>
      <trkpt lat="44.03309" lon="1.9214">
        <ele>266.42</ele>
        <time>2018-09-08T12:10:43Z</time>
      </trkpt>
      <trkpt lat="44.03271" lon="1.92176">
        <ele>269.79</ele>
        <time>2018-09-08T12:11:00Z</time>
      </trkpt>
      <trkpt lat="44.03244" lon="1.92202">
        <ele>271.23</ele>
        <time>2018-09-08T12:11:15Z</time>
      </trkpt>
      <trkpt lat="44.03219" lon="1.92232">
        <ele>273.15</ele>
        <time>2018-09-08T12:11:30Z</time>
      </trkpt>
      <trkpt lat="44.03197" lon="1.92264">
        <ele>276.04</ele>
        <time>2018-09-08T12:11:44Z</time>
      </trkpt>
      <trkpt lat="44.03183" lon="1.92306">
        <ele>278.44</ele>
        <time>2018-09-08T12:11:58Z</time>
      </trkpt>
      <trkpt lat="44.03163" lon="1.92363">
        <ele>280.36</ele>
        <time>2018-09-08T12:12:15Z</time>
      </trkpt>
      <trkpt lat="44.03142" lon="1.9245">
        <ele>281.32</ele>
        <time>2018-09-08T12:12:35Z</time>
      </trkpt>
      <trkpt lat="44.03123" lon="1.92526">
        <ele>283.25</ele>
        <time>2018-09-08T12:12:53Z</time>
      </trkpt>
      <trkpt lat="44.03103" lon="1.92594">
        <ele>284.21</ele>
        <time>2018-09-08T12:13:09Z</time>
      </trkpt>
      <trkpt lat="44.031" lon="1.92605">
        <ele>284.69</ele>
        <time>2018-09-08T12:13:11Z</time>
      </trkpt>
      <trkpt lat="44.03091" lon="1.92639">
        <ele>284.21</ele>
        <time>2018-09-08T12:13:17Z</time>
      </trkpt>
      <trkpt lat="44.03061" lon="1.92754">
        <ele>285.17</ele>
        <time>2018-09-08T12:13:36Z</time>
      </trkpt>
      <trkpt lat="44.03041" lon="1.92804">
        <ele>285.17</ele>
        <time>2018-09-08T12:13:45Z</time>
      </trkpt>
      <trkpt lat="44.03039" lon="1.9281">
        <ele>285.17</ele>
        <time>2018-09-08T12:13:46Z</time>
      </trkpt>
      <trkpt lat="44.03039" lon="1.92817">
        <ele>285.17</ele>
        <time>2018-09-08T12:13:47Z</time>
      </trkpt>
      <trkpt lat="44.03039" lon="1.92823">
        <ele>285.17</ele>
        <time>2018-09-08T12:13:48Z</time>
      </trkpt>
      <trkpt lat="44.0304" lon="1.9283">
        <ele>285.17</ele>
        <time>2018-09-08T12:13:49Z</time>
      </trkpt>
      <trkpt lat="44.03044" lon="1.92871">
        <ele>285.17</ele>
        <time>2018-09-08T12:13:55Z</time>
      </trkpt>
      <trkpt lat="44.03043" lon="1.92885">
        <ele>284.21</ele>
        <time>2018-09-08T12:13:57Z</time>
      </trkpt>
      <trkpt lat="44.03041" lon="1.92892">
        <ele>284.21</ele>
        <time>2018-09-08T12:13:58Z</time>
      </trkpt>
      <trkpt lat="44.03039" lon="1.92898">
        <ele>284.21</ele>
        <time>2018-09-08T12:13:59Z</time>
      </trkpt>
      <trkpt lat="44.03036" lon="1.92905">
        <ele>283.73</ele>
        <time>2018-09-08T12:14:00Z</time>
      </trkpt>
      <trkpt lat="44.03033" lon="1.9291">
        <ele>284.21</ele>
        <time>2018-09-08T12:14:01Z</time>
      </trkpt>
      <trkpt lat="44.03029" lon="1.92916">
        <ele>284.69</ele>
        <time>2018-09-08T12:14:02Z</time>
      </trkpt>
      <trkpt lat="44.03025" lon="1.92921">
        <ele>285.17</ele>
        <time>2018-09-08T12:14:03Z</time>
      </trkpt>
      <trkpt lat="44.03021" lon="1.92926">
        <ele>284.21</ele>
        <time>2018-09-08T12:14:04Z</time>
      </trkpt>
      <trkpt lat="44.03016" lon="1.92931">
        <ele>284.21</ele>
        <time>2018-09-08T12:14:05Z</time>
      </trkpt>
      <trkpt lat="44.03012" lon="1.92935">
        <ele>284.21</ele>
        <time>2018-09-08T12:14:06Z</time>
      </trkpt>
      <trkpt lat="44.0293" lon="1.92994">
        <ele>284.21</ele>
        <time>2018-09-08T12:14:24Z</time>
      </trkpt>
      <trkpt lat="44.029" lon="1.93015">
        <ele>284.69</ele>
        <time>2018-09-08T12:14:31Z</time>
      </trkpt>
      <trkpt lat="44.02898" lon="1.9302">
        <ele>284.69</ele>
        <time>2018-09-08T12:14:32Z</time>
      </trkpt>
      <trkpt lat="44.02897" lon="1.93026">
        <ele>284.69</ele>
        <time>2018-09-08T12:14:33Z</time>
      </trkpt>
      <trkpt lat="44.02897" lon="1.93033">
        <ele>284.69</ele>
        <time>2018-09-08T12:14:34Z</time>
      </trkpt>
      <trkpt lat="44.029" lon="1.9304">
        <ele>284.69</ele>
        <time>2018-09-08T12:14:35Z</time>
      </trkpt>
      <trkpt lat="44.02903" lon="1.93046">
        <ele>284.21</ele>
        <time>2018-09-08T12:14:36Z</time>
      </trkpt>
      <trkpt lat="44.0291" lon="1.93061">
        <ele>283.25</ele>
        <time>2018-09-08T12:14:38Z</time>
      </trkpt>
      <trkpt lat="44.02942" lon="1.93129">
        <ele>279.4</ele>
        <time>2018-09-08T12:14:45Z</time>
      </trkpt>
      <trkpt lat="44.02947" lon="1.9314">
        <ele>279.4</ele>
        <time>2018-09-08T12:14:46Z</time>
      </trkpt>
      <trkpt lat="44.02961" lon="1.93172">
        <ele>277.48</ele>
        <time>2018-09-08T12:14:49Z</time>
      </trkpt>
      <trkpt lat="44.02984" lon="1.93223">
        <ele>275.56</ele>
        <time>2018-09-08T12:14:54Z</time>
      </trkpt>
      <trkpt lat="44.03026" lon="1.93316">
        <ele>277.48</ele>
        <time>2018-09-08T12:15:06Z</time>
      </trkpt>
      <trkpt lat="44.03044" lon="1.93352">
        <ele>279.88</ele>
        <time>2018-09-08T12:15:14Z</time>
      </trkpt>
      <trkpt lat="44.03057" lon="1.93384">
        <ele>283.25</ele>
        <time>2018-09-08T12:15:21Z</time>
      </trkpt>
      <trkpt lat="44.03074" lon="1.93431">
        <ele>286.13</ele>
        <time>2018-09-08T12:15:32Z</time>
      </trkpt>
      <trkpt lat="44.0306" lon="1.93472">
        <ele>286.13</ele>
        <time>2018-09-08T12:15:42Z</time>
      </trkpt>
      <trkpt lat="44.03041" lon="1.93533">
        <ele>287.09</ele>
        <time>2018-09-08T12:15:56Z</time>
      </trkpt>
      <trkpt lat="44.03051" lon="1.93559">
        <ele>287.57</ele>
        <time>2018-09-08T12:16:01Z</time>
      </trkpt>
      <trkpt lat="44.03056" lon="1.9357">
        <ele>287.57</ele>
        <time>2018-09-08T12:16:03Z</time>
      </trkpt>
      <trkpt lat="44.03083" lon="1.93632">
        <ele>287.57</ele>
        <time>2018-09-08T12:16:14Z</time>
      </trkpt>
      <trkpt lat="44.03086" lon="1.93637">
        <ele>287.57</ele>
        <time>2018-09-08T12:16:15Z</time>
      </trkpt>
      <trkpt lat="44.0309" lon="1.93642">
        <ele>287.57</ele>
        <time>2018-09-08T12:16:16Z</time>
      </trkpt>
      <trkpt lat="44.03116" lon="1.93671">
        <ele>287.09</ele>
        <time>2018-09-08T12:16:23Z</time>
      </trkpt>
      <trkpt lat="44.03119" lon="1.93676">
        <ele>287.09</ele>
        <time>2018-09-08T12:16:24Z</time>
      </trkpt>
      <trkpt lat="44.0313" lon="1.93696">
        <ele>287.09</ele>
        <time>2018-09-08T12:16:28Z</time>
      </trkpt>
      <trkpt lat="44.03137" lon="1.93705">
        <ele>286.61</ele>
        <time>2018-09-08T12:16:30Z</time>
      </trkpt>
      <trkpt lat="44.0314" lon="1.9371">
        <ele>287.09</ele>
        <time>2018-09-08T12:16:31Z</time>
      </trkpt>
      <trkpt lat="44.03142" lon="1.93716">
        <ele>287.57</ele>
        <time>2018-09-08T12:16:32Z</time>
      </trkpt>
      <trkpt lat="44.03146" lon="1.93728">
        <ele>286.61</ele>
        <time>2018-09-08T12:16:34Z</time>
      </trkpt>
      <trkpt lat="44.03147" lon="1.93736">
        <ele>286.61</ele>
        <time>2018-09-08T12:16:35Z</time>
      </trkpt>
      <trkpt lat="44.03148" lon="1.93743">
        <ele>286.61</ele>
        <time>2018-09-08T12:16:36Z</time>
      </trkpt>
      <trkpt lat="44.03149" lon="1.9375">
        <ele>285.17</ele>
        <time>2018-09-08T12:16:37Z</time>
      </trkpt>
      <trkpt lat="44.0315" lon="1.93758">
        <ele>285.65</ele>
        <time>2018-09-08T12:16:38Z</time>
      </trkpt>
      <trkpt lat="44.03154" lon="1.93791">
        <ele>282.28</ele>
        <time>2018-09-08T12:16:42Z</time>
      </trkpt>
      <trkpt lat="44.03157" lon="1.9381">
        <ele>280.84</ele>
        <time>2018-09-08T12:16:44Z</time>
      </trkpt>
      <trkpt lat="44.03159" lon="1.93818">
        <ele>279.88</ele>
        <time>2018-09-08T12:16:45Z</time>
      </trkpt>
      <trkpt lat="44.03162" lon="1.93825">
        <ele>278.92</ele>
        <time>2018-09-08T12:16:46Z</time>
      </trkpt>
      <trkpt lat="44.03167" lon="1.9383">
        <ele>278.92</ele>
        <time>2018-09-08T12:16:47Z</time>
      </trkpt>
      <trkpt lat="44.03172" lon="1.93833">
        <ele>277.48</ele>
        <time>2018-09-08T12:16:48Z</time>
      </trkpt>
      <trkpt lat="44.03178" lon="1.93837">
        <ele>277.96</ele>
        <time>2018-09-08T12:16:49Z</time>
      </trkpt>
      <trkpt lat="44.0321" lon="1.93848">
        <ele>275.07</ele>
        <time>2018-09-08T12:16:54Z</time>
      </trkpt>
      <trkpt lat="44.03217" lon="1.93849">
        <ele>274.59</ele>
        <time>2018-09-08T12:16:55Z</time>
      </trkpt>
      <trkpt lat="44.03223" lon="1.93849">
        <ele>274.11</ele>
        <time>2018-09-08T12:16:56Z</time>
      </trkpt>
      <trkpt lat="44.03236" lon="1.93851">
        <ele>273.63</ele>
        <time>2018-09-08T12:16:58Z</time>
      </trkpt>
      <trkpt lat="44.03243" lon="1.93853">
        <ele>273.63</ele>
        <time>2018-09-08T12:16:59Z</time>
      </trkpt>
      <trkpt lat="44.03249" lon="1.93857">
        <ele>273.15</ele>
        <time>2018-09-08T12:17:00Z</time>
      </trkpt>
      <trkpt lat="44.03264" lon="1.93875">
        <ele>272.67</ele>
        <time>2018-09-08T12:17:03Z</time>
      </trkpt>
      <trkpt lat="44.03284" lon="1.93906">
        <ele>271.71</ele>
        <time>2018-09-08T12:17:08Z</time>
      </trkpt>
      <trkpt lat="44.03293" lon="1.93927">
        <ele>271.71</ele>
        <time>2018-09-08T12:17:11Z</time>
      </trkpt>
      <trkpt lat="44.03317" lon="1.93962">
        <ele>269.79</ele>
        <time>2018-09-08T12:17:17Z</time>
      </trkpt>
      <trkpt lat="44.03328" lon="1.93989">
        <ele>267.38</ele>
        <time>2018-09-08T12:17:21Z</time>
      </trkpt>
      <trkpt lat="44.03343" lon="1.94032">
        <ele>261.62</ele>
        <time>2018-09-08T12:17:27Z</time>
      </trkpt>
      <trkpt lat="44.03357" lon="1.94056">
        <ele>258.25</ele>
        <time>2018-09-08T12:17:31Z</time>
      </trkpt>
      <trkpt lat="44.03368" lon="1.94073">
        <ele>255.37</ele>
        <time>2018-09-08T12:17:35Z</time>
      </trkpt>
      <trkpt lat="44.03387" lon="1.94083">
        <ele>253.44</ele>
        <time>2018-09-08T12:17:40Z</time>
      </trkpt>
      <trkpt lat="44.034" lon="1.94077">
        <ele>252.48</ele>
        <time>2018-09-08T12:17:43Z</time>
      </trkpt>
      <trkpt lat="44.03408" lon="1.94071">
        <ele>252.96</ele>
        <time>2018-09-08T12:17:45Z</time>
      </trkpt>
      <trkpt lat="44.03426" lon="1.94048">
        <ele>250.56</ele>
        <time>2018-09-08T12:17:50Z</time>
      </trkpt>
      <trkpt lat="44.03451" lon="1.93983">
        <ele>249.6</ele>
        <time>2018-09-08T12:17:59Z</time>
      </trkpt>
      <trkpt lat="44.03484" lon="1.93916">
        <ele>247.2</ele>
        <time>2018-09-08T12:18:08Z</time>
      </trkpt>
      <trkpt lat="44.03557" lon="1.93816">
        <ele>243.83</ele>
        <time>2018-09-08T12:18:24Z</time>
      </trkpt>
      <trkpt lat="44.03598" lon="1.93769">
        <ele>244.31</ele>
        <time>2018-09-08T12:18:35Z</time>
      </trkpt>
      <trkpt lat="44.03658" lon="1.93713">
        <ele>243.35</ele>
        <time>2018-09-08T12:18:50Z</time>
      </trkpt>
      <trkpt lat="44.03704" lon="1.93683">
        <ele>240.47</ele>
        <time>2018-09-08T12:18:58Z</time>
      </trkpt>
      <trkpt lat="44.03727" lon="1.93671">
        <ele>239.51</ele>
        <time>2018-09-08T12:19:02Z</time>
      </trkpt>
      <trkpt lat="44.03745" lon="1.93668">
        <ele>235.66</ele>
        <time>2018-09-08T12:19:05Z</time>
      </trkpt>
      <trkpt lat="44.0375" lon="1.9367">
        <ele>234.7</ele>
        <time>2018-09-08T12:19:06Z</time>
      </trkpt>
      <trkpt lat="44.03756" lon="1.93673">
        <ele>234.22</ele>
        <time>2018-09-08T12:19:07Z</time>
      </trkpt>
      <trkpt lat="44.03762" lon="1.93679">
        <ele>233.74</ele>
        <time>2018-09-08T12:19:08Z</time>
      </trkpt>
      <trkpt lat="44.03768" lon="1.93686">
        <ele>233.74</ele>
        <time>2018-09-08T12:19:09Z</time>
      </trkpt>
      <trkpt lat="44.03773" lon="1.93694">
        <ele>233.26</ele>
        <time>2018-09-08T12:19:10Z</time>
      </trkpt>
      <trkpt lat="44.03778" lon="1.93702">
        <ele>233.26</ele>
        <time>2018-09-08T12:19:11Z</time>
      </trkpt>
      <trkpt lat="44.03784" lon="1.93707">
        <ele>232.78</ele>
        <time>2018-09-08T12:19:12Z</time>
      </trkpt>
      <trkpt lat="44.0379" lon="1.93709">
        <ele>232.3</ele>
        <time>2018-09-08T12:19:13Z</time>
      </trkpt>
      <trkpt lat="44.03795" lon="1.93708">
        <ele>233.26</ele>
        <time>2018-09-08T12:19:14Z</time>
      </trkpt>
      <trkpt lat="44.038" lon="1.93706">
        <ele>232.78</ele>
        <time>2018-09-08T12:19:15Z</time>
      </trkpt>
      <trkpt lat="44.03803" lon="1.93703">
        <ele>232.78</ele>
        <time>2018-09-08T12:19:16Z</time>
      </trkpt>
      <trkpt lat="44.03831" lon="1.93684">
        <ele>229.41</ele>
        <time>2018-09-08T12:19:26Z</time>
      </trkpt>
      <trkpt lat="44.03833" lon="1.93679">
        <ele>230.85</ele>
        <time>2018-09-08T12:19:41Z</time>
      </trkpt>
      <trkpt lat="44.03839" lon="1.93675">
        <ele>230.37</ele>
        <time>2018-09-08T12:19:43Z</time>
      </trkpt>
      <trkpt lat="44.03844" lon="1.93673">
        <ele>230.37</ele>
        <time>2018-09-08T12:19:44Z</time>
      </trkpt>
      <trkpt lat="44.03861" lon="1.93668">
        <ele>228.93</ele>
        <time>2018-09-08T12:19:47Z</time>
      </trkpt>
      <trkpt lat="44.03867" lon="1.93668">
        <ele>227.97</ele>
        <time>2018-09-08T12:19:48Z</time>
      </trkpt>
      <trkpt lat="44.03874" lon="1.93668">
        <ele>227.97</ele>
        <time>2018-09-08T12:19:49Z</time>
      </trkpt>
      <trkpt lat="44.03887" lon="1.93671">
        <ele>227.49</ele>
        <time>2018-09-08T12:19:51Z</time>
      </trkpt>
      <trkpt lat="44.03893" lon="1.93674">
        <ele>227.01</ele>
        <time>2018-09-08T12:19:52Z</time>
      </trkpt>
      <trkpt lat="44.03899" lon="1.93677">
        <ele>227.01</ele>
        <time>2018-09-08T12:19:53Z</time>
      </trkpt>
      <trkpt lat="44.03943" lon="1.93701">
        <ele>225.57</ele>
        <time>2018-09-08T12:20:01Z</time>
      </trkpt>
      <trkpt lat="44.03947" lon="1.93706">
        <ele>225.09</ele>
        <time>2018-09-08T12:20:02Z</time>
      </trkpt>
      <trkpt lat="44.03991" lon="1.93773">
        <ele>224.12</ele>
        <time>2018-09-08T12:20:13Z</time>
      </trkpt>
      <trkpt lat="44.03996" lon="1.93779">
        <ele>224.12</ele>
        <time>2018-09-08T12:20:14Z</time>
      </trkpt>
      <trkpt lat="44.04072" lon="1.93841">
        <ele>221.72</ele>
        <time>2018-09-08T12:20:28Z</time>
      </trkpt>
      <trkpt lat="44.04084" lon="1.9385">
        <ele>221.24</ele>
        <time>2018-09-08T12:20:31Z</time>
      </trkpt>
      <trkpt lat="44.04092" lon="1.93855">
        <ele>221.72</ele>
        <time>2018-09-08T12:20:33Z</time>
      </trkpt>
      <trkpt lat="44.04152" lon="1.93893">
        <ele>220.76</ele>
        <time>2018-09-08T12:20:47Z</time>
      </trkpt>
      <trkpt lat="44.04168" lon="1.93901">
        <ele>219.8</ele>
        <time>2018-09-08T12:20:50Z</time>
      </trkpt>
      <trkpt lat="44.04173" lon="1.93906">
        <ele>219.8</ele>
        <time>2018-09-08T12:20:51Z</time>
      </trkpt>
      <trkpt lat="44.04205" lon="1.9393">
        <ele>220.76</ele>
        <time>2018-09-08T12:21:01Z</time>
      </trkpt>
      <trkpt lat="44.04225" lon="1.93948">
        <ele>219.32</ele>
        <time>2018-09-08T12:21:08Z</time>
      </trkpt>
      <trkpt lat="44.04229" lon="1.93952">
        <ele>219.8</ele>
        <time>2018-09-08T12:21:09Z</time>
      </trkpt>
      <trkpt lat="44.04237" lon="1.93963">
        <ele>218.84</ele>
        <time>2018-09-08T12:21:11Z</time>
      </trkpt>
      <trkpt lat="44.04241" lon="1.93969">
        <ele>218.84</ele>
        <time>2018-09-08T12:21:12Z</time>
      </trkpt>
      <trkpt lat="44.04275" lon="1.94034">
        <ele>215.95</ele>
        <time>2018-09-08T12:21:20Z</time>
      </trkpt>
      <trkpt lat="44.04282" lon="1.94043">
        <ele>215.95</ele>
        <time>2018-09-08T12:21:21Z</time>
      </trkpt>
      <trkpt lat="44.04289" lon="1.94053">
        <ele>214.51</ele>
        <time>2018-09-08T12:21:22Z</time>
      </trkpt>
      <trkpt lat="44.04314" lon="1.94097">
        <ele>212.11</ele>
        <time>2018-09-08T12:21:26Z</time>
      </trkpt>
      <trkpt lat="44.04331" lon="1.94131">
        <ele>211.63</ele>
        <time>2018-09-08T12:21:30Z</time>
      </trkpt>
      <trkpt lat="44.04332" lon="1.94135">
        <ele>212.11</ele>
        <time>2018-09-08T12:21:31Z</time>
      </trkpt>
      <trkpt lat="44.0433" lon="1.9414">
        <ele>212.11</ele>
        <time>2018-09-08T12:21:32Z</time>
      </trkpt>
      <trkpt lat="44.04327" lon="1.94144">
        <ele>211.63</ele>
        <time>2018-09-08T12:21:33Z</time>
      </trkpt>
      <trkpt lat="44.04323" lon="1.94147">
        <ele>212.59</ele>
        <time>2018-09-08T12:21:34Z</time>
      </trkpt>
      <trkpt lat="44.0432" lon="1.94151">
        <ele>211.63</ele>
        <time>2018-09-08T12:21:35Z</time>
      </trkpt>
      <trkpt lat="44.04316" lon="1.94155">
        <ele>212.11</ele>
        <time>2018-09-08T12:21:36Z</time>
      </trkpt>
      <trkpt lat="44.04262" lon="1.94238">
        <ele>212.11</ele>
        <time>2018-09-08T12:21:51Z</time>
      </trkpt>
      <trkpt lat="44.04244" lon="1.9428">
        <ele>211.15</ele>
        <time>2018-09-08T12:22:00Z</time>
      </trkpt>
      <trkpt lat="44.04246" lon="1.9428">
        <ele>212.11</ele>
        <time>2018-09-08T12:22:08Z</time>
      </trkpt>
      <trkpt lat="44.04248" lon="1.94285">
        <ele>212.11</ele>
        <time>2018-09-08T12:22:11Z</time>
      </trkpt>
      <trkpt lat="44.04248" lon="1.94288">
        <ele>212.59</ele>
        <time>2018-09-08T12:22:14Z</time>
      </trkpt>
      <trkpt lat="44.04246" lon="1.94294">
        <ele>212.11</ele>
        <time>2018-09-08T12:22:17Z</time>
      </trkpt>
      <trkpt lat="44.04225" lon="1.94351">
        <ele>213.07</ele>
        <time>2018-09-08T12:22:30Z</time>
      </trkpt>
      <trkpt lat="44.04198" lon="1.9443">
        <ele>213.55</ele>
        <time>2018-09-08T12:22:47Z</time>
      </trkpt>
      <trkpt lat="44.04194" lon="1.94495">
        <ele>214.51</ele>
        <time>2018-09-08T12:23:00Z</time>
      </trkpt>
      <trkpt lat="44.04187" lon="1.94571">
        <ele>214.99</ele>
        <time>2018-09-08T12:23:15Z</time>
      </trkpt>
      <trkpt lat="44.04184" lon="1.94635">
        <ele>215.95</ele>
        <time>2018-09-08T12:23:28Z</time>
      </trkpt>
      <trkpt lat="44.04188" lon="1.94667">
        <ele>216.91</ele>
        <time>2018-09-08T12:23:42Z</time>
      </trkpt>
      <trkpt lat="44.04188" lon="1.94668">
        <ele>216.43</ele>
        <time>2018-09-08T12:24:04Z</time>
      </trkpt>
      <trkpt lat="44.04191" lon="1.9467">
        <ele>216.43</ele>
        <time>2018-09-08T12:24:06Z</time>
      </trkpt>
      <trkpt lat="44.04193" lon="1.9467">
        <ele>216.43</ele>
        <time>2018-09-08T12:24:07Z</time>
      </trkpt>
      <trkpt lat="44.04196" lon="1.9467">
        <ele>216.91</ele>
        <time>2018-09-08T12:24:08Z</time>
      </trkpt>
      <trkpt lat="44.04198" lon="1.94671">
        <ele>217.4</ele>
        <time>2018-09-08T12:24:09Z</time>
      </trkpt>
      <trkpt lat="44.04201" lon="1.94671">
        <ele>217.4</ele>
        <time>2018-09-08T12:24:10Z</time>
      </trkpt>
      <trkpt lat="44.04224" lon="1.94675">
        <ele>220.28</ele>
        <time>2018-09-08T12:24:22Z</time>
      </trkpt>
      <trkpt lat="44.04226" lon="1.94676">
        <ele>220.28</ele>
        <time>2018-09-08T12:24:23Z</time>
      </trkpt>
      <trkpt lat="44.04241" lon="1.94704">
        <ele>223.64</ele>
        <time>2018-09-08T12:24:36Z</time>
      </trkpt>
      <trkpt lat="44.0425" lon="1.94768">
        <ele>223.16</ele>
        <time>2018-09-08T12:24:51Z</time>
      </trkpt>
      <trkpt lat="44.04261" lon="1.94844">
        <ele>224.12</ele>
        <time>2018-09-08T12:25:07Z</time>
      </trkpt>
      <trkpt lat="44.04266" lon="1.94917">
        <ele>225.09</ele>
        <time>2018-09-08T12:25:22Z</time>
      </trkpt>
      <trkpt lat="44.04269" lon="1.94998">
        <ele>224.61</ele>
        <time>2018-09-08T12:25:37Z</time>
      </trkpt>
      <trkpt lat="44.04262" lon="1.95097">
        <ele>225.09</ele>
        <time>2018-09-08T12:25:55Z</time>
      </trkpt>
      <trkpt lat="44.04255" lon="1.95185">
        <ele>226.53</ele>
        <time>2018-09-08T12:26:14Z</time>
      </trkpt>
      <trkpt lat="44.04232" lon="1.95233">
        <ele>227.01</ele>
        <time>2018-09-08T12:26:27Z</time>
      </trkpt>
      <trkpt lat="44.0421" lon="1.95278">
        <ele>229.41</ele>
        <time>2018-09-08T12:26:42Z</time>
      </trkpt>
      <trkpt lat="44.04191" lon="1.95294">
        <ele>232.78</ele>
        <time>2018-09-08T12:26:52Z</time>
      </trkpt>
      <trkpt lat="44.04174" lon="1.95311">
        <ele>233.26</ele>
        <time>2018-09-08T12:27:05Z</time>
      </trkpt>
      <trkpt lat="44.04167" lon="1.95327">
        <ele>235.18</ele>
        <time>2018-09-08T12:27:20Z</time>
      </trkpt>
      <trkpt lat="44.04165" lon="1.95333">
        <ele>236.14</ele>
        <time>2018-09-08T12:27:24Z</time>
      </trkpt>
      <trkpt lat="44.04169" lon="1.95337">
        <ele>237.1</ele>
        <time>2018-09-08T12:27:30Z</time>
      </trkpt>
      <trkpt lat="44.04174" lon="1.95334">
        <ele>238.06</ele>
        <time>2018-09-08T12:27:43Z</time>
      </trkpt>
      <trkpt lat="44.0418" lon="1.95329">
        <ele>239.51</ele>
        <time>2018-09-08T12:28:07Z</time>
      </trkpt>
      <trkpt lat="44.04184" lon="1.95326">
        <ele>240.95</ele>
        <time>2018-09-08T12:28:11Z</time>
      </trkpt>
      <trkpt lat="44.042" lon="1.9532">
        <ele>244.31</ele>
        <time>2018-09-08T12:28:28Z</time>
      </trkpt>
      <trkpt lat="44.04214" lon="1.9532">
        <ele>247.68</ele>
        <time>2018-09-08T12:28:45Z</time>
      </trkpt>
      <trkpt lat="44.04225" lon="1.95329">
        <ele>249.6</ele>
        <time>2018-09-08T12:29:01Z</time>
      </trkpt>
      <trkpt lat="44.04227" lon="1.95332">
        <ele>251.04</ele>
        <time>2018-09-08T12:29:05Z</time>
      </trkpt>
      <trkpt lat="44.04228" lon="1.95333">
        <ele>251.04</ele>
        <time>2018-09-08T12:29:06Z</time>
      </trkpt>
      <trkpt lat="44.04239" lon="1.95354">
        <ele>253.44</ele>
        <time>2018-09-08T12:29:23Z</time>
      </trkpt>
      <trkpt lat="44.04238" lon="1.95365">
        <ele>255.37</ele>
        <time>2018-09-08T12:29:37Z</time>
      </trkpt>
      <trkpt lat="44.04238" lon="1.95366">
        <ele>255.37</ele>
        <time>2018-09-08T12:29:38Z</time>
      </trkpt>
      <trkpt lat="44.04223" lon="1.95382">
        <ele>257.77</ele>
        <time>2018-09-08T12:29:55Z</time>
      </trkpt>
      <trkpt lat="44.04207" lon="1.95402">
        <ele>259.69</ele>
        <time>2018-09-08T12:30:13Z</time>
      </trkpt>
      <trkpt lat="44.04203" lon="1.95408">
        <ele>259.21</ele>
        <time>2018-09-08T12:30:18Z</time>
      </trkpt>
      <trkpt lat="44.04204" lon="1.95412">
        <ele>259.21</ele>
        <time>2018-09-08T12:30:20Z</time>
      </trkpt>
      <trkpt lat="44.04217" lon="1.95426">
        <ele>262.58</ele>
        <time>2018-09-08T12:30:36Z</time>
      </trkpt>
      <trkpt lat="44.04236" lon="1.95438">
        <ele>265.94</ele>
        <time>2018-09-08T12:30:55Z</time>
      </trkpt>
      <trkpt lat="44.04253" lon="1.95447">
        <ele>268.83</ele>
        <time>2018-09-08T12:31:12Z</time>
      </trkpt>
      <trkpt lat="44.0427" lon="1.95453">
        <ele>270.75</ele>
        <time>2018-09-08T12:31:28Z</time>
      </trkpt>
      <trkpt lat="44.04277" lon="1.95456">
        <ele>271.23</ele>
        <time>2018-09-08T12:31:35Z</time>
      </trkpt>
      <trkpt lat="44.04283" lon="1.95463">
        <ele>272.67</ele>
        <time>2018-09-08T12:31:41Z</time>
      </trkpt>
      <trkpt lat="44.04299" lon="1.95472">
        <ele>273.63</ele>
        <time>2018-09-08T12:31:56Z</time>
      </trkpt>
      <trkpt lat="44.04315" lon="1.95484">
        <ele>275.56</ele>
        <time>2018-09-08T12:32:11Z</time>
      </trkpt>
      <trkpt lat="44.04329" lon="1.95497">
        <ele>276.52</ele>
        <time>2018-09-08T12:32:25Z</time>
      </trkpt>
      <trkpt lat="44.04338" lon="1.95508">
        <ele>279.88</ele>
        <time>2018-09-08T12:32:39Z</time>
      </trkpt>
      <trkpt lat="44.04341" lon="1.95513">
        <ele>281.32</ele>
        <time>2018-09-08T12:32:45Z</time>
      </trkpt>
      <trkpt lat="44.04345" lon="1.95513">
        <ele>282.77</ele>
        <time>2018-09-08T12:32:59Z</time>
      </trkpt>
      <trkpt lat="44.04352" lon="1.95522">
        <ele>284.69</ele>
        <time>2018-09-08T12:33:15Z</time>
      </trkpt>
      <trkpt lat="44.04363" lon="1.95528">
        <ele>287.09</ele>
        <time>2018-09-08T12:33:31Z</time>
      </trkpt>
      <trkpt lat="44.04377" lon="1.95534">
        <ele>289.49</ele>
        <time>2018-09-08T12:33:47Z</time>
      </trkpt>
      <trkpt lat="44.04394" lon="1.95542">
        <ele>292.38</ele>
        <time>2018-09-08T12:34:04Z</time>
      </trkpt>
      <trkpt lat="44.04412" lon="1.95548">
        <ele>294.3</ele>
        <time>2018-09-08T12:34:21Z</time>
      </trkpt>
      <trkpt lat="44.0442" lon="1.9555">
        <ele>295.26</ele>
        <time>2018-09-08T12:34:31Z</time>
      </trkpt>
      <trkpt lat="44.04443" lon="1.95559">
        <ele>297.18</ele>
        <time>2018-09-08T12:34:45Z</time>
      </trkpt>
      <trkpt lat="44.04485" lon="1.95572">
        <ele>298.15</ele>
        <time>2018-09-08T12:35:02Z</time>
      </trkpt>
      <trkpt lat="44.04525" lon="1.95606">
        <ele>298.63</ele>
        <time>2018-09-08T12:35:17Z</time>
      </trkpt>
      <trkpt lat="44.04589" lon="1.95665">
        <ele>298.63</ele>
        <time>2018-09-08T12:35:37Z</time>
      </trkpt>
      <trkpt lat="44.04661" lon="1.95742">
        <ele>297.18</ele>
        <time>2018-09-08T12:35:55Z</time>
      </trkpt>
      <trkpt lat="44.04702" lon="1.95796">
        <ele>294.3</ele>
        <time>2018-09-08T12:36:07Z</time>
      </trkpt>
      <trkpt lat="44.04705" lon="1.95805">
        <ele>295.26</ele>
        <time>2018-09-08T12:36:08Z</time>
      </trkpt>
      <trkpt lat="44.04728" lon="1.95866">
        <ele>291.42</ele>
        <time>2018-09-08T12:36:14Z</time>
      </trkpt>
      <trkpt lat="44.04735" lon="1.95876">
        <ele>290.46</ele>
        <time>2018-09-08T12:36:15Z</time>
      </trkpt>
      <trkpt lat="44.04742" lon="1.95884">
        <ele>289.01</ele>
        <time>2018-09-08T12:36:16Z</time>
      </trkpt>
      <trkpt lat="44.0475" lon="1.95891">
        <ele>289.01</ele>
        <time>2018-09-08T12:36:17Z</time>
      </trkpt>
      <trkpt lat="44.04758" lon="1.95896">
        <ele>288.05</ele>
        <time>2018-09-08T12:36:18Z</time>
      </trkpt>
      <trkpt lat="44.04766" lon="1.95899">
        <ele>288.05</ele>
        <time>2018-09-08T12:36:19Z</time>
      </trkpt>
      <trkpt lat="44.04774" lon="1.95901">
        <ele>287.09</ele>
        <time>2018-09-08T12:36:20Z</time>
      </trkpt>
      <trkpt lat="44.04782" lon="1.95902">
        <ele>287.57</ele>
        <time>2018-09-08T12:36:21Z</time>
      </trkpt>
      <trkpt lat="44.04795" lon="1.95902">
        <ele>288.05</ele>
        <time>2018-09-08T12:36:23Z</time>
      </trkpt>
      <trkpt lat="44.04826" lon="1.95896">
        <ele>289.49</ele>
        <time>2018-09-08T12:36:41Z</time>
      </trkpt>
      <trkpt lat="44.04824" lon="1.95886">
        <ele>287.57</ele>
        <time>2018-09-08T12:36:45Z</time>
      </trkpt>
      <trkpt lat="44.04825" lon="1.95883">
        <ele>287.57</ele>
        <time>2018-09-08T12:36:46Z</time>
      </trkpt>
      <trkpt lat="44.04827" lon="1.95879">
        <ele>287.09</ele>
        <time>2018-09-08T12:36:47Z</time>
      </trkpt>
      <trkpt lat="44.04835" lon="1.95846">
        <ele>286.13</ele>
        <time>2018-09-08T12:36:53Z</time>
      </trkpt>
      <trkpt lat="44.04837" lon="1.95829">
        <ele>285.65</ele>
        <time>2018-09-08T12:36:56Z</time>
      </trkpt>
      <trkpt lat="44.04853" lon="1.95773">
        <ele>284.21</ele>
        <time>2018-09-08T12:37:04Z</time>
      </trkpt>
      <trkpt lat="44.04872" lon="1.95732">
        <ele>282.28</ele>
        <time>2018-09-08T12:37:09Z</time>
      </trkpt>
      <trkpt lat="44.04884" lon="1.95685">
        <ele>280.36</ele>
        <time>2018-09-08T12:37:14Z</time>
      </trkpt>
      <trkpt lat="44.04897" lon="1.95585">
        <ele>277.48</ele>
        <time>2018-09-08T12:37:24Z</time>
      </trkpt>
      <trkpt lat="44.049" lon="1.95576">
        <ele>277.48</ele>
        <time>2018-09-08T12:37:25Z</time>
      </trkpt>
      <trkpt lat="44.04906" lon="1.9556">
        <ele>276.52</ele>
        <time>2018-09-08T12:37:27Z</time>
      </trkpt>
      <trkpt lat="44.04917" lon="1.95515">
        <ele>274.59</ele>
        <time>2018-09-08T12:37:32Z</time>
      </trkpt>
      <trkpt lat="44.04925" lon="1.95488">
        <ele>272.67</ele>
        <time>2018-09-08T12:37:35Z</time>
      </trkpt>
      <trkpt lat="44.0493" lon="1.95459">
        <ele>269.31</ele>
        <time>2018-09-08T12:37:39Z</time>
      </trkpt>
      <trkpt lat="44.04929" lon="1.95429">
        <ele>266.9</ele>
        <time>2018-09-08T12:37:43Z</time>
      </trkpt>
      <trkpt lat="44.04927" lon="1.95411">
        <ele>265.46</ele>
        <time>2018-09-08T12:37:45Z</time>
      </trkpt>
      <trkpt lat="44.04926" lon="1.95402">
        <ele>265.46</ele>
        <time>2018-09-08T12:37:46Z</time>
      </trkpt>
      <trkpt lat="44.04921" lon="1.95362">
        <ele>260.17</ele>
        <time>2018-09-08T12:37:51Z</time>
      </trkpt>
      <trkpt lat="44.04919" lon="1.95341">
        <ele>258.25</ele>
        <time>2018-09-08T12:37:54Z</time>
      </trkpt>
      <trkpt lat="44.04919" lon="1.9532">
        <ele>256.81</ele>
        <time>2018-09-08T12:37:57Z</time>
      </trkpt>
      <trkpt lat="44.04921" lon="1.953">
        <ele>254.89</ele>
        <time>2018-09-08T12:38:00Z</time>
      </trkpt>
      <trkpt lat="44.04923" lon="1.95289">
        <ele>253.44</ele>
        <time>2018-09-08T12:38:02Z</time>
      </trkpt>
      <trkpt lat="44.04926" lon="1.95271">
        <ele>252</ele>
        <time>2018-09-08T12:38:05Z</time>
      </trkpt>
      <trkpt lat="44.04928" lon="1.95237">
        <ele>247.68</ele>
        <time>2018-09-08T12:38:10Z</time>
      </trkpt>
      <trkpt lat="44.04929" lon="1.95229">
        <ele>243.83</ele>
        <time>2018-09-08T12:38:13Z</time>
      </trkpt>
      <trkpt lat="44.04929" lon="1.95228">
        <ele>245.27</ele>
        <time>2018-09-08T12:38:15Z</time>
      </trkpt>
      <trkpt lat="44.04933" lon="1.95223">
        <ele>245.75</ele>
        <time>2018-09-08T12:38:20Z</time>
      </trkpt>
      <trkpt lat="44.04951" lon="1.95197">
        <ele>244.31</ele>
        <time>2018-09-08T12:38:29Z</time>
      </trkpt>
      <trkpt lat="44.04956" lon="1.95191">
        <ele>242.87</ele>
        <time>2018-09-08T12:38:30Z</time>
      </trkpt>
      <trkpt lat="44.04964" lon="1.95181">
        <ele>241.91</ele>
        <time>2018-09-08T12:38:32Z</time>
      </trkpt>
      <trkpt lat="44.04972" lon="1.95171">
        <ele>240.95</ele>
        <time>2018-09-08T12:38:34Z</time>
      </trkpt>
      <trkpt lat="44.04976" lon="1.95167">
        <ele>239.99</ele>
        <time>2018-09-08T12:38:35Z</time>
      </trkpt>
      <trkpt lat="44.04981" lon="1.95163">
        <ele>239.02</ele>
        <time>2018-09-08T12:38:36Z</time>
      </trkpt>
      <trkpt lat="44.04986" lon="1.95159">
        <ele>238.06</ele>
        <time>2018-09-08T12:38:37Z</time>
      </trkpt>
      <trkpt lat="44.04991" lon="1.95157">
        <ele>237.58</ele>
        <time>2018-09-08T12:38:38Z</time>
      </trkpt>
      <trkpt lat="44.04996" lon="1.95154">
        <ele>237.58</ele>
        <time>2018-09-08T12:38:39Z</time>
      </trkpt>
      <trkpt lat="44.05014" lon="1.9514">
        <ele>236.14</ele>
        <time>2018-09-08T12:38:44Z</time>
      </trkpt>
      <trkpt lat="44.05018" lon="1.95136">
        <ele>235.66</ele>
        <time>2018-09-08T12:38:45Z</time>
      </trkpt>
      <trkpt lat="44.05021" lon="1.95132">
        <ele>234.7</ele>
        <time>2018-09-08T12:38:46Z</time>
      </trkpt>
      <trkpt lat="44.05026" lon="1.9513">
        <ele>234.7</ele>
        <time>2018-09-08T12:38:47Z</time>
      </trkpt>
      <trkpt lat="44.05031" lon="1.95128">
        <ele>234.22</ele>
        <time>2018-09-08T12:38:48Z</time>
      </trkpt>
      <trkpt lat="44.05037" lon="1.95125">
        <ele>235.18</ele>
        <time>2018-09-08T12:38:49Z</time>
      </trkpt>
      <trkpt lat="44.05046" lon="1.95119">
        <ele>232.78</ele>
        <time>2018-09-08T12:38:51Z</time>
      </trkpt>
      <trkpt lat="44.05051" lon="1.95117">
        <ele>233.26</ele>
        <time>2018-09-08T12:38:52Z</time>
      </trkpt>
      <trkpt lat="44.05056" lon="1.95117">
        <ele>233.74</ele>
        <time>2018-09-08T12:38:53Z</time>
      </trkpt>
      <trkpt lat="44.0506" lon="1.95117">
        <ele>233.26</ele>
        <time>2018-09-08T12:38:54Z</time>
      </trkpt>
      <trkpt lat="44.05065" lon="1.95117">
        <ele>234.22</ele>
        <time>2018-09-08T12:38:55Z</time>
      </trkpt>
      <trkpt lat="44.05069" lon="1.95117">
        <ele>234.22</ele>
        <time>2018-09-08T12:38:56Z</time>
      </trkpt>
      <trkpt lat="44.05073" lon="1.95116">
        <ele>234.7</ele>
        <time>2018-09-08T12:38:57Z</time>
      </trkpt>
      <trkpt lat="44.05076" lon="1.95115">
        <ele>235.66</ele>
        <time>2018-09-08T12:38:58Z</time>
      </trkpt>
      <trkpt lat="44.0508" lon="1.95113">
        <ele>235.18</ele>
        <time>2018-09-08T12:38:59Z</time>
      </trkpt>
      <trkpt lat="44.05084" lon="1.9511">
        <ele>234.22</ele>
        <time>2018-09-08T12:39:00Z</time>
      </trkpt>
      <trkpt lat="44.05089" lon="1.95108">
        <ele>233.74</ele>
        <time>2018-09-08T12:39:01Z</time>
      </trkpt>
      <trkpt lat="44.05093" lon="1.95107">
        <ele>234.7</ele>
        <time>2018-09-08T12:39:02Z</time>
      </trkpt>
      <trkpt lat="44.05096" lon="1.95105">
        <ele>234.7</ele>
        <time>2018-09-08T12:39:03Z</time>
      </trkpt>
      <trkpt lat="44.05098" lon="1.95103">
        <ele>235.18</ele>
        <time>2018-09-08T12:39:04Z</time>
      </trkpt>
      <trkpt lat="44.05101" lon="1.951">
        <ele>234.22</ele>
        <time>2018-09-08T12:39:05Z</time>
      </trkpt>
      <trkpt lat="44.05104" lon="1.95098">
        <ele>233.26</ele>
        <time>2018-09-08T12:39:06Z</time>
      </trkpt>
      <trkpt lat="44.05107" lon="1.95096">
        <ele>231.81</ele>
        <time>2018-09-08T12:39:07Z</time>
      </trkpt>
      <trkpt lat="44.05109" lon="1.95091">
        <ele>231.33</ele>
        <time>2018-09-08T12:39:08Z</time>
      </trkpt>
      <trkpt lat="44.05112" lon="1.95088">
        <ele>230.85</ele>
        <time>2018-09-08T12:39:09Z</time>
      </trkpt>
      <trkpt lat="44.05115" lon="1.95085">
        <ele>228.45</ele>
        <time>2018-09-08T12:39:10Z</time>
      </trkpt>
      <trkpt lat="44.05119" lon="1.95083">
        <ele>228.45</ele>
        <time>2018-09-08T12:39:11Z</time>
      </trkpt>
      <trkpt lat="44.05122" lon="1.9508">
        <ele>229.41</ele>
        <time>2018-09-08T12:39:12Z</time>
      </trkpt>
      <trkpt lat="44.05126" lon="1.95077">
        <ele>228.45</ele>
        <time>2018-09-08T12:39:13Z</time>
      </trkpt>
      <trkpt lat="44.05129" lon="1.95075">
        <ele>226.53</ele>
        <time>2018-09-08T12:39:14Z</time>
      </trkpt>
      <trkpt lat="44.05132" lon="1.95074">
        <ele>226.53</ele>
        <time>2018-09-08T12:39:15Z</time>
      </trkpt>
      <trkpt lat="44.05135" lon="1.95071">
        <ele>226.53</ele>
        <time>2018-09-08T12:39:16Z</time>
      </trkpt>
      <trkpt lat="44.05137" lon="1.95068">
        <ele>225.57</ele>
        <time>2018-09-08T12:39:17Z</time>
      </trkpt>
      <trkpt lat="44.05138" lon="1.95064">
        <ele>224.12</ele>
        <time>2018-09-08T12:39:18Z</time>
      </trkpt>
      <trkpt lat="44.0514" lon="1.95058">
        <ele>224.12</ele>
        <time>2018-09-08T12:39:19Z</time>
      </trkpt>
      <trkpt lat="44.05141" lon="1.95054">
        <ele>223.16</ele>
        <time>2018-09-08T12:39:20Z</time>
      </trkpt>
      <trkpt lat="44.05144" lon="1.95049">
        <ele>222.2</ele>
        <time>2018-09-08T12:39:21Z</time>
      </trkpt>
      <trkpt lat="44.05149" lon="1.95041">
        <ele>221.72</ele>
        <time>2018-09-08T12:39:23Z</time>
      </trkpt>
      <trkpt lat="44.05152" lon="1.95038">
        <ele>220.76</ele>
        <time>2018-09-08T12:39:24Z</time>
      </trkpt>
      <trkpt lat="44.05156" lon="1.95035">
        <ele>220.28</ele>
        <time>2018-09-08T12:39:25Z</time>
      </trkpt>
      <trkpt lat="44.0516" lon="1.95034">
        <ele>218.84</ele>
        <time>2018-09-08T12:39:26Z</time>
      </trkpt>
      <trkpt lat="44.05164" lon="1.95033">
        <ele>218.84</ele>
        <time>2018-09-08T12:39:27Z</time>
      </trkpt>
      <trkpt lat="44.05169" lon="1.95034">
        <ele>218.36</ele>
        <time>2018-09-08T12:39:28Z</time>
      </trkpt>
      <trkpt lat="44.05173" lon="1.95034">
        <ele>219.32</ele>
        <time>2018-09-08T12:39:29Z</time>
      </trkpt>
      <trkpt lat="44.052" lon="1.9504">
        <ele>218.84</ele>
        <time>2018-09-08T12:39:37Z</time>
      </trkpt>
      <trkpt lat="44.05201" lon="1.95039">
        <ele>218.84</ele>
        <time>2018-09-08T12:39:38Z</time>
      </trkpt>
      <trkpt lat="44.05198" lon="1.95035">
        <ele>218.36</ele>
        <time>2018-09-08T12:39:40Z</time>
      </trkpt>
      <trkpt lat="44.05196" lon="1.95034">
        <ele>218.84</ele>
        <time>2018-09-08T12:39:41Z</time>
      </trkpt>
      <trkpt lat="44.05193" lon="1.95031">
        <ele>217.88</ele>
        <time>2018-09-08T12:39:42Z</time>
      </trkpt>
      <trkpt lat="44.0519" lon="1.95028">
        <ele>217.88</ele>
        <time>2018-09-08T12:39:43Z</time>
      </trkpt>
      <trkpt lat="44.05178" lon="1.95005">
        <ele>216.43</ele>
        <time>2018-09-08T12:39:49Z</time>
      </trkpt>
      <trkpt lat="44.05197" lon="1.94995">
        <ele>215.47</ele>
        <time>2018-09-08T12:39:58Z</time>
      </trkpt>
      <trkpt lat="44.05197" lon="1.94992">
        <ele>214.99</ele>
        <time>2018-09-08T12:40:02Z</time>
      </trkpt>
      <trkpt lat="44.05199" lon="1.94988">
        <ele>213.55</ele>
        <time>2018-09-08T12:40:11Z</time>
      </trkpt>
      <trkpt lat="44.05208" lon="1.94985">
        <ele>214.51</ele>
        <time>2018-09-08T12:40:15Z</time>
      </trkpt>
      <trkpt lat="44.05249" lon="1.94983">
        <ele>213.55</ele>
        <time>2018-09-08T12:40:28Z</time>
      </trkpt>
      <trkpt lat="44.05281" lon="1.94974">
        <ele>213.55</ele>
        <time>2018-09-08T12:40:41Z</time>
      </trkpt>
      <trkpt lat="44.05307" lon="1.94963">
        <ele>213.55</ele>
        <time>2018-09-08T12:40:47Z</time>
      </trkpt>
      <trkpt lat="44.05312" lon="1.94962">
        <ele>213.55</ele>
        <time>2018-09-08T12:40:48Z</time>
      </trkpt>
      <trkpt lat="44.05336" lon="1.94953">
        <ele>212.59</ele>
        <time>2018-09-08T12:40:54Z</time>
      </trkpt>
      <trkpt lat="44.0534" lon="1.94952">
        <ele>211.63</ele>
        <time>2018-09-08T12:40:55Z</time>
      </trkpt>
      <trkpt lat="44.05355" lon="1.94951">
        <ele>211.63</ele>
        <time>2018-09-08T12:40:58Z</time>
      </trkpt>
      <trkpt lat="44.0536" lon="1.94953">
        <ele>212.11</ele>
        <time>2018-09-08T12:40:59Z</time>
      </trkpt>
      <trkpt lat="44.05364" lon="1.94955">
        <ele>211.63</ele>
        <time>2018-09-08T12:41:00Z</time>
      </trkpt>
      <trkpt lat="44.05371" lon="1.9496">
        <ele>211.15</ele>
        <time>2018-09-08T12:41:09Z</time>
      </trkpt>
      <trkpt lat="44.05374" lon="1.94964">
        <ele>211.15</ele>
        <time>2018-09-08T12:41:44Z</time>
      </trkpt>
      <trkpt lat="44.05375" lon="1.94963">
        <ele>212.11</ele>
        <time>2018-09-08T12:42:20Z</time>
      </trkpt>
      <trkpt lat="44.05377" lon="1.94962">
        <ele>212.11</ele>
        <time>2018-09-08T12:42:47Z</time>
      </trkpt>
      <trkpt lat="44.05381" lon="1.9497">
        <ele>214.03</ele>
        <time>2018-09-08T12:42:53Z</time>
      </trkpt>
      <trkpt lat="44.05406" lon="1.94985">
        <ele>214.99</ele>
        <time>2018-09-08T12:43:04Z</time>
      </trkpt>
      <trkpt lat="44.05443" lon="1.94997">
        <ele>214.99</ele>
        <time>2018-09-08T12:43:15Z</time>
      </trkpt>
      <trkpt lat="44.0549" lon="1.95005">
        <ele>214.99</ele>
        <time>2018-09-08T12:43:27Z</time>
      </trkpt>
      <trkpt lat="44.05495" lon="1.95005">
        <ele>214.51</ele>
        <time>2018-09-08T12:43:28Z</time>
      </trkpt>
      <trkpt lat="44.05499" lon="1.95005">
        <ele>214.51</ele>
        <time>2018-09-08T12:43:29Z</time>
      </trkpt>
      <trkpt lat="44.05503" lon="1.95005">
        <ele>214.03</ele>
        <time>2018-09-08T12:43:30Z</time>
      </trkpt>
      <trkpt lat="44.05508" lon="1.95006">
        <ele>214.03</ele>
        <time>2018-09-08T12:43:31Z</time>
      </trkpt>
      <trkpt lat="44.05526" lon="1.95009">
        <ele>214.03</ele>
        <time>2018-09-08T12:43:35Z</time>
      </trkpt>
      <trkpt lat="44.0553" lon="1.9501">
        <ele>213.55</ele>
        <time>2018-09-08T12:43:36Z</time>
      </trkpt>
      <trkpt lat="44.05554" lon="1.95015">
        <ele>211.15</ele>
        <time>2018-09-08T12:43:42Z</time>
      </trkpt>
      <trkpt lat="44.05562" lon="1.95016">
        <ele>209.7</ele>
        <time>2018-09-08T12:43:44Z</time>
      </trkpt>
      <trkpt lat="44.0557" lon="1.95018">
        <ele>208.74</ele>
        <time>2018-09-08T12:43:46Z</time>
      </trkpt>
      <trkpt lat="44.05602" lon="1.95027">
        <ele>206.34</ele>
        <time>2018-09-08T12:43:53Z</time>
      </trkpt>
      <trkpt lat="44.05606" lon="1.95029">
        <ele>206.34</ele>
        <time>2018-09-08T12:43:54Z</time>
      </trkpt>
      <trkpt lat="44.05638" lon="1.95058">
        <ele>202.49</ele>
        <time>2018-09-08T12:44:03Z</time>
      </trkpt>
      <trkpt lat="44.05654" lon="1.95064">
        <ele>200.57</ele>
        <time>2018-09-08T12:44:07Z</time>
      </trkpt>
      <trkpt lat="44.0568" lon="1.95067">
        <ele>197.69</ele>
        <time>2018-09-08T12:44:13Z</time>
      </trkpt>
      <trkpt lat="44.05683" lon="1.95065">
        <ele>197.21</ele>
        <time>2018-09-08T12:44:14Z</time>
      </trkpt>
      <trkpt lat="44.05686" lon="1.95062">
        <ele>197.21</ele>
        <time>2018-09-08T12:44:15Z</time>
      </trkpt>
      <trkpt lat="44.05689" lon="1.95059">
        <ele>197.21</ele>
        <time>2018-09-08T12:44:16Z</time>
      </trkpt>
      <trkpt lat="44.05691" lon="1.95055">
        <ele>196.73</ele>
        <time>2018-09-08T12:44:17Z</time>
      </trkpt>
      <trkpt lat="44.05713" lon="1.95037">
        <ele>196.25</ele>
        <time>2018-09-08T12:44:24Z</time>
      </trkpt>
      <trkpt lat="44.05723" lon="1.95045">
        <ele>195.77</ele>
        <time>2018-09-08T12:44:27Z</time>
      </trkpt>
      <trkpt lat="44.05725" lon="1.95047">
        <ele>195.28</ele>
        <time>2018-09-08T12:44:28Z</time>
      </trkpt>
      <trkpt lat="44.05727" lon="1.95049">
        <ele>195.28</ele>
        <time>2018-09-08T12:44:29Z</time>
      </trkpt>
      <trkpt lat="44.05728" lon="1.95047">
        <ele>194.8</ele>
        <time>2018-09-08T12:44:38Z</time>
      </trkpt>
      <trkpt lat="44.05738" lon="1.9504">
        <ele>195.28</ele>
        <time>2018-09-08T12:45:13Z</time>
      </trkpt>
      <trkpt lat="44.05738" lon="1.95042">
        <ele>195.28</ele>
        <time>2018-09-08T12:45:39Z</time>
      </trkpt>
      <trkpt lat="44.0574" lon="1.95045">
        <ele>195.28</ele>
        <time>2018-09-08T12:45:40Z</time>
      </trkpt>
      <trkpt lat="44.05742" lon="1.95047">
        <ele>195.77</ele>
        <time>2018-09-08T12:45:41Z</time>
      </trkpt>
      <trkpt lat="44.05774" lon="1.95075">
        <ele>194.32</ele>
        <time>2018-09-08T12:45:52Z</time>
      </trkpt>
      <trkpt lat="44.05782" lon="1.9508">
        <ele>193.84</ele>
        <time>2018-09-08T12:45:54Z</time>
      </trkpt>
      <trkpt lat="44.05786" lon="1.95081">
        <ele>194.32</ele>
        <time>2018-09-08T12:45:55Z</time>
      </trkpt>
      <trkpt lat="44.05791" lon="1.95082">
        <ele>194.32</ele>
        <time>2018-09-08T12:45:56Z</time>
      </trkpt>
      <trkpt lat="44.05795" lon="1.95083">
        <ele>194.32</ele>
        <time>2018-09-08T12:45:57Z</time>
      </trkpt>
      <trkpt lat="44.058" lon="1.95083">
        <ele>193.84</ele>
        <time>2018-09-08T12:45:58Z</time>
      </trkpt>
      <trkpt lat="44.05804" lon="1.95083">
        <ele>193.84</ele>
        <time>2018-09-08T12:45:59Z</time>
      </trkpt>
      <trkpt lat="44.05853" lon="1.95077">
        <ele>193.36</ele>
        <time>2018-09-08T12:46:10Z</time>
      </trkpt>
      <trkpt lat="44.05857" lon="1.95078">
        <ele>193.36</ele>
        <time>2018-09-08T12:46:11Z</time>
      </trkpt>
      <trkpt lat="44.05914" lon="1.95084">
        <ele>191.92</ele>
        <time>2018-09-08T12:46:21Z</time>
      </trkpt>
      <trkpt lat="44.0592" lon="1.9508">
        <ele>191.92</ele>
        <time>2018-09-08T12:46:22Z</time>
      </trkpt>
      <trkpt lat="44.05924" lon="1.95073">
        <ele>191.92</ele>
        <time>2018-09-08T12:46:23Z</time>
      </trkpt>
      <trkpt lat="44.05927" lon="1.95065">
        <ele>191.92</ele>
        <time>2018-09-08T12:46:24Z</time>
      </trkpt>
      <trkpt lat="44.05928" lon="1.95056">
        <ele>191.44</ele>
        <time>2018-09-08T12:46:25Z</time>
      </trkpt>
      <trkpt lat="44.05929" lon="1.95048">
        <ele>190.48</ele>
        <time>2018-09-08T12:46:26Z</time>
      </trkpt>
      <trkpt lat="44.0593" lon="1.95039">
        <ele>190.48</ele>
        <time>2018-09-08T12:46:27Z</time>
      </trkpt>
      <trkpt lat="44.05944" lon="1.9488">
        <ele>188.56</ele>
        <time>2018-09-08T12:46:45Z</time>
      </trkpt>
      <trkpt lat="44.0596" lon="1.9474">
        <ele>187.11</ele>
        <time>2018-09-08T12:47:01Z</time>
      </trkpt>
      <trkpt lat="44.05992" lon="1.94612">
        <ele>185.67</ele>
        <time>2018-09-08T12:47:18Z</time>
      </trkpt>
      <trkpt lat="44.06022" lon="1.94482">
        <ele>185.67</ele>
        <time>2018-09-08T12:47:35Z</time>
      </trkpt>
      <trkpt lat="44.06076" lon="1.94385">
        <ele>186.15</ele>
        <time>2018-09-08T12:47:51Z</time>
      </trkpt>
      <trkpt lat="44.06128" lon="1.943">
        <ele>185.19</ele>
        <time>2018-09-08T12:48:05Z</time>
      </trkpt>
      <trkpt lat="44.06189" lon="1.94219">
        <ele>183.75</ele>
        <time>2018-09-08T12:48:19Z</time>
      </trkpt>
      <trkpt lat="44.06269" lon="1.94152">
        <ele>182.31</ele>
        <time>2018-09-08T12:48:33Z</time>
      </trkpt>
      <trkpt lat="44.06323" lon="1.94104">
        <ele>181.83</ele>
        <time>2018-09-08T12:48:43Z</time>
      </trkpt>
      <trkpt lat="44.06426" lon="1.94045">
        <ele>180.38</ele>
        <time>2018-09-08T12:49:00Z</time>
      </trkpt>
      <trkpt lat="44.06506" lon="1.93972">
        <ele>180.38</ele>
        <time>2018-09-08T12:49:16Z</time>
      </trkpt>
      <trkpt lat="44.06566" lon="1.93926">
        <ele>181.35</ele>
        <time>2018-09-08T12:49:29Z</time>
      </trkpt>
      <trkpt lat="44.06609" lon="1.93908">
        <ele>181.83</ele>
        <time>2018-09-08T12:49:38Z</time>
      </trkpt>
      <trkpt lat="44.06613" lon="1.93908">
        <ele>181.83</ele>
        <time>2018-09-08T12:49:39Z</time>
      </trkpt>
      <trkpt lat="44.06617" lon="1.9391">
        <ele>181.83</ele>
        <time>2018-09-08T12:49:40Z</time>
      </trkpt>
      <trkpt lat="44.0665" lon="1.93936">
        <ele>180.38</ele>
        <time>2018-09-08T12:49:53Z</time>
      </trkpt>
    </trkseg>
  </trk>
</gpx>